<?xml version="1.0"?>
<gpx
 version="1.0"
 creator="Tracky"
 xmlns:xsi="http://www.w3.org/2001/XMLSchema-instance"
 xmlns="http://www.topografix.com/GPX/1/0"
 xsi:schemaLocation="http://www.topografix.com/GPX/1/0 http://www.topografix.com/GPX/1/0/gpx.xsd">
<time>2009-10-10T09:28:46Z</time>
<bounds minlat="37.960332" minlon="-1.067129" maxlat="37.975294" maxlon="-1.047365"/>
<trk>
 <color>8519872</color>
 <width>2</width>
<trkseg>
<trkpt lat="37.974967" lon="-1.059977">
 <ele>75.400000</ele>
<time>2009-10-10T09:28:47Z</time>
</trkpt>
<trkpt lat="37.974967" lon="-1.059977">
 <ele>75.400000</ele>
<time>2009-10-10T09:28:48Z</time>
</trkpt>
<trkpt lat="37.974967" lon="-1.059977">
 <ele>75.400000</ele>
<time>2009-10-10T09:28:49Z</time>
</trkpt>
<trkpt lat="37.974967" lon="-1.059977">
 <ele>75.400000</ele>
<time>2009-10-10T09:28:50Z</time>
</trkpt>
<trkpt lat="37.974967" lon="-1.059977">
 <ele>75.400000</ele>
<time>2009-10-10T09:28:51Z</time>
</trkpt>
<trkpt lat="37.974972" lon="-1.059970">
 <ele>73.920000</ele>
<time>2009-10-10T09:28:52Z</time>
</trkpt>
<trkpt lat="37.974999" lon="-1.059949">
 <ele>74.100000</ele>
<time>2009-10-10T09:28:55Z</time>
</trkpt>
<trkpt lat="37.974982" lon="-1.059930">
 <ele>66.920000</ele>
<time>2009-10-10T09:28:56Z</time>
</trkpt>
<trkpt lat="37.975022" lon="-1.059940">
 <ele>71.640000</ele>
<time>2009-10-10T09:29:00Z</time>
</trkpt>
<trkpt lat="37.975004" lon="-1.059932">
 <ele>71.580000</ele>
<time>2009-10-10T09:29:01Z</time>
</trkpt>
<trkpt lat="37.974998" lon="-1.059934">
 <ele>72.680000</ele>
<time>2009-10-10T09:29:02Z</time>
</trkpt>
<trkpt lat="37.975010" lon="-1.059938">
 <ele>70.960000</ele>
<time>2009-10-10T09:29:03Z</time>
</trkpt>
<trkpt lat="37.975006" lon="-1.059933">
 <ele>73.440000</ele>
<time>2009-10-10T09:29:04Z</time>
</trkpt>
<trkpt lat="37.975009" lon="-1.059919">
 <ele>78.420000</ele>
<time>2009-10-10T09:29:07Z</time>
</trkpt>
<trkpt lat="37.975014" lon="-1.059950">
 <ele>80.700000</ele>
<time>2009-10-10T09:29:08Z</time>
</trkpt>
<trkpt lat="37.975015" lon="-1.060008">
 <ele>81.280000</ele>
<time>2009-10-10T09:29:13Z</time>
</trkpt>
<trkpt lat="37.975018" lon="-1.060015">
 <ele>85.440000</ele>
<time>2009-10-10T09:29:14Z</time>
</trkpt>
<trkpt lat="37.975003" lon="-1.059999">
 <ele>84.820000</ele>
<time>2009-10-10T09:29:15Z</time>
</trkpt>
<trkpt lat="37.974989" lon="-1.060038">
 <ele>87.340000</ele>
<time>2009-10-10T09:29:17Z</time>
</trkpt>
<trkpt lat="37.974955" lon="-1.060093">
 <ele>97.300000</ele>
<time>2009-10-10T09:29:20Z</time>
</trkpt>
<trkpt lat="37.974956" lon="-1.060150">
 <ele>100.060000</ele>
<time>2009-10-10T09:29:23Z</time>
</trkpt>
<trkpt lat="37.974974" lon="-1.060174">
 <ele>102.080000</ele>
<time>2009-10-10T09:29:27Z</time>
</trkpt>
<trkpt lat="37.974960" lon="-1.060148">
 <ele>102.540000</ele>
<time>2009-10-10T09:29:28Z</time>
</trkpt>
<trkpt lat="37.974979" lon="-1.060143">
 <ele>103.460000</ele>
<time>2009-10-10T09:29:29Z</time>
</trkpt>
<trkpt lat="37.974972" lon="-1.060145">
 <ele>101.480000</ele>
<time>2009-10-10T09:29:30Z</time>
</trkpt>
<trkpt lat="37.974975" lon="-1.060144">
 <ele>101.260000</ele>
<time>2009-10-10T09:29:31Z</time>
</trkpt>
<trkpt lat="37.974979" lon="-1.060148">
 <ele>101.200000</ele>
<time>2009-10-10T09:29:32Z</time>
</trkpt>
<trkpt lat="37.974962" lon="-1.060122">
 <ele>100.480000</ele>
<time>2009-10-10T09:29:33Z</time>
</trkpt>
<trkpt lat="37.974976" lon="-1.060119">
 <ele>100.360000</ele>
<time>2009-10-10T09:29:34Z</time>
</trkpt>
<trkpt lat="37.974991" lon="-1.060088">
 <ele>100.520000</ele>
<time>2009-10-10T09:29:37Z</time>
</trkpt>
<trkpt lat="37.975014" lon="-1.060070">
 <ele>98.840000</ele>
<time>2009-10-10T09:29:41Z</time>
</trkpt>
<trkpt lat="37.975019" lon="-1.060055">
 <ele>96.560000</ele>
<time>2009-10-10T09:29:42Z</time>
</trkpt>
<trkpt lat="37.975011" lon="-1.060037">
 <ele>96.720000</ele>
<time>2009-10-10T09:29:43Z</time>
</trkpt>
<trkpt lat="37.975012" lon="-1.060040">
 <ele>96.100000</ele>
<time>2009-10-10T09:29:44Z</time>
</trkpt>
<trkpt lat="37.975027" lon="-1.060020">
 <ele>93.980000</ele>
<time>2009-10-10T09:29:46Z</time>
</trkpt>
<trkpt lat="37.975039" lon="-1.060000">
 <ele>97.160000</ele>
<time>2009-10-10T09:29:48Z</time>
</trkpt>
<trkpt lat="37.975040" lon="-1.060025">
 <ele>94.460000</ele>
<time>2009-10-10T09:29:49Z</time>
</trkpt>
<trkpt lat="37.975041" lon="-1.060031">
 <ele>94.240000</ele>
<time>2009-10-10T09:29:50Z</time>
</trkpt>
<trkpt lat="37.975041" lon="-1.060027">
 <ele>96.440000</ele>
<time>2009-10-10T09:29:51Z</time>
</trkpt>
<trkpt lat="37.975044" lon="-1.059974">
 <ele>91.520000</ele>
<time>2009-10-10T09:29:56Z</time>
</trkpt>
<trkpt lat="37.975048" lon="-1.059985">
 <ele>95.000000</ele>
<time>2009-10-10T09:29:58Z</time>
</trkpt>
<trkpt lat="37.975037" lon="-1.059961">
 <ele>92.460000</ele>
<time>2009-10-10T09:30:01Z</time>
</trkpt>
<trkpt lat="37.975042" lon="-1.059961">
 <ele>93.060000</ele>
<time>2009-10-10T09:30:02Z</time>
</trkpt>
<trkpt lat="37.975074" lon="-1.059918">
 <ele>89.460000</ele>
<time>2009-10-10T09:30:06Z</time>
</trkpt>
<trkpt lat="37.975110" lon="-1.059856">
 <ele>85.440000</ele>
<time>2009-10-10T09:30:09Z</time>
</trkpt>
<trkpt lat="37.975124" lon="-1.059758">
 <ele>79.660000</ele>
<time>2009-10-10T09:30:14Z</time>
</trkpt>
<trkpt lat="37.975130" lon="-1.059731">
 <ele>82.340000</ele>
<time>2009-10-10T09:30:17Z</time>
</trkpt>
<trkpt lat="37.975153" lon="-1.059769">
 <ele>92.480000</ele>
<time>2009-10-10T09:30:19Z</time>
</trkpt>
<trkpt lat="37.975155" lon="-1.059786">
 <ele>92.260000</ele>
<time>2009-10-10T09:30:20Z</time>
</trkpt>
<trkpt lat="37.975150" lon="-1.059792">
 <ele>92.080000</ele>
<time>2009-10-10T09:30:21Z</time>
</trkpt>
<trkpt lat="37.975174" lon="-1.059780">
 <ele>94.720000</ele>
<time>2009-10-10T09:30:23Z</time>
</trkpt>
<trkpt lat="37.975196" lon="-1.059764">
 <ele>92.540000</ele>
<time>2009-10-10T09:30:25Z</time>
</trkpt>
<trkpt lat="37.975195" lon="-1.059783">
 <ele>97.420000</ele>
<time>2009-10-10T09:30:26Z</time>
</trkpt>
<trkpt lat="37.975208" lon="-1.059795">
 <ele>98.180000</ele>
<time>2009-10-10T09:30:27Z</time>
</trkpt>
<trkpt lat="37.975212" lon="-1.059783">
 <ele>94.520000</ele>
<time>2009-10-10T09:30:28Z</time>
</trkpt>
<trkpt lat="37.975249" lon="-1.059763">
 <ele>96.020000</ele>
<time>2009-10-10T09:30:33Z</time>
</trkpt>
<trkpt lat="37.975272" lon="-1.059733">
 <ele>96.600000</ele>
<time>2009-10-10T09:30:35Z</time>
</trkpt>
<trkpt lat="37.975294" lon="-1.059720">
 <ele>101.160000</ele>
<time>2009-10-10T09:30:38Z</time>
</trkpt>
<trkpt lat="37.975277" lon="-1.059722">
 <ele>103.840000</ele>
<time>2009-10-10T09:30:39Z</time>
</trkpt>
<trkpt lat="37.975237" lon="-1.059731">
 <ele>107.820000</ele>
<time>2009-10-10T09:30:42Z</time>
</trkpt>
<trkpt lat="37.975230" lon="-1.059732">
 <ele>107.960000</ele>
<time>2009-10-10T09:30:43Z</time>
</trkpt>
<trkpt lat="37.975192" lon="-1.059733">
 <ele>116.480000</ele>
<time>2009-10-10T09:30:48Z</time>
</trkpt>
<trkpt lat="37.975185" lon="-1.059727">
 <ele>116.500000</ele>
<time>2009-10-10T09:30:50Z</time>
</trkpt>
<trkpt lat="37.975145" lon="-1.059661">
 <ele>115.020000</ele>
<time>2009-10-10T09:30:55Z</time>
</trkpt>
<trkpt lat="37.975148" lon="-1.059667">
 <ele>114.420000</ele>
<time>2009-10-10T09:30:56Z</time>
</trkpt>
<trkpt lat="37.975140" lon="-1.059649">
 <ele>112.860000</ele>
<time>2009-10-10T09:30:57Z</time>
</trkpt>
<trkpt lat="37.975104" lon="-1.059578">
 <ele>111.740000</ele>
<time>2009-10-10T09:31:01Z</time>
</trkpt>
<trkpt lat="37.975010" lon="-1.059508">
 <ele>111.680000</ele>
<time>2009-10-10T09:31:05Z</time>
</trkpt>
<trkpt lat="37.974722" lon="-1.059324">
 <ele>100.900000</ele>
<time>2009-10-10T09:31:16Z</time>
</trkpt>
<trkpt lat="37.974708" lon="-1.059319">
 <ele>96.100000</ele>
<time>2009-10-10T09:31:18Z</time>
</trkpt>
<trkpt lat="37.974669" lon="-1.059331">
 <ele>100.760000</ele>
<time>2009-10-10T09:31:20Z</time>
</trkpt>
<trkpt lat="37.974600" lon="-1.059417">
 <ele>115.600000</ele>
<time>2009-10-10T09:31:25Z</time>
</trkpt>
<trkpt lat="37.974598" lon="-1.059457">
 <ele>120.140000</ele>
<time>2009-10-10T09:31:27Z</time>
</trkpt>
<trkpt lat="37.974602" lon="-1.059479">
 <ele>119.280000</ele>
<time>2009-10-10T09:31:28Z</time>
</trkpt>
<trkpt lat="37.974597" lon="-1.059467">
 <ele>120.360000</ele>
<time>2009-10-10T09:31:29Z</time>
</trkpt>
<trkpt lat="37.974603" lon="-1.059468">
 <ele>119.820000</ele>
<time>2009-10-10T09:31:30Z</time>
</trkpt>
<trkpt lat="37.974590" lon="-1.059460">
 <ele>119.300000</ele>
<time>2009-10-10T09:31:31Z</time>
</trkpt>
<trkpt lat="37.974539" lon="-1.059386">
 <ele>113.140000</ele>
<time>2009-10-10T09:31:35Z</time>
</trkpt>
<trkpt lat="37.974532" lon="-1.059369">
 <ele>111.420000</ele>
<time>2009-10-10T09:31:36Z</time>
</trkpt>
<trkpt lat="37.974520" lon="-1.059373">
 <ele>107.980000</ele>
<time>2009-10-10T09:31:37Z</time>
</trkpt>
<trkpt lat="37.974463" lon="-1.059350">
 <ele>106.040000</ele>
<time>2009-10-10T09:31:39Z</time>
</trkpt>
<trkpt lat="37.974344" lon="-1.059282">
 <ele>106.340000</ele>
<time>2009-10-10T09:31:48Z</time>
</trkpt>
<trkpt lat="37.974333" lon="-1.059265">
 <ele>110.800000</ele>
<time>2009-10-10T09:31:50Z</time>
</trkpt>
<trkpt lat="37.974324" lon="-1.059265">
 <ele>110.460000</ele>
<time>2009-10-10T09:31:53Z</time>
</trkpt>
<trkpt lat="37.974310" lon="-1.059229">
 <ele>112.600000</ele>
<time>2009-10-10T09:31:54Z</time>
</trkpt>
<trkpt lat="37.974259" lon="-1.059206">
 <ele>107.820000</ele>
<time>2009-10-10T09:31:57Z</time>
</trkpt>
<trkpt lat="37.974127" lon="-1.059134">
 <ele>95.700000</ele>
<time>2009-10-10T09:32:04Z</time>
</trkpt>
<trkpt lat="37.974083" lon="-1.059090">
 <ele>97.600000</ele>
<time>2009-10-10T09:32:09Z</time>
</trkpt>
<trkpt lat="37.974062" lon="-1.059093">
 <ele>99.140000</ele>
<time>2009-10-10T09:32:10Z</time>
</trkpt>
<trkpt lat="37.974060" lon="-1.059074">
 <ele>96.420000</ele>
<time>2009-10-10T09:32:12Z</time>
</trkpt>
<trkpt lat="37.974011" lon="-1.059031">
 <ele>97.260000</ele>
<time>2009-10-10T09:32:17Z</time>
</trkpt>
<trkpt lat="37.974014" lon="-1.059013">
 <ele>96.480000</ele>
<time>2009-10-10T09:32:19Z</time>
</trkpt>
<trkpt lat="37.974022" lon="-1.059011">
 <ele>92.260000</ele>
<time>2009-10-10T09:32:20Z</time>
</trkpt>
<trkpt lat="37.974017" lon="-1.059012">
 <ele>90.060000</ele>
<time>2009-10-10T09:32:21Z</time>
</trkpt>
<trkpt lat="37.974007" lon="-1.058965">
 <ele>90.020000</ele>
<time>2009-10-10T09:32:23Z</time>
</trkpt>
<trkpt lat="37.973958" lon="-1.058899">
 <ele>95.600000</ele>
<time>2009-10-10T09:32:30Z</time>
</trkpt>
<trkpt lat="37.973947" lon="-1.058891">
 <ele>97.520000</ele>
<time>2009-10-10T09:32:31Z</time>
</trkpt>
<trkpt lat="37.973937" lon="-1.058903">
 <ele>98.280000</ele>
<time>2009-10-10T09:32:32Z</time>
</trkpt>
<trkpt lat="37.973929" lon="-1.058902">
 <ele>98.640000</ele>
<time>2009-10-10T09:32:33Z</time>
</trkpt>
<trkpt lat="37.973916" lon="-1.058896">
 <ele>96.240000</ele>
<time>2009-10-10T09:32:34Z</time>
</trkpt>
<trkpt lat="37.973912" lon="-1.058902">
 <ele>99.920000</ele>
<time>2009-10-10T09:32:35Z</time>
</trkpt>
<trkpt lat="37.973835" lon="-1.058910">
 <ele>100.680000</ele>
<time>2009-10-10T09:32:38Z</time>
</trkpt>
<trkpt lat="37.973733" lon="-1.058941">
 <ele>105.640000</ele>
<time>2009-10-10T09:32:42Z</time>
</trkpt>
<trkpt lat="37.973726" lon="-1.058930">
 <ele>112.360000</ele>
<time>2009-10-10T09:32:44Z</time>
</trkpt>
<trkpt lat="37.973717" lon="-1.058935">
 <ele>115.520000</ele>
<time>2009-10-10T09:32:46Z</time>
</trkpt>
<trkpt lat="37.973716" lon="-1.058935">
 <ele>114.780000</ele>
<time>2009-10-10T09:32:47Z</time>
</trkpt>
<trkpt lat="37.973727" lon="-1.058956">
 <ele>117.560000</ele>
<time>2009-10-10T09:32:48Z</time>
</trkpt>
<trkpt lat="37.973671" lon="-1.058920">
 <ele>124.000000</ele>
<time>2009-10-10T09:32:52Z</time>
</trkpt>
<trkpt lat="37.973615" lon="-1.058860">
 <ele>123.140000</ele>
<time>2009-10-10T09:32:57Z</time>
</trkpt>
<trkpt lat="37.973367" lon="-1.058763">
 <ele>117.740000</ele>
<time>2009-10-10T09:33:10Z</time>
</trkpt>
<trkpt lat="37.973361" lon="-1.058758">
 <ele>116.140000</ele>
<time>2009-10-10T09:33:11Z</time>
</trkpt>
<trkpt lat="37.973362" lon="-1.058776">
 <ele>117.600000</ele>
<time>2009-10-10T09:33:12Z</time>
</trkpt>
<trkpt lat="37.973352" lon="-1.058771">
 <ele>114.960000</ele>
<time>2009-10-10T09:33:13Z</time>
</trkpt>
<trkpt lat="37.973374" lon="-1.058762">
 <ele>115.540000</ele>
<time>2009-10-10T09:33:14Z</time>
</trkpt>
<trkpt lat="37.973379" lon="-1.058741">
 <ele>111.540000</ele>
<time>2009-10-10T09:33:17Z</time>
</trkpt>
<trkpt lat="37.973370" lon="-1.058726">
 <ele>110.820000</ele>
<time>2009-10-10T09:33:19Z</time>
</trkpt>
<trkpt lat="37.973353" lon="-1.058725">
 <ele>108.300000</ele>
<time>2009-10-10T09:33:21Z</time>
</trkpt>
<trkpt lat="37.973353" lon="-1.058681">
 <ele>110.120000</ele>
<time>2009-10-10T09:33:22Z</time>
</trkpt>
<trkpt lat="37.973309" lon="-1.058568">
 <ele>105.420000</ele>
<time>2009-10-10T09:33:26Z</time>
</trkpt>
<trkpt lat="37.973200" lon="-1.058453">
 <ele>98.180000</ele>
<time>2009-10-10T09:33:31Z</time>
</trkpt>
<trkpt lat="37.972850" lon="-1.058422">
 <ele>101.920000</ele>
<time>2009-10-10T09:33:52Z</time>
</trkpt>
<trkpt lat="37.972726" lon="-1.058372">
 <ele>107.220000</ele>
<time>2009-10-10T09:34:03Z</time>
</trkpt>
<trkpt lat="37.972725" lon="-1.058357">
 <ele>105.740000</ele>
<time>2009-10-10T09:34:04Z</time>
</trkpt>
<trkpt lat="37.972684" lon="-1.058321">
 <ele>104.560000</ele>
<time>2009-10-10T09:34:08Z</time>
</trkpt>
<trkpt lat="37.972566" lon="-1.058229">
 <ele>99.320000</ele>
<time>2009-10-10T09:34:17Z</time>
</trkpt>
<trkpt lat="37.972471" lon="-1.058178">
 <ele>92.220000</ele>
<time>2009-10-10T09:34:24Z</time>
</trkpt>
<trkpt lat="37.972404" lon="-1.058222">
 <ele>99.520000</ele>
<time>2009-10-10T09:34:31Z</time>
</trkpt>
<trkpt lat="37.972357" lon="-1.058232">
 <ele>103.940000</ele>
<time>2009-10-10T09:34:37Z</time>
</trkpt>
<trkpt lat="37.972344" lon="-1.058161">
 <ele>97.600000</ele>
<time>2009-10-10T09:34:40Z</time>
</trkpt>
<trkpt lat="37.972265" lon="-1.058008">
 <ele>93.620000</ele>
<time>2009-10-10T09:34:48Z</time>
</trkpt>
<trkpt lat="37.972221" lon="-1.057785">
 <ele>88.720000</ele>
<time>2009-10-10T09:35:00Z</time>
</trkpt>
<trkpt lat="37.972266" lon="-1.057552">
 <ele>88.720000</ele>
<time>2009-10-10T09:35:15Z</time>
</trkpt>
<trkpt lat="37.972336" lon="-1.057406">
 <ele>88.420000</ele>
<time>2009-10-10T09:35:26Z</time>
</trkpt>
<trkpt lat="37.972677" lon="-1.056995">
 <ele>89.580000</ele>
<time>2009-10-10T09:36:07Z</time>
</trkpt>
<trkpt lat="37.972817" lon="-1.056787">
 <ele>91.720000</ele>
<time>2009-10-10T09:36:25Z</time>
</trkpt>
<trkpt lat="37.972820" lon="-1.056787">
 <ele>89.620000</ele>
<time>2009-10-10T09:36:27Z</time>
</trkpt>
<trkpt lat="37.972829" lon="-1.056771">
 <ele>91.100000</ele>
<time>2009-10-10T09:36:28Z</time>
</trkpt>
<trkpt lat="37.972864" lon="-1.056615">
 <ele>89.520000</ele>
<time>2009-10-10T09:36:41Z</time>
</trkpt>
<trkpt lat="37.972789" lon="-1.056443">
 <ele>92.840000</ele>
<time>2009-10-10T09:36:56Z</time>
</trkpt>
<trkpt lat="37.972800" lon="-1.056436">
 <ele>93.980000</ele>
<time>2009-10-10T09:36:58Z</time>
</trkpt>
<trkpt lat="37.972799" lon="-1.056440">
 <ele>96.080000</ele>
<time>2009-10-10T09:36:59Z</time>
</trkpt>
<trkpt lat="37.972804" lon="-1.056415">
 <ele>96.320000</ele>
<time>2009-10-10T09:37:00Z</time>
</trkpt>
<trkpt lat="37.972780" lon="-1.056323">
 <ele>94.220000</ele>
<time>2009-10-10T09:37:08Z</time>
</trkpt>
<trkpt lat="37.972779" lon="-1.056326">
 <ele>93.660000</ele>
<time>2009-10-10T09:37:09Z</time>
</trkpt>
<trkpt lat="37.972783" lon="-1.056298">
 <ele>95.960000</ele>
<time>2009-10-10T09:37:10Z</time>
</trkpt>
<trkpt lat="37.972786" lon="-1.056307">
 <ele>95.840000</ele>
<time>2009-10-10T09:37:12Z</time>
</trkpt>
<trkpt lat="37.972772" lon="-1.056294">
 <ele>96.780000</ele>
<time>2009-10-10T09:37:14Z</time>
</trkpt>
<trkpt lat="37.972762" lon="-1.056313">
 <ele>97.140000</ele>
<time>2009-10-10T09:37:15Z</time>
</trkpt>
<trkpt lat="37.972747" lon="-1.056313">
 <ele>99.820000</ele>
<time>2009-10-10T09:37:18Z</time>
</trkpt>
<trkpt lat="37.972764" lon="-1.056282">
 <ele>101.320000</ele>
<time>2009-10-10T09:37:21Z</time>
</trkpt>
<trkpt lat="37.972771" lon="-1.056214">
 <ele>100.120000</ele>
<time>2009-10-10T09:37:26Z</time>
</trkpt>
<trkpt lat="37.972792" lon="-1.056133">
 <ele>100.300000</ele>
<time>2009-10-10T09:37:32Z</time>
</trkpt>
<trkpt lat="37.972812" lon="-1.056006">
 <ele>104.240000</ele>
<time>2009-10-10T09:37:44Z</time>
</trkpt>
<trkpt lat="37.972818" lon="-1.056013">
 <ele>103.380000</ele>
<time>2009-10-10T09:37:45Z</time>
</trkpt>
<trkpt lat="37.972811" lon="-1.055989">
 <ele>103.380000</ele>
<time>2009-10-10T09:37:46Z</time>
</trkpt>
<trkpt lat="37.972816" lon="-1.055863">
 <ele>102.040000</ele>
<time>2009-10-10T09:37:53Z</time>
</trkpt>
<trkpt lat="37.972814" lon="-1.055806">
 <ele>103.240000</ele>
<time>2009-10-10T09:37:59Z</time>
</trkpt>
<trkpt lat="37.972813" lon="-1.055803">
 <ele>103.120000</ele>
<time>2009-10-10T09:38:00Z</time>
</trkpt>
<trkpt lat="37.972819" lon="-1.055801">
 <ele>102.320000</ele>
<time>2009-10-10T09:38:01Z</time>
</trkpt>
<trkpt lat="37.972817" lon="-1.055750">
 <ele>102.800000</ele>
<time>2009-10-10T09:38:04Z</time>
</trkpt>
<trkpt lat="37.972786" lon="-1.055659">
 <ele>104.240000</ele>
<time>2009-10-10T09:38:12Z</time>
</trkpt>
<trkpt lat="37.972794" lon="-1.055665">
 <ele>104.860000</ele>
<time>2009-10-10T09:38:13Z</time>
</trkpt>
<trkpt lat="37.972788" lon="-1.055658">
 <ele>104.240000</ele>
<time>2009-10-10T09:38:14Z</time>
</trkpt>
<trkpt lat="37.972792" lon="-1.055664">
 <ele>104.480000</ele>
<time>2009-10-10T09:38:15Z</time>
</trkpt>
<trkpt lat="37.972787" lon="-1.055655">
 <ele>104.720000</ele>
<time>2009-10-10T09:38:16Z</time>
</trkpt>
<trkpt lat="37.972787" lon="-1.055655">
 <ele>104.400000</ele>
<time>2009-10-10T09:38:17Z</time>
</trkpt>
<trkpt lat="37.972783" lon="-1.055636">
 <ele>105.480000</ele>
<time>2009-10-10T09:38:22Z</time>
</trkpt>
<trkpt lat="37.972749" lon="-1.055554">
 <ele>110.680000</ele>
<time>2009-10-10T09:38:26Z</time>
</trkpt>
<trkpt lat="37.972746" lon="-1.055552">
 <ele>109.400000</ele>
<time>2009-10-10T09:38:27Z</time>
</trkpt>
<trkpt lat="37.972754" lon="-1.055555">
 <ele>109.620000</ele>
<time>2009-10-10T09:38:28Z</time>
</trkpt>
<trkpt lat="37.972746" lon="-1.055551">
 <ele>109.700000</ele>
<time>2009-10-10T09:38:29Z</time>
</trkpt>
<trkpt lat="37.972752" lon="-1.055551">
 <ele>109.400000</ele>
<time>2009-10-10T09:38:30Z</time>
</trkpt>
<trkpt lat="37.972747" lon="-1.055550">
 <ele>109.800000</ele>
<time>2009-10-10T09:38:31Z</time>
</trkpt>
<trkpt lat="37.972747" lon="-1.055550">
 <ele>109.400000</ele>
<time>2009-10-10T09:38:32Z</time>
</trkpt>
<trkpt lat="37.972734" lon="-1.055527">
 <ele>108.800000</ele>
<time>2009-10-10T09:38:41Z</time>
</trkpt>
<trkpt lat="37.972692" lon="-1.055467">
 <ele>107.060000</ele>
<time>2009-10-10T09:38:43Z</time>
</trkpt>
<trkpt lat="37.972658" lon="-1.055416">
 <ele>106.600000</ele>
<time>2009-10-10T09:38:46Z</time>
</trkpt>
<trkpt lat="37.972673" lon="-1.055426">
 <ele>106.600000</ele>
<time>2009-10-10T09:38:47Z</time>
</trkpt>
<trkpt lat="37.972661" lon="-1.055411">
 <ele>106.420000</ele>
<time>2009-10-10T09:38:48Z</time>
</trkpt>
<trkpt lat="37.972675" lon="-1.055411">
 <ele>106.340000</ele>
<time>2009-10-10T09:38:49Z</time>
</trkpt>
<trkpt lat="37.972673" lon="-1.055391">
 <ele>107.740000</ele>
<time>2009-10-10T09:38:50Z</time>
</trkpt>
<trkpt lat="37.972677" lon="-1.055374">
 <ele>108.260000</ele>
<time>2009-10-10T09:38:51Z</time>
</trkpt>
<trkpt lat="37.972676" lon="-1.055389">
 <ele>108.440000</ele>
<time>2009-10-10T09:38:52Z</time>
</trkpt>
<trkpt lat="37.972672" lon="-1.055386">
 <ele>108.680000</ele>
<time>2009-10-10T09:38:53Z</time>
</trkpt>
<trkpt lat="37.972658" lon="-1.055356">
 <ele>109.480000</ele>
<time>2009-10-10T09:38:56Z</time>
</trkpt>
<trkpt lat="37.972669" lon="-1.055368">
 <ele>110.180000</ele>
<time>2009-10-10T09:38:57Z</time>
</trkpt>
<trkpt lat="37.972671" lon="-1.055372">
 <ele>109.980000</ele>
<time>2009-10-10T09:38:58Z</time>
</trkpt>
<trkpt lat="37.972667" lon="-1.055371">
 <ele>109.740000</ele>
<time>2009-10-10T09:38:59Z</time>
</trkpt>
<trkpt lat="37.972667" lon="-1.055368">
 <ele>110.540000</ele>
<time>2009-10-10T09:39:00Z</time>
</trkpt>
<trkpt lat="37.972667" lon="-1.055368">
 <ele>109.900000</ele>
<time>2009-10-10T09:39:01Z</time>
</trkpt>
<trkpt lat="37.972668" lon="-1.055363">
 <ele>114.380000</ele>
<time>2009-10-10T09:39:28Z</time>
</trkpt>
<trkpt lat="37.972672" lon="-1.055322">
 <ele>112.420000</ele>
<time>2009-10-10T09:39:31Z</time>
</trkpt>
<trkpt lat="37.972672" lon="-1.055346">
 <ele>130.180000</ele>
<time>2009-10-10T09:39:32Z</time>
</trkpt>
<trkpt lat="37.972676" lon="-1.055337">
 <ele>122.060000</ele>
<time>2009-10-10T09:39:33Z</time>
</trkpt>
<trkpt lat="37.972675" lon="-1.055342">
 <ele>121.020000</ele>
<time>2009-10-10T09:39:34Z</time>
</trkpt>
<trkpt lat="37.972675" lon="-1.055335">
 <ele>121.820000</ele>
<time>2009-10-10T09:39:35Z</time>
</trkpt>
<trkpt lat="37.972675" lon="-1.055335">
 <ele>121.500000</ele>
<time>2009-10-10T09:39:36Z</time>
</trkpt>
<trkpt lat="37.972671" lon="-1.055318">
 <ele>122.020000</ele>
<time>2009-10-10T09:40:09Z</time>
</trkpt>
<trkpt lat="37.972657" lon="-1.055257">
 <ele>121.800000</ele>
<time>2009-10-10T09:40:12Z</time>
</trkpt>
<trkpt lat="37.972650" lon="-1.055270">
 <ele>124.140000</ele>
<time>2009-10-10T09:40:13Z</time>
</trkpt>
<trkpt lat="37.972650" lon="-1.055254">
 <ele>122.660000</ele>
<time>2009-10-10T09:40:14Z</time>
</trkpt>
<trkpt lat="37.972652" lon="-1.055258">
 <ele>123.060000</ele>
<time>2009-10-10T09:40:15Z</time>
</trkpt>
<trkpt lat="37.972650" lon="-1.055257">
 <ele>122.900000</ele>
<time>2009-10-10T09:40:16Z</time>
</trkpt>
<trkpt lat="37.972650" lon="-1.055257">
 <ele>122.900000</ele>
<time>2009-10-10T09:40:17Z</time>
</trkpt>
<trkpt lat="37.972639" lon="-1.055231">
 <ele>122.900000</ele>
<time>2009-10-10T09:40:31Z</time>
</trkpt>
<trkpt lat="37.972602" lon="-1.055130">
 <ele>123.860000</ele>
<time>2009-10-10T09:40:34Z</time>
</trkpt>
<trkpt lat="37.972580" lon="-1.055126">
 <ele>123.800000</ele>
<time>2009-10-10T09:40:35Z</time>
</trkpt>
<trkpt lat="37.972583" lon="-1.055125">
 <ele>123.840000</ele>
<time>2009-10-10T09:40:36Z</time>
</trkpt>
<trkpt lat="37.972590" lon="-1.055131">
 <ele>123.960000</ele>
<time>2009-10-10T09:40:37Z</time>
</trkpt>
<trkpt lat="37.972585" lon="-1.055123">
 <ele>123.960000</ele>
<time>2009-10-10T09:40:38Z</time>
</trkpt>
<trkpt lat="37.972585" lon="-1.055123">
 <ele>123.800000</ele>
<time>2009-10-10T09:40:39Z</time>
</trkpt>
<trkpt lat="37.972585" lon="-1.055123">
 <ele>123.800000</ele>
<time>2009-10-10T09:40:40Z</time>
</trkpt>
<trkpt lat="37.972585" lon="-1.055123">
 <ele>123.800000</ele>
<time>2009-10-10T09:40:41Z</time>
</trkpt>
<trkpt lat="37.972585" lon="-1.055123">
 <ele>123.800000</ele>
<time>2009-10-10T09:40:42Z</time>
</trkpt>
<trkpt lat="37.972585" lon="-1.055123">
 <ele>123.800000</ele>
<time>2009-10-10T09:40:43Z</time>
</trkpt>
<trkpt lat="37.972563" lon="-1.055070">
 <ele>125.600000</ele>
<time>2009-10-10T09:40:47Z</time>
</trkpt>
<trkpt lat="37.972564" lon="-1.055082">
 <ele>130.580000</ele>
<time>2009-10-10T09:40:48Z</time>
</trkpt>
<trkpt lat="37.972556" lon="-1.055079">
 <ele>128.280000</ele>
<time>2009-10-10T09:40:49Z</time>
</trkpt>
<trkpt lat="37.972565" lon="-1.055084">
 <ele>128.180000</ele>
<time>2009-10-10T09:40:50Z</time>
</trkpt>
<trkpt lat="37.972560" lon="-1.055077">
 <ele>128.340000</ele>
<time>2009-10-10T09:40:51Z</time>
</trkpt>
<trkpt lat="37.972560" lon="-1.055077">
 <ele>128.100000</ele>
<time>2009-10-10T09:40:52Z</time>
</trkpt>
<trkpt lat="37.972557" lon="-1.055030">
 <ele>131.100000</ele>
<time>2009-10-10T09:41:32Z</time>
</trkpt>
<trkpt lat="37.972541" lon="-1.054936">
 <ele>140.300000</ele>
<time>2009-10-10T09:41:34Z</time>
</trkpt>
<trkpt lat="37.972529" lon="-1.054885">
 <ele>129.920000</ele>
<time>2009-10-10T09:41:35Z</time>
</trkpt>
<trkpt lat="37.972541" lon="-1.054828">
 <ele>141.640000</ele>
<time>2009-10-10T09:41:36Z</time>
</trkpt>
<trkpt lat="37.972538" lon="-1.054832">
 <ele>135.960000</ele>
<time>2009-10-10T09:41:37Z</time>
</trkpt>
<trkpt lat="37.972547" lon="-1.054835">
 <ele>135.800000</ele>
<time>2009-10-10T09:41:38Z</time>
</trkpt>
<trkpt lat="37.972538" lon="-1.054830">
 <ele>135.800000</ele>
<time>2009-10-10T09:41:39Z</time>
</trkpt>
<trkpt lat="37.972538" lon="-1.054830">
 <ele>135.800000</ele>
<time>2009-10-10T09:41:40Z</time>
</trkpt>
<trkpt lat="37.972514" lon="-1.054811">
 <ele>138.560000</ele>
<time>2009-10-10T09:42:02Z</time>
</trkpt>
<trkpt lat="37.972393" lon="-1.054720">
 <ele>143.260000</ele>
<time>2009-10-10T09:42:08Z</time>
</trkpt>
<trkpt lat="37.972401" lon="-1.054727">
 <ele>143.180000</ele>
<time>2009-10-10T09:42:09Z</time>
</trkpt>
<trkpt lat="37.972399" lon="-1.054730">
 <ele>143.760000</ele>
<time>2009-10-10T09:42:10Z</time>
</trkpt>
<trkpt lat="37.972403" lon="-1.054726">
 <ele>143.060000</ele>
<time>2009-10-10T09:42:11Z</time>
</trkpt>
<trkpt lat="37.972397" lon="-1.054725">
 <ele>143.380000</ele>
<time>2009-10-10T09:42:12Z</time>
</trkpt>
<trkpt lat="37.972397" lon="-1.054725">
 <ele>143.300000</ele>
<time>2009-10-10T09:42:13Z</time>
</trkpt>
<trkpt lat="37.972337" lon="-1.054748">
 <ele>151.620000</ele>
<time>2009-10-10T09:43:45Z</time>
</trkpt>
<trkpt lat="37.972206" lon="-1.054799">
 <ele>177.120000</ele>
<time>2009-10-10T09:43:47Z</time>
</trkpt>
<trkpt lat="37.972084" lon="-1.054832">
 <ele>165.920000</ele>
<time>2009-10-10T09:43:50Z</time>
</trkpt>
<trkpt lat="37.972085" lon="-1.054850">
 <ele>166.300000</ele>
<time>2009-10-10T09:43:51Z</time>
</trkpt>
<trkpt lat="37.972081" lon="-1.054838">
 <ele>166.580000</ele>
<time>2009-10-10T09:43:52Z</time>
</trkpt>
<trkpt lat="37.972089" lon="-1.054838">
 <ele>165.940000</ele>
<time>2009-10-10T09:43:53Z</time>
</trkpt>
<trkpt lat="37.972083" lon="-1.054833">
 <ele>166.580000</ele>
<time>2009-10-10T09:43:54Z</time>
</trkpt>
<trkpt lat="37.972079" lon="-1.054781">
 <ele>166.720000</ele>
<time>2009-10-10T09:43:57Z</time>
</trkpt>
<trkpt lat="37.972076" lon="-1.054786">
 <ele>167.680000</ele>
<time>2009-10-10T09:43:58Z</time>
</trkpt>
<trkpt lat="37.972079" lon="-1.054774">
 <ele>167.740000</ele>
<time>2009-10-10T09:43:59Z</time>
</trkpt>
<trkpt lat="37.972072" lon="-1.054759">
 <ele>169.440000</ele>
<time>2009-10-10T09:44:02Z</time>
</trkpt>
<trkpt lat="37.972073" lon="-1.054759">
 <ele>169.820000</ele>
<time>2009-10-10T09:44:03Z</time>
</trkpt>
<trkpt lat="37.972069" lon="-1.054765">
 <ele>169.840000</ele>
<time>2009-10-10T09:44:04Z</time>
</trkpt>
<trkpt lat="37.972072" lon="-1.054768">
 <ele>169.580000</ele>
<time>2009-10-10T09:44:05Z</time>
</trkpt>
<trkpt lat="37.972070" lon="-1.054760">
 <ele>169.740000</ele>
<time>2009-10-10T09:44:06Z</time>
</trkpt>
<trkpt lat="37.972070" lon="-1.054760">
 <ele>169.500000</ele>
<time>2009-10-10T09:44:07Z</time>
</trkpt>
<trkpt lat="37.972057" lon="-1.054750">
 <ele>169.380000</ele>
<time>2009-10-10T09:44:19Z</time>
</trkpt>
<trkpt lat="37.971997" lon="-1.054704">
 <ele>169.100000</ele>
<time>2009-10-10T09:44:22Z</time>
</trkpt>
<trkpt lat="37.971968" lon="-1.054666">
 <ele>169.400000</ele>
<time>2009-10-10T09:44:28Z</time>
</trkpt>
<trkpt lat="37.971932" lon="-1.054630">
 <ele>167.780000</ele>
<time>2009-10-10T09:44:33Z</time>
</trkpt>
<trkpt lat="37.971927" lon="-1.054618">
 <ele>168.980000</ele>
<time>2009-10-10T09:44:35Z</time>
</trkpt>
<trkpt lat="37.971916" lon="-1.054607">
 <ele>169.560000</ele>
<time>2009-10-10T09:44:37Z</time>
</trkpt>
<trkpt lat="37.971917" lon="-1.054610">
 <ele>170.300000</ele>
<time>2009-10-10T09:44:38Z</time>
</trkpt>
<trkpt lat="37.971918" lon="-1.054614">
 <ele>170.180000</ele>
<time>2009-10-10T09:44:39Z</time>
</trkpt>
<trkpt lat="37.971925" lon="-1.054617">
 <ele>169.740000</ele>
<time>2009-10-10T09:44:40Z</time>
</trkpt>
<trkpt lat="37.971918" lon="-1.054610">
 <ele>170.380000</ele>
<time>2009-10-10T09:44:41Z</time>
</trkpt>
<trkpt lat="37.971918" lon="-1.054610">
 <ele>169.900000</ele>
<time>2009-10-10T09:44:42Z</time>
</trkpt>
<trkpt lat="37.971911" lon="-1.054593">
 <ele>171.380000</ele>
<time>2009-10-10T09:44:50Z</time>
</trkpt>
<trkpt lat="37.971715" lon="-1.054436">
 <ele>175.960000</ele>
<time>2009-10-10T09:45:12Z</time>
</trkpt>
<trkpt lat="37.971693" lon="-1.054441">
 <ele>177.640000</ele>
<time>2009-10-10T09:45:16Z</time>
</trkpt>
<trkpt lat="37.971652" lon="-1.054413">
 <ele>179.320000</ele>
<time>2009-10-10T09:45:21Z</time>
</trkpt>
<trkpt lat="37.971648" lon="-1.054413">
 <ele>179.200000</ele>
<time>2009-10-10T09:45:22Z</time>
</trkpt>
<trkpt lat="37.971635" lon="-1.054397">
 <ele>179.680000</ele>
<time>2009-10-10T09:45:25Z</time>
</trkpt>
<trkpt lat="37.971635" lon="-1.054402">
 <ele>179.440000</ele>
<time>2009-10-10T09:45:26Z</time>
</trkpt>
<trkpt lat="37.971635" lon="-1.054410">
 <ele>179.920000</ele>
<time>2009-10-10T09:45:27Z</time>
</trkpt>
<trkpt lat="37.971641" lon="-1.054405">
 <ele>179.600000</ele>
<time>2009-10-10T09:45:28Z</time>
</trkpt>
<trkpt lat="37.971635" lon="-1.054402">
 <ele>179.600000</ele>
<time>2009-10-10T09:45:29Z</time>
</trkpt>
<trkpt lat="37.971635" lon="-1.054402">
 <ele>179.600000</ele>
<time>2009-10-10T09:45:30Z</time>
</trkpt>
<trkpt lat="37.971625" lon="-1.054391">
 <ele>179.560000</ele>
<time>2009-10-10T09:45:34Z</time>
</trkpt>
<trkpt lat="37.971568" lon="-1.054319">
 <ele>180.260000</ele>
<time>2009-10-10T09:45:37Z</time>
</trkpt>
<trkpt lat="37.971558" lon="-1.054292">
 <ele>178.860000</ele>
<time>2009-10-10T09:45:41Z</time>
</trkpt>
<trkpt lat="37.971565" lon="-1.054285">
 <ele>179.560000</ele>
<time>2009-10-10T09:45:42Z</time>
</trkpt>
<trkpt lat="37.971559" lon="-1.054287">
 <ele>178.840000</ele>
<time>2009-10-10T09:45:43Z</time>
</trkpt>
<trkpt lat="37.971561" lon="-1.054297">
 <ele>179.200000</ele>
<time>2009-10-10T09:45:44Z</time>
</trkpt>
<trkpt lat="37.971556" lon="-1.054275">
 <ele>179.000000</ele>
<time>2009-10-10T09:45:45Z</time>
</trkpt>
<trkpt lat="37.971529" lon="-1.054213">
 <ele>179.380000</ele>
<time>2009-10-10T09:45:49Z</time>
</trkpt>
<trkpt lat="37.971523" lon="-1.054202">
 <ele>178.960000</ele>
<time>2009-10-10T09:45:50Z</time>
</trkpt>
<trkpt lat="37.971442" lon="-1.054130">
 <ele>182.560000</ele>
<time>2009-10-10T09:46:02Z</time>
</trkpt>
<trkpt lat="37.971435" lon="-1.054116">
 <ele>182.420000</ele>
<time>2009-10-10T09:46:04Z</time>
</trkpt>
<trkpt lat="37.971442" lon="-1.054107">
 <ele>182.180000</ele>
<time>2009-10-10T09:46:05Z</time>
</trkpt>
<trkpt lat="37.971441" lon="-1.054108">
 <ele>182.760000</ele>
<time>2009-10-10T09:46:06Z</time>
</trkpt>
<trkpt lat="37.971437" lon="-1.054120">
 <ele>182.060000</ele>
<time>2009-10-10T09:46:07Z</time>
</trkpt>
<trkpt lat="37.971433" lon="-1.054108">
 <ele>182.380000</ele>
<time>2009-10-10T09:46:08Z</time>
</trkpt>
<trkpt lat="37.971433" lon="-1.054108">
 <ele>182.300000</ele>
<time>2009-10-10T09:46:09Z</time>
</trkpt>
<trkpt lat="37.971420" lon="-1.054093">
 <ele>182.580000</ele>
<time>2009-10-10T09:46:17Z</time>
</trkpt>
<trkpt lat="37.971356" lon="-1.053999">
 <ele>183.600000</ele>
<time>2009-10-10T09:46:22Z</time>
</trkpt>
<trkpt lat="37.971302" lon="-1.053948">
 <ele>182.080000</ele>
<time>2009-10-10T09:46:29Z</time>
</trkpt>
<trkpt lat="37.971250" lon="-1.053889">
 <ele>184.100000</ele>
<time>2009-10-10T09:46:39Z</time>
</trkpt>
<trkpt lat="37.971238" lon="-1.053892">
 <ele>184.200000</ele>
<time>2009-10-10T09:46:40Z</time>
</trkpt>
<trkpt lat="37.971211" lon="-1.053884">
 <ele>185.700000</ele>
<time>2009-10-10T09:46:44Z</time>
</trkpt>
<trkpt lat="37.971214" lon="-1.053877">
 <ele>186.120000</ele>
<time>2009-10-10T09:46:45Z</time>
</trkpt>
<trkpt lat="37.971213" lon="-1.053884">
 <ele>185.740000</ele>
<time>2009-10-10T09:46:46Z</time>
</trkpt>
<trkpt lat="37.971219" lon="-1.053888">
 <ele>185.780000</ele>
<time>2009-10-10T09:46:47Z</time>
</trkpt>
<trkpt lat="37.971210" lon="-1.053883">
 <ele>185.860000</ele>
<time>2009-10-10T09:46:48Z</time>
</trkpt>
<trkpt lat="37.971210" lon="-1.053883">
 <ele>185.700000</ele>
<time>2009-10-10T09:46:49Z</time>
</trkpt>
<trkpt lat="37.971197" lon="-1.053865">
 <ele>186.020000</ele>
<time>2009-10-10T09:46:58Z</time>
</trkpt>
<trkpt lat="37.971147" lon="-1.053785">
 <ele>185.540000</ele>
<time>2009-10-10T09:47:01Z</time>
</trkpt>
<trkpt lat="37.971157" lon="-1.053726">
 <ele>186.100000</ele>
<time>2009-10-10T09:47:06Z</time>
</trkpt>
<trkpt lat="37.971158" lon="-1.053701">
 <ele>185.700000</ele>
<time>2009-10-10T09:47:10Z</time>
</trkpt>
<trkpt lat="37.971157" lon="-1.053704">
 <ele>185.600000</ele>
<time>2009-10-10T09:47:11Z</time>
</trkpt>
<trkpt lat="37.971157" lon="-1.053703">
 <ele>186.080000</ele>
<time>2009-10-10T09:47:12Z</time>
</trkpt>
<trkpt lat="37.971158" lon="-1.053709">
 <ele>185.800000</ele>
<time>2009-10-10T09:47:13Z</time>
</trkpt>
<trkpt lat="37.971158" lon="-1.053700">
 <ele>185.640000</ele>
<time>2009-10-10T09:47:14Z</time>
</trkpt>
<trkpt lat="37.971143" lon="-1.053647">
 <ele>184.820000</ele>
<time>2009-10-10T09:47:18Z</time>
</trkpt>
<trkpt lat="37.971160" lon="-1.053650">
 <ele>183.300000</ele>
<time>2009-10-10T09:47:19Z</time>
</trkpt>
<trkpt lat="37.971151" lon="-1.053648">
 <ele>184.140000</ele>
<time>2009-10-10T09:47:20Z</time>
</trkpt>
<trkpt lat="37.971150" lon="-1.053659">
 <ele>183.940000</ele>
<time>2009-10-10T09:47:21Z</time>
</trkpt>
<trkpt lat="37.971149" lon="-1.053643">
 <ele>183.660000</ele>
<time>2009-10-10T09:47:22Z</time>
</trkpt>
<trkpt lat="37.971144" lon="-1.053597">
 <ele>182.880000</ele>
<time>2009-10-10T09:47:26Z</time>
</trkpt>
<trkpt lat="37.971135" lon="-1.053586">
 <ele>183.600000</ele>
<time>2009-10-10T09:47:27Z</time>
</trkpt>
<trkpt lat="37.971143" lon="-1.053586">
 <ele>182.740000</ele>
<time>2009-10-10T09:47:28Z</time>
</trkpt>
<trkpt lat="37.971144" lon="-1.053596">
 <ele>183.360000</ele>
<time>2009-10-10T09:47:29Z</time>
</trkpt>
<trkpt lat="37.971143" lon="-1.053604">
 <ele>183.060000</ele>
<time>2009-10-10T09:47:30Z</time>
</trkpt>
<trkpt lat="37.971139" lon="-1.053589">
 <ele>183.180000</ele>
<time>2009-10-10T09:47:31Z</time>
</trkpt>
<trkpt lat="37.971140" lon="-1.053590">
 <ele>182.940000</ele>
<time>2009-10-10T09:47:32Z</time>
</trkpt>
<trkpt lat="37.971140" lon="-1.053590">
 <ele>183.100000</ele>
<time>2009-10-10T09:47:33Z</time>
</trkpt>
<trkpt lat="37.971136" lon="-1.053579">
 <ele>185.860000</ele>
<time>2009-10-10T09:47:55Z</time>
</trkpt>
<trkpt lat="37.971115" lon="-1.053516">
 <ele>184.360000</ele>
<time>2009-10-10T09:47:58Z</time>
</trkpt>
<trkpt lat="37.971117" lon="-1.053520">
 <ele>194.660000</ele>
<time>2009-10-10T09:47:59Z</time>
</trkpt>
<trkpt lat="37.971118" lon="-1.053507">
 <ele>189.440000</ele>
<time>2009-10-10T09:48:00Z</time>
</trkpt>
<trkpt lat="37.971120" lon="-1.053480">
 <ele>188.300000</ele>
<time>2009-10-10T09:48:03Z</time>
</trkpt>
<trkpt lat="37.971122" lon="-1.053485">
 <ele>186.760000</ele>
<time>2009-10-10T09:48:04Z</time>
</trkpt>
<trkpt lat="37.971126" lon="-1.053484">
 <ele>187.880000</ele>
<time>2009-10-10T09:48:05Z</time>
</trkpt>
<trkpt lat="37.971121" lon="-1.053484">
 <ele>187.700000</ele>
<time>2009-10-10T09:48:06Z</time>
</trkpt>
<trkpt lat="37.971124" lon="-1.053471">
 <ele>187.260000</ele>
<time>2009-10-10T09:48:07Z</time>
</trkpt>
<trkpt lat="37.971130" lon="-1.053388">
 <ele>183.940000</ele>
<time>2009-10-10T09:48:14Z</time>
</trkpt>
<trkpt lat="37.971129" lon="-1.053386">
 <ele>183.160000</ele>
<time>2009-10-10T09:48:15Z</time>
</trkpt>
<trkpt lat="37.971130" lon="-1.053385">
 <ele>183.540000</ele>
<time>2009-10-10T09:48:16Z</time>
</trkpt>
<trkpt lat="37.971123" lon="-1.053388">
 <ele>183.520000</ele>
<time>2009-10-10T09:48:17Z</time>
</trkpt>
<trkpt lat="37.971128" lon="-1.053377">
 <ele>182.240000</ele>
<time>2009-10-10T09:48:18Z</time>
</trkpt>
<trkpt lat="37.971128" lon="-1.053377">
 <ele>183.600000</ele>
<time>2009-10-10T09:48:19Z</time>
</trkpt>
<trkpt lat="37.971125" lon="-1.053365">
 <ele>184.000000</ele>
<time>2009-10-10T09:48:20Z</time>
</trkpt>
<trkpt lat="37.971109" lon="-1.053303">
 <ele>184.820000</ele>
<time>2009-10-10T09:48:23Z</time>
</trkpt>
<trkpt lat="37.971115" lon="-1.053304">
 <ele>186.580000</ele>
<time>2009-10-10T09:48:24Z</time>
</trkpt>
<trkpt lat="37.971113" lon="-1.053309">
 <ele>187.860000</ele>
<time>2009-10-10T09:48:25Z</time>
</trkpt>
<trkpt lat="37.971110" lon="-1.053307">
 <ele>186.840000</ele>
<time>2009-10-10T09:48:26Z</time>
</trkpt>
<trkpt lat="37.971109" lon="-1.053312">
 <ele>186.660000</ele>
<time>2009-10-10T09:48:27Z</time>
</trkpt>
<trkpt lat="37.971108" lon="-1.053305">
 <ele>187.780000</ele>
<time>2009-10-10T09:48:28Z</time>
</trkpt>
<trkpt lat="37.971090" lon="-1.053251">
 <ele>187.340000</ele>
<time>2009-10-10T09:48:33Z</time>
</trkpt>
<trkpt lat="37.971090" lon="-1.053258">
 <ele>186.460000</ele>
<time>2009-10-10T09:48:34Z</time>
</trkpt>
<trkpt lat="37.971090" lon="-1.053259">
 <ele>187.020000</ele>
<time>2009-10-10T09:48:35Z</time>
</trkpt>
<trkpt lat="37.971088" lon="-1.053258">
 <ele>186.800000</ele>
<time>2009-10-10T09:48:36Z</time>
</trkpt>
<trkpt lat="37.971087" lon="-1.053253">
 <ele>186.560000</ele>
<time>2009-10-10T09:48:37Z</time>
</trkpt>
<trkpt lat="37.971087" lon="-1.053253">
 <ele>186.800000</ele>
<time>2009-10-10T09:48:38Z</time>
</trkpt>
<trkpt lat="37.971089" lon="-1.053229">
 <ele>182.120000</ele>
<time>2009-10-10T09:48:50Z</time>
</trkpt>
<trkpt lat="37.971100" lon="-1.053168">
 <ele>167.280000</ele>
<time>2009-10-10T09:48:52Z</time>
</trkpt>
<trkpt lat="37.971107" lon="-1.053133">
 <ele>182.380000</ele>
<time>2009-10-10T09:48:53Z</time>
</trkpt>
<trkpt lat="37.971089" lon="-1.053124">
 <ele>162.960000</ele>
<time>2009-10-10T09:48:54Z</time>
</trkpt>
<trkpt lat="37.971108" lon="-1.053060">
 <ele>170.680000</ele>
<time>2009-10-10T09:48:59Z</time>
</trkpt>
<trkpt lat="37.971115" lon="-1.053047">
 <ele>169.180000</ele>
<time>2009-10-10T09:49:00Z</time>
</trkpt>
<trkpt lat="37.971129" lon="-1.053025">
 <ele>169.700000</ele>
<time>2009-10-10T09:49:02Z</time>
</trkpt>
<trkpt lat="37.971123" lon="-1.053022">
 <ele>167.800000</ele>
<time>2009-10-10T09:49:03Z</time>
</trkpt>
<trkpt lat="37.971120" lon="-1.053022">
 <ele>169.100000</ele>
<time>2009-10-10T09:49:04Z</time>
</trkpt>
<trkpt lat="37.971121" lon="-1.053019">
 <ele>168.960000</ele>
<time>2009-10-10T09:49:05Z</time>
</trkpt>
<trkpt lat="37.971123" lon="-1.053017">
 <ele>169.280000</ele>
<time>2009-10-10T09:49:06Z</time>
</trkpt>
<trkpt lat="37.971123" lon="-1.053017">
 <ele>169.200000</ele>
<time>2009-10-10T09:49:07Z</time>
</trkpt>
<trkpt lat="37.971125" lon="-1.053006">
 <ele>168.640000</ele>
<time>2009-10-10T09:49:09Z</time>
</trkpt>
<trkpt lat="37.971130" lon="-1.052940">
 <ele>167.020000</ele>
<time>2009-10-10T09:49:12Z</time>
</trkpt>
<trkpt lat="37.971129" lon="-1.052941">
 <ele>166.120000</ele>
<time>2009-10-10T09:49:13Z</time>
</trkpt>
<trkpt lat="37.971127" lon="-1.052930">
 <ele>166.400000</ele>
<time>2009-10-10T09:49:14Z</time>
</trkpt>
<trkpt lat="37.971123" lon="-1.052920">
 <ele>171.360000</ele>
<time>2009-10-10T09:49:17Z</time>
</trkpt>
<trkpt lat="37.971121" lon="-1.052916">
 <ele>171.620000</ele>
<time>2009-10-10T09:49:18Z</time>
</trkpt>
<trkpt lat="37.971120" lon="-1.052922">
 <ele>172.600000</ele>
<time>2009-10-10T09:49:19Z</time>
</trkpt>
<trkpt lat="37.971112" lon="-1.052898">
 <ele>171.660000</ele>
<time>2009-10-10T09:49:20Z</time>
</trkpt>
<trkpt lat="37.971111" lon="-1.052873">
 <ele>171.780000</ele>
<time>2009-10-10T09:49:23Z</time>
</trkpt>
<trkpt lat="37.971123" lon="-1.052876">
 <ele>172.200000</ele>
<time>2009-10-10T09:49:24Z</time>
</trkpt>
<trkpt lat="37.971118" lon="-1.052880">
 <ele>172.020000</ele>
<time>2009-10-10T09:49:25Z</time>
</trkpt>
<trkpt lat="37.971127" lon="-1.052887">
 <ele>173.280000</ele>
<time>2009-10-10T09:49:26Z</time>
</trkpt>
<trkpt lat="37.971132" lon="-1.052871">
 <ele>173.080000</ele>
<time>2009-10-10T09:49:27Z</time>
</trkpt>
<trkpt lat="37.971134" lon="-1.052875">
 <ele>173.120000</ele>
<time>2009-10-10T09:49:28Z</time>
</trkpt>
<trkpt lat="37.971142" lon="-1.052856">
 <ele>173.960000</ele>
<time>2009-10-10T09:49:29Z</time>
</trkpt>
<trkpt lat="37.971149" lon="-1.052841">
 <ele>172.920000</ele>
<time>2009-10-10T09:49:30Z</time>
</trkpt>
<trkpt lat="37.971147" lon="-1.052855">
 <ele>173.220000</ele>
<time>2009-10-10T09:49:31Z</time>
</trkpt>
<trkpt lat="37.971144" lon="-1.052857">
 <ele>173.960000</ele>
<time>2009-10-10T09:49:32Z</time>
</trkpt>
<trkpt lat="37.971142" lon="-1.052860">
 <ele>172.740000</ele>
<time>2009-10-10T09:49:33Z</time>
</trkpt>
<trkpt lat="37.971147" lon="-1.052853">
 <ele>173.540000</ele>
<time>2009-10-10T09:49:34Z</time>
</trkpt>
<trkpt lat="37.971147" lon="-1.052853">
 <ele>173.300000</ele>
<time>2009-10-10T09:49:35Z</time>
</trkpt>
<trkpt lat="37.971135" lon="-1.052856">
 <ele>181.620000</ele>
<time>2009-10-10T09:50:02Z</time>
</trkpt>
<trkpt lat="37.971116" lon="-1.052827">
 <ele>175.680000</ele>
<time>2009-10-10T09:50:05Z</time>
</trkpt>
<trkpt lat="37.971097" lon="-1.052841">
 <ele>208.780000</ele>
<time>2009-10-10T09:50:06Z</time>
</trkpt>
<trkpt lat="37.971106" lon="-1.052825">
 <ele>189.120000</ele>
<time>2009-10-10T09:50:07Z</time>
</trkpt>
<trkpt lat="37.971176" lon="-1.052650">
 <ele>178.320000</ele>
<time>2009-10-10T09:50:26Z</time>
</trkpt>
<trkpt lat="37.971184" lon="-1.052656">
 <ele>181.320000</ele>
<time>2009-10-10T09:50:27Z</time>
</trkpt>
<trkpt lat="37.971187" lon="-1.052651">
 <ele>182.680000</ele>
<time>2009-10-10T09:50:28Z</time>
</trkpt>
<trkpt lat="37.971178" lon="-1.052646">
 <ele>184.120000</ele>
<time>2009-10-10T09:50:30Z</time>
</trkpt>
<trkpt lat="37.971179" lon="-1.052659">
 <ele>183.260000</ele>
<time>2009-10-10T09:50:31Z</time>
</trkpt>
<trkpt lat="37.971174" lon="-1.052658">
 <ele>182.900000</ele>
<time>2009-10-10T09:50:32Z</time>
</trkpt>
<trkpt lat="37.971179" lon="-1.052658">
 <ele>183.080000</ele>
<time>2009-10-10T09:50:33Z</time>
</trkpt>
<trkpt lat="37.971180" lon="-1.052637">
 <ele>182.640000</ele>
<time>2009-10-10T09:50:35Z</time>
</trkpt>
<trkpt lat="37.971185" lon="-1.052603">
 <ele>184.800000</ele>
<time>2009-10-10T09:50:38Z</time>
</trkpt>
<trkpt lat="37.971198" lon="-1.052615">
 <ele>188.920000</ele>
<time>2009-10-10T09:50:39Z</time>
</trkpt>
<trkpt lat="37.971187" lon="-1.052615">
 <ele>188.120000</ele>
<time>2009-10-10T09:50:40Z</time>
</trkpt>
<trkpt lat="37.971188" lon="-1.052620">
 <ele>186.760000</ele>
<time>2009-10-10T09:50:41Z</time>
</trkpt>
<trkpt lat="37.971188" lon="-1.052613">
 <ele>189.000000</ele>
<time>2009-10-10T09:50:42Z</time>
</trkpt>
<trkpt lat="37.971188" lon="-1.052613">
 <ele>187.400000</ele>
<time>2009-10-10T09:50:43Z</time>
</trkpt>
<trkpt lat="37.971188" lon="-1.052613">
 <ele>187.400000</ele>
<time>2009-10-10T09:50:44Z</time>
</trkpt>
<trkpt lat="37.971188" lon="-1.052613">
 <ele>187.400000</ele>
<time>2009-10-10T09:50:45Z</time>
</trkpt>
<trkpt lat="37.971188" lon="-1.052613">
 <ele>187.400000</ele>
<time>2009-10-10T09:50:46Z</time>
</trkpt>
<trkpt lat="37.971188" lon="-1.052613">
 <ele>187.400000</ele>
<time>2009-10-10T09:50:47Z</time>
</trkpt>
<trkpt lat="37.971188" lon="-1.052613">
 <ele>187.400000</ele>
<time>2009-10-10T09:50:48Z</time>
</trkpt>
<trkpt lat="37.971188" lon="-1.052613">
 <ele>187.400000</ele>
<time>2009-10-10T09:50:49Z</time>
</trkpt>
<trkpt lat="37.971188" lon="-1.052613">
 <ele>187.400000</ele>
<time>2009-10-10T09:50:50Z</time>
</trkpt>
<trkpt lat="37.971188" lon="-1.052613">
 <ele>187.400000</ele>
<time>2009-10-10T09:50:51Z</time>
</trkpt>
<trkpt lat="37.971188" lon="-1.052613">
 <ele>187.400000</ele>
<time>2009-10-10T09:50:52Z</time>
</trkpt>
<trkpt lat="37.971188" lon="-1.052613">
 <ele>187.400000</ele>
<time>2009-10-10T09:50:53Z</time>
</trkpt>
<trkpt lat="37.971188" lon="-1.052613">
 <ele>187.400000</ele>
<time>2009-10-10T09:50:54Z</time>
</trkpt>
<trkpt lat="37.971188" lon="-1.052613">
 <ele>187.400000</ele>
<time>2009-10-10T09:50:55Z</time>
</trkpt>
<trkpt lat="37.971188" lon="-1.052613">
 <ele>187.400000</ele>
<time>2009-10-10T09:50:56Z</time>
</trkpt>
<trkpt lat="37.971188" lon="-1.052613">
 <ele>187.400000</ele>
<time>2009-10-10T09:50:57Z</time>
</trkpt>
<trkpt lat="37.971188" lon="-1.052613">
 <ele>187.400000</ele>
<time>2009-10-10T09:50:58Z</time>
</trkpt>
<trkpt lat="37.971188" lon="-1.052613">
 <ele>187.400000</ele>
<time>2009-10-10T09:50:59Z</time>
</trkpt>
<trkpt lat="37.971188" lon="-1.052613">
 <ele>187.400000</ele>
<time>2009-10-10T09:51:00Z</time>
</trkpt>
<trkpt lat="37.971188" lon="-1.052613">
 <ele>187.400000</ele>
<time>2009-10-10T09:51:01Z</time>
</trkpt>
<trkpt lat="37.971188" lon="-1.052613">
 <ele>187.400000</ele>
<time>2009-10-10T09:51:02Z</time>
</trkpt>
<trkpt lat="37.971188" lon="-1.052613">
 <ele>187.400000</ele>
<time>2009-10-10T09:51:03Z</time>
</trkpt>
<trkpt lat="37.971188" lon="-1.052613">
 <ele>187.400000</ele>
<time>2009-10-10T09:51:04Z</time>
</trkpt>
<trkpt lat="37.971188" lon="-1.052613">
 <ele>187.400000</ele>
<time>2009-10-10T09:51:05Z</time>
</trkpt>
<trkpt lat="37.971188" lon="-1.052613">
 <ele>187.400000</ele>
<time>2009-10-10T09:51:06Z</time>
</trkpt>
<trkpt lat="37.971188" lon="-1.052613">
 <ele>187.400000</ele>
<time>2009-10-10T09:51:07Z</time>
</trkpt>
<trkpt lat="37.971188" lon="-1.052613">
 <ele>187.400000</ele>
<time>2009-10-10T09:51:08Z</time>
</trkpt>
<trkpt lat="37.971188" lon="-1.052613">
 <ele>187.400000</ele>
<time>2009-10-10T09:51:09Z</time>
</trkpt>
<trkpt lat="37.971188" lon="-1.052613">
 <ele>187.400000</ele>
<time>2009-10-10T09:51:10Z</time>
</trkpt>
<trkpt lat="37.971188" lon="-1.052613">
 <ele>187.400000</ele>
<time>2009-10-10T09:51:11Z</time>
</trkpt>
<trkpt lat="37.971188" lon="-1.052613">
 <ele>187.400000</ele>
<time>2009-10-10T09:51:12Z</time>
</trkpt>
<trkpt lat="37.971188" lon="-1.052613">
 <ele>187.400000</ele>
<time>2009-10-10T09:51:13Z</time>
</trkpt>
<trkpt lat="37.971188" lon="-1.052613">
 <ele>187.400000</ele>
<time>2009-10-10T09:51:14Z</time>
</trkpt>
<trkpt lat="37.971188" lon="-1.052613">
 <ele>187.400000</ele>
<time>2009-10-10T09:51:15Z</time>
</trkpt>
<trkpt lat="37.971188" lon="-1.052613">
 <ele>187.400000</ele>
<time>2009-10-10T09:51:16Z</time>
</trkpt>
<trkpt lat="37.971188" lon="-1.052613">
 <ele>187.400000</ele>
<time>2009-10-10T09:51:17Z</time>
</trkpt>
<trkpt lat="37.971188" lon="-1.052613">
 <ele>187.400000</ele>
<time>2009-10-10T09:51:18Z</time>
</trkpt>
<trkpt lat="37.971188" lon="-1.052613">
 <ele>187.400000</ele>
<time>2009-10-10T09:51:19Z</time>
</trkpt>
<trkpt lat="37.971188" lon="-1.052613">
 <ele>187.400000</ele>
<time>2009-10-10T09:51:20Z</time>
</trkpt>
<trkpt lat="37.971188" lon="-1.052613">
 <ele>187.400000</ele>
<time>2009-10-10T09:51:21Z</time>
</trkpt>
<trkpt lat="37.971188" lon="-1.052613">
 <ele>187.400000</ele>
<time>2009-10-10T09:51:22Z</time>
</trkpt>
<trkpt lat="37.971188" lon="-1.052613">
 <ele>187.400000</ele>
<time>2009-10-10T09:51:23Z</time>
</trkpt>
<trkpt lat="37.971188" lon="-1.052613">
 <ele>187.400000</ele>
<time>2009-10-10T09:51:24Z</time>
</trkpt>
<trkpt lat="37.971236" lon="-1.052526">
 <ele>211.400000</ele>
<time>2009-10-10T09:51:27Z</time>
</trkpt>
<trkpt lat="37.971254" lon="-1.052493">
 <ele>192.080000</ele>
<time>2009-10-10T09:51:28Z</time>
</trkpt>
<trkpt lat="37.971241" lon="-1.052471">
 <ele>215.220000</ele>
<time>2009-10-10T09:51:29Z</time>
</trkpt>
<trkpt lat="37.971242" lon="-1.052479">
 <ele>204.360000</ele>
<time>2009-10-10T09:51:30Z</time>
</trkpt>
<trkpt lat="37.971247" lon="-1.052478">
 <ele>203.560000</ele>
<time>2009-10-10T09:51:31Z</time>
</trkpt>
<trkpt lat="37.971247" lon="-1.052475">
 <ele>204.440000</ele>
<time>2009-10-10T09:51:32Z</time>
</trkpt>
<trkpt lat="37.971247" lon="-1.052475">
 <ele>203.800000</ele>
<time>2009-10-10T09:51:33Z</time>
</trkpt>
<trkpt lat="37.971254" lon="-1.052457">
 <ele>206.040000</ele>
<time>2009-10-10T09:51:52Z</time>
</trkpt>
<trkpt lat="37.971276" lon="-1.052405">
 <ele>213.100000</ele>
<time>2009-10-10T09:51:54Z</time>
</trkpt>
<trkpt lat="37.971288" lon="-1.052365">
 <ele>214.780000</ele>
<time>2009-10-10T09:51:56Z</time>
</trkpt>
<trkpt lat="37.971289" lon="-1.052368">
 <ele>211.300000</ele>
<time>2009-10-10T09:51:57Z</time>
</trkpt>
<trkpt lat="37.971289" lon="-1.052363">
 <ele>211.080000</ele>
<time>2009-10-10T09:51:58Z</time>
</trkpt>
<trkpt lat="37.971287" lon="-1.052371">
 <ele>210.660000</ele>
<time>2009-10-10T09:51:59Z</time>
</trkpt>
<trkpt lat="37.971290" lon="-1.052363">
 <ele>211.460000</ele>
<time>2009-10-10T09:52:00Z</time>
</trkpt>
<trkpt lat="37.971290" lon="-1.052363">
 <ele>210.900000</ele>
<time>2009-10-10T09:52:01Z</time>
</trkpt>
<trkpt lat="37.971290" lon="-1.052317">
 <ele>212.820000</ele>
<time>2009-10-10T09:52:31Z</time>
</trkpt>
<trkpt lat="37.971293" lon="-1.052207">
 <ele>218.680000</ele>
<time>2009-10-10T09:52:33Z</time>
</trkpt>
<trkpt lat="37.971295" lon="-1.052146">
 <ele>212.060000</ele>
<time>2009-10-10T09:52:34Z</time>
</trkpt>
<trkpt lat="37.971285" lon="-1.052070">
 <ele>216.160000</ele>
<time>2009-10-10T09:52:38Z</time>
</trkpt>
<trkpt lat="37.971290" lon="-1.052086">
 <ele>216.820000</ele>
<time>2009-10-10T09:52:39Z</time>
</trkpt>
<trkpt lat="37.971284" lon="-1.052074">
 <ele>215.960000</ele>
<time>2009-10-10T09:52:40Z</time>
</trkpt>
<trkpt lat="37.971256" lon="-1.052039">
 <ele>216.120000</ele>
<time>2009-10-10T09:52:44Z</time>
</trkpt>
<trkpt lat="37.971246" lon="-1.052032">
 <ele>215.840000</ele>
<time>2009-10-10T09:52:45Z</time>
</trkpt>
<trkpt lat="37.971237" lon="-1.052009">
 <ele>216.300000</ele>
<time>2009-10-10T09:52:48Z</time>
</trkpt>
<trkpt lat="37.971242" lon="-1.052009">
 <ele>216.140000</ele>
<time>2009-10-10T09:52:49Z</time>
</trkpt>
<trkpt lat="37.971270" lon="-1.051963">
 <ele>213.900000</ele>
<time>2009-10-10T09:52:52Z</time>
</trkpt>
<trkpt lat="37.971264" lon="-1.051969">
 <ele>213.980000</ele>
<time>2009-10-10T09:52:53Z</time>
</trkpt>
<trkpt lat="37.971263" lon="-1.051967">
 <ele>214.020000</ele>
<time>2009-10-10T09:52:54Z</time>
</trkpt>
<trkpt lat="37.971268" lon="-1.051967">
 <ele>212.460000</ele>
<time>2009-10-10T09:52:55Z</time>
</trkpt>
<trkpt lat="37.971266" lon="-1.051966">
 <ele>213.760000</ele>
<time>2009-10-10T09:52:56Z</time>
</trkpt>
<trkpt lat="37.971270" lon="-1.051960">
 <ele>213.040000</ele>
<time>2009-10-10T09:52:57Z</time>
</trkpt>
<trkpt lat="37.971270" lon="-1.051960">
 <ele>213.600000</ele>
<time>2009-10-10T09:52:58Z</time>
</trkpt>
<trkpt lat="37.971272" lon="-1.051957">
 <ele>216.720000</ele>
<time>2009-10-10T09:53:19Z</time>
</trkpt>
<trkpt lat="37.971298" lon="-1.051935">
 <ele>228.120000</ele>
<time>2009-10-10T09:53:23Z</time>
</trkpt>
<trkpt lat="37.971308" lon="-1.051940">
 <ele>222.860000</ele>
<time>2009-10-10T09:53:24Z</time>
</trkpt>
<trkpt lat="37.971314" lon="-1.051938">
 <ele>222.760000</ele>
<time>2009-10-10T09:53:27Z</time>
</trkpt>
<trkpt lat="37.971308" lon="-1.051939">
 <ele>221.960000</ele>
<time>2009-10-10T09:53:28Z</time>
</trkpt>
<trkpt lat="37.971315" lon="-1.051940">
 <ele>221.320000</ele>
<time>2009-10-10T09:53:29Z</time>
</trkpt>
<trkpt lat="37.971313" lon="-1.051933">
 <ele>222.440000</ele>
<time>2009-10-10T09:53:30Z</time>
</trkpt>
<trkpt lat="37.971317" lon="-1.051937">
 <ele>221.160000</ele>
<time>2009-10-10T09:53:31Z</time>
</trkpt>
<trkpt lat="37.971317" lon="-1.051937">
 <ele>221.800000</ele>
<time>2009-10-10T09:53:32Z</time>
</trkpt>
<trkpt lat="37.971323" lon="-1.051928">
 <ele>221.480000</ele>
<time>2009-10-10T09:53:43Z</time>
</trkpt>
<trkpt lat="37.971368" lon="-1.051925">
 <ele>223.600000</ele>
<time>2009-10-10T09:53:47Z</time>
</trkpt>
<trkpt lat="37.971376" lon="-1.051923">
 <ele>222.440000</ele>
<time>2009-10-10T09:53:49Z</time>
</trkpt>
<trkpt lat="37.971376" lon="-1.051905">
 <ele>224.220000</ele>
<time>2009-10-10T09:53:50Z</time>
</trkpt>
<trkpt lat="37.971375" lon="-1.051906">
 <ele>221.740000</ele>
<time>2009-10-10T09:53:51Z</time>
</trkpt>
<trkpt lat="37.971370" lon="-1.051912">
 <ele>223.240000</ele>
<time>2009-10-10T09:53:52Z</time>
</trkpt>
<trkpt lat="37.971378" lon="-1.051910">
 <ele>221.880000</ele>
<time>2009-10-10T09:53:53Z</time>
</trkpt>
<trkpt lat="37.971378" lon="-1.051910">
 <ele>222.600000</ele>
<time>2009-10-10T09:53:54Z</time>
</trkpt>
<trkpt lat="37.971389" lon="-1.051901">
 <ele>222.640000</ele>
<time>2009-10-10T09:53:59Z</time>
</trkpt>
<trkpt lat="37.971444" lon="-1.051880">
 <ele>223.860000</ele>
<time>2009-10-10T09:54:02Z</time>
</trkpt>
<trkpt lat="37.971440" lon="-1.051878">
 <ele>222.280000</ele>
<time>2009-10-10T09:54:03Z</time>
</trkpt>
<trkpt lat="37.971441" lon="-1.051863">
 <ele>222.760000</ele>
<time>2009-10-10T09:54:04Z</time>
</trkpt>
<trkpt lat="37.971432" lon="-1.051868">
 <ele>223.760000</ele>
<time>2009-10-10T09:54:05Z</time>
</trkpt>
<trkpt lat="37.971442" lon="-1.051867">
 <ele>222.000000</ele>
<time>2009-10-10T09:54:06Z</time>
</trkpt>
<trkpt lat="37.971442" lon="-1.051867">
 <ele>222.800000</ele>
<time>2009-10-10T09:54:07Z</time>
</trkpt>
<trkpt lat="37.971448" lon="-1.051855">
 <ele>222.640000</ele>
<time>2009-10-10T09:54:08Z</time>
</trkpt>
<trkpt lat="37.971466" lon="-1.051814">
 <ele>222.260000</ele>
<time>2009-10-10T09:54:10Z</time>
</trkpt>
<trkpt lat="37.971477" lon="-1.051790">
 <ele>222.140000</ele>
<time>2009-10-10T09:54:12Z</time>
</trkpt>
<trkpt lat="37.971486" lon="-1.051786">
 <ele>222.860000</ele>
<time>2009-10-10T09:54:13Z</time>
</trkpt>
<trkpt lat="37.971487" lon="-1.051770">
 <ele>221.880000</ele>
<time>2009-10-10T09:54:15Z</time>
</trkpt>
<trkpt lat="37.971482" lon="-1.051769">
 <ele>222.520000</ele>
<time>2009-10-10T09:54:16Z</time>
</trkpt>
<trkpt lat="37.971487" lon="-1.051770">
 <ele>221.760000</ele>
<time>2009-10-10T09:54:17Z</time>
</trkpt>
<trkpt lat="37.971504" lon="-1.051728">
 <ele>212.060000</ele>
<time>2009-10-10T09:54:19Z</time>
</trkpt>
<trkpt lat="37.971552" lon="-1.051679">
 <ele>214.460000</ele>
<time>2009-10-10T09:54:26Z</time>
</trkpt>
<trkpt lat="37.971558" lon="-1.051665">
 <ele>215.140000</ele>
<time>2009-10-10T09:54:27Z</time>
</trkpt>
<trkpt lat="37.971555" lon="-1.051680">
 <ele>215.340000</ele>
<time>2009-10-10T09:54:28Z</time>
</trkpt>
<trkpt lat="37.971555" lon="-1.051683">
 <ele>214.940000</ele>
<time>2009-10-10T09:54:29Z</time>
</trkpt>
<trkpt lat="37.971547" lon="-1.051682">
 <ele>215.320000</ele>
<time>2009-10-10T09:54:30Z</time>
</trkpt>
<trkpt lat="37.971555" lon="-1.051682">
 <ele>215.240000</ele>
<time>2009-10-10T09:54:31Z</time>
</trkpt>
<trkpt lat="37.971555" lon="-1.051682">
 <ele>215.000000</ele>
<time>2009-10-10T09:54:32Z</time>
</trkpt>
<trkpt lat="37.971563" lon="-1.051694">
 <ele>219.960000</ele>
<time>2009-10-10T09:54:45Z</time>
</trkpt>
<trkpt lat="37.971615" lon="-1.051746">
 <ele>219.940000</ele>
<time>2009-10-10T09:54:48Z</time>
</trkpt>
<trkpt lat="37.971610" lon="-1.051750">
 <ele>239.900000</ele>
<time>2009-10-10T09:54:49Z</time>
</trkpt>
<trkpt lat="37.971607" lon="-1.051758">
 <ele>230.840000</ele>
<time>2009-10-10T09:54:50Z</time>
</trkpt>
<trkpt lat="37.971610" lon="-1.051770">
 <ele>232.620000</ele>
<time>2009-10-10T09:54:52Z</time>
</trkpt>
<trkpt lat="37.971634" lon="-1.051797">
 <ele>235.180000</ele>
<time>2009-10-10T09:54:55Z</time>
</trkpt>
<trkpt lat="37.971641" lon="-1.051803">
 <ele>234.500000</ele>
<time>2009-10-10T09:54:56Z</time>
</trkpt>
<trkpt lat="37.971634" lon="-1.051796">
 <ele>234.360000</ele>
<time>2009-10-10T09:54:57Z</time>
</trkpt>
<trkpt lat="37.971644" lon="-1.051811">
 <ele>234.480000</ele>
<time>2009-10-10T09:54:58Z</time>
</trkpt>
<trkpt lat="37.971634" lon="-1.051802">
 <ele>234.460000</ele>
<time>2009-10-10T09:54:59Z</time>
</trkpt>
<trkpt lat="37.971648" lon="-1.051814">
 <ele>234.620000</ele>
<time>2009-10-10T09:55:00Z</time>
</trkpt>
<trkpt lat="37.971692" lon="-1.051848">
 <ele>233.780000</ele>
<time>2009-10-10T09:55:03Z</time>
</trkpt>
<trkpt lat="37.971674" lon="-1.051827">
 <ele>233.820000</ele>
<time>2009-10-10T09:55:04Z</time>
</trkpt>
<trkpt lat="37.971679" lon="-1.051828">
 <ele>233.480000</ele>
<time>2009-10-10T09:55:05Z</time>
</trkpt>
<trkpt lat="37.971681" lon="-1.051840">
 <ele>233.940000</ele>
<time>2009-10-10T09:55:06Z</time>
</trkpt>
<trkpt lat="37.971685" lon="-1.051837">
 <ele>233.300000</ele>
<time>2009-10-10T09:55:07Z</time>
</trkpt>
<trkpt lat="37.971685" lon="-1.051837">
 <ele>233.700000</ele>
<time>2009-10-10T09:55:08Z</time>
</trkpt>
<trkpt lat="37.971685" lon="-1.051837">
 <ele>233.700000</ele>
<time>2009-10-10T09:55:09Z</time>
</trkpt>
<trkpt lat="37.971685" lon="-1.051837">
 <ele>233.700000</ele>
<time>2009-10-10T09:55:10Z</time>
</trkpt>
<trkpt lat="37.971685" lon="-1.051837">
 <ele>233.700000</ele>
<time>2009-10-10T09:55:11Z</time>
</trkpt>
<trkpt lat="37.971685" lon="-1.051837">
 <ele>233.700000</ele>
<time>2009-10-10T09:55:12Z</time>
</trkpt>
<trkpt lat="37.971685" lon="-1.051837">
 <ele>233.700000</ele>
<time>2009-10-10T09:55:13Z</time>
</trkpt>
<trkpt lat="37.971685" lon="-1.051837">
 <ele>233.700000</ele>
<time>2009-10-10T09:55:14Z</time>
</trkpt>
<trkpt lat="37.971685" lon="-1.051837">
 <ele>233.700000</ele>
<time>2009-10-10T09:55:15Z</time>
</trkpt>
<trkpt lat="37.971685" lon="-1.051837">
 <ele>233.700000</ele>
<time>2009-10-10T09:55:16Z</time>
</trkpt>
<trkpt lat="37.971685" lon="-1.051837">
 <ele>233.700000</ele>
<time>2009-10-10T09:55:17Z</time>
</trkpt>
<trkpt lat="37.971772" lon="-1.051887">
 <ele>235.000000</ele>
<time>2009-10-10T09:55:21Z</time>
</trkpt>
<trkpt lat="37.971774" lon="-1.051892">
 <ele>236.660000</ele>
<time>2009-10-10T09:55:22Z</time>
</trkpt>
<trkpt lat="37.971780" lon="-1.051888">
 <ele>235.820000</ele>
<time>2009-10-10T09:55:23Z</time>
</trkpt>
<trkpt lat="37.971777" lon="-1.051886">
 <ele>235.960000</ele>
<time>2009-10-10T09:55:24Z</time>
</trkpt>
<trkpt lat="37.971782" lon="-1.051892">
 <ele>236.040000</ele>
<time>2009-10-10T09:55:25Z</time>
</trkpt>
<trkpt lat="37.971782" lon="-1.051892">
 <ele>235.800000</ele>
<time>2009-10-10T09:55:26Z</time>
</trkpt>
<trkpt lat="37.971795" lon="-1.051900">
 <ele>236.960000</ele>
<time>2009-10-10T09:55:31Z</time>
</trkpt>
<trkpt lat="37.971847" lon="-1.051942">
 <ele>239.100000</ele>
<time>2009-10-10T09:55:34Z</time>
</trkpt>
<trkpt lat="37.971841" lon="-1.051941">
 <ele>244.080000</ele>
<time>2009-10-10T09:55:35Z</time>
</trkpt>
<trkpt lat="37.971851" lon="-1.051942">
 <ele>241.800000</ele>
<time>2009-10-10T09:55:36Z</time>
</trkpt>
<trkpt lat="37.971840" lon="-1.051943">
 <ele>241.760000</ele>
<time>2009-10-10T09:55:37Z</time>
</trkpt>
<trkpt lat="37.971847" lon="-1.051947">
 <ele>242.400000</ele>
<time>2009-10-10T09:55:38Z</time>
</trkpt>
<trkpt lat="37.971847" lon="-1.051947">
 <ele>241.600000</ele>
<time>2009-10-10T09:55:39Z</time>
</trkpt>
<trkpt lat="37.971848" lon="-1.051965">
 <ele>244.200000</ele>
<time>2009-10-10T09:55:45Z</time>
</trkpt>
<trkpt lat="37.971847" lon="-1.052015">
 <ele>253.020000</ele>
<time>2009-10-10T09:55:47Z</time>
</trkpt>
<trkpt lat="37.971845" lon="-1.052046">
 <ele>245.720000</ele>
<time>2009-10-10T09:55:48Z</time>
</trkpt>
<trkpt lat="37.971852" lon="-1.052068">
 <ele>251.700000</ele>
<time>2009-10-10T09:55:51Z</time>
</trkpt>
<trkpt lat="37.971855" lon="-1.052091">
 <ele>251.580000</ele>
<time>2009-10-10T09:55:52Z</time>
</trkpt>
<trkpt lat="37.971865" lon="-1.052065">
 <ele>248.600000</ele>
<time>2009-10-10T09:55:53Z</time>
</trkpt>
<trkpt lat="37.971859" lon="-1.052066">
 <ele>254.820000</ele>
<time>2009-10-10T09:55:54Z</time>
</trkpt>
<trkpt lat="37.971856" lon="-1.052066">
 <ele>247.200000</ele>
<time>2009-10-10T09:55:55Z</time>
</trkpt>
<trkpt lat="37.971862" lon="-1.052070">
 <ele>251.680000</ele>
<time>2009-10-10T09:55:56Z</time>
</trkpt>
<trkpt lat="37.971890" lon="-1.052031">
 <ele>249.820000</ele>
<time>2009-10-10T09:55:59Z</time>
</trkpt>
<trkpt lat="37.971920" lon="-1.051966">
 <ele>250.160000</ele>
<time>2009-10-10T09:56:04Z</time>
</trkpt>
<trkpt lat="37.971921" lon="-1.051976">
 <ele>248.480000</ele>
<time>2009-10-10T09:56:05Z</time>
</trkpt>
<trkpt lat="37.971923" lon="-1.051968">
 <ele>250.540000</ele>
<time>2009-10-10T09:56:06Z</time>
</trkpt>
<trkpt lat="37.971922" lon="-1.051970">
 <ele>248.140000</ele>
<time>2009-10-10T09:56:07Z</time>
</trkpt>
<trkpt lat="37.971934" lon="-1.051946">
 <ele>248.200000</ele>
<time>2009-10-10T09:56:08Z</time>
</trkpt>
<trkpt lat="37.971938" lon="-1.051822">
 <ele>250.620000</ele>
<time>2009-10-10T09:56:18Z</time>
</trkpt>
<trkpt lat="37.971935" lon="-1.051832">
 <ele>251.940000</ele>
<time>2009-10-10T09:56:19Z</time>
</trkpt>
<trkpt lat="37.971939" lon="-1.051839">
 <ele>252.060000</ele>
<time>2009-10-10T09:56:20Z</time>
</trkpt>
<trkpt lat="37.971938" lon="-1.051841">
 <ele>252.740000</ele>
<time>2009-10-10T09:56:21Z</time>
</trkpt>
<trkpt lat="37.971939" lon="-1.051826">
 <ele>253.240000</ele>
<time>2009-10-10T09:56:22Z</time>
</trkpt>
<trkpt lat="37.971932" lon="-1.051841">
 <ele>251.940000</ele>
<time>2009-10-10T09:56:23Z</time>
</trkpt>
<trkpt lat="37.971933" lon="-1.051832">
 <ele>253.380000</ele>
<time>2009-10-10T09:56:24Z</time>
</trkpt>
<trkpt lat="37.971933" lon="-1.051832">
 <ele>252.500000</ele>
<time>2009-10-10T09:56:25Z</time>
</trkpt>
<trkpt lat="37.971928" lon="-1.051821">
 <ele>252.820000</ele>
<time>2009-10-10T09:56:27Z</time>
</trkpt>
<trkpt lat="37.971918" lon="-1.051762">
 <ele>253.560000</ele>
<time>2009-10-10T09:56:31Z</time>
</trkpt>
<trkpt lat="37.971906" lon="-1.051749">
 <ele>252.160000</ele>
<time>2009-10-10T09:56:32Z</time>
</trkpt>
<trkpt lat="37.971920" lon="-1.051727">
 <ele>252.960000</ele>
<time>2009-10-10T09:56:34Z</time>
</trkpt>
<trkpt lat="37.971903" lon="-1.051699">
 <ele>252.060000</ele>
<time>2009-10-10T09:56:36Z</time>
</trkpt>
<trkpt lat="37.971901" lon="-1.051634">
 <ele>255.820000</ele>
<time>2009-10-10T09:56:42Z</time>
</trkpt>
<trkpt lat="37.971907" lon="-1.051632">
 <ele>257.960000</ele>
<time>2009-10-10T09:56:44Z</time>
</trkpt>
<trkpt lat="37.971873" lon="-1.051592">
 <ele>263.100000</ele>
<time>2009-10-10T09:56:49Z</time>
</trkpt>
<trkpt lat="37.971877" lon="-1.051589">
 <ele>263.340000</ele>
<time>2009-10-10T09:56:50Z</time>
</trkpt>
<trkpt lat="37.971876" lon="-1.051576">
 <ele>261.560000</ele>
<time>2009-10-10T09:56:51Z</time>
</trkpt>
<trkpt lat="37.971863" lon="-1.051561">
 <ele>261.140000</ele>
<time>2009-10-10T09:56:53Z</time>
</trkpt>
<trkpt lat="37.971836" lon="-1.051519">
 <ele>260.760000</ele>
<time>2009-10-10T09:56:56Z</time>
</trkpt>
<trkpt lat="37.971823" lon="-1.051504">
 <ele>261.060000</ele>
<time>2009-10-10T09:56:57Z</time>
</trkpt>
<trkpt lat="37.971811" lon="-1.051471">
 <ele>260.160000</ele>
<time>2009-10-10T09:57:01Z</time>
</trkpt>
<trkpt lat="37.971814" lon="-1.051475">
 <ele>260.500000</ele>
<time>2009-10-10T09:57:02Z</time>
</trkpt>
<trkpt lat="37.971809" lon="-1.051473">
 <ele>260.220000</ele>
<time>2009-10-10T09:57:03Z</time>
</trkpt>
<trkpt lat="37.971809" lon="-1.051469">
 <ele>259.920000</ele>
<time>2009-10-10T09:57:04Z</time>
</trkpt>
<trkpt lat="37.971807" lon="-1.051467">
 <ele>260.800000</ele>
<time>2009-10-10T09:57:05Z</time>
</trkpt>
<trkpt lat="37.971807" lon="-1.051467">
 <ele>260.400000</ele>
<time>2009-10-10T09:57:06Z</time>
</trkpt>
<trkpt lat="37.971801" lon="-1.051453">
 <ele>260.120000</ele>
<time>2009-10-10T09:58:03Z</time>
</trkpt>
<trkpt lat="37.971786" lon="-1.051407">
 <ele>259.720000</ele>
<time>2009-10-10T09:58:05Z</time>
</trkpt>
<trkpt lat="37.971724" lon="-1.051333">
 <ele>261.680000</ele>
<time>2009-10-10T09:58:12Z</time>
</trkpt>
<trkpt lat="37.971727" lon="-1.051336">
 <ele>262.540000</ele>
<time>2009-10-10T09:58:13Z</time>
</trkpt>
<trkpt lat="37.971717" lon="-1.051329">
 <ele>263.500000</ele>
<time>2009-10-10T09:58:14Z</time>
</trkpt>
<trkpt lat="37.971636" lon="-1.051233">
 <ele>266.440000</ele>
<time>2009-10-10T09:58:27Z</time>
</trkpt>
<trkpt lat="37.971649" lon="-1.051188">
 <ele>266.820000</ele>
<time>2009-10-10T09:58:33Z</time>
</trkpt>
<trkpt lat="37.971648" lon="-1.051196">
 <ele>267.200000</ele>
<time>2009-10-10T09:58:34Z</time>
</trkpt>
<trkpt lat="37.971644" lon="-1.051199">
 <ele>267.460000</ele>
<time>2009-10-10T09:58:35Z</time>
</trkpt>
<trkpt lat="37.971651" lon="-1.051192">
 <ele>266.960000</ele>
<time>2009-10-10T09:58:36Z</time>
</trkpt>
<trkpt lat="37.971650" lon="-1.051192">
 <ele>267.760000</ele>
<time>2009-10-10T09:58:37Z</time>
</trkpt>
<trkpt lat="37.971650" lon="-1.051192">
 <ele>267.200000</ele>
<time>2009-10-10T09:58:38Z</time>
</trkpt>
<trkpt lat="37.971655" lon="-1.051182">
 <ele>267.800000</ele>
<time>2009-10-10T09:58:39Z</time>
</trkpt>
<trkpt lat="37.971677" lon="-1.051088">
 <ele>273.160000</ele>
<time>2009-10-10T09:58:47Z</time>
</trkpt>
<trkpt lat="37.971683" lon="-1.051080">
 <ele>271.780000</ele>
<time>2009-10-10T09:58:48Z</time>
</trkpt>
<trkpt lat="37.971693" lon="-1.051019">
 <ele>268.060000</ele>
<time>2009-10-10T09:58:53Z</time>
</trkpt>
<trkpt lat="37.971686" lon="-1.051021">
 <ele>268.300000</ele>
<time>2009-10-10T09:58:54Z</time>
</trkpt>
<trkpt lat="37.971688" lon="-1.051004">
 <ele>268.360000</ele>
<time>2009-10-10T09:58:56Z</time>
</trkpt>
<trkpt lat="37.971673" lon="-1.050982">
 <ele>267.380000</ele>
<time>2009-10-10T09:58:57Z</time>
</trkpt>
<trkpt lat="37.971657" lon="-1.050968">
 <ele>267.800000</ele>
<time>2009-10-10T09:58:59Z</time>
</trkpt>
<trkpt lat="37.971647" lon="-1.050956">
 <ele>267.660000</ele>
<time>2009-10-10T09:59:00Z</time>
</trkpt>
<trkpt lat="37.971648" lon="-1.050949">
 <ele>267.600000</ele>
<time>2009-10-10T09:59:02Z</time>
</trkpt>
<trkpt lat="37.971646" lon="-1.050946">
 <ele>267.080000</ele>
<time>2009-10-10T09:59:03Z</time>
</trkpt>
<trkpt lat="37.971636" lon="-1.050922">
 <ele>266.860000</ele>
<time>2009-10-10T09:59:05Z</time>
</trkpt>
<trkpt lat="37.971632" lon="-1.050933">
 <ele>266.640000</ele>
<time>2009-10-10T09:59:06Z</time>
</trkpt>
<trkpt lat="37.971626" lon="-1.050926">
 <ele>266.940000</ele>
<time>2009-10-10T09:59:08Z</time>
</trkpt>
<trkpt lat="37.971601" lon="-1.050889">
 <ele>267.380000</ele>
<time>2009-10-10T09:59:11Z</time>
</trkpt>
<trkpt lat="37.971590" lon="-1.050882">
 <ele>267.700000</ele>
<time>2009-10-10T09:59:12Z</time>
</trkpt>
<trkpt lat="37.971469" lon="-1.050755">
 <ele>267.840000</ele>
<time>2009-10-10T09:59:30Z</time>
</trkpt>
<trkpt lat="37.971458" lon="-1.050754">
 <ele>268.780000</ele>
<time>2009-10-10T09:59:31Z</time>
</trkpt>
<trkpt lat="37.971450" lon="-1.050736">
 <ele>268.960000</ele>
<time>2009-10-10T09:59:33Z</time>
</trkpt>
<trkpt lat="37.971437" lon="-1.050718">
 <ele>269.620000</ele>
<time>2009-10-10T09:59:34Z</time>
</trkpt>
<trkpt lat="37.971416" lon="-1.050710">
 <ele>269.880000</ele>
<time>2009-10-10T09:59:37Z</time>
</trkpt>
<trkpt lat="37.971400" lon="-1.050700">
 <ele>270.500000</ele>
<time>2009-10-10T09:59:39Z</time>
</trkpt>
<trkpt lat="37.971346" lon="-1.050567">
 <ele>268.280000</ele>
<time>2009-10-10T09:59:50Z</time>
</trkpt>
<trkpt lat="37.971354" lon="-1.050481">
 <ele>266.860000</ele>
<time>2009-10-10T09:59:57Z</time>
</trkpt>
<trkpt lat="37.971357" lon="-1.050487">
 <ele>267.560000</ele>
<time>2009-10-10T09:59:58Z</time>
</trkpt>
<trkpt lat="37.971363" lon="-1.050479">
 <ele>267.320000</ele>
<time>2009-10-10T09:59:59Z</time>
</trkpt>
<trkpt lat="37.971381" lon="-1.050385">
 <ele>267.840000</ele>
<time>2009-10-10T10:00:05Z</time>
</trkpt>
<trkpt lat="37.971430" lon="-1.050264">
 <ele>264.360000</ele>
<time>2009-10-10T10:00:17Z</time>
</trkpt>
<trkpt lat="37.971427" lon="-1.050263">
 <ele>265.080000</ele>
<time>2009-10-10T10:00:18Z</time>
</trkpt>
<trkpt lat="37.971438" lon="-1.050217">
 <ele>266.280000</ele>
<time>2009-10-10T10:00:21Z</time>
</trkpt>
<trkpt lat="37.971446" lon="-1.050055">
 <ele>265.720000</ele>
<time>2009-10-10T10:00:39Z</time>
</trkpt>
<trkpt lat="37.971464" lon="-1.050049">
 <ele>265.880000</ele>
<time>2009-10-10T10:00:40Z</time>
</trkpt>
<trkpt lat="37.971443" lon="-1.050039">
 <ele>266.360000</ele>
<time>2009-10-10T10:00:42Z</time>
</trkpt>
<trkpt lat="37.971428" lon="-1.050015">
 <ele>268.400000</ele>
<time>2009-10-10T10:00:45Z</time>
</trkpt>
<trkpt lat="37.971418" lon="-1.049905">
 <ele>277.480000</ele>
<time>2009-10-10T10:01:00Z</time>
</trkpt>
<trkpt lat="37.971407" lon="-1.049895">
 <ele>276.000000</ele>
<time>2009-10-10T10:01:01Z</time>
</trkpt>
<trkpt lat="37.971412" lon="-1.049900">
 <ele>277.260000</ele>
<time>2009-10-10T10:01:02Z</time>
</trkpt>
<trkpt lat="37.971411" lon="-1.049894">
 <ele>276.220000</ele>
<time>2009-10-10T10:01:03Z</time>
</trkpt>
<trkpt lat="37.971396" lon="-1.049768">
 <ele>274.160000</ele>
<time>2009-10-10T10:01:12Z</time>
</trkpt>
<trkpt lat="37.971416" lon="-1.049688">
 <ele>273.700000</ele>
<time>2009-10-10T10:01:18Z</time>
</trkpt>
<trkpt lat="37.971426" lon="-1.049626">
 <ele>273.180000</ele>
<time>2009-10-10T10:01:23Z</time>
</trkpt>
<trkpt lat="37.971420" lon="-1.049562">
 <ele>273.360000</ele>
<time>2009-10-10T10:01:30Z</time>
</trkpt>
<trkpt lat="37.971425" lon="-1.049567">
 <ele>271.940000</ele>
<time>2009-10-10T10:01:31Z</time>
</trkpt>
<trkpt lat="37.971418" lon="-1.049556">
 <ele>272.440000</ele>
<time>2009-10-10T10:01:32Z</time>
</trkpt>
<trkpt lat="37.971424" lon="-1.049572">
 <ele>272.680000</ele>
<time>2009-10-10T10:01:33Z</time>
</trkpt>
<trkpt lat="37.971423" lon="-1.049560">
 <ele>272.280000</ele>
<time>2009-10-10T10:01:34Z</time>
</trkpt>
<trkpt lat="37.971423" lon="-1.049560">
 <ele>272.600000</ele>
<time>2009-10-10T10:01:35Z</time>
</trkpt>
<trkpt lat="37.971396" lon="-1.049551">
 <ele>277.160000</ele>
<time>2009-10-10T10:01:55Z</time>
</trkpt>
<trkpt lat="37.971327" lon="-1.049520">
 <ele>290.260000</ele>
<time>2009-10-10T10:01:57Z</time>
</trkpt>
<trkpt lat="37.971254" lon="-1.049452">
 <ele>283.160000</ele>
<time>2009-10-10T10:02:03Z</time>
</trkpt>
<trkpt lat="37.971247" lon="-1.049407">
 <ele>283.180000</ele>
<time>2009-10-10T10:02:08Z</time>
</trkpt>
<trkpt lat="37.971253" lon="-1.049400">
 <ele>283.640000</ele>
<time>2009-10-10T10:02:09Z</time>
</trkpt>
<trkpt lat="37.971245" lon="-1.049339">
 <ele>282.740000</ele>
<time>2009-10-10T10:02:12Z</time>
</trkpt>
<trkpt lat="37.971236" lon="-1.049339">
 <ele>282.340000</ele>
<time>2009-10-10T10:02:13Z</time>
</trkpt>
<trkpt lat="37.971216" lon="-1.049307">
 <ele>285.220000</ele>
<time>2009-10-10T10:02:17Z</time>
</trkpt>
<trkpt lat="37.971209" lon="-1.049279">
 <ele>287.500000</ele>
<time>2009-10-10T10:02:21Z</time>
</trkpt>
<trkpt lat="37.971200" lon="-1.049287">
 <ele>287.240000</ele>
<time>2009-10-10T10:02:22Z</time>
</trkpt>
<trkpt lat="37.971198" lon="-1.049286">
 <ele>287.120000</ele>
<time>2009-10-10T10:02:23Z</time>
</trkpt>
<trkpt lat="37.971201" lon="-1.049288">
 <ele>287.580000</ele>
<time>2009-10-10T10:02:24Z</time>
</trkpt>
<trkpt lat="37.971190" lon="-1.049278">
 <ele>287.940000</ele>
<time>2009-10-10T10:02:25Z</time>
</trkpt>
<trkpt lat="37.971149" lon="-1.049226">
 <ele>290.060000</ele>
<time>2009-10-10T10:02:29Z</time>
</trkpt>
<trkpt lat="37.971139" lon="-1.049219">
 <ele>289.540000</ele>
<time>2009-10-10T10:02:30Z</time>
</trkpt>
<trkpt lat="37.971125" lon="-1.049167">
 <ele>287.820000</ele>
<time>2009-10-10T10:02:34Z</time>
</trkpt>
<trkpt lat="37.971129" lon="-1.049167">
 <ele>288.640000</ele>
<time>2009-10-10T10:02:35Z</time>
</trkpt>
<trkpt lat="37.971119" lon="-1.049163">
 <ele>286.900000</ele>
<time>2009-10-10T10:02:36Z</time>
</trkpt>
<trkpt lat="37.971094" lon="-1.049118">
 <ele>288.540000</ele>
<time>2009-10-10T10:02:39Z</time>
</trkpt>
<trkpt lat="37.971096" lon="-1.049121">
 <ele>286.280000</ele>
<time>2009-10-10T10:02:40Z</time>
</trkpt>
<trkpt lat="37.971095" lon="-1.049110">
 <ele>286.920000</ele>
<time>2009-10-10T10:02:41Z</time>
</trkpt>
<trkpt lat="37.971066" lon="-1.049075">
 <ele>287.300000</ele>
<time>2009-10-10T10:02:44Z</time>
</trkpt>
<trkpt lat="37.971059" lon="-1.049063">
 <ele>288.060000</ele>
<time>2009-10-10T10:02:45Z</time>
</trkpt>
<trkpt lat="37.971044" lon="-1.049047">
 <ele>289.140000</ele>
<time>2009-10-10T10:02:48Z</time>
</trkpt>
<trkpt lat="37.971053" lon="-1.049057">
 <ele>287.880000</ele>
<time>2009-10-10T10:02:49Z</time>
</trkpt>
<trkpt lat="37.971052" lon="-1.049062">
 <ele>289.220000</ele>
<time>2009-10-10T10:02:50Z</time>
</trkpt>
<trkpt lat="37.971046" lon="-1.049052">
 <ele>288.420000</ele>
<time>2009-10-10T10:02:51Z</time>
</trkpt>
<trkpt lat="37.971047" lon="-1.049052">
 <ele>288.500000</ele>
<time>2009-10-10T10:02:52Z</time>
</trkpt>
<trkpt lat="37.971045" lon="-1.049041">
 <ele>288.100000</ele>
<time>2009-10-10T10:02:54Z</time>
</trkpt>
<trkpt lat="37.971054" lon="-1.048968">
 <ele>284.800000</ele>
<time>2009-10-10T10:02:58Z</time>
</trkpt>
<trkpt lat="37.971077" lon="-1.048912">
 <ele>283.600000</ele>
<time>2009-10-10T10:03:02Z</time>
</trkpt>
<trkpt lat="37.971076" lon="-1.048914">
 <ele>282.540000</ele>
<time>2009-10-10T10:03:03Z</time>
</trkpt>
<trkpt lat="37.971080" lon="-1.048894">
 <ele>282.960000</ele>
<time>2009-10-10T10:03:04Z</time>
</trkpt>
<trkpt lat="37.971073" lon="-1.048751">
 <ele>285.420000</ele>
<time>2009-10-10T10:03:21Z</time>
</trkpt>
<trkpt lat="37.971075" lon="-1.048739">
 <ele>285.860000</ele>
<time>2009-10-10T10:03:23Z</time>
</trkpt>
<trkpt lat="37.971058" lon="-1.048720">
 <ele>289.660000</ele>
<time>2009-10-10T10:03:26Z</time>
</trkpt>
<trkpt lat="37.971057" lon="-1.048718">
 <ele>289.100000</ele>
<time>2009-10-10T10:03:27Z</time>
</trkpt>
<trkpt lat="37.971065" lon="-1.048713">
 <ele>290.520000</ele>
<time>2009-10-10T10:03:28Z</time>
</trkpt>
<trkpt lat="37.971070" lon="-1.048679">
 <ele>290.280000</ele>
<time>2009-10-10T10:03:32Z</time>
</trkpt>
<trkpt lat="37.971064" lon="-1.048677">
 <ele>290.680000</ele>
<time>2009-10-10T10:03:33Z</time>
</trkpt>
<trkpt lat="37.971059" lon="-1.048677">
 <ele>290.940000</ele>
<time>2009-10-10T10:03:34Z</time>
</trkpt>
<trkpt lat="37.971065" lon="-1.048686">
 <ele>290.780000</ele>
<time>2009-10-10T10:03:35Z</time>
</trkpt>
<trkpt lat="37.971065" lon="-1.048677">
 <ele>291.020000</ele>
<time>2009-10-10T10:03:36Z</time>
</trkpt>
<trkpt lat="37.971065" lon="-1.048677">
 <ele>290.700000</ele>
<time>2009-10-10T10:03:37Z</time>
</trkpt>
<trkpt lat="37.971065" lon="-1.048657">
 <ele>290.100000</ele>
<time>2009-10-10T10:03:43Z</time>
</trkpt>
<trkpt lat="37.971104" lon="-1.048486">
 <ele>275.720000</ele>
<time>2009-10-10T10:03:50Z</time>
</trkpt>
<trkpt lat="37.971215" lon="-1.048252">
 <ele>265.380000</ele>
<time>2009-10-10T10:04:05Z</time>
</trkpt>
<trkpt lat="37.971230" lon="-1.048247">
 <ele>267.780000</ele>
<time>2009-10-10T10:04:06Z</time>
</trkpt>
<trkpt lat="37.971240" lon="-1.048198">
 <ele>270.620000</ele>
<time>2009-10-10T10:04:10Z</time>
</trkpt>
<trkpt lat="37.971248" lon="-1.048191">
 <ele>270.480000</ele>
<time>2009-10-10T10:04:14Z</time>
</trkpt>
<trkpt lat="37.971251" lon="-1.048188">
 <ele>274.380000</ele>
<time>2009-10-10T10:04:15Z</time>
</trkpt>
<trkpt lat="37.971242" lon="-1.048190">
 <ele>271.240000</ele>
<time>2009-10-10T10:04:16Z</time>
</trkpt>
<trkpt lat="37.971243" lon="-1.048189">
 <ele>272.880000</ele>
<time>2009-10-10T10:04:17Z</time>
</trkpt>
<trkpt lat="37.971242" lon="-1.048199">
 <ele>272.560000</ele>
<time>2009-10-10T10:04:18Z</time>
</trkpt>
<trkpt lat="37.971243" lon="-1.048192">
 <ele>272.720000</ele>
<time>2009-10-10T10:04:19Z</time>
</trkpt>
<trkpt lat="37.971243" lon="-1.048192">
 <ele>272.400000</ele>
<time>2009-10-10T10:04:20Z</time>
</trkpt>
<trkpt lat="37.971243" lon="-1.048192">
 <ele>272.400000</ele>
<time>2009-10-10T10:04:21Z</time>
</trkpt>
<trkpt lat="37.971243" lon="-1.048192">
 <ele>272.400000</ele>
<time>2009-10-10T10:04:22Z</time>
</trkpt>
<trkpt lat="37.971229" lon="-1.048195">
 <ele>277.680000</ele>
<time>2009-10-10T10:04:23Z</time>
</trkpt>
<trkpt lat="37.971167" lon="-1.048212">
 <ele>278.820000</ele>
<time>2009-10-10T10:04:26Z</time>
</trkpt>
<trkpt lat="37.971175" lon="-1.048217">
 <ele>298.720000</ele>
<time>2009-10-10T10:04:27Z</time>
</trkpt>
<trkpt lat="37.971166" lon="-1.048216">
 <ele>289.940000</ele>
<time>2009-10-10T10:04:28Z</time>
</trkpt>
<trkpt lat="37.971166" lon="-1.048211">
 <ele>288.980000</ele>
<time>2009-10-10T10:04:29Z</time>
</trkpt>
<trkpt lat="37.971163" lon="-1.048215">
 <ele>289.540000</ele>
<time>2009-10-10T10:04:30Z</time>
</trkpt>
<trkpt lat="37.971155" lon="-1.048158">
 <ele>291.040000</ele>
<time>2009-10-10T10:04:34Z</time>
</trkpt>
<trkpt lat="37.971155" lon="-1.048159">
 <ele>301.500000</ele>
<time>2009-10-10T10:04:35Z</time>
</trkpt>
<trkpt lat="37.971153" lon="-1.048142">
 <ele>297.660000</ele>
<time>2009-10-10T10:04:36Z</time>
</trkpt>
<trkpt lat="37.971153" lon="-1.048158">
 <ele>297.900000</ele>
<time>2009-10-10T10:04:37Z</time>
</trkpt>
<trkpt lat="37.971152" lon="-1.048142">
 <ele>298.760000</ele>
<time>2009-10-10T10:04:38Z</time>
</trkpt>
<trkpt lat="37.971131" lon="-1.048104">
 <ele>298.980000</ele>
<time>2009-10-10T10:04:41Z</time>
</trkpt>
<trkpt lat="37.971144" lon="-1.048114">
 <ele>299.780000</ele>
<time>2009-10-10T10:04:42Z</time>
</trkpt>
<trkpt lat="37.971138" lon="-1.048106">
 <ele>301.320000</ele>
<time>2009-10-10T10:04:43Z</time>
</trkpt>
<trkpt lat="37.971143" lon="-1.048112">
 <ele>298.920000</ele>
<time>2009-10-10T10:04:44Z</time>
</trkpt>
<trkpt lat="37.971140" lon="-1.048105">
 <ele>300.120000</ele>
<time>2009-10-10T10:04:45Z</time>
</trkpt>
<trkpt lat="37.971140" lon="-1.048105">
 <ele>299.800000</ele>
<time>2009-10-10T10:04:46Z</time>
</trkpt>
<trkpt lat="37.971145" lon="-1.048069">
 <ele>300.320000</ele>
<time>2009-10-10T10:05:01Z</time>
</trkpt>
<trkpt lat="37.971163" lon="-1.047981">
 <ele>301.320000</ele>
<time>2009-10-10T10:05:03Z</time>
</trkpt>
<trkpt lat="37.971156" lon="-1.047891">
 <ele>302.380000</ele>
<time>2009-10-10T10:05:08Z</time>
</trkpt>
<trkpt lat="37.971158" lon="-1.047855">
 <ele>302.940000</ele>
<time>2009-10-10T10:05:11Z</time>
</trkpt>
<trkpt lat="37.971153" lon="-1.047821">
 <ele>303.380000</ele>
<time>2009-10-10T10:05:15Z</time>
</trkpt>
<trkpt lat="37.971153" lon="-1.047814">
 <ele>303.140000</ele>
<time>2009-10-10T10:05:16Z</time>
</trkpt>
<trkpt lat="37.971151" lon="-1.047819">
 <ele>304.380000</ele>
<time>2009-10-10T10:05:17Z</time>
</trkpt>
<trkpt lat="37.971151" lon="-1.047820">
 <ele>303.980000</ele>
<time>2009-10-10T10:05:18Z</time>
</trkpt>
<trkpt lat="37.971145" lon="-1.047820">
 <ele>304.660000</ele>
<time>2009-10-10T10:05:19Z</time>
</trkpt>
<trkpt lat="37.971133" lon="-1.047802">
 <ele>305.480000</ele>
<time>2009-10-10T10:05:20Z</time>
</trkpt>
<trkpt lat="37.971118" lon="-1.047765">
 <ele>306.520000</ele>
<time>2009-10-10T10:05:23Z</time>
</trkpt>
<trkpt lat="37.971117" lon="-1.047750">
 <ele>306.860000</ele>
<time>2009-10-10T10:05:25Z</time>
</trkpt>
<trkpt lat="37.971118" lon="-1.047755">
 <ele>307.420000</ele>
<time>2009-10-10T10:05:26Z</time>
</trkpt>
<trkpt lat="37.971116" lon="-1.047755">
 <ele>306.820000</ele>
<time>2009-10-10T10:05:27Z</time>
</trkpt>
<trkpt lat="37.971114" lon="-1.047763">
 <ele>307.480000</ele>
<time>2009-10-10T10:05:28Z</time>
</trkpt>
<trkpt lat="37.971115" lon="-1.047752">
 <ele>307.080000</ele>
<time>2009-10-10T10:05:29Z</time>
</trkpt>
<trkpt lat="37.971115" lon="-1.047752">
 <ele>307.000000</ele>
<time>2009-10-10T10:05:30Z</time>
</trkpt>
<trkpt lat="37.971123" lon="-1.047732">
 <ele>304.600000</ele>
<time>2009-10-10T10:06:18Z</time>
</trkpt>
<trkpt lat="37.971154" lon="-1.047643">
 <ele>296.720000</ele>
<time>2009-10-10T10:06:22Z</time>
</trkpt>
<trkpt lat="37.971152" lon="-1.047645">
 <ele>301.460000</ele>
<time>2009-10-10T10:06:23Z</time>
</trkpt>
<trkpt lat="37.971150" lon="-1.047644">
 <ele>301.380000</ele>
<time>2009-10-10T10:06:24Z</time>
</trkpt>
<trkpt lat="37.971149" lon="-1.047649">
 <ele>301.720000</ele>
<time>2009-10-10T10:06:25Z</time>
</trkpt>
<trkpt lat="37.971148" lon="-1.047642">
 <ele>301.160000</ele>
<time>2009-10-10T10:06:26Z</time>
</trkpt>
<trkpt lat="37.971148" lon="-1.047642">
 <ele>301.400000</ele>
<time>2009-10-10T10:06:27Z</time>
</trkpt>
<trkpt lat="37.971146" lon="-1.047632">
 <ele>301.000000</ele>
<time>2009-10-10T10:06:31Z</time>
</trkpt>
<trkpt lat="37.971082" lon="-1.047461">
 <ele>301.480000</ele>
<time>2009-10-10T10:06:46Z</time>
</trkpt>
<trkpt lat="37.971064" lon="-1.047447">
 <ele>305.380000</ele>
<time>2009-10-10T10:06:50Z</time>
</trkpt>
<trkpt lat="37.971067" lon="-1.047453">
 <ele>305.220000</ele>
<time>2009-10-10T10:06:51Z</time>
</trkpt>
<trkpt lat="37.971061" lon="-1.047454">
 <ele>304.760000</ele>
<time>2009-10-10T10:06:52Z</time>
</trkpt>
<trkpt lat="37.971063" lon="-1.047456">
 <ele>305.520000</ele>
<time>2009-10-10T10:06:53Z</time>
</trkpt>
<trkpt lat="37.971058" lon="-1.047450">
 <ele>304.960000</ele>
<time>2009-10-10T10:06:54Z</time>
</trkpt>
<trkpt lat="37.971058" lon="-1.047450">
 <ele>304.800000</ele>
<time>2009-10-10T10:06:55Z</time>
</trkpt>
<trkpt lat="37.971050" lon="-1.047439">
 <ele>305.920000</ele>
<time>2009-10-10T10:06:59Z</time>
</trkpt>
<trkpt lat="37.971027" lon="-1.047372">
 <ele>309.140000</ele>
<time>2009-10-10T10:07:03Z</time>
</trkpt>
<trkpt lat="37.971033" lon="-1.047373">
 <ele>306.140000</ele>
<time>2009-10-10T10:07:04Z</time>
</trkpt>
<trkpt lat="37.971021" lon="-1.047371">
 <ele>306.380000</ele>
<time>2009-10-10T10:07:05Z</time>
</trkpt>
<trkpt lat="37.971020" lon="-1.047373">
 <ele>306.500000</ele>
<time>2009-10-10T10:07:06Z</time>
</trkpt>
<trkpt lat="37.971023" lon="-1.047365">
 <ele>306.340000</ele>
<time>2009-10-10T10:07:07Z</time>
</trkpt>
<trkpt lat="37.971023" lon="-1.047365">
 <ele>306.500000</ele>
<time>2009-10-10T10:07:08Z</time>
</trkpt>
<trkpt lat="37.971018" lon="-1.047371">
 <ele>308.500000</ele>
<time>2009-10-10T10:07:16Z</time>
</trkpt>
<trkpt lat="37.970996" lon="-1.047414">
 <ele>306.520000</ele>
<time>2009-10-10T10:07:19Z</time>
</trkpt>
<trkpt lat="37.970980" lon="-1.047389">
 <ele>314.640000</ele>
<time>2009-10-10T10:07:20Z</time>
</trkpt>
<trkpt lat="37.970983" lon="-1.047386">
 <ele>310.860000</ele>
<time>2009-10-10T10:07:21Z</time>
</trkpt>
<trkpt lat="37.970987" lon="-1.047386">
 <ele>309.860000</ele>
<time>2009-10-10T10:07:22Z</time>
</trkpt>
<trkpt lat="37.970975" lon="-1.047382">
 <ele>309.400000</ele>
<time>2009-10-10T10:07:23Z</time>
</trkpt>
<trkpt lat="37.970963" lon="-1.047401">
 <ele>308.420000</ele>
<time>2009-10-10T10:07:26Z</time>
</trkpt>
<trkpt lat="37.970967" lon="-1.047401">
 <ele>308.500000</ele>
<time>2009-10-10T10:07:27Z</time>
</trkpt>
<trkpt lat="37.970963" lon="-1.047382">
 <ele>307.760000</ele>
<time>2009-10-10T10:07:28Z</time>
</trkpt>
<trkpt lat="37.970956" lon="-1.047378">
 <ele>308.100000</ele>
<time>2009-10-10T10:07:29Z</time>
</trkpt>
<trkpt lat="37.970964" lon="-1.047387">
 <ele>308.600000</ele>
<time>2009-10-10T10:07:30Z</time>
</trkpt>
<trkpt lat="37.970960" lon="-1.047387">
 <ele>307.640000</ele>
<time>2009-10-10T10:07:31Z</time>
</trkpt>
<trkpt lat="37.970960" lon="-1.047387">
 <ele>308.200000</ele>
<time>2009-10-10T10:07:32Z</time>
</trkpt>
<trkpt lat="37.970950" lon="-1.047385">
 <ele>306.320000</ele>
<time>2009-10-10T10:07:36Z</time>
</trkpt>
<trkpt lat="37.970891" lon="-1.047420">
 <ele>301.640000</ele>
<time>2009-10-10T10:07:41Z</time>
</trkpt>
<trkpt lat="37.970898" lon="-1.047415">
 <ele>301.560000</ele>
<time>2009-10-10T10:07:42Z</time>
</trkpt>
<trkpt lat="37.970885" lon="-1.047445">
 <ele>301.700000</ele>
<time>2009-10-10T10:07:43Z</time>
</trkpt>
<trkpt lat="37.970849" lon="-1.047472">
 <ele>301.660000</ele>
<time>2009-10-10T10:07:49Z</time>
</trkpt>
<trkpt lat="37.970848" lon="-1.047461">
 <ele>301.020000</ele>
<time>2009-10-10T10:07:50Z</time>
</trkpt>
<trkpt lat="37.970837" lon="-1.047467">
 <ele>301.200000</ele>
<time>2009-10-10T10:07:51Z</time>
</trkpt>
<trkpt lat="37.970845" lon="-1.047473">
 <ele>301.380000</ele>
<time>2009-10-10T10:07:52Z</time>
</trkpt>
<trkpt lat="37.970834" lon="-1.047480">
 <ele>300.580000</ele>
<time>2009-10-10T10:07:53Z</time>
</trkpt>
<trkpt lat="37.970800" lon="-1.047511">
 <ele>299.120000</ele>
<time>2009-10-10T10:07:57Z</time>
</trkpt>
<trkpt lat="37.970784" lon="-1.047515">
 <ele>300.680000</ele>
<time>2009-10-10T10:07:58Z</time>
</trkpt>
<trkpt lat="37.970768" lon="-1.047558">
 <ele>302.380000</ele>
<time>2009-10-10T10:08:02Z</time>
</trkpt>
<trkpt lat="37.970776" lon="-1.047548">
 <ele>302.200000</ele>
<time>2009-10-10T10:08:03Z</time>
</trkpt>
<trkpt lat="37.970757" lon="-1.047557">
 <ele>302.180000</ele>
<time>2009-10-10T10:08:04Z</time>
</trkpt>
<trkpt lat="37.970722" lon="-1.047594">
 <ele>302.480000</ele>
<time>2009-10-10T10:08:08Z</time>
</trkpt>
<trkpt lat="37.970709" lon="-1.047600">
 <ele>302.960000</ele>
<time>2009-10-10T10:08:09Z</time>
</trkpt>
<trkpt lat="37.970719" lon="-1.047611">
 <ele>303.040000</ele>
<time>2009-10-10T10:08:10Z</time>
</trkpt>
<trkpt lat="37.970697" lon="-1.047663">
 <ele>301.560000</ele>
<time>2009-10-10T10:08:16Z</time>
</trkpt>
<trkpt lat="37.970701" lon="-1.047667">
 <ele>301.320000</ele>
<time>2009-10-10T10:08:17Z</time>
</trkpt>
<trkpt lat="37.970704" lon="-1.047663">
 <ele>301.940000</ele>
<time>2009-10-10T10:08:18Z</time>
</trkpt>
<trkpt lat="37.970693" lon="-1.047684">
 <ele>301.840000</ele>
<time>2009-10-10T10:08:19Z</time>
</trkpt>
<trkpt lat="37.970686" lon="-1.047700">
 <ele>301.820000</ele>
<time>2009-10-10T10:08:22Z</time>
</trkpt>
<trkpt lat="37.970677" lon="-1.047717">
 <ele>302.580000</ele>
<time>2009-10-10T10:08:23Z</time>
</trkpt>
<trkpt lat="37.970686" lon="-1.047718">
 <ele>301.580000</ele>
<time>2009-10-10T10:08:24Z</time>
</trkpt>
<trkpt lat="37.970693" lon="-1.047713">
 <ele>301.680000</ele>
<time>2009-10-10T10:08:25Z</time>
</trkpt>
<trkpt lat="37.970678" lon="-1.047719">
 <ele>301.220000</ele>
<time>2009-10-10T10:08:26Z</time>
</trkpt>
<trkpt lat="37.970665" lon="-1.047757">
 <ele>298.260000</ele>
<time>2009-10-10T10:08:30Z</time>
</trkpt>
<trkpt lat="37.970650" lon="-1.047776">
 <ele>298.020000</ele>
<time>2009-10-10T10:08:31Z</time>
</trkpt>
<trkpt lat="37.970645" lon="-1.047780">
 <ele>296.280000</ele>
<time>2009-10-10T10:08:33Z</time>
</trkpt>
<trkpt lat="37.970639" lon="-1.047789">
 <ele>295.720000</ele>
<time>2009-10-10T10:08:34Z</time>
</trkpt>
<trkpt lat="37.970654" lon="-1.047784">
 <ele>295.160000</ele>
<time>2009-10-10T10:08:35Z</time>
</trkpt>
<trkpt lat="37.970650" lon="-1.047784">
 <ele>295.820000</ele>
<time>2009-10-10T10:08:36Z</time>
</trkpt>
<trkpt lat="37.970648" lon="-1.047790">
 <ele>295.140000</ele>
<time>2009-10-10T10:08:37Z</time>
</trkpt>
<trkpt lat="37.970647" lon="-1.047790">
 <ele>295.220000</ele>
<time>2009-10-10T10:08:38Z</time>
</trkpt>
<trkpt lat="37.970647" lon="-1.047790">
 <ele>295.700000</ele>
<time>2009-10-10T10:08:39Z</time>
</trkpt>
<trkpt lat="37.970642" lon="-1.047801">
 <ele>294.660000</ele>
<time>2009-10-10T10:08:43Z</time>
</trkpt>
<trkpt lat="37.970606" lon="-1.047853">
 <ele>295.780000</ele>
<time>2009-10-10T10:08:46Z</time>
</trkpt>
<trkpt lat="37.970617" lon="-1.047860">
 <ele>291.280000</ele>
<time>2009-10-10T10:08:47Z</time>
</trkpt>
<trkpt lat="37.970618" lon="-1.047858">
 <ele>292.760000</ele>
<time>2009-10-10T10:08:48Z</time>
</trkpt>
<trkpt lat="37.970619" lon="-1.047864">
 <ele>293.480000</ele>
<time>2009-10-10T10:08:49Z</time>
</trkpt>
<trkpt lat="37.970619" lon="-1.047863">
 <ele>293.100000</ele>
<time>2009-10-10T10:08:50Z</time>
</trkpt>
<trkpt lat="37.970617" lon="-1.047867">
 <ele>292.860000</ele>
<time>2009-10-10T10:08:51Z</time>
</trkpt>
<trkpt lat="37.970617" lon="-1.047867">
 <ele>293.100000</ele>
<time>2009-10-10T10:08:52Z</time>
</trkpt>
<trkpt lat="37.970614" lon="-1.047896">
 <ele>294.980000</ele>
<time>2009-10-10T10:09:05Z</time>
</trkpt>
<trkpt lat="37.970626" lon="-1.047949">
 <ele>300.480000</ele>
<time>2009-10-10T10:09:07Z</time>
</trkpt>
<trkpt lat="37.970618" lon="-1.048019">
 <ele>295.560000</ele>
<time>2009-10-10T10:09:10Z</time>
</trkpt>
<trkpt lat="37.970607" lon="-1.048011">
 <ele>295.020000</ele>
<time>2009-10-10T10:09:11Z</time>
</trkpt>
<trkpt lat="37.970615" lon="-1.047995">
 <ele>295.840000</ele>
<time>2009-10-10T10:09:12Z</time>
</trkpt>
<trkpt lat="37.970605" lon="-1.048007">
 <ele>294.940000</ele>
<time>2009-10-10T10:09:13Z</time>
</trkpt>
<trkpt lat="37.970610" lon="-1.048003">
 <ele>295.100000</ele>
<time>2009-10-10T10:09:14Z</time>
</trkpt>
<trkpt lat="37.970610" lon="-1.048003">
 <ele>295.500000</ele>
<time>2009-10-10T10:09:15Z</time>
</trkpt>
<trkpt lat="37.970609" lon="-1.048018">
 <ele>296.500000</ele>
<time>2009-10-10T10:09:16Z</time>
</trkpt>
<trkpt lat="37.970593" lon="-1.048111">
 <ele>298.660000</ele>
<time>2009-10-10T10:09:23Z</time>
</trkpt>
<trkpt lat="37.970577" lon="-1.048094">
 <ele>300.540000</ele>
<time>2009-10-10T10:09:25Z</time>
</trkpt>
<trkpt lat="37.970548" lon="-1.048135">
 <ele>300.780000</ele>
<time>2009-10-10T10:09:30Z</time>
</trkpt>
<trkpt lat="37.970551" lon="-1.048133">
 <ele>302.100000</ele>
<time>2009-10-10T10:09:31Z</time>
</trkpt>
<trkpt lat="37.970547" lon="-1.048124">
 <ele>299.400000</ele>
<time>2009-10-10T10:09:32Z</time>
</trkpt>
<trkpt lat="37.970533" lon="-1.048143">
 <ele>300.600000</ele>
<time>2009-10-10T10:09:33Z</time>
</trkpt>
<trkpt lat="37.970533" lon="-1.048126">
 <ele>300.800000</ele>
<time>2009-10-10T10:09:34Z</time>
</trkpt>
<trkpt lat="37.970525" lon="-1.048139">
 <ele>300.880000</ele>
<time>2009-10-10T10:09:35Z</time>
</trkpt>
<trkpt lat="37.970510" lon="-1.048234">
 <ele>302.540000</ele>
<time>2009-10-10T10:09:42Z</time>
</trkpt>
<trkpt lat="37.970486" lon="-1.048231">
 <ele>299.800000</ele>
<time>2009-10-10T10:09:43Z</time>
</trkpt>
<trkpt lat="37.970486" lon="-1.048179">
 <ele>287.600000</ele>
<time>2009-10-10T10:09:47Z</time>
</trkpt>
<trkpt lat="37.970476" lon="-1.048175">
 <ele>289.140000</ele>
<time>2009-10-10T10:09:48Z</time>
</trkpt>
<trkpt lat="37.970457" lon="-1.048169">
 <ele>285.560000</ele>
<time>2009-10-10T10:09:49Z</time>
</trkpt>
<trkpt lat="37.970458" lon="-1.048172">
 <ele>285.300000</ele>
<time>2009-10-10T10:09:50Z</time>
</trkpt>
<trkpt lat="37.970453" lon="-1.048156">
 <ele>284.740000</ele>
<time>2009-10-10T10:09:51Z</time>
</trkpt>
<trkpt lat="37.970440" lon="-1.048104">
 <ele>279.880000</ele>
<time>2009-10-10T10:09:56Z</time>
</trkpt>
<trkpt lat="37.970454" lon="-1.048108">
 <ele>277.560000</ele>
<time>2009-10-10T10:09:57Z</time>
</trkpt>
<trkpt lat="37.970441" lon="-1.048100">
 <ele>280.780000</ele>
<time>2009-10-10T10:09:58Z</time>
</trkpt>
<trkpt lat="37.970445" lon="-1.048106">
 <ele>279.140000</ele>
<time>2009-10-10T10:09:59Z</time>
</trkpt>
<trkpt lat="37.970445" lon="-1.048100">
 <ele>279.220000</ele>
<time>2009-10-10T10:10:00Z</time>
</trkpt>
<trkpt lat="37.970445" lon="-1.048100">
 <ele>279.700000</ele>
<time>2009-10-10T10:10:01Z</time>
</trkpt>
<trkpt lat="37.970443" lon="-1.048092">
 <ele>277.740000</ele>
<time>2009-10-10T10:10:18Z</time>
</trkpt>
<trkpt lat="37.970424" lon="-1.048065">
 <ele>279.360000</ele>
<time>2009-10-10T10:10:21Z</time>
</trkpt>
<trkpt lat="37.970441" lon="-1.048060">
 <ele>271.740000</ele>
<time>2009-10-10T10:10:22Z</time>
</trkpt>
<trkpt lat="37.970452" lon="-1.048066">
 <ele>276.600000</ele>
<time>2009-10-10T10:10:24Z</time>
</trkpt>
<trkpt lat="37.970553" lon="-1.048052">
 <ele>280.020000</ele>
<time>2009-10-10T10:10:29Z</time>
</trkpt>
<trkpt lat="37.970557" lon="-1.048087">
 <ele>279.380000</ele>
<time>2009-10-10T10:10:31Z</time>
</trkpt>
<trkpt lat="37.970571" lon="-1.048088">
 <ele>278.020000</ele>
<time>2009-10-10T10:10:33Z</time>
</trkpt>
<trkpt lat="37.970562" lon="-1.048057">
 <ele>277.500000</ele>
<time>2009-10-10T10:10:34Z</time>
</trkpt>
<trkpt lat="37.970576" lon="-1.048057">
 <ele>277.760000</ele>
<time>2009-10-10T10:10:37Z</time>
</trkpt>
<trkpt lat="37.970562" lon="-1.048081">
 <ele>273.840000</ele>
<time>2009-10-10T10:10:40Z</time>
</trkpt>
<trkpt lat="37.970502" lon="-1.048029">
 <ele>268.720000</ele>
<time>2009-10-10T10:10:45Z</time>
</trkpt>
<trkpt lat="37.970491" lon="-1.048054">
 <ele>269.920000</ele>
<time>2009-10-10T10:10:46Z</time>
</trkpt>
<trkpt lat="37.970493" lon="-1.048040">
 <ele>271.320000</ele>
<time>2009-10-10T10:10:47Z</time>
</trkpt>
<trkpt lat="37.970495" lon="-1.048050">
 <ele>269.600000</ele>
<time>2009-10-10T10:10:48Z</time>
</trkpt>
<trkpt lat="37.970493" lon="-1.048043">
 <ele>270.560000</ele>
<time>2009-10-10T10:10:49Z</time>
</trkpt>
<trkpt lat="37.970493" lon="-1.048043">
 <ele>270.400000</ele>
<time>2009-10-10T10:10:50Z</time>
</trkpt>
<trkpt lat="37.970485" lon="-1.048038">
 <ele>267.880000</ele>
<time>2009-10-10T10:10:52Z</time>
</trkpt>
<trkpt lat="37.970457" lon="-1.048008">
 <ele>267.640000</ele>
<time>2009-10-10T10:10:55Z</time>
</trkpt>
<trkpt lat="37.970463" lon="-1.048021">
 <ele>257.460000</ele>
<time>2009-10-10T10:10:56Z</time>
</trkpt>
<trkpt lat="37.970462" lon="-1.048014">
 <ele>262.600000</ele>
<time>2009-10-10T10:10:57Z</time>
</trkpt>
<trkpt lat="37.970464" lon="-1.048014">
 <ele>262.720000</ele>
<time>2009-10-10T10:10:58Z</time>
</trkpt>
<trkpt lat="37.970456" lon="-1.048007">
 <ele>263.500000</ele>
<time>2009-10-10T10:10:59Z</time>
</trkpt>
<trkpt lat="37.970445" lon="-1.048000">
 <ele>265.940000</ele>
<time>2009-10-10T10:11:01Z</time>
</trkpt>
<trkpt lat="37.970464" lon="-1.048010">
 <ele>267.820000</ele>
<time>2009-10-10T10:11:02Z</time>
</trkpt>
<trkpt lat="37.970467" lon="-1.048017">
 <ele>267.140000</ele>
<time>2009-10-10T10:11:03Z</time>
</trkpt>
<trkpt lat="37.970460" lon="-1.048021">
 <ele>267.060000</ele>
<time>2009-10-10T10:11:04Z</time>
</trkpt>
<trkpt lat="37.970460" lon="-1.048018">
 <ele>267.860000</ele>
<time>2009-10-10T10:11:05Z</time>
</trkpt>
<trkpt lat="37.970460" lon="-1.048018">
 <ele>266.900000</ele>
<time>2009-10-10T10:11:06Z</time>
</trkpt>
<trkpt lat="37.970471" lon="-1.048022">
 <ele>268.460000</ele>
<time>2009-10-10T10:11:12Z</time>
</trkpt>
<trkpt lat="37.970508" lon="-1.048025">
 <ele>265.980000</ele>
<time>2009-10-10T10:11:15Z</time>
</trkpt>
<trkpt lat="37.970496" lon="-1.048031">
 <ele>272.000000</ele>
<time>2009-10-10T10:11:16Z</time>
</trkpt>
<trkpt lat="37.970506" lon="-1.048030">
 <ele>269.260000</ele>
<time>2009-10-10T10:11:17Z</time>
</trkpt>
<trkpt lat="37.970496" lon="-1.048031">
 <ele>268.700000</ele>
<time>2009-10-10T10:11:18Z</time>
</trkpt>
<trkpt lat="37.970500" lon="-1.048030">
 <ele>268.780000</ele>
<time>2009-10-10T10:11:19Z</time>
</trkpt>
<trkpt lat="37.970500" lon="-1.048030">
 <ele>269.100000</ele>
<time>2009-10-10T10:11:20Z</time>
</trkpt>
<trkpt lat="37.970495" lon="-1.048033">
 <ele>269.700000</ele>
<time>2009-10-10T10:11:21Z</time>
</trkpt>
<trkpt lat="37.970469" lon="-1.048038">
 <ele>269.280000</ele>
<time>2009-10-10T10:11:24Z</time>
</trkpt>
<trkpt lat="37.970483" lon="-1.048054">
 <ele>271.300000</ele>
<time>2009-10-10T10:11:25Z</time>
</trkpt>
<trkpt lat="37.970472" lon="-1.048048">
 <ele>270.420000</ele>
<time>2009-10-10T10:11:26Z</time>
</trkpt>
<trkpt lat="37.970465" lon="-1.048045">
 <ele>270.300000</ele>
<time>2009-10-10T10:11:27Z</time>
</trkpt>
<trkpt lat="37.970467" lon="-1.048047">
 <ele>270.140000</ele>
<time>2009-10-10T10:11:28Z</time>
</trkpt>
<trkpt lat="37.970467" lon="-1.048047">
 <ele>270.300000</ele>
<time>2009-10-10T10:11:29Z</time>
</trkpt>
<trkpt lat="37.970467" lon="-1.048047">
 <ele>270.300000</ele>
<time>2009-10-10T10:11:30Z</time>
</trkpt>
<trkpt lat="37.970467" lon="-1.048047">
 <ele>270.300000</ele>
<time>2009-10-10T10:11:31Z</time>
</trkpt>
<trkpt lat="37.970467" lon="-1.048047">
 <ele>270.300000</ele>
<time>2009-10-10T10:11:32Z</time>
</trkpt>
<trkpt lat="37.970467" lon="-1.048047">
 <ele>270.300000</ele>
<time>2009-10-10T10:11:33Z</time>
</trkpt>
<trkpt lat="37.970467" lon="-1.048047">
 <ele>270.300000</ele>
<time>2009-10-10T10:11:34Z</time>
</trkpt>
<trkpt lat="37.970467" lon="-1.048047">
 <ele>270.300000</ele>
<time>2009-10-10T10:11:35Z</time>
</trkpt>
<trkpt lat="37.970467" lon="-1.048047">
 <ele>270.300000</ele>
<time>2009-10-10T10:11:36Z</time>
</trkpt>
<trkpt lat="37.970467" lon="-1.048047">
 <ele>270.300000</ele>
<time>2009-10-10T10:11:37Z</time>
</trkpt>
<trkpt lat="37.970467" lon="-1.048047">
 <ele>270.300000</ele>
<time>2009-10-10T10:11:38Z</time>
</trkpt>
<trkpt lat="37.970467" lon="-1.048047">
 <ele>270.300000</ele>
<time>2009-10-10T10:11:39Z</time>
</trkpt>
<trkpt lat="37.970467" lon="-1.048047">
 <ele>270.300000</ele>
<time>2009-10-10T10:11:40Z</time>
</trkpt>
<trkpt lat="37.970467" lon="-1.048047">
 <ele>270.300000</ele>
<time>2009-10-10T10:11:41Z</time>
</trkpt>
<trkpt lat="37.970467" lon="-1.048047">
 <ele>270.300000</ele>
<time>2009-10-10T10:11:42Z</time>
</trkpt>
<trkpt lat="37.970541" lon="-1.048131">
 <ele>273.480000</ele>
<time>2009-10-10T10:11:47Z</time>
</trkpt>
<trkpt lat="37.970526" lon="-1.048137">
 <ele>274.340000</ele>
<time>2009-10-10T10:11:48Z</time>
</trkpt>
<trkpt lat="37.970533" lon="-1.048125">
 <ele>274.420000</ele>
<time>2009-10-10T10:11:49Z</time>
</trkpt>
<trkpt lat="37.970532" lon="-1.048124">
 <ele>273.060000</ele>
<time>2009-10-10T10:11:50Z</time>
</trkpt>
<trkpt lat="37.970534" lon="-1.048136">
 <ele>274.980000</ele>
<time>2009-10-10T10:11:51Z</time>
</trkpt>
<trkpt lat="37.970550" lon="-1.048154">
 <ele>277.900000</ele>
<time>2009-10-10T10:11:55Z</time>
</trkpt>
<trkpt lat="37.970526" lon="-1.048153">
 <ele>276.140000</ele>
<time>2009-10-10T10:11:56Z</time>
</trkpt>
<trkpt lat="37.970531" lon="-1.048151">
 <ele>277.060000</ele>
<time>2009-10-10T10:11:57Z</time>
</trkpt>
<trkpt lat="37.970526" lon="-1.048159">
 <ele>276.340000</ele>
<time>2009-10-10T10:11:58Z</time>
</trkpt>
<trkpt lat="37.970528" lon="-1.048157">
 <ele>276.820000</ele>
<time>2009-10-10T10:11:59Z</time>
</trkpt>
<trkpt lat="37.970528" lon="-1.048157">
 <ele>276.500000</ele>
<time>2009-10-10T10:12:00Z</time>
</trkpt>
<trkpt lat="37.970528" lon="-1.048157">
 <ele>276.500000</ele>
<time>2009-10-10T10:12:01Z</time>
</trkpt>
<trkpt lat="37.970528" lon="-1.048157">
 <ele>276.500000</ele>
<time>2009-10-10T10:12:02Z</time>
</trkpt>
<trkpt lat="37.970528" lon="-1.048157">
 <ele>276.500000</ele>
<time>2009-10-10T10:12:03Z</time>
</trkpt>
<trkpt lat="37.970528" lon="-1.048157">
 <ele>276.500000</ele>
<time>2009-10-10T10:12:04Z</time>
</trkpt>
<trkpt lat="37.970528" lon="-1.048157">
 <ele>276.500000</ele>
<time>2009-10-10T10:12:05Z</time>
</trkpt>
<trkpt lat="37.970520" lon="-1.048147">
 <ele>274.700000</ele>
<time>2009-10-10T10:12:06Z</time>
</trkpt>
<trkpt lat="37.970481" lon="-1.048125">
 <ele>273.440000</ele>
<time>2009-10-10T10:12:09Z</time>
</trkpt>
<trkpt lat="37.970504" lon="-1.048116">
 <ele>270.700000</ele>
<time>2009-10-10T10:12:10Z</time>
</trkpt>
<trkpt lat="37.970543" lon="-1.048141">
 <ele>277.520000</ele>
<time>2009-10-10T10:12:14Z</time>
</trkpt>
<trkpt lat="37.970532" lon="-1.048134">
 <ele>276.880000</ele>
<time>2009-10-10T10:12:15Z</time>
</trkpt>
<trkpt lat="37.970555" lon="-1.048162">
 <ele>279.140000</ele>
<time>2009-10-10T10:12:17Z</time>
</trkpt>
<trkpt lat="37.970587" lon="-1.048231">
 <ele>284.640000</ele>
<time>2009-10-10T10:12:21Z</time>
</trkpt>
<trkpt lat="37.970631" lon="-1.048403">
 <ele>290.400000</ele>
<time>2009-10-10T10:12:38Z</time>
</trkpt>
<trkpt lat="37.970626" lon="-1.048396">
 <ele>289.180000</ele>
<time>2009-10-10T10:12:39Z</time>
</trkpt>
<trkpt lat="37.970625" lon="-1.048391">
 <ele>289.120000</ele>
<time>2009-10-10T10:12:40Z</time>
</trkpt>
<trkpt lat="37.970623" lon="-1.048389">
 <ele>289.240000</ele>
<time>2009-10-10T10:12:41Z</time>
</trkpt>
<trkpt lat="37.970618" lon="-1.048388">
 <ele>288.360000</ele>
<time>2009-10-10T10:12:42Z</time>
</trkpt>
<trkpt lat="37.970618" lon="-1.048388">
 <ele>289.800000</ele>
<time>2009-10-10T10:12:43Z</time>
</trkpt>
<trkpt lat="37.970597" lon="-1.048368">
 <ele>281.960000</ele>
<time>2009-10-10T10:13:00Z</time>
</trkpt>
<trkpt lat="37.970490" lon="-1.048329">
 <ele>273.900000</ele>
<time>2009-10-10T10:13:05Z</time>
</trkpt>
<trkpt lat="37.970504" lon="-1.048393">
 <ele>282.480000</ele>
<time>2009-10-10T10:13:10Z</time>
</trkpt>
<trkpt lat="37.970484" lon="-1.048486">
 <ele>290.460000</ele>
<time>2009-10-10T10:13:16Z</time>
</trkpt>
<trkpt lat="37.970485" lon="-1.048522">
 <ele>292.520000</ele>
<time>2009-10-10T10:13:19Z</time>
</trkpt>
<trkpt lat="37.970487" lon="-1.048548">
 <ele>294.020000</ele>
<time>2009-10-10T10:13:20Z</time>
</trkpt>
<trkpt lat="37.970493" lon="-1.048597">
 <ele>296.980000</ele>
<time>2009-10-10T10:13:25Z</time>
</trkpt>
<trkpt lat="37.970499" lon="-1.048599">
 <ele>296.100000</ele>
<time>2009-10-10T10:13:26Z</time>
</trkpt>
<trkpt lat="37.970494" lon="-1.048599">
 <ele>295.640000</ele>
<time>2009-10-10T10:13:27Z</time>
</trkpt>
<trkpt lat="37.970494" lon="-1.048603">
 <ele>296.520000</ele>
<time>2009-10-10T10:13:28Z</time>
</trkpt>
<trkpt lat="37.970492" lon="-1.048608">
 <ele>295.160000</ele>
<time>2009-10-10T10:13:29Z</time>
</trkpt>
<trkpt lat="37.970492" lon="-1.048608">
 <ele>295.800000</ele>
<time>2009-10-10T10:13:30Z</time>
</trkpt>
<trkpt lat="37.970486" lon="-1.048628">
 <ele>295.680000</ele>
<time>2009-10-10T10:13:34Z</time>
</trkpt>
<trkpt lat="37.970468" lon="-1.048689">
 <ele>296.840000</ele>
<time>2009-10-10T10:13:36Z</time>
</trkpt>
<trkpt lat="37.970457" lon="-1.048777">
 <ele>300.240000</ele>
<time>2009-10-10T10:13:41Z</time>
</trkpt>
<trkpt lat="37.970453" lon="-1.048781">
 <ele>299.000000</ele>
<time>2009-10-10T10:13:42Z</time>
</trkpt>
<trkpt lat="37.970431" lon="-1.048824">
 <ele>303.420000</ele>
<time>2009-10-10T10:13:47Z</time>
</trkpt>
<trkpt lat="37.970406" lon="-1.048855">
 <ele>305.520000</ele>
<time>2009-10-10T10:13:49Z</time>
</trkpt>
<trkpt lat="37.970436" lon="-1.048964">
 <ele>311.440000</ele>
<time>2009-10-10T10:13:54Z</time>
</trkpt>
<trkpt lat="37.970420" lon="-1.048978">
 <ele>312.100000</ele>
<time>2009-10-10T10:13:55Z</time>
</trkpt>
<trkpt lat="37.970406" lon="-1.049061">
 <ele>314.580000</ele>
<time>2009-10-10T10:14:01Z</time>
</trkpt>
<trkpt lat="37.970386" lon="-1.049099">
 <ele>315.980000</ele>
<time>2009-10-10T10:14:03Z</time>
</trkpt>
<trkpt lat="37.970369" lon="-1.049200">
 <ele>319.740000</ele>
<time>2009-10-10T10:14:07Z</time>
</trkpt>
<trkpt lat="37.970370" lon="-1.049195">
 <ele>321.360000</ele>
<time>2009-10-10T10:14:08Z</time>
</trkpt>
<trkpt lat="37.970365" lon="-1.049218">
 <ele>316.620000</ele>
<time>2009-10-10T10:14:09Z</time>
</trkpt>
<trkpt lat="37.970345" lon="-1.049211">
 <ele>318.460000</ele>
<time>2009-10-10T10:14:10Z</time>
</trkpt>
<trkpt lat="37.970342" lon="-1.049219">
 <ele>318.220000</ele>
<time>2009-10-10T10:14:11Z</time>
</trkpt>
<trkpt lat="37.970340" lon="-1.049214">
 <ele>313.980000</ele>
<time>2009-10-10T10:14:12Z</time>
</trkpt>
<trkpt lat="37.970341" lon="-1.049219">
 <ele>309.000000</ele>
<time>2009-10-10T10:14:16Z</time>
</trkpt>
<trkpt lat="37.970330" lon="-1.049216">
 <ele>304.800000</ele>
<time>2009-10-10T10:14:17Z</time>
</trkpt>
<trkpt lat="37.970329" lon="-1.049188">
 <ele>303.940000</ele>
<time>2009-10-10T10:14:18Z</time>
</trkpt>
<trkpt lat="37.970316" lon="-1.049189">
 <ele>304.200000</ele>
<time>2009-10-10T10:14:19Z</time>
</trkpt>
<trkpt lat="37.970317" lon="-1.049188">
 <ele>305.180000</ele>
<time>2009-10-10T10:14:20Z</time>
</trkpt>
<trkpt lat="37.970315" lon="-1.049188">
 <ele>303.260000</ele>
<time>2009-10-10T10:14:21Z</time>
</trkpt>
<trkpt lat="37.970315" lon="-1.049188">
 <ele>305.100000</ele>
<time>2009-10-10T10:14:22Z</time>
</trkpt>
<trkpt lat="37.970294" lon="-1.049150">
 <ele>291.140000</ele>
<time>2009-10-10T10:14:44Z</time>
</trkpt>
<trkpt lat="37.970240" lon="-1.049012">
 <ele>295.240000</ele>
<time>2009-10-10T10:14:47Z</time>
</trkpt>
<trkpt lat="37.970212" lon="-1.048987">
 <ele>239.400000</ele>
<time>2009-10-10T10:14:48Z</time>
</trkpt>
<trkpt lat="37.970216" lon="-1.048986">
 <ele>266.620000</ele>
<time>2009-10-10T10:14:49Z</time>
</trkpt>
<trkpt lat="37.970213" lon="-1.048986">
 <ele>267.280000</ele>
<time>2009-10-10T10:14:50Z</time>
</trkpt>
<trkpt lat="37.970217" lon="-1.048980">
 <ele>266.320000</ele>
<time>2009-10-10T10:14:51Z</time>
</trkpt>
<trkpt lat="37.970217" lon="-1.048980">
 <ele>267.200000</ele>
<time>2009-10-10T10:14:52Z</time>
</trkpt>
<trkpt lat="37.970217" lon="-1.048980">
 <ele>266.560000</ele>
<time>2009-10-10T10:15:02Z</time>
</trkpt>
<trkpt lat="37.970215" lon="-1.048981">
 <ele>265.520000</ele>
<time>2009-10-10T10:15:03Z</time>
</trkpt>
<trkpt lat="37.970205" lon="-1.048976">
 <ele>263.300000</ele>
<time>2009-10-10T10:15:06Z</time>
</trkpt>
<trkpt lat="37.970189" lon="-1.048975">
 <ele>264.460000</ele>
<time>2009-10-10T10:15:07Z</time>
</trkpt>
<trkpt lat="37.970192" lon="-1.048979">
 <ele>264.240000</ele>
<time>2009-10-10T10:15:08Z</time>
</trkpt>
<trkpt lat="37.970187" lon="-1.048984">
 <ele>264.120000</ele>
<time>2009-10-10T10:15:09Z</time>
</trkpt>
<trkpt lat="37.970193" lon="-1.048975">
 <ele>264.680000</ele>
<time>2009-10-10T10:15:10Z</time>
</trkpt>
<trkpt lat="37.970186" lon="-1.048976">
 <ele>263.940000</ele>
<time>2009-10-10T10:15:11Z</time>
</trkpt>
<trkpt lat="37.970152" lon="-1.049013">
 <ele>264.560000</ele>
<time>2009-10-10T10:15:15Z</time>
</trkpt>
<trkpt lat="37.970161" lon="-1.049004">
 <ele>263.220000</ele>
<time>2009-10-10T10:15:16Z</time>
</trkpt>
<trkpt lat="37.970160" lon="-1.049002">
 <ele>264.360000</ele>
<time>2009-10-10T10:15:17Z</time>
</trkpt>
<trkpt lat="37.970160" lon="-1.049012">
 <ele>263.760000</ele>
<time>2009-10-10T10:15:18Z</time>
</trkpt>
<trkpt lat="37.970157" lon="-1.049010">
 <ele>264.160000</ele>
<time>2009-10-10T10:15:19Z</time>
</trkpt>
<trkpt lat="37.970157" lon="-1.049010">
 <ele>264.000000</ele>
<time>2009-10-10T10:15:20Z</time>
</trkpt>
<trkpt lat="37.970146" lon="-1.049015">
 <ele>264.320000</ele>
<time>2009-10-10T10:15:23Z</time>
</trkpt>
<trkpt lat="37.970103" lon="-1.049049">
 <ele>264.120000</ele>
<time>2009-10-10T10:15:26Z</time>
</trkpt>
<trkpt lat="37.970116" lon="-1.049050">
 <ele>265.280000</ele>
<time>2009-10-10T10:15:27Z</time>
</trkpt>
<trkpt lat="37.970109" lon="-1.049032">
 <ele>265.600000</ele>
<time>2009-10-10T10:15:28Z</time>
</trkpt>
<trkpt lat="37.970090" lon="-1.049048">
 <ele>264.120000</ele>
<time>2009-10-10T10:15:29Z</time>
</trkpt>
<trkpt lat="37.970099" lon="-1.049047">
 <ele>265.380000</ele>
<time>2009-10-10T10:15:30Z</time>
</trkpt>
<trkpt lat="37.970095" lon="-1.049048">
 <ele>264.820000</ele>
<time>2009-10-10T10:15:31Z</time>
</trkpt>
<trkpt lat="37.970095" lon="-1.049048">
 <ele>264.900000</ele>
<time>2009-10-10T10:15:32Z</time>
</trkpt>
<trkpt lat="37.970078" lon="-1.049057">
 <ele>263.100000</ele>
<time>2009-10-10T10:15:54Z</time>
</trkpt>
<trkpt lat="37.970014" lon="-1.049098">
 <ele>265.620000</ele>
<time>2009-10-10T10:15:57Z</time>
</trkpt>
<trkpt lat="37.970016" lon="-1.049110">
 <ele>258.900000</ele>
<time>2009-10-10T10:15:58Z</time>
</trkpt>
<trkpt lat="37.970010" lon="-1.049096">
 <ele>262.080000</ele>
<time>2009-10-10T10:15:59Z</time>
</trkpt>
<trkpt lat="37.970003" lon="-1.049098">
 <ele>262.440000</ele>
<time>2009-10-10T10:16:00Z</time>
</trkpt>
<trkpt lat="37.970003" lon="-1.049102">
 <ele>262.680000</ele>
<time>2009-10-10T10:16:01Z</time>
</trkpt>
<trkpt lat="37.970003" lon="-1.049102">
 <ele>262.200000</ele>
<time>2009-10-10T10:16:02Z</time>
</trkpt>
<trkpt lat="37.969998" lon="-1.049109">
 <ele>263.440000</ele>
<time>2009-10-10T10:16:07Z</time>
</trkpt>
<trkpt lat="37.969961" lon="-1.049116">
 <ele>264.580000</ele>
<time>2009-10-10T10:16:10Z</time>
</trkpt>
<trkpt lat="37.969968" lon="-1.049111">
 <ele>269.480000</ele>
<time>2009-10-10T10:16:11Z</time>
</trkpt>
<trkpt lat="37.969960" lon="-1.049129">
 <ele>266.280000</ele>
<time>2009-10-10T10:16:12Z</time>
</trkpt>
<trkpt lat="37.969932" lon="-1.049139">
 <ele>264.260000</ele>
<time>2009-10-10T10:16:15Z</time>
</trkpt>
<trkpt lat="37.969955" lon="-1.049129">
 <ele>263.360000</ele>
<time>2009-10-10T10:16:16Z</time>
</trkpt>
<trkpt lat="37.969972" lon="-1.049154">
 <ele>262.440000</ele>
<time>2009-10-10T10:16:17Z</time>
</trkpt>
<trkpt lat="37.969951" lon="-1.049136">
 <ele>263.320000</ele>
<time>2009-10-10T10:16:18Z</time>
</trkpt>
<trkpt lat="37.969957" lon="-1.049144">
 <ele>263.400000</ele>
<time>2009-10-10T10:16:19Z</time>
</trkpt>
<trkpt lat="37.969958" lon="-1.049143">
 <ele>263.080000</ele>
<time>2009-10-10T10:16:20Z</time>
</trkpt>
<trkpt lat="37.969958" lon="-1.049143">
 <ele>263.400000</ele>
<time>2009-10-10T10:16:21Z</time>
</trkpt>
<trkpt lat="37.969949" lon="-1.049142">
 <ele>260.640000</ele>
<time>2009-10-10T10:16:35Z</time>
</trkpt>
<trkpt lat="37.969889" lon="-1.049144">
 <ele>250.300000</ele>
<time>2009-10-10T10:16:39Z</time>
</trkpt>
<trkpt lat="37.969886" lon="-1.049138">
 <ele>255.940000</ele>
<time>2009-10-10T10:16:40Z</time>
</trkpt>
<trkpt lat="37.969875" lon="-1.049137">
 <ele>255.160000</ele>
<time>2009-10-10T10:16:42Z</time>
</trkpt>
<trkpt lat="37.969883" lon="-1.049132">
 <ele>256.060000</ele>
<time>2009-10-10T10:16:43Z</time>
</trkpt>
<trkpt lat="37.969886" lon="-1.049141">
 <ele>256.360000</ele>
<time>2009-10-10T10:16:44Z</time>
</trkpt>
<trkpt lat="37.969869" lon="-1.049146">
 <ele>255.180000</ele>
<time>2009-10-10T10:16:45Z</time>
</trkpt>
<trkpt lat="37.969873" lon="-1.049142">
 <ele>256.300000</ele>
<time>2009-10-10T10:16:46Z</time>
</trkpt>
<trkpt lat="37.969873" lon="-1.049142">
 <ele>255.900000</ele>
<time>2009-10-10T10:16:47Z</time>
</trkpt>
<trkpt lat="37.969871" lon="-1.049143">
 <ele>256.260000</ele>
<time>2009-10-10T10:16:51Z</time>
</trkpt>
<trkpt lat="37.969872" lon="-1.049142">
 <ele>256.720000</ele>
<time>2009-10-10T10:16:52Z</time>
</trkpt>
<trkpt lat="37.969859" lon="-1.049129">
 <ele>256.100000</ele>
<time>2009-10-10T10:16:55Z</time>
</trkpt>
<trkpt lat="37.969855" lon="-1.049138">
 <ele>255.920000</ele>
<time>2009-10-10T10:16:56Z</time>
</trkpt>
<trkpt lat="37.969866" lon="-1.049137">
 <ele>255.440000</ele>
<time>2009-10-10T10:16:57Z</time>
</trkpt>
<trkpt lat="37.969868" lon="-1.049133">
 <ele>255.380000</ele>
<time>2009-10-10T10:16:58Z</time>
</trkpt>
<trkpt lat="37.969867" lon="-1.049133">
 <ele>255.780000</ele>
<time>2009-10-10T10:16:59Z</time>
</trkpt>
<trkpt lat="37.969867" lon="-1.049133">
 <ele>255.700000</ele>
<time>2009-10-10T10:17:00Z</time>
</trkpt>
<trkpt lat="37.969867" lon="-1.049158">
 <ele>258.620000</ele>
<time>2009-10-10T10:17:15Z</time>
</trkpt>
<trkpt lat="37.969856" lon="-1.049211">
 <ele>268.240000</ele>
<time>2009-10-10T10:17:17Z</time>
</trkpt>
<trkpt lat="37.969849" lon="-1.049237">
 <ele>258.200000</ele>
<time>2009-10-10T10:17:18Z</time>
</trkpt>
<trkpt lat="37.969869" lon="-1.049248">
 <ele>268.420000</ele>
<time>2009-10-10T10:17:19Z</time>
</trkpt>
<trkpt lat="37.969867" lon="-1.049264">
 <ele>262.420000</ele>
<time>2009-10-10T10:17:20Z</time>
</trkpt>
<trkpt lat="37.969872" lon="-1.049256">
 <ele>263.540000</ele>
<time>2009-10-10T10:17:21Z</time>
</trkpt>
<trkpt lat="37.969857" lon="-1.049266">
 <ele>260.260000</ele>
<time>2009-10-10T10:17:22Z</time>
</trkpt>
<trkpt lat="37.969848" lon="-1.049300">
 <ele>257.280000</ele>
<time>2009-10-10T10:17:25Z</time>
</trkpt>
<trkpt lat="37.969856" lon="-1.049294">
 <ele>256.200000</ele>
<time>2009-10-10T10:17:27Z</time>
</trkpt>
<trkpt lat="37.969864" lon="-1.049282">
 <ele>255.420000</ele>
<time>2009-10-10T10:17:28Z</time>
</trkpt>
<trkpt lat="37.969861" lon="-1.049296">
 <ele>255.320000</ele>
<time>2009-10-10T10:17:29Z</time>
</trkpt>
<trkpt lat="37.969870" lon="-1.049295">
 <ele>255.920000</ele>
<time>2009-10-10T10:17:30Z</time>
</trkpt>
<trkpt lat="37.969867" lon="-1.049293">
 <ele>255.200000</ele>
<time>2009-10-10T10:17:31Z</time>
</trkpt>
<trkpt lat="37.969867" lon="-1.049293">
 <ele>256.000000</ele>
<time>2009-10-10T10:17:32Z</time>
</trkpt>
<trkpt lat="37.969868" lon="-1.049310">
 <ele>256.400000</ele>
<time>2009-10-10T10:17:43Z</time>
</trkpt>
<trkpt lat="37.969857" lon="-1.049367">
 <ele>258.200000</ele>
<time>2009-10-10T10:17:47Z</time>
</trkpt>
<trkpt lat="37.969849" lon="-1.049381">
 <ele>256.780000</ele>
<time>2009-10-10T10:17:48Z</time>
</trkpt>
<trkpt lat="37.969858" lon="-1.049379">
 <ele>257.440000</ele>
<time>2009-10-10T10:17:49Z</time>
</trkpt>
<trkpt lat="37.969865" lon="-1.049376">
 <ele>256.780000</ele>
<time>2009-10-10T10:17:50Z</time>
</trkpt>
<trkpt lat="37.969855" lon="-1.049386">
 <ele>257.100000</ele>
<time>2009-10-10T10:17:51Z</time>
</trkpt>
<trkpt lat="37.969859" lon="-1.049383">
 <ele>257.000000</ele>
<time>2009-10-10T10:17:52Z</time>
</trkpt>
<trkpt lat="37.969857" lon="-1.049385">
 <ele>256.920000</ele>
<time>2009-10-10T10:17:53Z</time>
</trkpt>
<trkpt lat="37.969857" lon="-1.049385">
 <ele>257.000000</ele>
<time>2009-10-10T10:17:54Z</time>
</trkpt>
<trkpt lat="37.969858" lon="-1.049397">
 <ele>258.720000</ele>
<time>2009-10-10T10:17:56Z</time>
</trkpt>
<trkpt lat="37.969847" lon="-1.049453">
 <ele>256.800000</ele>
<time>2009-10-10T10:17:59Z</time>
</trkpt>
<trkpt lat="37.969846" lon="-1.049441">
 <ele>263.300000</ele>
<time>2009-10-10T10:18:00Z</time>
</trkpt>
<trkpt lat="37.969852" lon="-1.049445">
 <ele>259.880000</ele>
<time>2009-10-10T10:18:01Z</time>
</trkpt>
<trkpt lat="37.969857" lon="-1.049444">
 <ele>260.080000</ele>
<time>2009-10-10T10:18:02Z</time>
</trkpt>
<trkpt lat="37.969850" lon="-1.049448">
 <ele>259.520000</ele>
<time>2009-10-10T10:18:02Z</time>
</trkpt>
<trkpt lat="37.969838" lon="-1.049448">
 <ele>258.920000</ele>
<time>2009-10-10T10:18:05Z</time>
</trkpt>
<trkpt lat="37.969768" lon="-1.049445">
 <ele>256.760000</ele>
<time>2009-10-10T10:18:08Z</time>
</trkpt>
<trkpt lat="37.969668" lon="-1.049450">
 <ele>246.640000</ele>
<time>2009-10-10T10:18:17Z</time>
</trkpt>
<trkpt lat="37.969677" lon="-1.049454">
 <ele>246.080000</ele>
<time>2009-10-10T10:18:18Z</time>
</trkpt>
<trkpt lat="37.969668" lon="-1.049448">
 <ele>247.120000</ele>
<time>2009-10-10T10:18:19Z</time>
</trkpt>
<trkpt lat="37.969665" lon="-1.049444">
 <ele>246.260000</ele>
<time>2009-10-10T10:18:20Z</time>
</trkpt>
<trkpt lat="37.969667" lon="-1.049448">
 <ele>246.660000</ele>
<time>2009-10-10T10:18:21Z</time>
</trkpt>
<trkpt lat="37.969667" lon="-1.049448">
 <ele>246.900000</ele>
<time>2009-10-10T10:18:22Z</time>
</trkpt>
<trkpt lat="37.969639" lon="-1.049477">
 <ele>250.060000</ele>
<time>2009-10-10T10:19:12Z</time>
</trkpt>
<trkpt lat="37.969591" lon="-1.049551">
 <ele>262.680000</ele>
<time>2009-10-10T10:19:14Z</time>
</trkpt>
<trkpt lat="37.969550" lon="-1.049619">
 <ele>263.280000</ele>
<time>2009-10-10T10:19:18Z</time>
</trkpt>
<trkpt lat="37.969568" lon="-1.049630">
 <ele>261.220000</ele>
<time>2009-10-10T10:19:19Z</time>
</trkpt>
<trkpt lat="37.969572" lon="-1.049641">
 <ele>261.000000</ele>
<time>2009-10-10T10:19:22Z</time>
</trkpt>
<trkpt lat="37.969563" lon="-1.049633">
 <ele>259.760000</ele>
<time>2009-10-10T10:19:23Z</time>
</trkpt>
<trkpt lat="37.969554" lon="-1.049625">
 <ele>260.060000</ele>
<time>2009-10-10T10:19:24Z</time>
</trkpt>
<trkpt lat="37.969553" lon="-1.049627">
 <ele>260.060000</ele>
<time>2009-10-10T10:19:25Z</time>
</trkpt>
<trkpt lat="37.969564" lon="-1.049638">
 <ele>259.780000</ele>
<time>2009-10-10T10:19:26Z</time>
</trkpt>
<trkpt lat="37.969558" lon="-1.049633">
 <ele>259.940000</ele>
<time>2009-10-10T10:19:27Z</time>
</trkpt>
<trkpt lat="37.969558" lon="-1.049633">
 <ele>260.100000</ele>
<time>2009-10-10T10:19:28Z</time>
</trkpt>
<trkpt lat="37.969558" lon="-1.049639">
 <ele>258.380000</ele>
<time>2009-10-10T10:19:33Z</time>
</trkpt>
<trkpt lat="37.969570" lon="-1.049669">
 <ele>258.200000</ele>
<time>2009-10-10T10:19:36Z</time>
</trkpt>
<trkpt lat="37.969552" lon="-1.049674">
 <ele>252.640000</ele>
<time>2009-10-10T10:19:37Z</time>
</trkpt>
<trkpt lat="37.969558" lon="-1.049669">
 <ele>253.500000</ele>
<time>2009-10-10T10:19:38Z</time>
</trkpt>
<trkpt lat="37.969586" lon="-1.049694">
 <ele>255.680000</ele>
<time>2009-10-10T10:19:41Z</time>
</trkpt>
<trkpt lat="37.969595" lon="-1.049706">
 <ele>256.840000</ele>
<time>2009-10-10T10:19:43Z</time>
</trkpt>
<trkpt lat="37.969599" lon="-1.049716">
 <ele>256.060000</ele>
<time>2009-10-10T10:19:44Z</time>
</trkpt>
<trkpt lat="37.969593" lon="-1.049715">
 <ele>256.960000</ele>
<time>2009-10-10T10:19:45Z</time>
</trkpt>
<trkpt lat="37.969604" lon="-1.049714">
 <ele>257.040000</ele>
<time>2009-10-10T10:19:46Z</time>
</trkpt>
<trkpt lat="37.969595" lon="-1.049715">
 <ele>256.180000</ele>
<time>2009-10-10T10:19:47Z</time>
</trkpt>
<trkpt lat="37.969608" lon="-1.049723">
 <ele>255.660000</ele>
<time>2009-10-10T10:19:48Z</time>
</trkpt>
<trkpt lat="37.969642" lon="-1.049744">
 <ele>252.440000</ele>
<time>2009-10-10T10:19:52Z</time>
</trkpt>
<trkpt lat="37.969664" lon="-1.049757">
 <ele>253.360000</ele>
<time>2009-10-10T10:19:53Z</time>
</trkpt>
<trkpt lat="37.969712" lon="-1.049780">
 <ele>250.160000</ele>
<time>2009-10-10T10:20:00Z</time>
</trkpt>
<trkpt lat="37.969700" lon="-1.049776">
 <ele>249.500000</ele>
<time>2009-10-10T10:20:01Z</time>
</trkpt>
<trkpt lat="37.969714" lon="-1.049782">
 <ele>249.280000</ele>
<time>2009-10-10T10:20:02Z</time>
</trkpt>
<trkpt lat="37.969715" lon="-1.049782">
 <ele>249.560000</ele>
<time>2009-10-10T10:20:03Z</time>
</trkpt>
<trkpt lat="37.969713" lon="-1.049782">
 <ele>249.000000</ele>
<time>2009-10-10T10:20:04Z</time>
</trkpt>
<trkpt lat="37.969713" lon="-1.049782">
 <ele>249.800000</ele>
<time>2009-10-10T10:20:05Z</time>
</trkpt>
<trkpt lat="37.969718" lon="-1.049796">
 <ele>250.760000</ele>
<time>2009-10-10T10:20:07Z</time>
</trkpt>
<trkpt lat="37.969744" lon="-1.049858">
 <ele>252.660000</ele>
<time>2009-10-10T10:20:10Z</time>
</trkpt>
<trkpt lat="37.969746" lon="-1.049850">
 <ele>256.000000</ele>
<time>2009-10-10T10:20:11Z</time>
</trkpt>
<trkpt lat="37.969748" lon="-1.049869">
 <ele>255.980000</ele>
<time>2009-10-10T10:20:12Z</time>
</trkpt>
<trkpt lat="37.969742" lon="-1.049861">
 <ele>253.980000</ele>
<time>2009-10-10T10:20:13Z</time>
</trkpt>
<trkpt lat="37.969747" lon="-1.049868">
 <ele>255.660000</ele>
<time>2009-10-10T10:20:14Z</time>
</trkpt>
<trkpt lat="37.969747" lon="-1.049868">
 <ele>254.700000</ele>
<time>2009-10-10T10:20:15Z</time>
</trkpt>
<trkpt lat="37.969745" lon="-1.049880">
 <ele>254.820000</ele>
<time>2009-10-10T10:20:18Z</time>
</trkpt>
<trkpt lat="37.969728" lon="-1.049940">
 <ele>253.100000</ele>
<time>2009-10-10T10:20:21Z</time>
</trkpt>
<trkpt lat="37.969772" lon="-1.049965">
 <ele>253.000000</ele>
<time>2009-10-10T10:20:24Z</time>
</trkpt>
<trkpt lat="37.969796" lon="-1.050002">
 <ele>253.100000</ele>
<time>2009-10-10T10:20:29Z</time>
</trkpt>
<trkpt lat="37.969787" lon="-1.050006">
 <ele>252.340000</ele>
<time>2009-10-10T10:20:30Z</time>
</trkpt>
<trkpt lat="37.969794" lon="-1.050006">
 <ele>252.980000</ele>
<time>2009-10-10T10:20:31Z</time>
</trkpt>
<trkpt lat="37.969811" lon="-1.050006">
 <ele>252.160000</ele>
<time>2009-10-10T10:20:32Z</time>
</trkpt>
<trkpt lat="37.969805" lon="-1.050012">
 <ele>253.360000</ele>
<time>2009-10-10T10:20:33Z</time>
</trkpt>
<trkpt lat="37.969799" lon="-1.050055">
 <ele>251.320000</ele>
<time>2009-10-10T10:20:38Z</time>
</trkpt>
<trkpt lat="37.969794" lon="-1.050076">
 <ele>253.360000</ele>
<time>2009-10-10T10:20:40Z</time>
</trkpt>
<trkpt lat="37.969815" lon="-1.050097">
 <ele>252.720000</ele>
<time>2009-10-10T10:20:42Z</time>
</trkpt>
<trkpt lat="37.969817" lon="-1.050092">
 <ele>252.840000</ele>
<time>2009-10-10T10:20:43Z</time>
</trkpt>
<trkpt lat="37.969839" lon="-1.050142">
 <ele>249.400000</ele>
<time>2009-10-10T10:20:46Z</time>
</trkpt>
<trkpt lat="37.969848" lon="-1.050158">
 <ele>247.440000</ele>
<time>2009-10-10T10:20:48Z</time>
</trkpt>
<trkpt lat="37.969866" lon="-1.050171">
 <ele>246.460000</ele>
<time>2009-10-10T10:20:49Z</time>
</trkpt>
<trkpt lat="37.969854" lon="-1.050167">
 <ele>245.220000</ele>
<time>2009-10-10T10:20:50Z</time>
</trkpt>
<trkpt lat="37.969854" lon="-1.050161">
 <ele>245.580000</ele>
<time>2009-10-10T10:20:51Z</time>
</trkpt>
<trkpt lat="37.969870" lon="-1.050170">
 <ele>246.600000</ele>
<time>2009-10-10T10:20:52Z</time>
</trkpt>
<trkpt lat="37.969869" lon="-1.050172">
 <ele>245.260000</ele>
<time>2009-10-10T10:20:53Z</time>
</trkpt>
<trkpt lat="37.969873" lon="-1.050172">
 <ele>246.380000</ele>
<time>2009-10-10T10:20:54Z</time>
</trkpt>
<trkpt lat="37.969873" lon="-1.050172">
 <ele>246.300000</ele>
<time>2009-10-10T10:20:55Z</time>
</trkpt>
<trkpt lat="37.969890" lon="-1.050194">
 <ele>243.100000</ele>
<time>2009-10-10T10:21:10Z</time>
</trkpt>
<trkpt lat="37.969978" lon="-1.050291">
 <ele>231.580000</ele>
<time>2009-10-10T10:21:14Z</time>
</trkpt>
<trkpt lat="37.970001" lon="-1.050313">
 <ele>240.540000</ele>
<time>2009-10-10T10:21:17Z</time>
</trkpt>
<trkpt lat="37.969990" lon="-1.050314">
 <ele>240.460000</ele>
<time>2009-10-10T10:21:18Z</time>
</trkpt>
<trkpt lat="37.969988" lon="-1.050357">
 <ele>239.040000</ele>
<time>2009-10-10T10:21:20Z</time>
</trkpt>
<trkpt lat="37.970010" lon="-1.050356">
 <ele>239.240000</ele>
<time>2009-10-10T10:21:22Z</time>
</trkpt>
<trkpt lat="37.969999" lon="-1.050371">
 <ele>238.120000</ele>
<time>2009-10-10T10:21:23Z</time>
</trkpt>
<trkpt lat="37.969987" lon="-1.050409">
 <ele>239.260000</ele>
<time>2009-10-10T10:21:26Z</time>
</trkpt>
<trkpt lat="37.969998" lon="-1.050398">
 <ele>241.960000</ele>
<time>2009-10-10T10:21:27Z</time>
</trkpt>
<trkpt lat="37.969993" lon="-1.050407">
 <ele>240.740000</ele>
<time>2009-10-10T10:21:28Z</time>
</trkpt>
<trkpt lat="37.969979" lon="-1.050409">
 <ele>240.720000</ele>
<time>2009-10-10T10:21:29Z</time>
</trkpt>
<trkpt lat="37.969983" lon="-1.050412">
 <ele>241.360000</ele>
<time>2009-10-10T10:21:30Z</time>
</trkpt>
<trkpt lat="37.969945" lon="-1.050478">
 <ele>241.700000</ele>
<time>2009-10-10T10:21:34Z</time>
</trkpt>
<trkpt lat="37.969955" lon="-1.050473">
 <ele>244.540000</ele>
<time>2009-10-10T10:21:35Z</time>
</trkpt>
<trkpt lat="37.969934" lon="-1.050475">
 <ele>243.460000</ele>
<time>2009-10-10T10:21:36Z</time>
</trkpt>
<trkpt lat="37.969950" lon="-1.050477">
 <ele>243.040000</ele>
<time>2009-10-10T10:21:37Z</time>
</trkpt>
<trkpt lat="37.969943" lon="-1.050482">
 <ele>243.440000</ele>
<time>2009-10-10T10:21:38Z</time>
</trkpt>
<trkpt lat="37.969943" lon="-1.050482">
 <ele>243.200000</ele>
<time>2009-10-10T10:21:39Z</time>
</trkpt>
<trkpt lat="37.969947" lon="-1.050500">
 <ele>239.320000</ele>
<time>2009-10-10T10:21:48Z</time>
</trkpt>
<trkpt lat="37.969959" lon="-1.050547">
 <ele>226.740000</ele>
<time>2009-10-10T10:21:50Z</time>
</trkpt>
<trkpt lat="37.969987" lon="-1.050583">
 <ele>228.980000</ele>
<time>2009-10-10T10:21:55Z</time>
</trkpt>
<trkpt lat="37.969993" lon="-1.050586">
 <ele>227.220000</ele>
<time>2009-10-10T10:21:56Z</time>
</trkpt>
<trkpt lat="37.970038" lon="-1.050594">
 <ele>223.060000</ele>
<time>2009-10-10T10:22:00Z</time>
</trkpt>
<trkpt lat="37.970043" lon="-1.050597">
 <ele>221.600000</ele>
<time>2009-10-10T10:22:01Z</time>
</trkpt>
<trkpt lat="37.970042" lon="-1.050597">
 <ele>221.620000</ele>
<time>2009-10-10T10:22:02Z</time>
</trkpt>
<trkpt lat="37.970040" lon="-1.050590">
 <ele>223.000000</ele>
<time>2009-10-10T10:22:03Z</time>
</trkpt>
<trkpt lat="37.970047" lon="-1.050593">
 <ele>221.720000</ele>
<time>2009-10-10T10:22:04Z</time>
</trkpt>
<trkpt lat="37.970047" lon="-1.050593">
 <ele>222.600000</ele>
<time>2009-10-10T10:22:05Z</time>
</trkpt>
<trkpt lat="37.970047" lon="-1.050593">
 <ele>222.600000</ele>
<time>2009-10-10T10:22:06Z</time>
</trkpt>
<trkpt lat="37.970047" lon="-1.050593">
 <ele>222.600000</ele>
<time>2009-10-10T10:22:07Z</time>
</trkpt>
<trkpt lat="37.970047" lon="-1.050593">
 <ele>222.600000</ele>
<time>2009-10-10T10:22:08Z</time>
</trkpt>
<trkpt lat="37.970047" lon="-1.050593">
 <ele>222.600000</ele>
<time>2009-10-10T10:22:09Z</time>
</trkpt>
<trkpt lat="37.970047" lon="-1.050593">
 <ele>222.600000</ele>
<time>2009-10-10T10:22:10Z</time>
</trkpt>
<trkpt lat="37.970047" lon="-1.050593">
 <ele>222.600000</ele>
<time>2009-10-10T10:22:11Z</time>
</trkpt>
<trkpt lat="37.970047" lon="-1.050593">
 <ele>222.600000</ele>
<time>2009-10-10T10:22:12Z</time>
</trkpt>
<trkpt lat="37.970047" lon="-1.050593">
 <ele>222.600000</ele>
<time>2009-10-10T10:22:13Z</time>
</trkpt>
<trkpt lat="37.970047" lon="-1.050593">
 <ele>222.600000</ele>
<time>2009-10-10T10:22:14Z</time>
</trkpt>
<trkpt lat="37.970047" lon="-1.050593">
 <ele>222.600000</ele>
<time>2009-10-10T10:22:15Z</time>
</trkpt>
<trkpt lat="37.970047" lon="-1.050593">
 <ele>222.600000</ele>
<time>2009-10-10T10:22:16Z</time>
</trkpt>
<trkpt lat="37.970047" lon="-1.050593">
 <ele>222.600000</ele>
<time>2009-10-10T10:22:17Z</time>
</trkpt>
<trkpt lat="37.970047" lon="-1.050593">
 <ele>222.600000</ele>
<time>2009-10-10T10:22:18Z</time>
</trkpt>
<trkpt lat="37.970047" lon="-1.050593">
 <ele>222.600000</ele>
<time>2009-10-10T10:22:19Z</time>
</trkpt>
<trkpt lat="37.970047" lon="-1.050593">
 <ele>222.600000</ele>
<time>2009-10-10T10:22:20Z</time>
</trkpt>
<trkpt lat="37.970047" lon="-1.050593">
 <ele>222.600000</ele>
<time>2009-10-10T10:22:21Z</time>
</trkpt>
<trkpt lat="37.970047" lon="-1.050593">
 <ele>222.600000</ele>
<time>2009-10-10T10:22:22Z</time>
</trkpt>
<trkpt lat="37.970047" lon="-1.050593">
 <ele>222.600000</ele>
<time>2009-10-10T10:22:23Z</time>
</trkpt>
<trkpt lat="37.970047" lon="-1.050593">
 <ele>222.600000</ele>
<time>2009-10-10T10:22:24Z</time>
</trkpt>
<trkpt lat="37.970047" lon="-1.050593">
 <ele>222.600000</ele>
<time>2009-10-10T10:22:25Z</time>
</trkpt>
<trkpt lat="37.970047" lon="-1.050593">
 <ele>222.600000</ele>
<time>2009-10-10T10:22:26Z</time>
</trkpt>
<trkpt lat="37.970078" lon="-1.050649">
 <ele>209.180000</ele>
<time>2009-10-10T10:22:28Z</time>
</trkpt>
<trkpt lat="37.970167" lon="-1.050750">
 <ele>212.080000</ele>
<time>2009-10-10T10:22:34Z</time>
</trkpt>
<trkpt lat="37.970177" lon="-1.050773">
 <ele>212.700000</ele>
<time>2009-10-10T10:22:36Z</time>
</trkpt>
<trkpt lat="37.970167" lon="-1.050773">
 <ele>212.740000</ele>
<time>2009-10-10T10:22:37Z</time>
</trkpt>
<trkpt lat="37.970180" lon="-1.050786">
 <ele>213.120000</ele>
<time>2009-10-10T10:22:38Z</time>
</trkpt>
<trkpt lat="37.970169" lon="-1.050788">
 <ele>213.620000</ele>
<time>2009-10-10T10:22:39Z</time>
</trkpt>
<trkpt lat="37.970194" lon="-1.050815">
 <ele>215.320000</ele>
<time>2009-10-10T10:22:41Z</time>
</trkpt>
<trkpt lat="37.970231" lon="-1.050865">
 <ele>215.980000</ele>
<time>2009-10-10T10:22:44Z</time>
</trkpt>
<trkpt lat="37.970220" lon="-1.050882">
 <ele>215.440000</ele>
<time>2009-10-10T10:22:46Z</time>
</trkpt>
<trkpt lat="37.970225" lon="-1.050886">
 <ele>215.780000</ele>
<time>2009-10-10T10:22:47Z</time>
</trkpt>
<trkpt lat="37.970238" lon="-1.050881">
 <ele>215.720000</ele>
<time>2009-10-10T10:22:48Z</time>
</trkpt>
<trkpt lat="37.970253" lon="-1.050893">
 <ele>215.560000</ele>
<time>2009-10-10T10:22:49Z</time>
</trkpt>
<trkpt lat="37.970248" lon="-1.050887">
 <ele>215.700000</ele>
<time>2009-10-10T10:22:50Z</time>
</trkpt>
<trkpt lat="37.970253" lon="-1.050897">
 <ele>215.940000</ele>
<time>2009-10-10T10:22:51Z</time>
</trkpt>
<trkpt lat="37.970253" lon="-1.050897">
 <ele>215.700000</ele>
<time>2009-10-10T10:22:52Z</time>
</trkpt>
<trkpt lat="37.970261" lon="-1.050914">
 <ele>217.020000</ele>
<time>2009-10-10T10:22:53Z</time>
</trkpt>
<trkpt lat="37.970278" lon="-1.050985">
 <ele>215.760000</ele>
<time>2009-10-10T10:22:56Z</time>
</trkpt>
<trkpt lat="37.970293" lon="-1.050979">
 <ele>218.940000</ele>
<time>2009-10-10T10:22:57Z</time>
</trkpt>
<trkpt lat="37.970296" lon="-1.050981">
 <ele>218.400000</ele>
<time>2009-10-10T10:22:58Z</time>
</trkpt>
<trkpt lat="37.970289" lon="-1.050983">
 <ele>217.260000</ele>
<time>2009-10-10T10:22:59Z</time>
</trkpt>
<trkpt lat="37.970290" lon="-1.050985">
 <ele>216.780000</ele>
<time>2009-10-10T10:23:00Z</time>
</trkpt>
<trkpt lat="37.970290" lon="-1.050985">
 <ele>217.500000</ele>
<time>2009-10-10T10:23:01Z</time>
</trkpt>
<trkpt lat="37.970292" lon="-1.051009">
 <ele>212.860000</ele>
<time>2009-10-10T10:23:35Z</time>
</trkpt>
<trkpt lat="37.970295" lon="-1.051128">
 <ele>216.700000</ele>
<time>2009-10-10T10:23:38Z</time>
</trkpt>
<trkpt lat="37.970316" lon="-1.051171">
 <ele>207.980000</ele>
<time>2009-10-10T10:23:42Z</time>
</trkpt>
<trkpt lat="37.970315" lon="-1.051187">
 <ele>207.400000</ele>
<time>2009-10-10T10:23:43Z</time>
</trkpt>
<trkpt lat="37.970303" lon="-1.051182">
 <ele>206.880000</ele>
<time>2009-10-10T10:23:44Z</time>
</trkpt>
<trkpt lat="37.970307" lon="-1.051171">
 <ele>207.980000</ele>
<time>2009-10-10T10:23:45Z</time>
</trkpt>
<trkpt lat="37.970297" lon="-1.051180">
 <ele>207.020000</ele>
<time>2009-10-10T10:23:46Z</time>
</trkpt>
<trkpt lat="37.970296" lon="-1.051184">
 <ele>207.180000</ele>
<time>2009-10-10T10:23:47Z</time>
</trkpt>
<trkpt lat="37.970293" lon="-1.051187">
 <ele>207.820000</ele>
<time>2009-10-10T10:23:48Z</time>
</trkpt>
<trkpt lat="37.970293" lon="-1.051187">
 <ele>207.500000</ele>
<time>2009-10-10T10:23:49Z</time>
</trkpt>
<trkpt lat="37.970297" lon="-1.051188">
 <ele>204.380000</ele>
<time>2009-10-10T10:24:07Z</time>
</trkpt>
<trkpt lat="37.970339" lon="-1.051226">
 <ele>208.920000</ele>
<time>2009-10-10T10:24:10Z</time>
</trkpt>
<trkpt lat="37.970363" lon="-1.051230">
 <ele>206.960000</ele>
<time>2009-10-10T10:24:13Z</time>
</trkpt>
<trkpt lat="37.970362" lon="-1.051265">
 <ele>206.800000</ele>
<time>2009-10-10T10:24:14Z</time>
</trkpt>
<trkpt lat="37.970357" lon="-1.051259">
 <ele>206.920000</ele>
<time>2009-10-10T10:24:15Z</time>
</trkpt>
<trkpt lat="37.970366" lon="-1.051282">
 <ele>207.460000</ele>
<time>2009-10-10T10:24:16Z</time>
</trkpt>
<trkpt lat="37.970369" lon="-1.051315">
 <ele>205.980000</ele>
<time>2009-10-10T10:24:19Z</time>
</trkpt>
<trkpt lat="37.970376" lon="-1.051320">
 <ele>207.440000</ele>
<time>2009-10-10T10:24:21Z</time>
</trkpt>
<trkpt lat="37.970372" lon="-1.051316">
 <ele>206.480000</ele>
<time>2009-10-10T10:24:22Z</time>
</trkpt>
<trkpt lat="37.970366" lon="-1.051331">
 <ele>205.320000</ele>
<time>2009-10-10T10:24:23Z</time>
</trkpt>
<trkpt lat="37.970349" lon="-1.051345">
 <ele>204.580000</ele>
<time>2009-10-10T10:24:24Z</time>
</trkpt>
<trkpt lat="37.970336" lon="-1.051334">
 <ele>204.680000</ele>
<time>2009-10-10T10:24:25Z</time>
</trkpt>
<trkpt lat="37.970341" lon="-1.051336">
 <ele>203.440000</ele>
<time>2009-10-10T10:24:26Z</time>
</trkpt>
<trkpt lat="37.970342" lon="-1.051329">
 <ele>204.460000</ele>
<time>2009-10-10T10:24:27Z</time>
</trkpt>
<trkpt lat="37.970338" lon="-1.051337">
 <ele>203.580000</ele>
<time>2009-10-10T10:24:28Z</time>
</trkpt>
<trkpt lat="37.970338" lon="-1.051337">
 <ele>204.300000</ele>
<time>2009-10-10T10:24:29Z</time>
</trkpt>
<trkpt lat="37.970312" lon="-1.051362">
 <ele>203.620000</ele>
<time>2009-10-10T10:25:10Z</time>
</trkpt>
<trkpt lat="37.970218" lon="-1.051459">
 <ele>206.180000</ele>
<time>2009-10-10T10:25:13Z</time>
</trkpt>
<trkpt lat="37.970213" lon="-1.051468">
 <ele>206.480000</ele>
<time>2009-10-10T10:25:16Z</time>
</trkpt>
<trkpt lat="37.970217" lon="-1.051477">
 <ele>205.240000</ele>
<time>2009-10-10T10:25:17Z</time>
</trkpt>
<trkpt lat="37.970203" lon="-1.051467">
 <ele>203.960000</ele>
<time>2009-10-10T10:25:18Z</time>
</trkpt>
<trkpt lat="37.970202" lon="-1.051469">
 <ele>206.360000</ele>
<time>2009-10-10T10:25:19Z</time>
</trkpt>
<trkpt lat="37.970208" lon="-1.051465">
 <ele>204.260000</ele>
<time>2009-10-10T10:25:20Z</time>
</trkpt>
<trkpt lat="37.970211" lon="-1.051474">
 <ele>204.700000</ele>
<time>2009-10-10T10:25:21Z</time>
</trkpt>
<trkpt lat="37.970220" lon="-1.051507">
 <ele>204.520000</ele>
<time>2009-10-10T10:25:24Z</time>
</trkpt>
<trkpt lat="37.970221" lon="-1.051488">
 <ele>204.300000</ele>
<time>2009-10-10T10:25:25Z</time>
</trkpt>
<trkpt lat="37.970216" lon="-1.051504">
 <ele>205.500000</ele>
<time>2009-10-10T10:25:26Z</time>
</trkpt>
<trkpt lat="37.970213" lon="-1.051524">
 <ele>206.560000</ele>
<time>2009-10-10T10:25:28Z</time>
</trkpt>
<trkpt lat="37.970218" lon="-1.051502">
 <ele>205.620000</ele>
<time>2009-10-10T10:25:29Z</time>
</trkpt>
<trkpt lat="37.970218" lon="-1.051507">
 <ele>205.260000</ele>
<time>2009-10-10T10:25:30Z</time>
</trkpt>
<trkpt lat="37.970214" lon="-1.051518">
 <ele>206.400000</ele>
<time>2009-10-10T10:25:31Z</time>
</trkpt>
<trkpt lat="37.970215" lon="-1.051515">
 <ele>205.360000</ele>
<time>2009-10-10T10:25:32Z</time>
</trkpt>
<trkpt lat="37.970215" lon="-1.051515">
 <ele>205.600000</ele>
<time>2009-10-10T10:25:33Z</time>
</trkpt>
<trkpt lat="37.970214" lon="-1.051529">
 <ele>204.400000</ele>
<time>2009-10-10T10:25:37Z</time>
</trkpt>
<trkpt lat="37.970215" lon="-1.051594">
 <ele>206.280000</ele>
<time>2009-10-10T10:25:40Z</time>
</trkpt>
<trkpt lat="37.970196" lon="-1.051600">
 <ele>201.720000</ele>
<time>2009-10-10T10:25:41Z</time>
</trkpt>
<trkpt lat="37.970197" lon="-1.051597">
 <ele>204.060000</ele>
<time>2009-10-10T10:25:42Z</time>
</trkpt>
<trkpt lat="37.970205" lon="-1.051591">
 <ele>204.080000</ele>
<time>2009-10-10T10:25:43Z</time>
</trkpt>
<trkpt lat="37.970202" lon="-1.051600">
 <ele>204.400000</ele>
<time>2009-10-10T10:25:44Z</time>
</trkpt>
<trkpt lat="37.970202" lon="-1.051600">
 <ele>204.000000</ele>
<time>2009-10-10T10:25:45Z</time>
</trkpt>
<trkpt lat="37.970205" lon="-1.051610">
 <ele>205.040000</ele>
<time>2009-10-10T10:25:49Z</time>
</trkpt>
<trkpt lat="37.970238" lon="-1.051650">
 <ele>203.740000</ele>
<time>2009-10-10T10:25:52Z</time>
</trkpt>
<trkpt lat="37.970230" lon="-1.051677">
 <ele>208.120000</ele>
<time>2009-10-10T10:25:53Z</time>
</trkpt>
<trkpt lat="37.970229" lon="-1.051667">
 <ele>203.240000</ele>
<time>2009-10-10T10:25:54Z</time>
</trkpt>
<trkpt lat="37.970238" lon="-1.051666">
 <ele>204.980000</ele>
<time>2009-10-10T10:25:55Z</time>
</trkpt>
<trkpt lat="37.970232" lon="-1.051663">
 <ele>204.840000</ele>
<time>2009-10-10T10:25:56Z</time>
</trkpt>
<trkpt lat="37.970238" lon="-1.051668">
 <ele>203.720000</ele>
<time>2009-10-10T10:25:57Z</time>
</trkpt>
<trkpt lat="37.970238" lon="-1.051668">
 <ele>204.600000</ele>
<time>2009-10-10T10:25:58Z</time>
</trkpt>
<trkpt lat="37.970246" lon="-1.051688">
 <ele>201.720000</ele>
<time>2009-10-10T10:26:11Z</time>
</trkpt>
<trkpt lat="37.970245" lon="-1.051749">
 <ele>201.040000</ele>
<time>2009-10-10T10:26:14Z</time>
</trkpt>
<trkpt lat="37.970274" lon="-1.051764">
 <ele>190.740000</ele>
<time>2009-10-10T10:26:15Z</time>
</trkpt>
<trkpt lat="37.970282" lon="-1.051773">
 <ele>194.840000</ele>
<time>2009-10-10T10:26:16Z</time>
</trkpt>
<trkpt lat="37.970283" lon="-1.051781">
 <ele>196.020000</ele>
<time>2009-10-10T10:26:17Z</time>
</trkpt>
<trkpt lat="37.970285" lon="-1.051781">
 <ele>195.400000</ele>
<time>2009-10-10T10:26:18Z</time>
</trkpt>
<trkpt lat="37.970282" lon="-1.051782">
 <ele>195.880000</ele>
<time>2009-10-10T10:26:19Z</time>
</trkpt>
<trkpt lat="37.970282" lon="-1.051782">
 <ele>195.800000</ele>
<time>2009-10-10T10:26:20Z</time>
</trkpt>
<trkpt lat="37.970300" lon="-1.051797">
 <ele>198.320000</ele>
<time>2009-10-10T10:26:36Z</time>
</trkpt>
<trkpt lat="37.970349" lon="-1.051829">
 <ele>207.280000</ele>
<time>2009-10-10T10:26:38Z</time>
</trkpt>
<trkpt lat="37.970367" lon="-1.051867">
 <ele>209.200000</ele>
<time>2009-10-10T10:26:40Z</time>
</trkpt>
<trkpt lat="37.970368" lon="-1.051861">
 <ele>204.660000</ele>
<time>2009-10-10T10:26:41Z</time>
</trkpt>
<trkpt lat="37.970370" lon="-1.051867">
 <ele>206.040000</ele>
<time>2009-10-10T10:26:42Z</time>
</trkpt>
<trkpt lat="37.970366" lon="-1.051859">
 <ele>205.800000</ele>
<time>2009-10-10T10:26:43Z</time>
</trkpt>
<trkpt lat="37.970385" lon="-1.051859">
 <ele>207.240000</ele>
<time>2009-10-10T10:26:44Z</time>
</trkpt>
<trkpt lat="37.970394" lon="-1.051875">
 <ele>205.000000</ele>
<time>2009-10-10T10:26:46Z</time>
</trkpt>
<trkpt lat="37.970386" lon="-1.051867">
 <ele>204.400000</ele>
<time>2009-10-10T10:26:47Z</time>
</trkpt>
<trkpt lat="37.970379" lon="-1.051879">
 <ele>203.220000</ele>
<time>2009-10-10T10:26:48Z</time>
</trkpt>
<trkpt lat="37.970384" lon="-1.051877">
 <ele>202.720000</ele>
<time>2009-10-10T10:26:49Z</time>
</trkpt>
<trkpt lat="37.970392" lon="-1.051879">
 <ele>203.640000</ele>
<time>2009-10-10T10:26:50Z</time>
</trkpt>
<trkpt lat="37.970390" lon="-1.051880">
 <ele>202.600000</ele>
<time>2009-10-10T10:26:51Z</time>
</trkpt>
<trkpt lat="37.970390" lon="-1.051880">
 <ele>203.400000</ele>
<time>2009-10-10T10:26:52Z</time>
</trkpt>
<trkpt lat="37.970398" lon="-1.051890">
 <ele>203.440000</ele>
<time>2009-10-10T10:27:15Z</time>
</trkpt>
<trkpt lat="37.970460" lon="-1.051957">
 <ele>203.580000</ele>
<time>2009-10-10T10:27:21Z</time>
</trkpt>
<trkpt lat="37.970434" lon="-1.051956">
 <ele>204.300000</ele>
<time>2009-10-10T10:27:22Z</time>
</trkpt>
<trkpt lat="37.970440" lon="-1.051955">
 <ele>202.720000</ele>
<time>2009-10-10T10:27:23Z</time>
</trkpt>
<trkpt lat="37.970477" lon="-1.051986">
 <ele>203.100000</ele>
<time>2009-10-10T10:27:27Z</time>
</trkpt>
<trkpt lat="37.970455" lon="-1.051993">
 <ele>200.880000</ele>
<time>2009-10-10T10:27:28Z</time>
</trkpt>
<trkpt lat="37.970444" lon="-1.052011">
 <ele>201.120000</ele>
<time>2009-10-10T10:27:29Z</time>
</trkpt>
<trkpt lat="37.970442" lon="-1.051998">
 <ele>200.820000</ele>
<time>2009-10-10T10:27:30Z</time>
</trkpt>
<trkpt lat="37.970458" lon="-1.052003">
 <ele>200.640000</ele>
<time>2009-10-10T10:27:31Z</time>
</trkpt>
<trkpt lat="37.970456" lon="-1.052000">
 <ele>201.140000</ele>
<time>2009-10-10T10:27:32Z</time>
</trkpt>
<trkpt lat="37.970455" lon="-1.052007">
 <ele>200.340000</ele>
<time>2009-10-10T10:27:33Z</time>
</trkpt>
<trkpt lat="37.970455" lon="-1.052007">
 <ele>200.900000</ele>
<time>2009-10-10T10:27:34Z</time>
</trkpt>
<trkpt lat="37.970466" lon="-1.052030">
 <ele>196.020000</ele>
<time>2009-10-10T10:27:50Z</time>
</trkpt>
<trkpt lat="37.970505" lon="-1.052118">
 <ele>199.020000</ele>
<time>2009-10-10T10:27:53Z</time>
</trkpt>
<trkpt lat="37.970544" lon="-1.052225">
 <ele>193.680000</ele>
<time>2009-10-10T10:28:04Z</time>
</trkpt>
<trkpt lat="37.970549" lon="-1.052230">
 <ele>193.640000</ele>
<time>2009-10-10T10:28:05Z</time>
</trkpt>
<trkpt lat="37.970542" lon="-1.052248">
 <ele>194.500000</ele>
<time>2009-10-10T10:28:07Z</time>
</trkpt>
<trkpt lat="37.970532" lon="-1.052245">
 <ele>195.200000</ele>
<time>2009-10-10T10:28:08Z</time>
</trkpt>
<trkpt lat="37.970540" lon="-1.052245">
 <ele>195.000000</ele>
<time>2009-10-10T10:28:09Z</time>
</trkpt>
<trkpt lat="37.970542" lon="-1.052241">
 <ele>194.960000</ele>
<time>2009-10-10T10:28:10Z</time>
</trkpt>
<trkpt lat="37.970540" lon="-1.052247">
 <ele>194.960000</ele>
<time>2009-10-10T10:28:11Z</time>
</trkpt>
<trkpt lat="37.970504" lon="-1.052297">
 <ele>195.400000</ele>
<time>2009-10-10T10:28:16Z</time>
</trkpt>
<trkpt lat="37.970490" lon="-1.052303">
 <ele>194.400000</ele>
<time>2009-10-10T10:28:17Z</time>
</trkpt>
<trkpt lat="37.970444" lon="-1.052327">
 <ele>197.640000</ele>
<time>2009-10-10T10:28:20Z</time>
</trkpt>
<trkpt lat="37.970446" lon="-1.052331">
 <ele>199.880000</ele>
<time>2009-10-10T10:28:21Z</time>
</trkpt>
<trkpt lat="37.970443" lon="-1.052347">
 <ele>198.600000</ele>
<time>2009-10-10T10:28:22Z</time>
</trkpt>
<trkpt lat="37.970430" lon="-1.052344">
 <ele>199.440000</ele>
<time>2009-10-10T10:28:23Z</time>
</trkpt>
<trkpt lat="37.970432" lon="-1.052350">
 <ele>199.600000</ele>
<time>2009-10-10T10:28:24Z</time>
</trkpt>
<trkpt lat="37.970432" lon="-1.052350">
 <ele>198.800000</ele>
<time>2009-10-10T10:28:25Z</time>
</trkpt>
<trkpt lat="37.970420" lon="-1.052367">
 <ele>201.520000</ele>
<time>2009-10-10T10:28:29Z</time>
</trkpt>
<trkpt lat="37.970389" lon="-1.052419">
 <ele>210.900000</ele>
<time>2009-10-10T10:28:31Z</time>
</trkpt>
<trkpt lat="37.970342" lon="-1.052555">
 <ele>212.120000</ele>
<time>2009-10-10T10:28:40Z</time>
</trkpt>
<trkpt lat="37.970336" lon="-1.052543">
 <ele>210.480000</ele>
<time>2009-10-10T10:28:41Z</time>
</trkpt>
<trkpt lat="37.970315" lon="-1.052551">
 <ele>209.460000</ele>
<time>2009-10-10T10:28:42Z</time>
</trkpt>
<trkpt lat="37.970312" lon="-1.052555">
 <ele>209.780000</ele>
<time>2009-10-10T10:28:43Z</time>
</trkpt>
<trkpt lat="37.970307" lon="-1.052554">
 <ele>209.280000</ele>
<time>2009-10-10T10:28:44Z</time>
</trkpt>
<trkpt lat="37.970303" lon="-1.052557">
 <ele>208.560000</ele>
<time>2009-10-10T10:28:45Z</time>
</trkpt>
<trkpt lat="37.970303" lon="-1.052557">
 <ele>209.600000</ele>
<time>2009-10-10T10:28:46Z</time>
</trkpt>
<trkpt lat="37.970290" lon="-1.052565">
 <ele>208.160000</ele>
<time>2009-10-10T10:28:53Z</time>
</trkpt>
<trkpt lat="37.970246" lon="-1.052598">
 <ele>205.300000</ele>
<time>2009-10-10T10:28:55Z</time>
</trkpt>
<trkpt lat="37.970208" lon="-1.052610">
 <ele>206.260000</ele>
<time>2009-10-10T10:28:57Z</time>
</trkpt>
<trkpt lat="37.970217" lon="-1.052602">
 <ele>208.980000</ele>
<time>2009-10-10T10:28:58Z</time>
</trkpt>
<trkpt lat="37.970210" lon="-1.052600">
 <ele>209.260000</ele>
<time>2009-10-10T10:28:59Z</time>
</trkpt>
<trkpt lat="37.970213" lon="-1.052616">
 <ele>209.700000</ele>
<time>2009-10-10T10:29:00Z</time>
</trkpt>
<trkpt lat="37.970208" lon="-1.052612">
 <ele>208.740000</ele>
<time>2009-10-10T10:29:01Z</time>
</trkpt>
<trkpt lat="37.970208" lon="-1.052612">
 <ele>208.900000</ele>
<time>2009-10-10T10:29:02Z</time>
</trkpt>
<trkpt lat="37.970207" lon="-1.052611">
 <ele>204.940000</ele>
<time>2009-10-10T10:29:08Z</time>
</trkpt>
<trkpt lat="37.970190" lon="-1.052622">
 <ele>205.700000</ele>
<time>2009-10-10T10:29:11Z</time>
</trkpt>
<trkpt lat="37.970194" lon="-1.052594">
 <ele>190.000000</ele>
<time>2009-10-10T10:29:12Z</time>
</trkpt>
<trkpt lat="37.970197" lon="-1.052604">
 <ele>197.860000</ele>
<time>2009-10-10T10:29:13Z</time>
</trkpt>
<trkpt lat="37.970194" lon="-1.052608">
 <ele>197.660000</ele>
<time>2009-10-10T10:29:14Z</time>
</trkpt>
<trkpt lat="37.970192" lon="-1.052607">
 <ele>197.740000</ele>
<time>2009-10-10T10:29:15Z</time>
</trkpt>
<trkpt lat="37.970192" lon="-1.052607">
 <ele>197.900000</ele>
<time>2009-10-10T10:29:16Z</time>
</trkpt>
<trkpt lat="37.970192" lon="-1.052615">
 <ele>197.380000</ele>
<time>2009-10-10T10:29:31Z</time>
</trkpt>
<trkpt lat="37.970190" lon="-1.052734">
 <ele>202.560000</ele>
<time>2009-10-10T10:29:41Z</time>
</trkpt>
<trkpt lat="37.970183" lon="-1.052719">
 <ele>202.580000</ele>
<time>2009-10-10T10:29:42Z</time>
</trkpt>
<trkpt lat="37.970183" lon="-1.052725">
 <ele>201.340000</ele>
<time>2009-10-10T10:29:43Z</time>
</trkpt>
<trkpt lat="37.970198" lon="-1.052721">
 <ele>202.280000</ele>
<time>2009-10-10T10:29:44Z</time>
</trkpt>
<trkpt lat="37.970193" lon="-1.052725">
 <ele>200.760000</ele>
<time>2009-10-10T10:29:45Z</time>
</trkpt>
<trkpt lat="37.970185" lon="-1.052803">
 <ele>205.220000</ele>
<time>2009-10-10T10:29:49Z</time>
</trkpt>
<trkpt lat="37.970170" lon="-1.052949">
 <ele>219.940000</ele>
<time>2009-10-10T10:29:58Z</time>
</trkpt>
<trkpt lat="37.970168" lon="-1.052967">
 <ele>218.780000</ele>
<time>2009-10-10T10:29:59Z</time>
</trkpt>
<trkpt lat="37.970160" lon="-1.052965">
 <ele>218.380000</ele>
<time>2009-10-10T10:30:00Z</time>
</trkpt>
<trkpt lat="37.970175" lon="-1.052967">
 <ele>217.140000</ele>
<time>2009-10-10T10:30:01Z</time>
</trkpt>
<trkpt lat="37.970171" lon="-1.052976">
 <ele>217.880000</ele>
<time>2009-10-10T10:30:02Z</time>
</trkpt>
<trkpt lat="37.970187" lon="-1.053040">
 <ele>217.980000</ele>
<time>2009-10-10T10:30:04Z</time>
</trkpt>
<trkpt lat="37.970171" lon="-1.053037">
 <ele>216.460000</ele>
<time>2009-10-10T10:30:05Z</time>
</trkpt>
<trkpt lat="37.970170" lon="-1.053055">
 <ele>219.080000</ele>
<time>2009-10-10T10:30:06Z</time>
</trkpt>
<trkpt lat="37.970174" lon="-1.053052">
 <ele>218.380000</ele>
<time>2009-10-10T10:30:07Z</time>
</trkpt>
<trkpt lat="37.970180" lon="-1.053077">
 <ele>217.820000</ele>
<time>2009-10-10T10:30:08Z</time>
</trkpt>
<trkpt lat="37.970208" lon="-1.053085">
 <ele>218.080000</ele>
<time>2009-10-10T10:30:12Z</time>
</trkpt>
<trkpt lat="37.970218" lon="-1.053099">
 <ele>216.500000</ele>
<time>2009-10-10T10:30:13Z</time>
</trkpt>
<trkpt lat="37.970198" lon="-1.053126">
 <ele>217.180000</ele>
<time>2009-10-10T10:30:16Z</time>
</trkpt>
<trkpt lat="37.970201" lon="-1.053139">
 <ele>220.520000</ele>
<time>2009-10-10T10:30:19Z</time>
</trkpt>
<trkpt lat="37.970193" lon="-1.053139">
 <ele>217.960000</ele>
<time>2009-10-10T10:30:20Z</time>
</trkpt>
<trkpt lat="37.970204" lon="-1.053139">
 <ele>219.360000</ele>
<time>2009-10-10T10:30:21Z</time>
</trkpt>
<trkpt lat="37.970207" lon="-1.053131">
 <ele>219.160000</ele>
<time>2009-10-10T10:30:22Z</time>
</trkpt>
<trkpt lat="37.970205" lon="-1.053136">
 <ele>218.440000</ele>
<time>2009-10-10T10:30:23Z</time>
</trkpt>
<trkpt lat="37.970202" lon="-1.053137">
 <ele>218.280000</ele>
<time>2009-10-10T10:30:24Z</time>
</trkpt>
<trkpt lat="37.970202" lon="-1.053137">
 <ele>218.600000</ele>
<time>2009-10-10T10:30:25Z</time>
</trkpt>
<trkpt lat="37.970200" lon="-1.053142">
 <ele>216.840000</ele>
<time>2009-10-10T10:30:27Z</time>
</trkpt>
<trkpt lat="37.970193" lon="-1.053174">
 <ele>207.440000</ele>
<time>2009-10-10T10:30:31Z</time>
</trkpt>
<trkpt lat="37.970191" lon="-1.053190">
 <ele>208.820000</ele>
<time>2009-10-10T10:30:33Z</time>
</trkpt>
<trkpt lat="37.970192" lon="-1.053195">
 <ele>207.560000</ele>
<time>2009-10-10T10:30:34Z</time>
</trkpt>
<trkpt lat="37.970188" lon="-1.053200">
 <ele>206.400000</ele>
<time>2009-10-10T10:30:36Z</time>
</trkpt>
<trkpt lat="37.970186" lon="-1.053181">
 <ele>206.680000</ele>
<time>2009-10-10T10:30:37Z</time>
</trkpt>
<trkpt lat="37.970197" lon="-1.053191">
 <ele>205.680000</ele>
<time>2009-10-10T10:30:38Z</time>
</trkpt>
<trkpt lat="37.970196" lon="-1.053179">
 <ele>207.500000</ele>
<time>2009-10-10T10:30:39Z</time>
</trkpt>
<trkpt lat="37.970193" lon="-1.053185">
 <ele>205.660000</ele>
<time>2009-10-10T10:30:40Z</time>
</trkpt>
<trkpt lat="37.970193" lon="-1.053185">
 <ele>206.700000</ele>
<time>2009-10-10T10:30:41Z</time>
</trkpt>
<trkpt lat="37.970197" lon="-1.053191">
 <ele>202.660000</ele>
<time>2009-10-10T10:30:47Z</time>
</trkpt>
<trkpt lat="37.970221" lon="-1.053234">
 <ele>204.240000</ele>
<time>2009-10-10T10:30:50Z</time>
</trkpt>
<trkpt lat="37.970215" lon="-1.053225">
 <ele>188.180000</ele>
<time>2009-10-10T10:30:51Z</time>
</trkpt>
<trkpt lat="37.970215" lon="-1.053235">
 <ele>195.760000</ele>
<time>2009-10-10T10:30:52Z</time>
</trkpt>
<trkpt lat="37.970215" lon="-1.053223">
 <ele>196.340000</ele>
<time>2009-10-10T10:30:53Z</time>
</trkpt>
<trkpt lat="37.970218" lon="-1.053233">
 <ele>195.860000</ele>
<time>2009-10-10T10:30:54Z</time>
</trkpt>
<trkpt lat="37.970218" lon="-1.053233">
 <ele>196.100000</ele>
<time>2009-10-10T10:30:55Z</time>
</trkpt>
<trkpt lat="37.970218" lon="-1.053233">
 <ele>196.100000</ele>
<time>2009-10-10T10:30:56Z</time>
</trkpt>
<trkpt lat="37.970218" lon="-1.053233">
 <ele>196.100000</ele>
<time>2009-10-10T10:30:57Z</time>
</trkpt>
<trkpt lat="37.970189" lon="-1.053273">
 <ele>195.320000</ele>
<time>2009-10-10T10:31:01Z</time>
</trkpt>
<trkpt lat="37.970173" lon="-1.053257">
 <ele>186.860000</ele>
<time>2009-10-10T10:31:02Z</time>
</trkpt>
<trkpt lat="37.970179" lon="-1.053264">
 <ele>190.760000</ele>
<time>2009-10-10T10:31:03Z</time>
</trkpt>
<trkpt lat="37.970177" lon="-1.053254">
 <ele>191.240000</ele>
<time>2009-10-10T10:31:04Z</time>
</trkpt>
<trkpt lat="37.970175" lon="-1.053263">
 <ele>191.000000</ele>
<time>2009-10-10T10:31:05Z</time>
</trkpt>
<trkpt lat="37.970152" lon="-1.053303">
 <ele>186.420000</ele>
<time>2009-10-10T10:31:10Z</time>
</trkpt>
<trkpt lat="37.970146" lon="-1.053311">
 <ele>187.360000</ele>
<time>2009-10-10T10:31:11Z</time>
</trkpt>
<trkpt lat="37.970154" lon="-1.053297">
 <ele>186.860000</ele>
<time>2009-10-10T10:31:12Z</time>
</trkpt>
<trkpt lat="37.970148" lon="-1.053305">
 <ele>187.440000</ele>
<time>2009-10-10T10:31:13Z</time>
</trkpt>
<trkpt lat="37.970150" lon="-1.053301">
 <ele>187.060000</ele>
<time>2009-10-10T10:31:14Z</time>
</trkpt>
<trkpt lat="37.970148" lon="-1.053302">
 <ele>187.060000</ele>
<time>2009-10-10T10:31:15Z</time>
</trkpt>
<trkpt lat="37.970148" lon="-1.053302">
 <ele>187.300000</ele>
<time>2009-10-10T10:31:16Z</time>
</trkpt>
<trkpt lat="37.970159" lon="-1.053294">
 <ele>183.220000</ele>
<time>2009-10-10T10:31:41Z</time>
</trkpt>
<trkpt lat="37.970203" lon="-1.053298">
 <ele>169.780000</ele>
<time>2009-10-10T10:31:45Z</time>
</trkpt>
<trkpt lat="37.970208" lon="-1.053294">
 <ele>178.320000</ele>
<time>2009-10-10T10:31:46Z</time>
</trkpt>
<trkpt lat="37.970211" lon="-1.053306">
 <ele>179.620000</ele>
<time>2009-10-10T10:31:47Z</time>
</trkpt>
<trkpt lat="37.970197" lon="-1.053348">
 <ele>180.980000</ele>
<time>2009-10-10T10:31:51Z</time>
</trkpt>
<trkpt lat="37.970194" lon="-1.053349">
 <ele>181.000000</ele>
<time>2009-10-10T10:31:52Z</time>
</trkpt>
<trkpt lat="37.970199" lon="-1.053350">
 <ele>181.820000</ele>
<time>2009-10-10T10:31:53Z</time>
</trkpt>
<trkpt lat="37.970192" lon="-1.053342">
 <ele>180.760000</ele>
<time>2009-10-10T10:31:54Z</time>
</trkpt>
<trkpt lat="37.970195" lon="-1.053353">
 <ele>181.240000</ele>
<time>2009-10-10T10:31:55Z</time>
</trkpt>
<trkpt lat="37.970195" lon="-1.053353">
 <ele>181.000000</ele>
<time>2009-10-10T10:31:56Z</time>
</trkpt>
<trkpt lat="37.970200" lon="-1.053368">
 <ele>180.080000</ele>
<time>2009-10-10T10:31:59Z</time>
</trkpt>
<trkpt lat="37.970230" lon="-1.053426">
 <ele>179.120000</ele>
<time>2009-10-10T10:32:02Z</time>
</trkpt>
<trkpt lat="37.970237" lon="-1.053410">
 <ele>176.060000</ele>
<time>2009-10-10T10:32:03Z</time>
</trkpt>
<trkpt lat="37.970231" lon="-1.053421">
 <ele>176.620000</ele>
<time>2009-10-10T10:32:04Z</time>
</trkpt>
<trkpt lat="37.970226" lon="-1.053420">
 <ele>177.720000</ele>
<time>2009-10-10T10:32:05Z</time>
</trkpt>
<trkpt lat="37.970233" lon="-1.053422">
 <ele>177.000000</ele>
<time>2009-10-10T10:32:06Z</time>
</trkpt>
<trkpt lat="37.970233" lon="-1.053422">
 <ele>177.400000</ele>
<time>2009-10-10T10:32:07Z</time>
</trkpt>
<trkpt lat="37.970234" lon="-1.053452">
 <ele>176.200000</ele>
<time>2009-10-10T10:32:40Z</time>
</trkpt>
<trkpt lat="37.970230" lon="-1.053524">
 <ele>172.980000</ele>
<time>2009-10-10T10:32:42Z</time>
</trkpt>
<trkpt lat="37.970227" lon="-1.053561">
 <ele>177.860000</ele>
<time>2009-10-10T10:32:43Z</time>
</trkpt>
<trkpt lat="37.970231" lon="-1.053614">
 <ele>175.960000</ele>
<time>2009-10-10T10:32:48Z</time>
</trkpt>
<trkpt lat="37.970237" lon="-1.053626">
 <ele>176.020000</ele>
<time>2009-10-10T10:32:49Z</time>
</trkpt>
<trkpt lat="37.970238" lon="-1.053618">
 <ele>174.920000</ele>
<time>2009-10-10T10:32:50Z</time>
</trkpt>
<trkpt lat="37.970238" lon="-1.053633">
 <ele>174.880000</ele>
<time>2009-10-10T10:32:51Z</time>
</trkpt>
<trkpt lat="37.970241" lon="-1.053656">
 <ele>174.620000</ele>
<time>2009-10-10T10:32:54Z</time>
</trkpt>
<trkpt lat="37.970233" lon="-1.053663">
 <ele>176.160000</ele>
<time>2009-10-10T10:32:55Z</time>
</trkpt>
<trkpt lat="37.970223" lon="-1.053684">
 <ele>177.320000</ele>
<time>2009-10-10T10:32:57Z</time>
</trkpt>
<trkpt lat="37.970240" lon="-1.053666">
 <ele>177.560000</ele>
<time>2009-10-10T10:32:58Z</time>
</trkpt>
<trkpt lat="37.970229" lon="-1.053672">
 <ele>178.680000</ele>
<time>2009-10-10T10:32:59Z</time>
</trkpt>
<trkpt lat="37.970226" lon="-1.053668">
 <ele>176.960000</ele>
<time>2009-10-10T10:33:00Z</time>
</trkpt>
<trkpt lat="37.970227" lon="-1.053675">
 <ele>178.400000</ele>
<time>2009-10-10T10:33:01Z</time>
</trkpt>
<trkpt lat="37.970227" lon="-1.053675">
 <ele>177.600000</ele>
<time>2009-10-10T10:33:02Z</time>
</trkpt>
<trkpt lat="37.970234" lon="-1.053681">
 <ele>177.480000</ele>
<time>2009-10-10T10:33:04Z</time>
</trkpt>
<trkpt lat="37.970292" lon="-1.053703">
 <ele>178.720000</ele>
<time>2009-10-10T10:33:08Z</time>
</trkpt>
<trkpt lat="37.970271" lon="-1.053726">
 <ele>179.800000</ele>
<time>2009-10-10T10:33:09Z</time>
</trkpt>
<trkpt lat="37.970274" lon="-1.053726">
 <ele>178.820000</ele>
<time>2009-10-10T10:33:10Z</time>
</trkpt>
<trkpt lat="37.970283" lon="-1.053714">
 <ele>179.760000</ele>
<time>2009-10-10T10:33:11Z</time>
</trkpt>
<trkpt lat="37.970283" lon="-1.053723">
 <ele>179.440000</ele>
<time>2009-10-10T10:33:12Z</time>
</trkpt>
<trkpt lat="37.970273" lon="-1.053778">
 <ele>179.760000</ele>
<time>2009-10-10T10:33:16Z</time>
</trkpt>
<trkpt lat="37.970295" lon="-1.053784">
 <ele>182.020000</ele>
<time>2009-10-10T10:33:17Z</time>
</trkpt>
<trkpt lat="37.970281" lon="-1.053784">
 <ele>182.580000</ele>
<time>2009-10-10T10:33:18Z</time>
</trkpt>
<trkpt lat="37.970281" lon="-1.053778">
 <ele>180.340000</ele>
<time>2009-10-10T10:33:19Z</time>
</trkpt>
<trkpt lat="37.970288" lon="-1.053790">
 <ele>181.140000</ele>
<time>2009-10-10T10:33:20Z</time>
</trkpt>
<trkpt lat="37.970322" lon="-1.053832">
 <ele>180.540000</ele>
<time>2009-10-10T10:33:24Z</time>
</trkpt>
<trkpt lat="37.970324" lon="-1.053824">
 <ele>182.800000</ele>
<time>2009-10-10T10:33:25Z</time>
</trkpt>
<trkpt lat="37.970311" lon="-1.053831">
 <ele>182.880000</ele>
<time>2009-10-10T10:33:26Z</time>
</trkpt>
<trkpt lat="37.970328" lon="-1.053871">
 <ele>184.160000</ele>
<time>2009-10-10T10:33:28Z</time>
</trkpt>
<trkpt lat="37.970366" lon="-1.053923">
 <ele>189.580000</ele>
<time>2009-10-10T10:33:33Z</time>
</trkpt>
<trkpt lat="37.970372" lon="-1.053923">
 <ele>188.940000</ele>
<time>2009-10-10T10:33:34Z</time>
</trkpt>
<trkpt lat="37.970373" lon="-1.053937">
 <ele>189.540000</ele>
<time>2009-10-10T10:33:35Z</time>
</trkpt>
<trkpt lat="37.970370" lon="-1.053934">
 <ele>189.040000</ele>
<time>2009-10-10T10:33:36Z</time>
</trkpt>
<trkpt lat="37.970357" lon="-1.053957">
 <ele>189.140000</ele>
<time>2009-10-10T10:33:39Z</time>
</trkpt>
<trkpt lat="37.970374" lon="-1.053976">
 <ele>190.520000</ele>
<time>2009-10-10T10:33:41Z</time>
</trkpt>
<trkpt lat="37.970369" lon="-1.053994">
 <ele>188.280000</ele>
<time>2009-10-10T10:33:42Z</time>
</trkpt>
<trkpt lat="37.970375" lon="-1.054024">
 <ele>188.400000</ele>
<time>2009-10-10T10:33:46Z</time>
</trkpt>
<trkpt lat="37.970377" lon="-1.054016">
 <ele>186.860000</ele>
<time>2009-10-10T10:33:47Z</time>
</trkpt>
<trkpt lat="37.970368" lon="-1.054030">
 <ele>187.360000</ele>
<time>2009-10-10T10:33:48Z</time>
</trkpt>
<trkpt lat="37.970389" lon="-1.054016">
 <ele>183.720000</ele>
<time>2009-10-10T10:33:49Z</time>
</trkpt>
<trkpt lat="37.970418" lon="-1.054033">
 <ele>183.880000</ele>
<time>2009-10-10T10:33:51Z</time>
</trkpt>
<trkpt lat="37.970409" lon="-1.054037">
 <ele>177.400000</ele>
<time>2009-10-10T10:33:52Z</time>
</trkpt>
<trkpt lat="37.970412" lon="-1.054038">
 <ele>180.420000</ele>
<time>2009-10-10T10:33:53Z</time>
</trkpt>
<trkpt lat="37.970412" lon="-1.054034">
 <ele>180.520000</ele>
<time>2009-10-10T10:33:54Z</time>
</trkpt>
<trkpt lat="37.970418" lon="-1.054037">
 <ele>179.400000</ele>
<time>2009-10-10T10:33:55Z</time>
</trkpt>
<trkpt lat="37.970418" lon="-1.054037">
 <ele>180.600000</ele>
<time>2009-10-10T10:33:56Z</time>
</trkpt>
<trkpt lat="37.970439" lon="-1.054058">
 <ele>176.400000</ele>
<time>2009-10-10T10:34:10Z</time>
</trkpt>
<trkpt lat="37.970536" lon="-1.054168">
 <ele>159.180000</ele>
<time>2009-10-10T10:34:14Z</time>
</trkpt>
<trkpt lat="37.970532" lon="-1.054173">
 <ele>166.640000</ele>
<time>2009-10-10T10:34:15Z</time>
</trkpt>
<trkpt lat="37.970537" lon="-1.054154">
 <ele>167.000000</ele>
<time>2009-10-10T10:34:16Z</time>
</trkpt>
<trkpt lat="37.970532" lon="-1.054162">
 <ele>166.720000</ele>
<time>2009-10-10T10:34:17Z</time>
</trkpt>
<trkpt lat="37.970537" lon="-1.054165">
 <ele>167.040000</ele>
<time>2009-10-10T10:34:18Z</time>
</trkpt>
<trkpt lat="37.970528" lon="-1.054202">
 <ele>161.800000</ele>
<time>2009-10-10T10:34:21Z</time>
</trkpt>
<trkpt lat="37.970526" lon="-1.054222">
 <ele>163.100000</ele>
<time>2009-10-10T10:34:22Z</time>
</trkpt>
<trkpt lat="37.970538" lon="-1.054219">
 <ele>160.800000</ele>
<time>2009-10-10T10:34:23Z</time>
</trkpt>
<trkpt lat="37.970539" lon="-1.054219">
 <ele>160.380000</ele>
<time>2009-10-10T10:34:24Z</time>
</trkpt>
<trkpt lat="37.970540" lon="-1.054228">
 <ele>160.900000</ele>
<time>2009-10-10T10:34:26Z</time>
</trkpt>
<trkpt lat="37.970540" lon="-1.054228">
 <ele>161.700000</ele>
<time>2009-10-10T10:34:27Z</time>
</trkpt>
<trkpt lat="37.970542" lon="-1.054256">
 <ele>159.380000</ele>
<time>2009-10-10T10:34:39Z</time>
</trkpt>
<trkpt lat="37.970560" lon="-1.054388">
 <ele>154.240000</ele>
<time>2009-10-10T10:34:43Z</time>
</trkpt>
<trkpt lat="37.970549" lon="-1.054398">
 <ele>158.840000</ele>
<time>2009-10-10T10:34:44Z</time>
</trkpt>
<trkpt lat="37.970566" lon="-1.054401">
 <ele>160.040000</ele>
<time>2009-10-10T10:34:45Z</time>
</trkpt>
<trkpt lat="37.970556" lon="-1.054403">
 <ele>159.000000</ele>
<time>2009-10-10T10:34:46Z</time>
</trkpt>
<trkpt lat="37.970562" lon="-1.054408">
 <ele>159.320000</ele>
<time>2009-10-10T10:34:47Z</time>
</trkpt>
<trkpt lat="37.970605" lon="-1.054461">
 <ele>157.040000</ele>
<time>2009-10-10T10:34:51Z</time>
</trkpt>
<trkpt lat="37.970599" lon="-1.054465">
 <ele>156.920000</ele>
<time>2009-10-10T10:34:52Z</time>
</trkpt>
<trkpt lat="37.970600" lon="-1.054501">
 <ele>154.080000</ele>
<time>2009-10-10T10:34:55Z</time>
</trkpt>
<trkpt lat="37.970592" lon="-1.054473">
 <ele>153.340000</ele>
<time>2009-10-10T10:34:56Z</time>
</trkpt>
<trkpt lat="37.970599" lon="-1.054485">
 <ele>152.040000</ele>
<time>2009-10-10T10:34:57Z</time>
</trkpt>
<trkpt lat="37.970586" lon="-1.054482">
 <ele>153.860000</ele>
<time>2009-10-10T10:34:58Z</time>
</trkpt>
<trkpt lat="37.970590" lon="-1.054488">
 <ele>152.260000</ele>
<time>2009-10-10T10:34:59Z</time>
</trkpt>
<trkpt lat="37.970590" lon="-1.054488">
 <ele>153.300000</ele>
<time>2009-10-10T10:35:00Z</time>
</trkpt>
<trkpt lat="37.970618" lon="-1.054553">
 <ele>148.420000</ele>
<time>2009-10-10T10:35:54Z</time>
</trkpt>
<trkpt lat="37.970693" lon="-1.054769">
 <ele>151.840000</ele>
<time>2009-10-10T10:35:57Z</time>
</trkpt>
<trkpt lat="37.970730" lon="-1.054820">
 <ele>133.160000</ele>
<time>2009-10-10T10:35:58Z</time>
</trkpt>
<trkpt lat="37.970732" lon="-1.054823">
 <ele>142.360000</ele>
<time>2009-10-10T10:35:59Z</time>
</trkpt>
<trkpt lat="37.970748" lon="-1.054927">
 <ele>145.320000</ele>
<time>2009-10-10T10:36:09Z</time>
</trkpt>
<trkpt lat="37.970740" lon="-1.054913">
 <ele>143.200000</ele>
<time>2009-10-10T10:36:10Z</time>
</trkpt>
<trkpt lat="37.970752" lon="-1.054914">
 <ele>144.080000</ele>
<time>2009-10-10T10:36:11Z</time>
</trkpt>
<trkpt lat="37.970753" lon="-1.054923">
 <ele>144.000000</ele>
<time>2009-10-10T10:36:12Z</time>
</trkpt>
<trkpt lat="37.970755" lon="-1.054920">
 <ele>143.040000</ele>
<time>2009-10-10T10:36:13Z</time>
</trkpt>
<trkpt lat="37.970755" lon="-1.054920">
 <ele>144.000000</ele>
<time>2009-10-10T10:36:14Z</time>
</trkpt>
<trkpt lat="37.970761" lon="-1.054921">
 <ele>140.880000</ele>
<time>2009-10-10T10:36:19Z</time>
</trkpt>
<trkpt lat="37.970793" lon="-1.054940">
 <ele>143.320000</ele>
<time>2009-10-10T10:36:22Z</time>
</trkpt>
<trkpt lat="37.970777" lon="-1.054932">
 <ele>132.000000</ele>
<time>2009-10-10T10:36:23Z</time>
</trkpt>
<trkpt lat="37.970785" lon="-1.054938">
 <ele>138.260000</ele>
<time>2009-10-10T10:36:24Z</time>
</trkpt>
<trkpt lat="37.970774" lon="-1.054998">
 <ele>139.460000</ele>
<time>2009-10-10T10:36:27Z</time>
</trkpt>
<trkpt lat="37.970737" lon="-1.055010">
 <ele>140.500000</ele>
<time>2009-10-10T10:36:31Z</time>
</trkpt>
<trkpt lat="37.970747" lon="-1.055005">
 <ele>141.040000</ele>
<time>2009-10-10T10:36:32Z</time>
</trkpt>
<trkpt lat="37.970749" lon="-1.055009">
 <ele>140.000000</ele>
<time>2009-10-10T10:36:33Z</time>
</trkpt>
<trkpt lat="37.970746" lon="-1.055011">
 <ele>140.400000</ele>
<time>2009-10-10T10:36:34Z</time>
</trkpt>
<trkpt lat="37.970743" lon="-1.055012">
 <ele>140.400000</ele>
<time>2009-10-10T10:36:35Z</time>
</trkpt>
<trkpt lat="37.970747" lon="-1.055019">
 <ele>140.520000</ele>
<time>2009-10-10T10:36:36Z</time>
</trkpt>
<trkpt lat="37.970781" lon="-1.055040">
 <ele>138.020000</ele>
<time>2009-10-10T10:36:39Z</time>
</trkpt>
<trkpt lat="37.970766" lon="-1.055030">
 <ele>137.820000</ele>
<time>2009-10-10T10:36:40Z</time>
</trkpt>
<trkpt lat="37.970769" lon="-1.055041">
 <ele>137.800000</ele>
<time>2009-10-10T10:36:41Z</time>
</trkpt>
<trkpt lat="37.970766" lon="-1.055037">
 <ele>137.820000</ele>
<time>2009-10-10T10:36:42Z</time>
</trkpt>
<trkpt lat="37.970773" lon="-1.055037">
 <ele>137.020000</ele>
<time>2009-10-10T10:36:43Z</time>
</trkpt>
<trkpt lat="37.970773" lon="-1.055037">
 <ele>137.900000</ele>
<time>2009-10-10T10:36:44Z</time>
</trkpt>
<trkpt lat="37.970770" lon="-1.055038">
 <ele>136.380000</ele>
<time>2009-10-10T10:36:50Z</time>
</trkpt>
<trkpt lat="37.970771" lon="-1.055037">
 <ele>133.980000</ele>
<time>2009-10-10T10:36:51Z</time>
</trkpt>
<trkpt lat="37.970771" lon="-1.055071">
 <ele>129.660000</ele>
<time>2009-10-10T10:36:54Z</time>
</trkpt>
<trkpt lat="37.970766" lon="-1.055082">
 <ele>133.260000</ele>
<time>2009-10-10T10:36:56Z</time>
</trkpt>
<trkpt lat="37.970761" lon="-1.055096">
 <ele>131.760000</ele>
<time>2009-10-10T10:36:57Z</time>
</trkpt>
<trkpt lat="37.970768" lon="-1.055097">
 <ele>133.980000</ele>
<time>2009-10-10T10:36:58Z</time>
</trkpt>
<trkpt lat="37.970771" lon="-1.055089">
 <ele>131.800000</ele>
<time>2009-10-10T10:36:59Z</time>
</trkpt>
<trkpt lat="37.970785" lon="-1.055097">
 <ele>134.340000</ele>
<time>2009-10-10T10:37:00Z</time>
</trkpt>
<trkpt lat="37.970783" lon="-1.055097">
 <ele>132.580000</ele>
<time>2009-10-10T10:37:01Z</time>
</trkpt>
<trkpt lat="37.970781" lon="-1.055099">
 <ele>133.200000</ele>
<time>2009-10-10T10:37:02Z</time>
</trkpt>
<trkpt lat="37.970782" lon="-1.055102">
 <ele>133.440000</ele>
<time>2009-10-10T10:37:03Z</time>
</trkpt>
<trkpt lat="37.970782" lon="-1.055102">
 <ele>133.200000</ele>
<time>2009-10-10T10:37:04Z</time>
</trkpt>
<trkpt lat="37.970795" lon="-1.055111">
 <ele>134.160000</ele>
<time>2009-10-10T10:37:06Z</time>
</trkpt>
<trkpt lat="37.970853" lon="-1.055150">
 <ele>133.620000</ele>
<time>2009-10-10T10:37:09Z</time>
</trkpt>
<trkpt lat="37.970849" lon="-1.055158">
 <ele>137.480000</ele>
<time>2009-10-10T10:37:10Z</time>
</trkpt>
<trkpt lat="37.970860" lon="-1.055153">
 <ele>134.680000</ele>
<time>2009-10-10T10:37:11Z</time>
</trkpt>
<trkpt lat="37.970865" lon="-1.055149">
 <ele>135.940000</ele>
<time>2009-10-10T10:37:12Z</time>
</trkpt>
<trkpt lat="37.970867" lon="-1.055153">
 <ele>134.900000</ele>
<time>2009-10-10T10:37:13Z</time>
</trkpt>
<trkpt lat="37.970867" lon="-1.055153">
 <ele>135.300000</ele>
<time>2009-10-10T10:37:14Z</time>
</trkpt>
<trkpt lat="37.970910" lon="-1.055167">
 <ele>136.020000</ele>
<time>2009-10-10T10:37:46Z</time>
</trkpt>
<trkpt lat="37.971044" lon="-1.055208">
 <ele>136.760000</ele>
<time>2009-10-10T10:37:49Z</time>
</trkpt>
<trkpt lat="37.971064" lon="-1.055223">
 <ele>141.000000</ele>
<time>2009-10-10T10:37:52Z</time>
</trkpt>
<trkpt lat="37.971088" lon="-1.055227">
 <ele>140.900000</ele>
<time>2009-10-10T10:37:53Z</time>
</trkpt>
<trkpt lat="37.971074" lon="-1.055224">
 <ele>141.580000</ele>
<time>2009-10-10T10:37:54Z</time>
</trkpt>
<trkpt lat="37.971079" lon="-1.055228">
 <ele>140.740000</ele>
<time>2009-10-10T10:37:55Z</time>
</trkpt>
<trkpt lat="37.971077" lon="-1.055228">
 <ele>141.700000</ele>
<time>2009-10-10T10:37:56Z</time>
</trkpt>
<trkpt lat="37.971077" lon="-1.055228">
 <ele>140.900000</ele>
<time>2009-10-10T10:37:57Z</time>
</trkpt>
<trkpt lat="37.971074" lon="-1.055240">
 <ele>146.780000</ele>
<time>2009-10-10T10:38:11Z</time>
</trkpt>
<trkpt lat="37.971046" lon="-1.055304">
 <ele>148.260000</ele>
<time>2009-10-10T10:38:14Z</time>
</trkpt>
<trkpt lat="37.970982" lon="-1.055323">
 <ele>163.760000</ele>
<time>2009-10-10T10:38:18Z</time>
</trkpt>
<trkpt lat="37.970936" lon="-1.055347">
 <ele>168.220000</ele>
<time>2009-10-10T10:38:21Z</time>
</trkpt>
<trkpt lat="37.970948" lon="-1.055360">
 <ele>168.600000</ele>
<time>2009-10-10T10:38:24Z</time>
</trkpt>
<trkpt lat="37.970947" lon="-1.055355">
 <ele>167.800000</ele>
<time>2009-10-10T10:38:25Z</time>
</trkpt>
<trkpt lat="37.970943" lon="-1.055353">
 <ele>167.620000</ele>
<time>2009-10-10T10:38:26Z</time>
</trkpt>
<trkpt lat="37.970962" lon="-1.055360">
 <ele>169.280000</ele>
<time>2009-10-10T10:38:27Z</time>
</trkpt>
<trkpt lat="37.971002" lon="-1.055379">
 <ele>173.440000</ele>
<time>2009-10-10T10:38:31Z</time>
</trkpt>
<trkpt lat="37.971018" lon="-1.055395">
 <ele>172.740000</ele>
<time>2009-10-10T10:38:32Z</time>
</trkpt>
<trkpt lat="37.971063" lon="-1.055405">
 <ele>175.240000</ele>
<time>2009-10-10T10:38:36Z</time>
</trkpt>
<trkpt lat="37.971015" lon="-1.055416">
 <ele>175.140000</ele>
<time>2009-10-10T10:38:38Z</time>
</trkpt>
<trkpt lat="37.971012" lon="-1.055428">
 <ele>174.440000</ele>
<time>2009-10-10T10:38:40Z</time>
</trkpt>
<trkpt lat="37.971007" lon="-1.055440">
 <ele>175.160000</ele>
<time>2009-10-10T10:38:42Z</time>
</trkpt>
<trkpt lat="37.970844" lon="-1.055466">
 <ele>160.400000</ele>
<time>2009-10-10T10:38:51Z</time>
</trkpt>
<trkpt lat="37.970854" lon="-1.055446">
 <ele>154.960000</ele>
<time>2009-10-10T10:38:53Z</time>
</trkpt>
<trkpt lat="37.970853" lon="-1.055427">
 <ele>153.860000</ele>
<time>2009-10-10T10:38:54Z</time>
</trkpt>
<trkpt lat="37.970883" lon="-1.055440">
 <ele>148.920000</ele>
<time>2009-10-10T10:38:55Z</time>
</trkpt>
<trkpt lat="37.970935" lon="-1.055402">
 <ele>144.360000</ele>
<time>2009-10-10T10:38:58Z</time>
</trkpt>
<trkpt lat="37.970924" lon="-1.055400">
 <ele>139.940000</ele>
<time>2009-10-10T10:39:00Z</time>
</trkpt>
<trkpt lat="37.970807" lon="-1.055398">
 <ele>139.380000</ele>
<time>2009-10-10T10:39:03Z</time>
</trkpt>
<trkpt lat="37.970813" lon="-1.055391">
 <ele>142.960000</ele>
<time>2009-10-10T10:39:07Z</time>
</trkpt>
<trkpt lat="37.970916" lon="-1.055330">
 <ele>147.280000</ele>
<time>2009-10-10T10:39:12Z</time>
</trkpt>
<trkpt lat="37.970908" lon="-1.055339">
 <ele>153.760000</ele>
<time>2009-10-10T10:39:14Z</time>
</trkpt>
<trkpt lat="37.970904" lon="-1.055328">
 <ele>155.300000</ele>
<time>2009-10-10T10:39:16Z</time>
</trkpt>
<trkpt lat="37.970914" lon="-1.055330">
 <ele>157.140000</ele>
<time>2009-10-10T10:39:17Z</time>
</trkpt>
<trkpt lat="37.970904" lon="-1.055338">
 <ele>158.780000</ele>
<time>2009-10-10T10:39:18Z</time>
</trkpt>
<trkpt lat="37.970899" lon="-1.055329">
 <ele>161.340000</ele>
<time>2009-10-10T10:39:19Z</time>
</trkpt>
<trkpt lat="37.970918" lon="-1.055334">
 <ele>161.000000</ele>
<time>2009-10-10T10:39:20Z</time>
</trkpt>
<trkpt lat="37.970929" lon="-1.055329">
 <ele>160.620000</ele>
<time>2009-10-10T10:39:21Z</time>
</trkpt>
<trkpt lat="37.970919" lon="-1.055353">
 <ele>159.680000</ele>
<time>2009-10-10T10:39:22Z</time>
</trkpt>
<trkpt lat="37.970927" lon="-1.055341">
 <ele>162.640000</ele>
<time>2009-10-10T10:39:23Z</time>
</trkpt>
<trkpt lat="37.970925" lon="-1.055343">
 <ele>159.040000</ele>
<time>2009-10-10T10:39:24Z</time>
</trkpt>
<trkpt lat="37.970864" lon="-1.055387">
 <ele>146.040000</ele>
<time>2009-10-10T10:39:29Z</time>
</trkpt>
<trkpt lat="37.970852" lon="-1.055401">
 <ele>152.300000</ele>
<time>2009-10-10T10:39:30Z</time>
</trkpt>
<trkpt lat="37.970856" lon="-1.055407">
 <ele>155.260000</ele>
<time>2009-10-10T10:39:33Z</time>
</trkpt>
<trkpt lat="37.970805" lon="-1.055422">
 <ele>157.720000</ele>
<time>2009-10-10T10:39:35Z</time>
</trkpt>
<trkpt lat="37.970759" lon="-1.055418">
 <ele>154.000000</ele>
<time>2009-10-10T10:39:38Z</time>
</trkpt>
<trkpt lat="37.970777" lon="-1.055432">
 <ele>154.180000</ele>
<time>2009-10-10T10:39:41Z</time>
</trkpt>
<trkpt lat="37.970711" lon="-1.055442">
 <ele>152.920000</ele>
<time>2009-10-10T10:39:47Z</time>
</trkpt>
<trkpt lat="37.970723" lon="-1.055451">
 <ele>152.580000</ele>
<time>2009-10-10T10:39:48Z</time>
</trkpt>
<trkpt lat="37.970720" lon="-1.055455">
 <ele>149.780000</ele>
<time>2009-10-10T10:39:49Z</time>
</trkpt>
<trkpt lat="37.970738" lon="-1.055459">
 <ele>150.820000</ele>
<time>2009-10-10T10:39:51Z</time>
</trkpt>
<trkpt lat="37.970766" lon="-1.055473">
 <ele>153.320000</ele>
<time>2009-10-10T10:39:54Z</time>
</trkpt>
<trkpt lat="37.970756" lon="-1.055463">
 <ele>156.580000</ele>
<time>2009-10-10T10:39:55Z</time>
</trkpt>
<trkpt lat="37.970733" lon="-1.055471">
 <ele>156.180000</ele>
<time>2009-10-10T10:39:56Z</time>
</trkpt>
<trkpt lat="37.970736" lon="-1.055474">
 <ele>156.300000</ele>
<time>2009-10-10T10:39:57Z</time>
</trkpt>
<trkpt lat="37.970726" lon="-1.055481">
 <ele>157.640000</ele>
<time>2009-10-10T10:39:58Z</time>
</trkpt>
<trkpt lat="37.970712" lon="-1.055510">
 <ele>165.700000</ele>
<time>2009-10-10T10:40:02Z</time>
</trkpt>
<trkpt lat="37.970718" lon="-1.055519">
 <ele>166.420000</ele>
<time>2009-10-10T10:40:04Z</time>
</trkpt>
<trkpt lat="37.970703" lon="-1.055512">
 <ele>167.400000</ele>
<time>2009-10-10T10:40:05Z</time>
</trkpt>
<trkpt lat="37.970698" lon="-1.055509">
 <ele>168.080000</ele>
<time>2009-10-10T10:40:06Z</time>
</trkpt>
<trkpt lat="37.970698" lon="-1.055522">
 <ele>165.800000</ele>
<time>2009-10-10T10:40:07Z</time>
</trkpt>
<trkpt lat="37.970658" lon="-1.055547">
 <ele>179.740000</ele>
<time>2009-10-10T10:40:10Z</time>
</trkpt>
<trkpt lat="37.970641" lon="-1.055562">
 <ele>172.840000</ele>
<time>2009-10-10T10:40:11Z</time>
</trkpt>
<trkpt lat="37.970654" lon="-1.055558">
 <ele>181.720000</ele>
<time>2009-10-10T10:40:12Z</time>
</trkpt>
<trkpt lat="37.970650" lon="-1.055568">
 <ele>178.660000</ele>
<time>2009-10-10T10:40:13Z</time>
</trkpt>
<trkpt lat="37.970620" lon="-1.055600">
 <ele>179.640000</ele>
<time>2009-10-10T10:40:17Z</time>
</trkpt>
<trkpt lat="37.970640" lon="-1.055603">
 <ele>178.980000</ele>
<time>2009-10-10T10:40:18Z</time>
</trkpt>
<trkpt lat="37.970637" lon="-1.055600">
 <ele>179.360000</ele>
<time>2009-10-10T10:40:19Z</time>
</trkpt>
<trkpt lat="37.970661" lon="-1.055598">
 <ele>179.940000</ele>
<time>2009-10-10T10:40:20Z</time>
</trkpt>
<trkpt lat="37.970663" lon="-1.055604">
 <ele>175.540000</ele>
<time>2009-10-10T10:40:22Z</time>
</trkpt>
<trkpt lat="37.970647" lon="-1.055604">
 <ele>173.920000</ele>
<time>2009-10-10T10:40:23Z</time>
</trkpt>
<trkpt lat="37.970570" lon="-1.055638">
 <ele>162.780000</ele>
<time>2009-10-10T10:40:31Z</time>
</trkpt>
<trkpt lat="37.970574" lon="-1.055645">
 <ele>157.500000</ele>
<time>2009-10-10T10:40:32Z</time>
</trkpt>
<trkpt lat="37.970577" lon="-1.055647">
 <ele>158.640000</ele>
<time>2009-10-10T10:40:33Z</time>
</trkpt>
<trkpt lat="37.970574" lon="-1.055639">
 <ele>157.820000</ele>
<time>2009-10-10T10:40:34Z</time>
</trkpt>
<trkpt lat="37.970571" lon="-1.055647">
 <ele>157.760000</ele>
<time>2009-10-10T10:40:35Z</time>
</trkpt>
<trkpt lat="37.970567" lon="-1.055647">
 <ele>157.280000</ele>
<time>2009-10-10T10:40:36Z</time>
</trkpt>
<trkpt lat="37.970567" lon="-1.055647">
 <ele>158.800000</ele>
<time>2009-10-10T10:40:37Z</time>
</trkpt>
<trkpt lat="37.970558" lon="-1.055645">
 <ele>157.560000</ele>
<time>2009-10-10T10:40:39Z</time>
</trkpt>
<trkpt lat="37.970557" lon="-1.055645">
 <ele>155.460000</ele>
<time>2009-10-10T10:40:40Z</time>
</trkpt>
<trkpt lat="37.970559" lon="-1.055645">
 <ele>152.840000</ele>
<time>2009-10-10T10:40:41Z</time>
</trkpt>
<trkpt lat="37.970534" lon="-1.055656">
 <ele>150.240000</ele>
<time>2009-10-10T10:40:43Z</time>
</trkpt>
<trkpt lat="37.970509" lon="-1.055654">
 <ele>152.080000</ele>
<time>2009-10-10T10:40:44Z</time>
</trkpt>
<trkpt lat="37.970529" lon="-1.055666">
 <ele>151.680000</ele>
<time>2009-10-10T10:40:45Z</time>
</trkpt>
<trkpt lat="37.970539" lon="-1.055658">
 <ele>152.300000</ele>
<time>2009-10-10T10:40:46Z</time>
</trkpt>
<trkpt lat="37.970526" lon="-1.055707">
 <ele>143.980000</ele>
<time>2009-10-10T10:40:49Z</time>
</trkpt>
<trkpt lat="37.970566" lon="-1.055729">
 <ele>142.680000</ele>
<time>2009-10-10T10:40:51Z</time>
</trkpt>
<trkpt lat="37.970614" lon="-1.055736">
 <ele>143.100000</ele>
<time>2009-10-10T10:40:57Z</time>
</trkpt>
<trkpt lat="37.970611" lon="-1.055740">
 <ele>142.580000</ele>
<time>2009-10-10T10:40:59Z</time>
</trkpt>
<trkpt lat="37.970599" lon="-1.055753">
 <ele>139.660000</ele>
<time>2009-10-10T10:41:00Z</time>
</trkpt>
<trkpt lat="37.970608" lon="-1.055759">
 <ele>141.900000</ele>
<time>2009-10-10T10:41:01Z</time>
</trkpt>
<trkpt lat="37.970602" lon="-1.055741">
 <ele>141.000000</ele>
<time>2009-10-10T10:41:02Z</time>
</trkpt>
<trkpt lat="37.970607" lon="-1.055748">
 <ele>139.960000</ele>
<time>2009-10-10T10:41:03Z</time>
</trkpt>
<trkpt lat="37.970607" lon="-1.055748">
 <ele>141.000000</ele>
<time>2009-10-10T10:41:04Z</time>
</trkpt>
<trkpt lat="37.970609" lon="-1.055755">
 <ele>141.600000</ele>
<time>2009-10-10T10:41:06Z</time>
</trkpt>
<trkpt lat="37.970603" lon="-1.055800">
 <ele>146.380000</ele>
<time>2009-10-10T10:41:10Z</time>
</trkpt>
<trkpt lat="37.970618" lon="-1.055795">
 <ele>144.760000</ele>
<time>2009-10-10T10:41:11Z</time>
</trkpt>
<trkpt lat="37.970605" lon="-1.055775">
 <ele>146.660000</ele>
<time>2009-10-10T10:41:12Z</time>
</trkpt>
<trkpt lat="37.970579" lon="-1.055785">
 <ele>145.020000</ele>
<time>2009-10-10T10:41:14Z</time>
</trkpt>
<trkpt lat="37.970570" lon="-1.055774">
 <ele>143.480000</ele>
<time>2009-10-10T10:41:15Z</time>
</trkpt>
<trkpt lat="37.970566" lon="-1.055783">
 <ele>142.940000</ele>
<time>2009-10-10T10:41:16Z</time>
</trkpt>
<trkpt lat="37.970538" lon="-1.055777">
 <ele>143.020000</ele>
<time>2009-10-10T10:41:17Z</time>
</trkpt>
<trkpt lat="37.970533" lon="-1.055783">
 <ele>142.400000</ele>
<time>2009-10-10T10:41:18Z</time>
</trkpt>
<trkpt lat="37.970527" lon="-1.055787">
 <ele>142.760000</ele>
<time>2009-10-10T10:41:19Z</time>
</trkpt>
<trkpt lat="37.970525" lon="-1.055782">
 <ele>142.840000</ele>
<time>2009-10-10T10:41:20Z</time>
</trkpt>
<trkpt lat="37.970525" lon="-1.055782">
 <ele>143.000000</ele>
<time>2009-10-10T10:41:21Z</time>
</trkpt>
<trkpt lat="37.970514" lon="-1.055778">
 <ele>137.920000</ele>
<time>2009-10-10T10:41:25Z</time>
</trkpt>
<trkpt lat="37.970454" lon="-1.055738">
 <ele>117.000000</ele>
<time>2009-10-10T10:41:29Z</time>
</trkpt>
<trkpt lat="37.970456" lon="-1.055741">
 <ele>125.860000</ele>
<time>2009-10-10T10:41:30Z</time>
</trkpt>
<trkpt lat="37.970454" lon="-1.055732">
 <ele>125.780000</ele>
<time>2009-10-10T10:41:31Z</time>
</trkpt>
<trkpt lat="37.970436" lon="-1.055743">
 <ele>125.440000</ele>
<time>2009-10-10T10:41:32Z</time>
</trkpt>
<trkpt lat="37.970443" lon="-1.055723">
 <ele>123.220000</ele>
<time>2009-10-10T10:41:33Z</time>
</trkpt>
<trkpt lat="37.970440" lon="-1.055735">
 <ele>125.380000</ele>
<time>2009-10-10T10:41:34Z</time>
</trkpt>
<trkpt lat="37.970428" lon="-1.055726">
 <ele>121.460000</ele>
<time>2009-10-10T10:41:35Z</time>
</trkpt>
<trkpt lat="37.970454" lon="-1.055723">
 <ele>117.760000</ele>
<time>2009-10-10T10:41:38Z</time>
</trkpt>
<trkpt lat="37.970444" lon="-1.055726">
 <ele>118.760000</ele>
<time>2009-10-10T10:41:39Z</time>
</trkpt>
<trkpt lat="37.970435" lon="-1.055725">
 <ele>120.080000</ele>
<time>2009-10-10T10:41:41Z</time>
</trkpt>
<trkpt lat="37.970429" lon="-1.055733">
 <ele>120.580000</ele>
<time>2009-10-10T10:41:42Z</time>
</trkpt>
<trkpt lat="37.970405" lon="-1.055726">
 <ele>121.840000</ele>
<time>2009-10-10T10:41:43Z</time>
</trkpt>
<trkpt lat="37.970409" lon="-1.055731">
 <ele>121.840000</ele>
<time>2009-10-10T10:41:44Z</time>
</trkpt>
<trkpt lat="37.970400" lon="-1.055734">
 <ele>121.700000</ele>
<time>2009-10-10T10:41:45Z</time>
</trkpt>
<trkpt lat="37.970325" lon="-1.055767">
 <ele>124.920000</ele>
<time>2009-10-10T10:41:49Z</time>
</trkpt>
<trkpt lat="37.970324" lon="-1.055760">
 <ele>134.180000</ele>
<time>2009-10-10T10:41:50Z</time>
</trkpt>
<trkpt lat="37.970318" lon="-1.055769">
 <ele>130.620000</ele>
<time>2009-10-10T10:41:51Z</time>
</trkpt>
<trkpt lat="37.970314" lon="-1.055763">
 <ele>129.320000</ele>
<time>2009-10-10T10:41:52Z</time>
</trkpt>
<trkpt lat="37.970310" lon="-1.055767">
 <ele>130.680000</ele>
<time>2009-10-10T10:41:53Z</time>
</trkpt>
<trkpt lat="37.970310" lon="-1.055767">
 <ele>129.800000</ele>
<time>2009-10-10T10:41:54Z</time>
</trkpt>
<trkpt lat="37.970268" lon="-1.055775">
 <ele>132.520000</ele>
<time>2009-10-10T10:42:31Z</time>
</trkpt>
<trkpt lat="37.970179" lon="-1.055794">
 <ele>139.720000</ele>
<time>2009-10-10T10:42:33Z</time>
</trkpt>
<trkpt lat="37.970136" lon="-1.055802">
 <ele>128.640000</ele>
<time>2009-10-10T10:42:34Z</time>
</trkpt>
<trkpt lat="37.970115" lon="-1.055796">
 <ele>138.520000</ele>
<time>2009-10-10T10:42:35Z</time>
</trkpt>
<trkpt lat="37.970117" lon="-1.055794">
 <ele>133.680000</ele>
<time>2009-10-10T10:42:36Z</time>
</trkpt>
<trkpt lat="37.970117" lon="-1.055802">
 <ele>133.440000</ele>
<time>2009-10-10T10:42:37Z</time>
</trkpt>
<trkpt lat="37.970118" lon="-1.055798">
 <ele>132.640000</ele>
<time>2009-10-10T10:42:38Z</time>
</trkpt>
<trkpt lat="37.970118" lon="-1.055798">
 <ele>133.600000</ele>
<time>2009-10-10T10:42:39Z</time>
</trkpt>
<trkpt lat="37.970144" lon="-1.055794">
 <ele>129.400000</ele>
<time>2009-10-10T10:42:53Z</time>
</trkpt>
<trkpt lat="37.970201" lon="-1.055786">
 <ele>116.580000</ele>
<time>2009-10-10T10:42:55Z</time>
</trkpt>
<trkpt lat="37.970229" lon="-1.055783">
 <ele>131.260000</ele>
<time>2009-10-10T10:42:56Z</time>
</trkpt>
<trkpt lat="37.970230" lon="-1.055777">
 <ele>115.060000</ele>
<time>2009-10-10T10:42:57Z</time>
</trkpt>
<trkpt lat="37.970238" lon="-1.055781">
 <ele>122.760000</ele>
<time>2009-10-10T10:42:58Z</time>
</trkpt>
<trkpt lat="37.970243" lon="-1.055778">
 <ele>123.180000</ele>
<time>2009-10-10T10:42:59Z</time>
</trkpt>
<trkpt lat="37.970242" lon="-1.055780">
 <ele>123.180000</ele>
<time>2009-10-10T10:43:00Z</time>
</trkpt>
<trkpt lat="37.970242" lon="-1.055780">
 <ele>123.100000</ele>
<time>2009-10-10T10:43:01Z</time>
</trkpt>
<trkpt lat="37.970256" lon="-1.055780">
 <ele>121.260000</ele>
<time>2009-10-10T10:43:30Z</time>
</trkpt>
<trkpt lat="37.970352" lon="-1.055783">
 <ele>117.880000</ele>
<time>2009-10-10T10:43:36Z</time>
</trkpt>
<trkpt lat="37.970393" lon="-1.055829">
 <ele>124.840000</ele>
<time>2009-10-10T10:43:41Z</time>
</trkpt>
<trkpt lat="37.970384" lon="-1.055840">
 <ele>126.060000</ele>
<time>2009-10-10T10:43:42Z</time>
</trkpt>
<trkpt lat="37.970386" lon="-1.055865">
 <ele>135.940000</ele>
<time>2009-10-10T10:43:46Z</time>
</trkpt>
<trkpt lat="37.970379" lon="-1.055874">
 <ele>136.260000</ele>
<time>2009-10-10T10:43:47Z</time>
</trkpt>
<trkpt lat="37.970353" lon="-1.055861">
 <ele>136.360000</ele>
<time>2009-10-10T10:43:49Z</time>
</trkpt>
<trkpt lat="37.970348" lon="-1.055874">
 <ele>136.460000</ele>
<time>2009-10-10T10:43:50Z</time>
</trkpt>
<trkpt lat="37.970364" lon="-1.055877">
 <ele>135.780000</ele>
<time>2009-10-10T10:43:51Z</time>
</trkpt>
<trkpt lat="37.970357" lon="-1.055865">
 <ele>135.860000</ele>
<time>2009-10-10T10:43:52Z</time>
</trkpt>
<trkpt lat="37.970362" lon="-1.055870">
 <ele>135.700000</ele>
<time>2009-10-10T10:43:53Z</time>
</trkpt>
<trkpt lat="37.970362" lon="-1.055870">
 <ele>135.700000</ele>
<time>2009-10-10T10:43:54Z</time>
</trkpt>
<trkpt lat="37.970362" lon="-1.055879">
 <ele>134.860000</ele>
<time>2009-10-10T10:44:00Z</time>
</trkpt>
<trkpt lat="37.970359" lon="-1.055932">
 <ele>137.300000</ele>
<time>2009-10-10T10:44:03Z</time>
</trkpt>
<trkpt lat="37.970340" lon="-1.055928">
 <ele>134.260000</ele>
<time>2009-10-10T10:44:04Z</time>
</trkpt>
<trkpt lat="37.970320" lon="-1.055933">
 <ele>135.160000</ele>
<time>2009-10-10T10:44:05Z</time>
</trkpt>
<trkpt lat="37.970327" lon="-1.055939">
 <ele>135.320000</ele>
<time>2009-10-10T10:44:06Z</time>
</trkpt>
<trkpt lat="37.970318" lon="-1.055932">
 <ele>136.260000</ele>
<time>2009-10-10T10:44:07Z</time>
</trkpt>
<trkpt lat="37.970324" lon="-1.055941">
 <ele>134.300000</ele>
<time>2009-10-10T10:44:08Z</time>
</trkpt>
<trkpt lat="37.970370" lon="-1.055969">
 <ele>132.840000</ele>
<time>2009-10-10T10:44:12Z</time>
</trkpt>
<trkpt lat="37.970336" lon="-1.055978">
 <ele>136.640000</ele>
<time>2009-10-10T10:44:15Z</time>
</trkpt>
<trkpt lat="37.970319" lon="-1.055979">
 <ele>135.820000</ele>
<time>2009-10-10T10:44:16Z</time>
</trkpt>
<trkpt lat="37.970311" lon="-1.055981">
 <ele>137.000000</ele>
<time>2009-10-10T10:44:17Z</time>
</trkpt>
<trkpt lat="37.970315" lon="-1.055996">
 <ele>136.880000</ele>
<time>2009-10-10T10:44:18Z</time>
</trkpt>
<trkpt lat="37.970274" lon="-1.056027">
 <ele>141.320000</ele>
<time>2009-10-10T10:44:20Z</time>
</trkpt>
<trkpt lat="37.970248" lon="-1.056068">
 <ele>142.940000</ele>
<time>2009-10-10T10:44:23Z</time>
</trkpt>
<trkpt lat="37.970236" lon="-1.056064">
 <ele>143.260000</ele>
<time>2009-10-10T10:44:24Z</time>
</trkpt>
<trkpt lat="37.970227" lon="-1.056063">
 <ele>142.620000</ele>
<time>2009-10-10T10:44:25Z</time>
</trkpt>
<trkpt lat="37.970235" lon="-1.056065">
 <ele>142.920000</ele>
<time>2009-10-10T10:44:26Z</time>
</trkpt>
<trkpt lat="37.970228" lon="-1.056094">
 <ele>144.220000</ele>
<time>2009-10-10T10:44:30Z</time>
</trkpt>
<trkpt lat="37.970179" lon="-1.056156">
 <ele>150.120000</ele>
<time>2009-10-10T10:44:34Z</time>
</trkpt>
<trkpt lat="37.970145" lon="-1.056206">
 <ele>154.940000</ele>
<time>2009-10-10T10:44:39Z</time>
</trkpt>
<trkpt lat="37.970125" lon="-1.056206">
 <ele>158.260000</ele>
<time>2009-10-10T10:44:40Z</time>
</trkpt>
<trkpt lat="37.970169" lon="-1.056287">
 <ele>154.880000</ele>
<time>2009-10-10T10:44:47Z</time>
</trkpt>
<trkpt lat="37.970210" lon="-1.056326">
 <ele>155.300000</ele>
<time>2009-10-10T10:44:51Z</time>
</trkpt>
<trkpt lat="37.970194" lon="-1.056365">
 <ele>153.280000</ele>
<time>2009-10-10T10:44:54Z</time>
</trkpt>
<trkpt lat="37.970157" lon="-1.056427">
 <ele>149.520000</ele>
<time>2009-10-10T10:44:58Z</time>
</trkpt>
<trkpt lat="37.970102" lon="-1.056440">
 <ele>148.700000</ele>
<time>2009-10-10T10:45:01Z</time>
</trkpt>
<trkpt lat="37.970044" lon="-1.056520">
 <ele>146.600000</ele>
<time>2009-10-10T10:45:05Z</time>
</trkpt>
<trkpt lat="37.969982" lon="-1.056540">
 <ele>147.320000</ele>
<time>2009-10-10T10:45:07Z</time>
</trkpt>
<trkpt lat="37.969914" lon="-1.056631">
 <ele>142.540000</ele>
<time>2009-10-10T10:45:14Z</time>
</trkpt>
<trkpt lat="37.969949" lon="-1.056664">
 <ele>139.160000</ele>
<time>2009-10-10T10:45:17Z</time>
</trkpt>
<trkpt lat="37.969979" lon="-1.056701">
 <ele>137.940000</ele>
<time>2009-10-10T10:45:21Z</time>
</trkpt>
<trkpt lat="37.969957" lon="-1.056720">
 <ele>132.180000</ele>
<time>2009-10-10T10:45:26Z</time>
</trkpt>
<trkpt lat="37.969964" lon="-1.056724">
 <ele>132.220000</ele>
<time>2009-10-10T10:45:27Z</time>
</trkpt>
<trkpt lat="37.970010" lon="-1.056746">
 <ele>134.600000</ele>
<time>2009-10-10T10:45:31Z</time>
</trkpt>
<trkpt lat="37.970011" lon="-1.056736">
 <ele>135.620000</ele>
<time>2009-10-10T10:45:32Z</time>
</trkpt>
<trkpt lat="37.970003" lon="-1.056729">
 <ele>137.340000</ele>
<time>2009-10-10T10:45:33Z</time>
</trkpt>
<trkpt lat="37.970007" lon="-1.056734">
 <ele>135.180000</ele>
<time>2009-10-10T10:45:34Z</time>
</trkpt>
<trkpt lat="37.969999" lon="-1.056738">
 <ele>136.740000</ele>
<time>2009-10-10T10:45:35Z</time>
</trkpt>
<trkpt lat="37.970000" lon="-1.056737">
 <ele>136.580000</ele>
<time>2009-10-10T10:45:36Z</time>
</trkpt>
<trkpt lat="37.970000" lon="-1.056737">
 <ele>136.100000</ele>
<time>2009-10-10T10:45:37Z</time>
</trkpt>
<trkpt lat="37.970010" lon="-1.056733">
 <ele>132.940000</ele>
<time>2009-10-10T10:45:39Z</time>
</trkpt>
<trkpt lat="37.970036" lon="-1.056726">
 <ele>123.600000</ele>
<time>2009-10-10T10:45:43Z</time>
</trkpt>
<trkpt lat="37.970006" lon="-1.056731">
 <ele>131.640000</ele>
<time>2009-10-10T10:45:45Z</time>
</trkpt>
<trkpt lat="37.969993" lon="-1.056750">
 <ele>132.900000</ele>
<time>2009-10-10T10:45:46Z</time>
</trkpt>
<trkpt lat="37.969986" lon="-1.056748">
 <ele>133.080000</ele>
<time>2009-10-10T10:45:47Z</time>
</trkpt>
<trkpt lat="37.969982" lon="-1.056747">
 <ele>132.380000</ele>
<time>2009-10-10T10:45:48Z</time>
</trkpt>
<trkpt lat="37.969985" lon="-1.056748">
 <ele>133.340000</ele>
<time>2009-10-10T10:45:49Z</time>
</trkpt>
<trkpt lat="37.969985" lon="-1.056748">
 <ele>132.300000</ele>
<time>2009-10-10T10:45:50Z</time>
</trkpt>
<trkpt lat="37.969972" lon="-1.056757">
 <ele>132.620000</ele>
<time>2009-10-10T10:45:58Z</time>
</trkpt>
<trkpt lat="37.969899" lon="-1.056791">
 <ele>124.760000</ele>
<time>2009-10-10T10:46:03Z</time>
</trkpt>
<trkpt lat="37.969906" lon="-1.056799">
 <ele>123.600000</ele>
<time>2009-10-10T10:46:04Z</time>
</trkpt>
<trkpt lat="37.969899" lon="-1.056793">
 <ele>125.520000</ele>
<time>2009-10-10T10:46:05Z</time>
</trkpt>
<trkpt lat="37.969900" lon="-1.056792">
 <ele>123.920000</ele>
<time>2009-10-10T10:46:06Z</time>
</trkpt>
<trkpt lat="37.969898" lon="-1.056792">
 <ele>125.200000</ele>
<time>2009-10-10T10:46:08Z</time>
</trkpt>
<trkpt lat="37.969897" lon="-1.056779">
 <ele>113.360000</ele>
<time>2009-10-10T10:46:55Z</time>
</trkpt>
<trkpt lat="37.969858" lon="-1.056742">
 <ele>72.040000</ele>
<time>2009-10-10T10:46:59Z</time>
</trkpt>
<trkpt lat="37.969868" lon="-1.056727">
 <ele>94.980000</ele>
<time>2009-10-10T10:47:00Z</time>
</trkpt>
<trkpt lat="37.969855" lon="-1.056734">
 <ele>94.880000</ele>
<time>2009-10-10T10:47:02Z</time>
</trkpt>
<trkpt lat="37.969849" lon="-1.056751">
 <ele>95.900000</ele>
<time>2009-10-10T10:47:03Z</time>
</trkpt>
<trkpt lat="37.969843" lon="-1.056756">
 <ele>95.420000</ele>
<time>2009-10-10T10:47:04Z</time>
</trkpt>
<trkpt lat="37.969850" lon="-1.056744">
 <ele>95.500000</ele>
<time>2009-10-10T10:47:05Z</time>
</trkpt>
<trkpt lat="37.969839" lon="-1.056761">
 <ele>96.100000</ele>
<time>2009-10-10T10:47:06Z</time>
</trkpt>
<trkpt lat="37.969838" lon="-1.056821">
 <ele>97.660000</ele>
<time>2009-10-10T10:47:09Z</time>
</trkpt>
<trkpt lat="37.969837" lon="-1.056793">
 <ele>99.560000</ele>
<time>2009-10-10T10:47:10Z</time>
</trkpt>
<trkpt lat="37.969829" lon="-1.056807">
 <ele>98.560000</ele>
<time>2009-10-10T10:47:11Z</time>
</trkpt>
<trkpt lat="37.969820" lon="-1.056813">
 <ele>98.980000</ele>
<time>2009-10-10T10:47:12Z</time>
</trkpt>
<trkpt lat="37.969827" lon="-1.056813">
 <ele>98.580000</ele>
<time>2009-10-10T10:47:13Z</time>
</trkpt>
<trkpt lat="37.969827" lon="-1.056813">
 <ele>98.500000</ele>
<time>2009-10-10T10:47:14Z</time>
</trkpt>
<trkpt lat="37.969823" lon="-1.056824">
 <ele>100.780000</ele>
<time>2009-10-10T10:47:43Z</time>
</trkpt>
<trkpt lat="37.969782" lon="-1.056894">
 <ele>102.580000</ele>
<time>2009-10-10T10:47:48Z</time>
</trkpt>
<trkpt lat="37.969797" lon="-1.056863">
 <ele>102.360000</ele>
<time>2009-10-10T10:47:49Z</time>
</trkpt>
<trkpt lat="37.969811" lon="-1.056863">
 <ele>101.040000</ele>
<time>2009-10-10T10:47:50Z</time>
</trkpt>
<trkpt lat="37.969812" lon="-1.056859">
 <ele>101.120000</ele>
<time>2009-10-10T10:47:51Z</time>
</trkpt>
<trkpt lat="37.969848" lon="-1.056819">
 <ele>99.480000</ele>
<time>2009-10-10T10:47:55Z</time>
</trkpt>
<trkpt lat="37.969838" lon="-1.056812">
 <ele>97.280000</ele>
<time>2009-10-10T10:47:56Z</time>
</trkpt>
<trkpt lat="37.969825" lon="-1.056818">
 <ele>96.260000</ele>
<time>2009-10-10T10:47:58Z</time>
</trkpt>
<trkpt lat="37.969816" lon="-1.056824">
 <ele>95.900000</ele>
<time>2009-10-10T10:47:59Z</time>
</trkpt>
<trkpt lat="37.969819" lon="-1.056817">
 <ele>97.800000</ele>
<time>2009-10-10T10:48:00Z</time>
</trkpt>
<trkpt lat="37.969813" lon="-1.056824">
 <ele>95.540000</ele>
<time>2009-10-10T10:48:01Z</time>
</trkpt>
<trkpt lat="37.969817" lon="-1.056820">
 <ele>97.140000</ele>
<time>2009-10-10T10:48:02Z</time>
</trkpt>
<trkpt lat="37.969817" lon="-1.056820">
 <ele>96.900000</ele>
<time>2009-10-10T10:48:03Z</time>
</trkpt>
<trkpt lat="37.969813" lon="-1.056820">
 <ele>98.300000</ele>
<time>2009-10-10T10:48:04Z</time>
</trkpt>
<trkpt lat="37.969793" lon="-1.056834">
 <ele>105.480000</ele>
<time>2009-10-10T10:48:08Z</time>
</trkpt>
<trkpt lat="37.969801" lon="-1.056827">
 <ele>103.620000</ele>
<time>2009-10-10T10:48:09Z</time>
</trkpt>
<trkpt lat="37.969807" lon="-1.056825">
 <ele>103.800000</ele>
<time>2009-10-10T10:48:10Z</time>
</trkpt>
<trkpt lat="37.969795" lon="-1.056833">
 <ele>104.460000</ele>
<time>2009-10-10T10:48:11Z</time>
</trkpt>
<trkpt lat="37.969772" lon="-1.056845">
 <ele>109.880000</ele>
<time>2009-10-10T10:48:15Z</time>
</trkpt>
<trkpt lat="37.969775" lon="-1.056842">
 <ele>108.460000</ele>
<time>2009-10-10T10:48:16Z</time>
</trkpt>
<trkpt lat="37.969774" lon="-1.056851">
 <ele>108.540000</ele>
<time>2009-10-10T10:48:17Z</time>
</trkpt>
<trkpt lat="37.969761" lon="-1.056857">
 <ele>107.140000</ele>
<time>2009-10-10T10:48:18Z</time>
</trkpt>
<trkpt lat="37.969763" lon="-1.056855">
 <ele>109.220000</ele>
<time>2009-10-10T10:48:19Z</time>
</trkpt>
<trkpt lat="37.969763" lon="-1.056855">
 <ele>108.100000</ele>
<time>2009-10-10T10:48:20Z</time>
</trkpt>
<trkpt lat="37.969776" lon="-1.056846">
 <ele>111.020000</ele>
<time>2009-10-10T10:48:25Z</time>
</trkpt>
<trkpt lat="37.969807" lon="-1.056801">
 <ele>108.600000</ele>
<time>2009-10-10T10:48:28Z</time>
</trkpt>
<trkpt lat="37.969795" lon="-1.056838">
 <ele>120.340000</ele>
<time>2009-10-10T10:48:29Z</time>
</trkpt>
<trkpt lat="37.969795" lon="-1.056828">
 <ele>114.460000</ele>
<time>2009-10-10T10:48:30Z</time>
</trkpt>
<trkpt lat="37.969789" lon="-1.056820">
 <ele>114.340000</ele>
<time>2009-10-10T10:48:31Z</time>
</trkpt>
<trkpt lat="37.969787" lon="-1.056822">
 <ele>114.340000</ele>
<time>2009-10-10T10:48:32Z</time>
</trkpt>
<trkpt lat="37.969787" lon="-1.056822">
 <ele>114.500000</ele>
<time>2009-10-10T10:48:33Z</time>
</trkpt>
<trkpt lat="37.969779" lon="-1.056815">
 <ele>113.420000</ele>
<time>2009-10-10T10:48:44Z</time>
</trkpt>
<trkpt lat="37.969756" lon="-1.056788">
 <ele>110.680000</ele>
<time>2009-10-10T10:48:46Z</time>
</trkpt>
<trkpt lat="37.969725" lon="-1.056738">
 <ele>113.780000</ele>
<time>2009-10-10T10:48:50Z</time>
</trkpt>
<trkpt lat="37.969723" lon="-1.056753">
 <ele>114.400000</ele>
<time>2009-10-10T10:48:51Z</time>
</trkpt>
<trkpt lat="37.969723" lon="-1.056742">
 <ele>113.500000</ele>
<time>2009-10-10T10:48:52Z</time>
</trkpt>
<trkpt lat="37.969724" lon="-1.056742">
 <ele>114.040000</ele>
<time>2009-10-10T10:48:53Z</time>
</trkpt>
<trkpt lat="37.969717" lon="-1.056738">
 <ele>114.040000</ele>
<time>2009-10-10T10:48:54Z</time>
</trkpt>
<trkpt lat="37.969717" lon="-1.056738">
 <ele>113.800000</ele>
<time>2009-10-10T10:48:55Z</time>
</trkpt>
<trkpt lat="37.969712" lon="-1.056727">
 <ele>114.120000</ele>
<time>2009-10-10T10:48:56Z</time>
</trkpt>
<trkpt lat="37.969668" lon="-1.056667">
 <ele>112.780000</ele>
<time>2009-10-10T10:48:59Z</time>
</trkpt>
<trkpt lat="37.969598" lon="-1.056535">
 <ele>111.820000</ele>
<time>2009-10-10T10:49:08Z</time>
</trkpt>
<trkpt lat="37.969549" lon="-1.056488">
 <ele>113.720000</ele>
<time>2009-10-10T10:49:11Z</time>
</trkpt>
<trkpt lat="37.969550" lon="-1.056404">
 <ele>112.600000</ele>
<time>2009-10-10T10:49:17Z</time>
</trkpt>
<trkpt lat="37.969521" lon="-1.056340">
 <ele>108.840000</ele>
<time>2009-10-10T10:49:22Z</time>
</trkpt>
<trkpt lat="37.969524" lon="-1.056314">
 <ele>110.440000</ele>
<time>2009-10-10T10:49:25Z</time>
</trkpt>
<trkpt lat="37.969511" lon="-1.056304">
 <ele>110.400000</ele>
<time>2009-10-10T10:49:26Z</time>
</trkpt>
<trkpt lat="37.969517" lon="-1.056268">
 <ele>111.480000</ele>
<time>2009-10-10T10:49:29Z</time>
</trkpt>
<trkpt lat="37.969518" lon="-1.056229">
 <ele>112.180000</ele>
<time>2009-10-10T10:49:33Z</time>
</trkpt>
<trkpt lat="37.969520" lon="-1.056228">
 <ele>112.300000</ele>
<time>2009-10-10T10:49:34Z</time>
</trkpt>
<trkpt lat="37.969528" lon="-1.056224">
 <ele>111.980000</ele>
<time>2009-10-10T10:49:35Z</time>
</trkpt>
<trkpt lat="37.969523" lon="-1.056232">
 <ele>112.000000</ele>
<time>2009-10-10T10:49:36Z</time>
</trkpt>
<trkpt lat="37.969520" lon="-1.056215">
 <ele>112.840000</ele>
<time>2009-10-10T10:49:37Z</time>
</trkpt>
<trkpt lat="37.969501" lon="-1.056168">
 <ele>113.880000</ele>
<time>2009-10-10T10:49:40Z</time>
</trkpt>
<trkpt lat="37.969505" lon="-1.056175">
 <ele>117.100000</ele>
<time>2009-10-10T10:49:41Z</time>
</trkpt>
<trkpt lat="37.969498" lon="-1.056158">
 <ele>114.720000</ele>
<time>2009-10-10T10:49:42Z</time>
</trkpt>
<trkpt lat="37.969471" lon="-1.056113">
 <ele>114.280000</ele>
<time>2009-10-10T10:49:45Z</time>
</trkpt>
<trkpt lat="37.969484" lon="-1.056101">
 <ele>114.520000</ele>
<time>2009-10-10T10:49:46Z</time>
</trkpt>
<trkpt lat="37.969469" lon="-1.056107">
 <ele>112.140000</ele>
<time>2009-10-10T10:49:47Z</time>
</trkpt>
<trkpt lat="37.969441" lon="-1.056097">
 <ele>111.120000</ele>
<time>2009-10-10T10:49:50Z</time>
</trkpt>
<trkpt lat="37.969451" lon="-1.056079">
 <ele>113.040000</ele>
<time>2009-10-10T10:49:51Z</time>
</trkpt>
<trkpt lat="37.969439" lon="-1.056078">
 <ele>113.940000</ele>
<time>2009-10-10T10:49:53Z</time>
</trkpt>
<trkpt lat="37.969429" lon="-1.056061">
 <ele>115.460000</ele>
<time>2009-10-10T10:49:55Z</time>
</trkpt>
<trkpt lat="37.969412" lon="-1.056067">
 <ele>116.220000</ele>
<time>2009-10-10T10:49:56Z</time>
</trkpt>
<trkpt lat="37.969419" lon="-1.056055">
 <ele>118.920000</ele>
<time>2009-10-10T10:49:57Z</time>
</trkpt>
<trkpt lat="37.969426" lon="-1.056058">
 <ele>119.880000</ele>
<time>2009-10-10T10:49:58Z</time>
</trkpt>
<trkpt lat="37.969436" lon="-1.056061">
 <ele>121.320000</ele>
<time>2009-10-10T10:49:59Z</time>
</trkpt>
<trkpt lat="37.969436" lon="-1.056061">
 <ele>120.380000</ele>
<time>2009-10-10T10:50:00Z</time>
</trkpt>
<trkpt lat="37.969429" lon="-1.056051">
 <ele>122.020000</ele>
<time>2009-10-10T10:50:01Z</time>
</trkpt>
<trkpt lat="37.969416" lon="-1.056053">
 <ele>124.520000</ele>
<time>2009-10-10T10:50:02Z</time>
</trkpt>
<trkpt lat="37.969386" lon="-1.056058">
 <ele>127.800000</ele>
<time>2009-10-10T10:50:05Z</time>
</trkpt>
<trkpt lat="37.969368" lon="-1.056063">
 <ele>125.900000</ele>
<time>2009-10-10T10:50:06Z</time>
</trkpt>
<trkpt lat="37.969342" lon="-1.056033">
 <ele>126.780000</ele>
<time>2009-10-10T10:50:10Z</time>
</trkpt>
<trkpt lat="37.969348" lon="-1.056027">
 <ele>125.300000</ele>
<time>2009-10-10T10:50:11Z</time>
</trkpt>
<trkpt lat="37.969335" lon="-1.056039">
 <ele>126.100000</ele>
<time>2009-10-10T10:50:12Z</time>
</trkpt>
<trkpt lat="37.969338" lon="-1.056043">
 <ele>126.640000</ele>
<time>2009-10-10T10:50:13Z</time>
</trkpt>
<trkpt lat="37.969333" lon="-1.056033">
 <ele>125.600000</ele>
<time>2009-10-10T10:50:14Z</time>
</trkpt>
<trkpt lat="37.969333" lon="-1.056033">
 <ele>126.000000</ele>
<time>2009-10-10T10:50:15Z</time>
</trkpt>
<trkpt lat="37.969320" lon="-1.056028">
 <ele>123.120000</ele>
<time>2009-10-10T10:50:18Z</time>
</trkpt>
<trkpt lat="37.969257" lon="-1.056002">
 <ele>121.400000</ele>
<time>2009-10-10T10:50:21Z</time>
</trkpt>
<trkpt lat="37.969261" lon="-1.056002">
 <ele>110.020000</ele>
<time>2009-10-10T10:50:22Z</time>
</trkpt>
<trkpt lat="37.969262" lon="-1.055998">
 <ele>115.320000</ele>
<time>2009-10-10T10:50:23Z</time>
</trkpt>
<trkpt lat="37.969247" lon="-1.056010">
 <ele>115.460000</ele>
<time>2009-10-10T10:50:24Z</time>
</trkpt>
<trkpt lat="37.969248" lon="-1.056002">
 <ele>114.980000</ele>
<time>2009-10-10T10:50:25Z</time>
</trkpt>
<trkpt lat="37.969248" lon="-1.056002">
 <ele>115.700000</ele>
<time>2009-10-10T10:50:26Z</time>
</trkpt>
<trkpt lat="37.969232" lon="-1.055985">
 <ele>111.780000</ele>
<time>2009-10-10T10:50:42Z</time>
</trkpt>
<trkpt lat="37.969184" lon="-1.055958">
 <ele>100.140000</ele>
<time>2009-10-10T10:50:44Z</time>
</trkpt>
<trkpt lat="37.969154" lon="-1.055926">
 <ele>108.960000</ele>
<time>2009-10-10T10:50:47Z</time>
</trkpt>
<trkpt lat="37.969167" lon="-1.055918">
 <ele>108.560000</ele>
<time>2009-10-10T10:50:48Z</time>
</trkpt>
<trkpt lat="37.969167" lon="-1.055920">
 <ele>109.000000</ele>
<time>2009-10-10T10:50:49Z</time>
</trkpt>
<trkpt lat="37.969169" lon="-1.055921">
 <ele>108.860000</ele>
<time>2009-10-10T10:50:50Z</time>
</trkpt>
<trkpt lat="37.969170" lon="-1.055920">
 <ele>109.420000</ele>
<time>2009-10-10T10:50:51Z</time>
</trkpt>
<trkpt lat="37.969170" lon="-1.055920">
 <ele>108.700000</ele>
<time>2009-10-10T10:50:52Z</time>
</trkpt>
<trkpt lat="37.969167" lon="-1.055915">
 <ele>112.260000</ele>
<time>2009-10-10T10:51:24Z</time>
</trkpt>
<trkpt lat="37.969147" lon="-1.055885">
 <ele>109.920000</ele>
<time>2009-10-10T10:51:27Z</time>
</trkpt>
<trkpt lat="37.969157" lon="-1.055906">
 <ele>123.880000</ele>
<time>2009-10-10T10:51:28Z</time>
</trkpt>
<trkpt lat="37.969154" lon="-1.055899">
 <ele>116.580000</ele>
<time>2009-10-10T10:51:29Z</time>
</trkpt>
<trkpt lat="37.969155" lon="-1.055899">
 <ele>117.040000</ele>
<time>2009-10-10T10:51:30Z</time>
</trkpt>
<trkpt lat="37.969152" lon="-1.055897">
 <ele>116.400000</ele>
<time>2009-10-10T10:51:31Z</time>
</trkpt>
<trkpt lat="37.969152" lon="-1.055897">
 <ele>116.800000</ele>
<time>2009-10-10T10:51:32Z</time>
</trkpt>
<trkpt lat="37.969149" lon="-1.055892">
 <ele>116.280000</ele>
<time>2009-10-10T10:51:42Z</time>
</trkpt>
<trkpt lat="37.969153" lon="-1.055876">
 <ele>117.500000</ele>
<time>2009-10-10T10:51:45Z</time>
</trkpt>
<trkpt lat="37.969133" lon="-1.055884">
 <ele>115.360000</ele>
<time>2009-10-10T10:51:46Z</time>
</trkpt>
<trkpt lat="37.969137" lon="-1.055882">
 <ele>116.440000</ele>
<time>2009-10-10T10:51:47Z</time>
</trkpt>
<trkpt lat="37.969143" lon="-1.055877">
 <ele>116.560000</ele>
<time>2009-10-10T10:51:48Z</time>
</trkpt>
<trkpt lat="37.969143" lon="-1.055878">
 <ele>116.560000</ele>
<time>2009-10-10T10:51:49Z</time>
</trkpt>
<trkpt lat="37.969143" lon="-1.055878">
 <ele>116.400000</ele>
<time>2009-10-10T10:51:50Z</time>
</trkpt>
<trkpt lat="37.969131" lon="-1.055877">
 <ele>115.400000</ele>
<time>2009-10-10T10:51:57Z</time>
</trkpt>
<trkpt lat="37.969050" lon="-1.055876">
 <ele>111.960000</ele>
<time>2009-10-10T10:52:05Z</time>
</trkpt>
<trkpt lat="37.969054" lon="-1.055868">
 <ele>113.500000</ele>
<time>2009-10-10T10:52:06Z</time>
</trkpt>
<trkpt lat="37.969052" lon="-1.055886">
 <ele>112.440000</ele>
<time>2009-10-10T10:52:07Z</time>
</trkpt>
<trkpt lat="37.969048" lon="-1.055882">
 <ele>112.720000</ele>
<time>2009-10-10T10:52:08Z</time>
</trkpt>
<trkpt lat="37.969050" lon="-1.055880">
 <ele>113.280000</ele>
<time>2009-10-10T10:52:09Z</time>
</trkpt>
<trkpt lat="37.969050" lon="-1.055880">
 <ele>112.800000</ele>
<time>2009-10-10T10:52:10Z</time>
</trkpt>
<trkpt lat="37.969042" lon="-1.055868">
 <ele>113.120000</ele>
<time>2009-10-10T10:52:16Z</time>
</trkpt>
<trkpt lat="37.969023" lon="-1.055824">
 <ele>113.440000</ele>
<time>2009-10-10T10:52:18Z</time>
</trkpt>
<trkpt lat="37.969013" lon="-1.055804">
 <ele>113.180000</ele>
<time>2009-10-10T10:52:20Z</time>
</trkpt>
<trkpt lat="37.969013" lon="-1.055809">
 <ele>112.620000</ele>
<time>2009-10-10T10:52:21Z</time>
</trkpt>
<trkpt lat="37.969017" lon="-1.055802">
 <ele>111.660000</ele>
<time>2009-10-10T10:52:22Z</time>
</trkpt>
<trkpt lat="37.969008" lon="-1.055806">
 <ele>114.240000</ele>
<time>2009-10-10T10:52:23Z</time>
</trkpt>
<trkpt lat="37.969012" lon="-1.055790">
 <ele>115.960000</ele>
<time>2009-10-10T10:52:24Z</time>
</trkpt>
<trkpt lat="37.969012" lon="-1.055766">
 <ele>114.240000</ele>
<time>2009-10-10T10:52:26Z</time>
</trkpt>
<trkpt lat="37.969010" lon="-1.055788">
 <ele>121.400000</ele>
<time>2009-10-10T10:52:27Z</time>
</trkpt>
<trkpt lat="37.969009" lon="-1.055785">
 <ele>118.240000</ele>
<time>2009-10-10T10:52:28Z</time>
</trkpt>
<trkpt lat="37.969012" lon="-1.055787">
 <ele>117.520000</ele>
<time>2009-10-10T10:52:29Z</time>
</trkpt>
<trkpt lat="37.969010" lon="-1.055782">
 <ele>118.960000</ele>
<time>2009-10-10T10:52:30Z</time>
</trkpt>
<trkpt lat="37.969010" lon="-1.055782">
 <ele>118.000000</ele>
<time>2009-10-10T10:52:31Z</time>
</trkpt>
<trkpt lat="37.969019" lon="-1.055767">
 <ele>119.200000</ele>
<time>2009-10-10T10:52:35Z</time>
</trkpt>
<trkpt lat="37.969051" lon="-1.055720">
 <ele>122.820000</ele>
<time>2009-10-10T10:52:37Z</time>
</trkpt>
<trkpt lat="37.969067" lon="-1.055668">
 <ele>121.900000</ele>
<time>2009-10-10T10:52:39Z</time>
</trkpt>
<trkpt lat="37.969062" lon="-1.055668">
 <ele>120.480000</ele>
<time>2009-10-10T10:52:40Z</time>
</trkpt>
<trkpt lat="37.969070" lon="-1.055664">
 <ele>119.040000</ele>
<time>2009-10-10T10:52:41Z</time>
</trkpt>
<trkpt lat="37.969073" lon="-1.055673">
 <ele>120.120000</ele>
<time>2009-10-10T10:52:42Z</time>
</trkpt>
<trkpt lat="37.969073" lon="-1.055660">
 <ele>119.320000</ele>
<time>2009-10-10T10:52:43Z</time>
</trkpt>
<trkpt lat="37.969086" lon="-1.055524">
 <ele>121.860000</ele>
<time>2009-10-10T10:52:49Z</time>
</trkpt>
<trkpt lat="37.969097" lon="-1.055527">
 <ele>124.320000</ele>
<time>2009-10-10T10:52:50Z</time>
</trkpt>
<trkpt lat="37.969096" lon="-1.055526">
 <ele>124.860000</ele>
<time>2009-10-10T10:52:51Z</time>
</trkpt>
<trkpt lat="37.969104" lon="-1.055481">
 <ele>122.580000</ele>
<time>2009-10-10T10:52:54Z</time>
</trkpt>
<trkpt lat="37.969105" lon="-1.055461">
 <ele>122.600000</ele>
<time>2009-10-10T10:52:55Z</time>
</trkpt>
<trkpt lat="37.969097" lon="-1.055468">
 <ele>121.360000</ele>
<time>2009-10-10T10:52:56Z</time>
</trkpt>
<trkpt lat="37.969093" lon="-1.055465">
 <ele>122.480000</ele>
<time>2009-10-10T10:52:57Z</time>
</trkpt>
<trkpt lat="37.969091" lon="-1.055474">
 <ele>121.780000</ele>
<time>2009-10-10T10:52:58Z</time>
</trkpt>
<trkpt lat="37.969090" lon="-1.055463">
 <ele>121.860000</ele>
<time>2009-10-10T10:52:59Z</time>
</trkpt>
<trkpt lat="37.969090" lon="-1.055463">
 <ele>122.100000</ele>
<time>2009-10-10T10:53:00Z</time>
</trkpt>
<trkpt lat="37.969083" lon="-1.055454">
 <ele>121.940000</ele>
<time>2009-10-10T10:53:02Z</time>
</trkpt>
<trkpt lat="37.969048" lon="-1.055405">
 <ele>120.580000</ele>
<time>2009-10-10T10:53:05Z</time>
</trkpt>
<trkpt lat="37.969051" lon="-1.055409">
 <ele>119.840000</ele>
<time>2009-10-10T10:53:06Z</time>
</trkpt>
<trkpt lat="37.969043" lon="-1.055410">
 <ele>120.060000</ele>
<time>2009-10-10T10:53:07Z</time>
</trkpt>
<trkpt lat="37.969039" lon="-1.055412">
 <ele>120.120000</ele>
<time>2009-10-10T10:53:08Z</time>
</trkpt>
<trkpt lat="37.969037" lon="-1.055405">
 <ele>119.800000</ele>
<time>2009-10-10T10:53:09Z</time>
</trkpt>
<trkpt lat="37.969026" lon="-1.055350">
 <ele>126.120000</ele>
<time>2009-10-10T10:53:12Z</time>
</trkpt>
<trkpt lat="37.969023" lon="-1.055324">
 <ele>124.400000</ele>
<time>2009-10-10T10:53:13Z</time>
</trkpt>
<trkpt lat="37.968998" lon="-1.055345">
 <ele>129.060000</ele>
<time>2009-10-10T10:53:14Z</time>
</trkpt>
<trkpt lat="37.968996" lon="-1.055334">
 <ele>128.400000</ele>
<time>2009-10-10T10:53:15Z</time>
</trkpt>
<trkpt lat="37.968973" lon="-1.055308">
 <ele>130.900000</ele>
<time>2009-10-10T10:53:18Z</time>
</trkpt>
<trkpt lat="37.968991" lon="-1.055305">
 <ele>137.460000</ele>
<time>2009-10-10T10:53:19Z</time>
</trkpt>
<trkpt lat="37.968992" lon="-1.055291">
 <ele>136.460000</ele>
<time>2009-10-10T10:53:20Z</time>
</trkpt>
<trkpt lat="37.968997" lon="-1.055295">
 <ele>133.140000</ele>
<time>2009-10-10T10:53:21Z</time>
</trkpt>
<trkpt lat="37.968998" lon="-1.055292">
 <ele>137.620000</ele>
<time>2009-10-10T10:53:22Z</time>
</trkpt>
<trkpt lat="37.968998" lon="-1.055292">
 <ele>134.900000</ele>
<time>2009-10-10T10:53:23Z</time>
</trkpt>
<trkpt lat="37.968990" lon="-1.055289">
 <ele>140.540000</ele>
<time>2009-10-10T10:53:31Z</time>
</trkpt>
<trkpt lat="37.968928" lon="-1.055286">
 <ele>157.100000</ele>
<time>2009-10-10T10:53:35Z</time>
</trkpt>
<trkpt lat="37.968936" lon="-1.055278">
 <ele>145.400000</ele>
<time>2009-10-10T10:53:36Z</time>
</trkpt>
<trkpt lat="37.968935" lon="-1.055285">
 <ele>144.260000</ele>
<time>2009-10-10T10:53:37Z</time>
</trkpt>
<trkpt lat="37.968940" lon="-1.055287">
 <ele>145.860000</ele>
<time>2009-10-10T10:53:38Z</time>
</trkpt>
<trkpt lat="37.968935" lon="-1.055283">
 <ele>144.020000</ele>
<time>2009-10-10T10:53:39Z</time>
</trkpt>
<trkpt lat="37.968935" lon="-1.055283">
 <ele>145.300000</ele>
<time>2009-10-10T10:53:40Z</time>
</trkpt>
<trkpt lat="37.968934" lon="-1.055269">
 <ele>139.780000</ele>
<time>2009-10-10T10:53:53Z</time>
</trkpt>
<trkpt lat="37.968792" lon="-1.055136">
 <ele>115.640000</ele>
<time>2009-10-10T10:54:04Z</time>
</trkpt>
<trkpt lat="37.968788" lon="-1.055130">
 <ele>116.800000</ele>
<time>2009-10-10T10:54:05Z</time>
</trkpt>
<trkpt lat="37.968755" lon="-1.055005">
 <ele>114.600000</ele>
<time>2009-10-10T10:54:17Z</time>
</trkpt>
<trkpt lat="37.968742" lon="-1.054999">
 <ele>112.480000</ele>
<time>2009-10-10T10:54:18Z</time>
</trkpt>
<trkpt lat="37.968760" lon="-1.055003">
 <ele>113.760000</ele>
<time>2009-10-10T10:54:19Z</time>
</trkpt>
<trkpt lat="37.968762" lon="-1.054986">
 <ele>114.840000</ele>
<time>2009-10-10T10:54:21Z</time>
</trkpt>
<trkpt lat="37.968753" lon="-1.054949">
 <ele>118.320000</ele>
<time>2009-10-10T10:54:24Z</time>
</trkpt>
<trkpt lat="37.968754" lon="-1.054935">
 <ele>117.980000</ele>
<time>2009-10-10T10:54:25Z</time>
</trkpt>
<trkpt lat="37.968755" lon="-1.054938">
 <ele>116.360000</ele>
<time>2009-10-10T10:54:26Z</time>
</trkpt>
<trkpt lat="37.968754" lon="-1.054934">
 <ele>118.220000</ele>
<time>2009-10-10T10:54:27Z</time>
</trkpt>
<trkpt lat="37.968756" lon="-1.054938">
 <ele>116.960000</ele>
<time>2009-10-10T10:54:28Z</time>
</trkpt>
<trkpt lat="37.968753" lon="-1.054928">
 <ele>117.280000</ele>
<time>2009-10-10T10:54:29Z</time>
</trkpt>
<trkpt lat="37.968753" lon="-1.054928">
 <ele>117.200000</ele>
<time>2009-10-10T10:54:30Z</time>
</trkpt>
<trkpt lat="37.968754" lon="-1.054905">
 <ele>121.280000</ele>
<time>2009-10-10T10:54:48Z</time>
</trkpt>
<trkpt lat="37.968769" lon="-1.054792">
 <ele>128.700000</ele>
<time>2009-10-10T10:54:53Z</time>
</trkpt>
<trkpt lat="37.968763" lon="-1.054780">
 <ele>129.000000</ele>
<time>2009-10-10T10:54:54Z</time>
</trkpt>
<trkpt lat="37.968751" lon="-1.054781">
 <ele>129.100000</ele>
<time>2009-10-10T10:54:55Z</time>
</trkpt>
<trkpt lat="37.968761" lon="-1.054790">
 <ele>128.940000</ele>
<time>2009-10-10T10:54:56Z</time>
</trkpt>
<trkpt lat="37.968757" lon="-1.054792">
 <ele>128.900000</ele>
<time>2009-10-10T10:54:57Z</time>
</trkpt>
<trkpt lat="37.968753" lon="-1.054783">
 <ele>130.300000</ele>
<time>2009-10-10T10:54:58Z</time>
</trkpt>
<trkpt lat="37.968720" lon="-1.054768">
 <ele>128.180000</ele>
<time>2009-10-10T10:55:01Z</time>
</trkpt>
<trkpt lat="37.968736" lon="-1.054773">
 <ele>132.860000</ele>
<time>2009-10-10T10:55:02Z</time>
</trkpt>
<trkpt lat="37.968736" lon="-1.054767">
 <ele>132.800000</ele>
<time>2009-10-10T10:55:03Z</time>
</trkpt>
<trkpt lat="37.968715" lon="-1.054746">
 <ele>139.820000</ele>
<time>2009-10-10T10:55:08Z</time>
</trkpt>
<trkpt lat="37.968697" lon="-1.054735">
 <ele>137.140000</ele>
<time>2009-10-10T10:55:09Z</time>
</trkpt>
<trkpt lat="37.968692" lon="-1.054724">
 <ele>136.920000</ele>
<time>2009-10-10T10:55:10Z</time>
</trkpt>
<trkpt lat="37.968692" lon="-1.054729">
 <ele>137.620000</ele>
<time>2009-10-10T10:55:11Z</time>
</trkpt>
<trkpt lat="37.968688" lon="-1.054727">
 <ele>136.820000</ele>
<time>2009-10-10T10:55:12Z</time>
</trkpt>
<trkpt lat="37.968688" lon="-1.054727">
 <ele>136.900000</ele>
<time>2009-10-10T10:55:13Z</time>
</trkpt>
<trkpt lat="37.968688" lon="-1.054727">
 <ele>136.900000</ele>
<time>2009-10-10T10:55:14Z</time>
</trkpt>
<trkpt lat="37.968688" lon="-1.054727">
 <ele>136.900000</ele>
<time>2009-10-10T10:55:15Z</time>
</trkpt>
<trkpt lat="37.968688" lon="-1.054727">
 <ele>136.900000</ele>
<time>2009-10-10T10:55:16Z</time>
</trkpt>
<trkpt lat="37.968688" lon="-1.054727">
 <ele>136.900000</ele>
<time>2009-10-10T10:55:17Z</time>
</trkpt>
<trkpt lat="37.968688" lon="-1.054727">
 <ele>136.900000</ele>
<time>2009-10-10T10:55:18Z</time>
</trkpt>
<trkpt lat="37.968688" lon="-1.054727">
 <ele>136.900000</ele>
<time>2009-10-10T10:55:19Z</time>
</trkpt>
<trkpt lat="37.968688" lon="-1.054727">
 <ele>136.900000</ele>
<time>2009-10-10T10:55:20Z</time>
</trkpt>
<trkpt lat="37.968688" lon="-1.054727">
 <ele>136.900000</ele>
<time>2009-10-10T10:55:21Z</time>
</trkpt>
<trkpt lat="37.968688" lon="-1.054727">
 <ele>136.900000</ele>
<time>2009-10-10T10:55:22Z</time>
</trkpt>
<trkpt lat="37.968688" lon="-1.054727">
 <ele>136.900000</ele>
<time>2009-10-10T10:55:23Z</time>
</trkpt>
<trkpt lat="37.968688" lon="-1.054727">
 <ele>136.900000</ele>
<time>2009-10-10T10:55:24Z</time>
</trkpt>
<trkpt lat="37.968688" lon="-1.054727">
 <ele>136.900000</ele>
<time>2009-10-10T10:55:25Z</time>
</trkpt>
<trkpt lat="37.968688" lon="-1.054727">
 <ele>136.900000</ele>
<time>2009-10-10T10:55:26Z</time>
</trkpt>
<trkpt lat="37.968688" lon="-1.054727">
 <ele>136.900000</ele>
<time>2009-10-10T10:55:27Z</time>
</trkpt>
<trkpt lat="37.968688" lon="-1.054727">
 <ele>136.900000</ele>
<time>2009-10-10T10:55:28Z</time>
</trkpt>
<trkpt lat="37.968688" lon="-1.054727">
 <ele>136.900000</ele>
<time>2009-10-10T10:55:29Z</time>
</trkpt>
<trkpt lat="37.968688" lon="-1.054727">
 <ele>136.900000</ele>
<time>2009-10-10T10:55:30Z</time>
</trkpt>
<trkpt lat="37.968688" lon="-1.054727">
 <ele>136.900000</ele>
<time>2009-10-10T10:55:31Z</time>
</trkpt>
<trkpt lat="37.968688" lon="-1.054727">
 <ele>136.900000</ele>
<time>2009-10-10T10:55:32Z</time>
</trkpt>
<trkpt lat="37.968688" lon="-1.054727">
 <ele>136.900000</ele>
<time>2009-10-10T10:55:33Z</time>
</trkpt>
<trkpt lat="37.968575" lon="-1.054697">
 <ele>137.420000</ele>
<time>2009-10-10T10:55:41Z</time>
</trkpt>
<trkpt lat="37.968579" lon="-1.054701">
 <ele>138.400000</ele>
<time>2009-10-10T10:55:42Z</time>
</trkpt>
<trkpt lat="37.968573" lon="-1.054704">
 <ele>137.260000</ele>
<time>2009-10-10T10:55:43Z</time>
</trkpt>
<trkpt lat="37.968575" lon="-1.054708">
 <ele>138.140000</ele>
<time>2009-10-10T10:55:44Z</time>
</trkpt>
<trkpt lat="37.968567" lon="-1.054703">
 <ele>138.220000</ele>
<time>2009-10-10T10:55:45Z</time>
</trkpt>
<trkpt lat="37.968567" lon="-1.054703">
 <ele>137.900000</ele>
<time>2009-10-10T10:55:46Z</time>
</trkpt>
<trkpt lat="37.968554" lon="-1.054685">
 <ele>138.740000</ele>
<time>2009-10-10T10:55:59Z</time>
</trkpt>
<trkpt lat="37.968519" lon="-1.054634">
 <ele>143.100000</ele>
<time>2009-10-10T10:56:01Z</time>
</trkpt>
<trkpt lat="37.968498" lon="-1.054605">
 <ele>142.060000</ele>
<time>2009-10-10T10:56:02Z</time>
</trkpt>
<trkpt lat="37.968488" lon="-1.054603">
 <ele>144.720000</ele>
<time>2009-10-10T10:56:03Z</time>
</trkpt>
<trkpt lat="37.968487" lon="-1.054602">
 <ele>144.340000</ele>
<time>2009-10-10T10:56:04Z</time>
</trkpt>
<trkpt lat="37.968490" lon="-1.054609">
 <ele>143.580000</ele>
<time>2009-10-10T10:56:05Z</time>
</trkpt>
<trkpt lat="37.968485" lon="-1.054600">
 <ele>144.300000</ele>
<time>2009-10-10T10:56:06Z</time>
</trkpt>
<trkpt lat="37.968485" lon="-1.054600">
 <ele>143.500000</ele>
<time>2009-10-10T10:56:07Z</time>
</trkpt>
<trkpt lat="37.968482" lon="-1.054585">
 <ele>144.300000</ele>
<time>2009-10-10T10:56:09Z</time>
</trkpt>
<trkpt lat="37.968462" lon="-1.054518">
 <ele>148.200000</ele>
<time>2009-10-10T10:56:13Z</time>
</trkpt>
<trkpt lat="37.968464" lon="-1.054525">
 <ele>147.480000</ele>
<time>2009-10-10T10:56:14Z</time>
</trkpt>
<trkpt lat="37.968458" lon="-1.054509">
 <ele>148.140000</ele>
<time>2009-10-10T10:56:15Z</time>
</trkpt>
<trkpt lat="37.968470" lon="-1.054514">
 <ele>146.740000</ele>
<time>2009-10-10T10:56:16Z</time>
</trkpt>
<trkpt lat="37.968462" lon="-1.054508">
 <ele>147.780000</ele>
<time>2009-10-10T10:56:17Z</time>
</trkpt>
<trkpt lat="37.968450" lon="-1.054443">
 <ele>143.220000</ele>
<time>2009-10-10T10:56:20Z</time>
</trkpt>
<trkpt lat="37.968451" lon="-1.054407">
 <ele>143.520000</ele>
<time>2009-10-10T10:56:22Z</time>
</trkpt>
<trkpt lat="37.968448" lon="-1.054404">
 <ele>142.860000</ele>
<time>2009-10-10T10:56:23Z</time>
</trkpt>
<trkpt lat="37.968445" lon="-1.054398">
 <ele>144.900000</ele>
<time>2009-10-10T10:56:24Z</time>
</trkpt>
<trkpt lat="37.968450" lon="-1.054404">
 <ele>143.720000</ele>
<time>2009-10-10T10:56:25Z</time>
</trkpt>
<trkpt lat="37.968448" lon="-1.054393">
 <ele>144.280000</ele>
<time>2009-10-10T10:56:26Z</time>
</trkpt>
<trkpt lat="37.968448" lon="-1.054393">
 <ele>144.200000</ele>
<time>2009-10-10T10:56:27Z</time>
</trkpt>
<trkpt lat="37.968448" lon="-1.054365">
 <ele>145.000000</ele>
<time>2009-10-10T10:56:35Z</time>
</trkpt>
<trkpt lat="37.968454" lon="-1.054229">
 <ele>145.960000</ele>
<time>2009-10-10T10:56:41Z</time>
</trkpt>
<trkpt lat="37.968440" lon="-1.054238">
 <ele>146.560000</ele>
<time>2009-10-10T10:56:42Z</time>
</trkpt>
<trkpt lat="37.968444" lon="-1.054226">
 <ele>146.160000</ele>
<time>2009-10-10T10:56:43Z</time>
</trkpt>
<trkpt lat="37.968450" lon="-1.054207">
 <ele>146.860000</ele>
<time>2009-10-10T10:56:46Z</time>
</trkpt>
<trkpt lat="37.968460" lon="-1.054200">
 <ele>145.380000</ele>
<time>2009-10-10T10:56:47Z</time>
</trkpt>
<trkpt lat="37.968456" lon="-1.054182">
 <ele>144.460000</ele>
<time>2009-10-10T10:56:49Z</time>
</trkpt>
<trkpt lat="37.968444" lon="-1.054165">
 <ele>142.940000</ele>
<time>2009-10-10T10:56:51Z</time>
</trkpt>
<trkpt lat="37.968445" lon="-1.054161">
 <ele>143.820000</ele>
<time>2009-10-10T10:56:52Z</time>
</trkpt>
<trkpt lat="37.968440" lon="-1.054173">
 <ele>143.200000</ele>
<time>2009-10-10T10:56:53Z</time>
</trkpt>
<trkpt lat="37.968439" lon="-1.054160">
 <ele>140.860000</ele>
<time>2009-10-10T10:56:54Z</time>
</trkpt>
<trkpt lat="37.968398" lon="-1.054117">
 <ele>135.500000</ele>
<time>2009-10-10T10:56:59Z</time>
</trkpt>
<trkpt lat="37.968355" lon="-1.054086">
 <ele>127.700000</ele>
<time>2009-10-10T10:57:02Z</time>
</trkpt>
<trkpt lat="37.968289" lon="-1.054057">
 <ele>126.740000</ele>
<time>2009-10-10T10:57:06Z</time>
</trkpt>
<trkpt lat="37.968298" lon="-1.054068">
 <ele>127.680000</ele>
<time>2009-10-10T10:57:07Z</time>
</trkpt>
<trkpt lat="37.968292" lon="-1.054062">
 <ele>126.820000</ele>
<time>2009-10-10T10:57:08Z</time>
</trkpt>
<trkpt lat="37.968213" lon="-1.054058">
 <ele>125.740000</ele>
<time>2009-10-10T10:57:12Z</time>
</trkpt>
<trkpt lat="37.968211" lon="-1.054044">
 <ele>123.440000</ele>
<time>2009-10-10T10:57:14Z</time>
</trkpt>
<trkpt lat="37.968208" lon="-1.054030">
 <ele>124.940000</ele>
<time>2009-10-10T10:57:15Z</time>
</trkpt>
<trkpt lat="37.968202" lon="-1.054044">
 <ele>126.260000</ele>
<time>2009-10-10T10:57:16Z</time>
</trkpt>
<trkpt lat="37.968199" lon="-1.054044">
 <ele>123.020000</ele>
<time>2009-10-10T10:57:17Z</time>
</trkpt>
<trkpt lat="37.968193" lon="-1.054038">
 <ele>126.540000</ele>
<time>2009-10-10T10:57:18Z</time>
</trkpt>
<trkpt lat="37.968145" lon="-1.053965">
 <ele>125.640000</ele>
<time>2009-10-10T10:57:23Z</time>
</trkpt>
<trkpt lat="37.968145" lon="-1.053965">
 <ele>125.580000</ele>
<time>2009-10-10T10:57:24Z</time>
</trkpt>
<trkpt lat="37.968135" lon="-1.053967">
 <ele>126.600000</ele>
<time>2009-10-10T10:57:25Z</time>
</trkpt>
<trkpt lat="37.968085" lon="-1.053971">
 <ele>132.140000</ele>
<time>2009-10-10T10:57:29Z</time>
</trkpt>
<trkpt lat="37.968078" lon="-1.053969">
 <ele>134.560000</ele>
<time>2009-10-10T10:57:30Z</time>
</trkpt>
<trkpt lat="37.968077" lon="-1.053974">
 <ele>136.760000</ele>
<time>2009-10-10T10:57:31Z</time>
</trkpt>
<trkpt lat="37.968066" lon="-1.053966">
 <ele>140.980000</ele>
<time>2009-10-10T10:57:34Z</time>
</trkpt>
<trkpt lat="37.968058" lon="-1.053964">
 <ele>140.300000</ele>
<time>2009-10-10T10:57:35Z</time>
</trkpt>
<trkpt lat="37.968023" lon="-1.053923">
 <ele>139.660000</ele>
<time>2009-10-10T10:57:41Z</time>
</trkpt>
<trkpt lat="37.968022" lon="-1.053929">
 <ele>138.260000</ele>
<time>2009-10-10T10:57:42Z</time>
</trkpt>
<trkpt lat="37.968025" lon="-1.053928">
 <ele>139.760000</ele>
<time>2009-10-10T10:57:43Z</time>
</trkpt>
<trkpt lat="37.968021" lon="-1.053924">
 <ele>139.020000</ele>
<time>2009-10-10T10:57:44Z</time>
</trkpt>
<trkpt lat="37.968020" lon="-1.053920">
 <ele>139.020000</ele>
<time>2009-10-10T10:57:45Z</time>
</trkpt>
<trkpt lat="37.968020" lon="-1.053920">
 <ele>139.100000</ele>
<time>2009-10-10T10:57:46Z</time>
</trkpt>
<trkpt lat="37.968027" lon="-1.053901">
 <ele>138.260000</ele>
<time>2009-10-10T10:57:52Z</time>
</trkpt>
<trkpt lat="37.968050" lon="-1.053842">
 <ele>135.700000</ele>
<time>2009-10-10T10:57:54Z</time>
</trkpt>
<trkpt lat="37.968053" lon="-1.053819">
 <ele>134.280000</ele>
<time>2009-10-10T10:57:56Z</time>
</trkpt>
<trkpt lat="37.968065" lon="-1.053823">
 <ele>135.500000</ele>
<time>2009-10-10T10:57:57Z</time>
</trkpt>
<trkpt lat="37.968065" lon="-1.053816">
 <ele>136.340000</ele>
<time>2009-10-10T10:57:58Z</time>
</trkpt>
<trkpt lat="37.968063" lon="-1.053814">
 <ele>135.420000</ele>
<time>2009-10-10T10:57:59Z</time>
</trkpt>
<trkpt lat="37.968067" lon="-1.053812">
 <ele>135.740000</ele>
<time>2009-10-10T10:58:00Z</time>
</trkpt>
<trkpt lat="37.968067" lon="-1.053812">
 <ele>135.900000</ele>
<time>2009-10-10T10:58:01Z</time>
</trkpt>
<trkpt lat="37.968073" lon="-1.053815">
 <ele>134.900000</ele>
<time>2009-10-10T10:58:05Z</time>
</trkpt>
<trkpt lat="37.968103" lon="-1.053829">
 <ele>136.780000</ele>
<time>2009-10-10T10:58:08Z</time>
</trkpt>
<trkpt lat="37.968091" lon="-1.053844">
 <ele>135.200000</ele>
<time>2009-10-10T10:58:09Z</time>
</trkpt>
<trkpt lat="37.968086" lon="-1.053848">
 <ele>135.820000</ele>
<time>2009-10-10T10:58:10Z</time>
</trkpt>
<trkpt lat="37.968082" lon="-1.053838">
 <ele>135.700000</ele>
<time>2009-10-10T10:58:11Z</time>
</trkpt>
<trkpt lat="37.968085" lon="-1.053843">
 <ele>137.540000</ele>
<time>2009-10-10T10:58:12Z</time>
</trkpt>
<trkpt lat="37.968085" lon="-1.053843">
 <ele>136.100000</ele>
<time>2009-10-10T10:58:13Z</time>
</trkpt>
<trkpt lat="37.968091" lon="-1.053837">
 <ele>137.780000</ele>
<time>2009-10-10T10:58:14Z</time>
</trkpt>
<trkpt lat="37.968141" lon="-1.053806">
 <ele>143.400000</ele>
<time>2009-10-10T10:58:18Z</time>
</trkpt>
<trkpt lat="37.968138" lon="-1.053810">
 <ele>141.300000</ele>
<time>2009-10-10T10:58:20Z</time>
</trkpt>
<trkpt lat="37.968139" lon="-1.053804">
 <ele>139.360000</ele>
<time>2009-10-10T10:58:21Z</time>
</trkpt>
<trkpt lat="37.968144" lon="-1.053799">
 <ele>140.960000</ele>
<time>2009-10-10T10:58:22Z</time>
</trkpt>
<trkpt lat="37.968145" lon="-1.053802">
 <ele>140.400000</ele>
<time>2009-10-10T10:58:23Z</time>
</trkpt>
<trkpt lat="37.968153" lon="-1.053800">
 <ele>138.800000</ele>
<time>2009-10-10T10:58:24Z</time>
</trkpt>
<trkpt lat="37.968175" lon="-1.053793">
 <ele>138.820000</ele>
<time>2009-10-10T10:58:27Z</time>
</trkpt>
<trkpt lat="37.968159" lon="-1.053808">
 <ele>133.060000</ele>
<time>2009-10-10T10:58:28Z</time>
</trkpt>
<trkpt lat="37.968170" lon="-1.053797">
 <ele>135.200000</ele>
<time>2009-10-10T10:58:29Z</time>
</trkpt>
<trkpt lat="37.968162" lon="-1.053805">
 <ele>136.040000</ele>
<time>2009-10-10T10:58:30Z</time>
</trkpt>
<trkpt lat="37.968162" lon="-1.053803">
 <ele>135.640000</ele>
<time>2009-10-10T10:58:31Z</time>
</trkpt>
<trkpt lat="37.968162" lon="-1.053803">
 <ele>135.800000</ele>
<time>2009-10-10T10:58:32Z</time>
</trkpt>
<trkpt lat="37.968174" lon="-1.053776">
 <ele>139.200000</ele>
<time>2009-10-10T10:58:54Z</time>
</trkpt>
<trkpt lat="37.968207" lon="-1.053669">
 <ele>139.880000</ele>
<time>2009-10-10T10:58:57Z</time>
</trkpt>
<trkpt lat="37.968209" lon="-1.053672">
 <ele>152.500000</ele>
<time>2009-10-10T10:58:58Z</time>
</trkpt>
<trkpt lat="37.968198" lon="-1.053669">
 <ele>145.300000</ele>
<time>2009-10-10T10:58:59Z</time>
</trkpt>
<trkpt lat="37.968165" lon="-1.053643">
 <ele>141.100000</ele>
<time>2009-10-10T10:59:01Z</time>
</trkpt>
<trkpt lat="37.968175" lon="-1.053641">
 <ele>135.800000</ele>
<time>2009-10-10T10:59:02Z</time>
</trkpt>
<trkpt lat="37.968156" lon="-1.053642">
 <ele>135.340000</ele>
<time>2009-10-10T10:59:03Z</time>
</trkpt>
<trkpt lat="37.968108" lon="-1.053608">
 <ele>134.800000</ele>
<time>2009-10-10T10:59:07Z</time>
</trkpt>
<trkpt lat="37.968100" lon="-1.053581">
 <ele>135.620000</ele>
<time>2009-10-10T10:59:10Z</time>
</trkpt>
<trkpt lat="37.968060" lon="-1.053559">
 <ele>134.580000</ele>
<time>2009-10-10T10:59:15Z</time>
</trkpt>
<trkpt lat="37.968053" lon="-1.053562">
 <ele>134.360000</ele>
<time>2009-10-10T10:59:16Z</time>
</trkpt>
<trkpt lat="37.968040" lon="-1.053571">
 <ele>132.980000</ele>
<time>2009-10-10T10:59:17Z</time>
</trkpt>
<trkpt lat="37.968035" lon="-1.053564">
 <ele>133.940000</ele>
<time>2009-10-10T10:59:18Z</time>
</trkpt>
<trkpt lat="37.968031" lon="-1.053571">
 <ele>134.320000</ele>
<time>2009-10-10T10:59:19Z</time>
</trkpt>
<trkpt lat="37.967971" lon="-1.053578">
 <ele>136.860000</ele>
<time>2009-10-10T10:59:22Z</time>
</trkpt>
<trkpt lat="37.967977" lon="-1.053585">
 <ele>139.220000</ele>
<time>2009-10-10T10:59:23Z</time>
</trkpt>
<trkpt lat="37.967985" lon="-1.053576">
 <ele>138.520000</ele>
<time>2009-10-10T10:59:24Z</time>
</trkpt>
<trkpt lat="37.967957" lon="-1.053550">
 <ele>138.360000</ele>
<time>2009-10-10T10:59:27Z</time>
</trkpt>
<trkpt lat="37.967933" lon="-1.053548">
 <ele>136.900000</ele>
<time>2009-10-10T10:59:29Z</time>
</trkpt>
<trkpt lat="37.967929" lon="-1.053535">
 <ele>135.760000</ele>
<time>2009-10-10T10:59:30Z</time>
</trkpt>
<trkpt lat="37.967928" lon="-1.053528">
 <ele>137.100000</ele>
<time>2009-10-10T10:59:31Z</time>
</trkpt>
<trkpt lat="37.967916" lon="-1.053529">
 <ele>136.080000</ele>
<time>2009-10-10T10:59:32Z</time>
</trkpt>
<trkpt lat="37.967920" lon="-1.053536">
 <ele>136.460000</ele>
<time>2009-10-10T10:59:33Z</time>
</trkpt>
<trkpt lat="37.967912" lon="-1.053532">
 <ele>136.940000</ele>
<time>2009-10-10T10:59:34Z</time>
</trkpt>
<trkpt lat="37.967912" lon="-1.053532">
 <ele>136.700000</ele>
<time>2009-10-10T10:59:35Z</time>
</trkpt>
<trkpt lat="37.967905" lon="-1.053528">
 <ele>137.740000</ele>
<time>2009-10-10T10:59:37Z</time>
</trkpt>
<trkpt lat="37.967896" lon="-1.053504">
 <ele>135.780000</ele>
<time>2009-10-10T10:59:40Z</time>
</trkpt>
<trkpt lat="37.967879" lon="-1.053519">
 <ele>138.860000</ele>
<time>2009-10-10T10:59:41Z</time>
</trkpt>
<trkpt lat="37.967886" lon="-1.053516">
 <ele>138.100000</ele>
<time>2009-10-10T10:59:42Z</time>
</trkpt>
<trkpt lat="37.967876" lon="-1.053509">
 <ele>137.020000</ele>
<time>2009-10-10T10:59:43Z</time>
</trkpt>
<trkpt lat="37.967882" lon="-1.053510">
 <ele>137.020000</ele>
<time>2009-10-10T10:59:44Z</time>
</trkpt>
<trkpt lat="37.967882" lon="-1.053510">
 <ele>137.500000</ele>
<time>2009-10-10T10:59:45Z</time>
</trkpt>
<trkpt lat="37.967879" lon="-1.053504">
 <ele>136.900000</ele>
<time>2009-10-10T10:59:56Z</time>
</trkpt>
<trkpt lat="37.967851" lon="-1.053468">
 <ele>136.180000</ele>
<time>2009-10-10T11:00:00Z</time>
</trkpt>
<trkpt lat="37.967868" lon="-1.053478">
 <ele>137.360000</ele>
<time>2009-10-10T11:00:01Z</time>
</trkpt>
<trkpt lat="37.967860" lon="-1.053466">
 <ele>136.840000</ele>
<time>2009-10-10T11:00:02Z</time>
</trkpt>
<trkpt lat="37.967868" lon="-1.053467">
 <ele>137.460000</ele>
<time>2009-10-10T11:00:03Z</time>
</trkpt>
<trkpt lat="37.967869" lon="-1.053457">
 <ele>138.820000</ele>
<time>2009-10-10T11:00:04Z</time>
</trkpt>
<trkpt lat="37.967897" lon="-1.053428">
 <ele>142.460000</ele>
<time>2009-10-10T11:00:08Z</time>
</trkpt>
<trkpt lat="37.967891" lon="-1.053417">
 <ele>142.500000</ele>
<time>2009-10-10T11:00:09Z</time>
</trkpt>
<trkpt lat="37.967885" lon="-1.053411">
 <ele>142.800000</ele>
<time>2009-10-10T11:00:10Z</time>
</trkpt>
<trkpt lat="37.967902" lon="-1.053413">
 <ele>143.940000</ele>
<time>2009-10-10T11:00:11Z</time>
</trkpt>
<trkpt lat="37.967897" lon="-1.053397">
 <ele>143.440000</ele>
<time>2009-10-10T11:00:12Z</time>
</trkpt>
<trkpt lat="37.967886" lon="-1.053412">
 <ele>143.960000</ele>
<time>2009-10-10T11:00:13Z</time>
</trkpt>
<trkpt lat="37.967878" lon="-1.053394">
 <ele>144.120000</ele>
<time>2009-10-10T11:00:14Z</time>
</trkpt>
<trkpt lat="37.967873" lon="-1.053387">
 <ele>143.280000</ele>
<time>2009-10-10T11:00:15Z</time>
</trkpt>
<trkpt lat="37.967888" lon="-1.053405">
 <ele>144.760000</ele>
<time>2009-10-10T11:00:16Z</time>
</trkpt>
<trkpt lat="37.967896" lon="-1.053388">
 <ele>145.140000</ele>
<time>2009-10-10T11:00:17Z</time>
</trkpt>
<trkpt lat="37.967891" lon="-1.053403">
 <ele>143.360000</ele>
<time>2009-10-10T11:00:18Z</time>
</trkpt>
<trkpt lat="37.967893" lon="-1.053398">
 <ele>145.280000</ele>
<time>2009-10-10T11:00:19Z</time>
</trkpt>
<trkpt lat="37.967893" lon="-1.053398">
 <ele>144.400000</ele>
<time>2009-10-10T11:00:20Z</time>
</trkpt>
<trkpt lat="37.967885" lon="-1.053388">
 <ele>147.320000</ele>
<time>2009-10-10T11:00:29Z</time>
</trkpt>
<trkpt lat="37.967849" lon="-1.053354">
 <ele>156.440000</ele>
<time>2009-10-10T11:00:31Z</time>
</trkpt>
<trkpt lat="37.967822" lon="-1.053347">
 <ele>159.360000</ele>
<time>2009-10-10T11:00:33Z</time>
</trkpt>
<trkpt lat="37.967831" lon="-1.053354">
 <ele>154.180000</ele>
<time>2009-10-10T11:00:34Z</time>
</trkpt>
<trkpt lat="37.967829" lon="-1.053341">
 <ele>153.760000</ele>
<time>2009-10-10T11:00:35Z</time>
</trkpt>
<trkpt lat="37.967827" lon="-1.053334">
 <ele>154.040000</ele>
<time>2009-10-10T11:00:36Z</time>
</trkpt>
<trkpt lat="37.967823" lon="-1.053338">
 <ele>154.280000</ele>
<time>2009-10-10T11:00:37Z</time>
</trkpt>
<trkpt lat="37.967823" lon="-1.053338">
 <ele>153.800000</ele>
<time>2009-10-10T11:00:38Z</time>
</trkpt>
<trkpt lat="37.967812" lon="-1.053316">
 <ele>148.960000</ele>
<time>2009-10-10T11:00:59Z</time>
</trkpt>
<trkpt lat="37.967773" lon="-1.053223">
 <ele>132.480000</ele>
<time>2009-10-10T11:01:03Z</time>
</trkpt>
<trkpt lat="37.967762" lon="-1.053212">
 <ele>141.280000</ele>
<time>2009-10-10T11:01:04Z</time>
</trkpt>
<trkpt lat="37.967766" lon="-1.053216">
 <ele>142.460000</ele>
<time>2009-10-10T11:01:05Z</time>
</trkpt>
<trkpt lat="37.967779" lon="-1.053215">
 <ele>141.500000</ele>
<time>2009-10-10T11:01:06Z</time>
</trkpt>
<trkpt lat="37.967773" lon="-1.053212">
 <ele>142.220000</ele>
<time>2009-10-10T11:01:07Z</time>
</trkpt>
<trkpt lat="37.967773" lon="-1.053212">
 <ele>141.900000</ele>
<time>2009-10-10T11:01:08Z</time>
</trkpt>
<trkpt lat="37.967771" lon="-1.053195">
 <ele>142.660000</ele>
<time>2009-10-10T11:01:19Z</time>
</trkpt>
<trkpt lat="37.967776" lon="-1.053142">
 <ele>144.420000</ele>
<time>2009-10-10T11:01:21Z</time>
</trkpt>
<trkpt lat="37.967799" lon="-1.053119">
 <ele>147.380000</ele>
<time>2009-10-10T11:01:23Z</time>
</trkpt>
<trkpt lat="37.967813" lon="-1.053099">
 <ele>146.300000</ele>
<time>2009-10-10T11:01:24Z</time>
</trkpt>
<trkpt lat="37.967837" lon="-1.053108">
 <ele>149.980000</ele>
<time>2009-10-10T11:01:27Z</time>
</trkpt>
<trkpt lat="37.967843" lon="-1.053109">
 <ele>150.240000</ele>
<time>2009-10-10T11:01:28Z</time>
</trkpt>
<trkpt lat="37.967857" lon="-1.053098">
 <ele>151.280000</ele>
<time>2009-10-10T11:01:29Z</time>
</trkpt>
<trkpt lat="37.967849" lon="-1.053100">
 <ele>149.460000</ele>
<time>2009-10-10T11:01:30Z</time>
</trkpt>
<trkpt lat="37.967858" lon="-1.053100">
 <ele>151.460000</ele>
<time>2009-10-10T11:01:31Z</time>
</trkpt>
<trkpt lat="37.967858" lon="-1.053100">
 <ele>150.100000</ele>
<time>2009-10-10T11:01:32Z</time>
</trkpt>
<trkpt lat="37.967850" lon="-1.053092">
 <ele>150.180000</ele>
<time>2009-10-10T11:01:33Z</time>
</trkpt>
<trkpt lat="37.967799" lon="-1.053056">
 <ele>149.400000</ele>
<time>2009-10-10T11:01:37Z</time>
</trkpt>
<trkpt lat="37.967791" lon="-1.053029">
 <ele>146.640000</ele>
<time>2009-10-10T11:01:38Z</time>
</trkpt>
<trkpt lat="37.967793" lon="-1.052982">
 <ele>149.320000</ele>
<time>2009-10-10T11:01:42Z</time>
</trkpt>
<trkpt lat="37.967800" lon="-1.053002">
 <ele>150.860000</ele>
<time>2009-10-10T11:01:43Z</time>
</trkpt>
<trkpt lat="37.967800" lon="-1.052994">
 <ele>150.580000</ele>
<time>2009-10-10T11:01:44Z</time>
</trkpt>
<trkpt lat="37.967751" lon="-1.052974">
 <ele>154.500000</ele>
<time>2009-10-10T11:01:48Z</time>
</trkpt>
<trkpt lat="37.967785" lon="-1.052987">
 <ele>157.480000</ele>
<time>2009-10-10T11:01:49Z</time>
</trkpt>
<trkpt lat="37.967771" lon="-1.052977">
 <ele>158.280000</ele>
<time>2009-10-10T11:01:50Z</time>
</trkpt>
<trkpt lat="37.967773" lon="-1.052981">
 <ele>155.540000</ele>
<time>2009-10-10T11:01:51Z</time>
</trkpt>
<trkpt lat="37.967765" lon="-1.052976">
 <ele>159.580000</ele>
<time>2009-10-10T11:01:52Z</time>
</trkpt>
<trkpt lat="37.967753" lon="-1.052943">
 <ele>163.720000</ele>
<time>2009-10-10T11:01:56Z</time>
</trkpt>
<trkpt lat="37.967752" lon="-1.052928">
 <ele>164.160000</ele>
<time>2009-10-10T11:01:57Z</time>
</trkpt>
<trkpt lat="37.967743" lon="-1.052929">
 <ele>163.600000</ele>
<time>2009-10-10T11:01:58Z</time>
</trkpt>
<trkpt lat="37.967747" lon="-1.052921">
 <ele>164.620000</ele>
<time>2009-10-10T11:01:59Z</time>
</trkpt>
<trkpt lat="37.967748" lon="-1.052917">
 <ele>166.820000</ele>
<time>2009-10-10T11:02:02Z</time>
</trkpt>
<trkpt lat="37.967749" lon="-1.052903">
 <ele>169.220000</ele>
<time>2009-10-10T11:02:03Z</time>
</trkpt>
<trkpt lat="37.967760" lon="-1.052899">
 <ele>170.720000</ele>
<time>2009-10-10T11:02:05Z</time>
</trkpt>
<trkpt lat="37.967748" lon="-1.052898">
 <ele>170.920000</ele>
<time>2009-10-10T11:02:08Z</time>
</trkpt>
<trkpt lat="37.967741" lon="-1.052896">
 <ele>172.120000</ele>
<time>2009-10-10T11:02:09Z</time>
</trkpt>
<trkpt lat="37.967770" lon="-1.052917">
 <ele>171.720000</ele>
<time>2009-10-10T11:02:10Z</time>
</trkpt>
<trkpt lat="37.967764" lon="-1.052908">
 <ele>171.200000</ele>
<time>2009-10-10T11:02:11Z</time>
</trkpt>
<trkpt lat="37.967763" lon="-1.052905">
 <ele>170.740000</ele>
<time>2009-10-10T11:02:12Z</time>
</trkpt>
<trkpt lat="37.967765" lon="-1.052908">
 <ele>170.340000</ele>
<time>2009-10-10T11:02:13Z</time>
</trkpt>
<trkpt lat="37.967765" lon="-1.052908">
 <ele>170.900000</ele>
<time>2009-10-10T11:02:14Z</time>
</trkpt>
<trkpt lat="37.967764" lon="-1.052896">
 <ele>168.060000</ele>
<time>2009-10-10T11:02:20Z</time>
</trkpt>
<trkpt lat="37.967745" lon="-1.052850">
 <ele>169.580000</ele>
<time>2009-10-10T11:02:23Z</time>
</trkpt>
<trkpt lat="37.967765" lon="-1.052838">
 <ele>157.280000</ele>
<time>2009-10-10T11:02:24Z</time>
</trkpt>
<trkpt lat="37.967758" lon="-1.052807">
 <ele>162.680000</ele>
<time>2009-10-10T11:02:28Z</time>
</trkpt>
<trkpt lat="37.967784" lon="-1.052811">
 <ele>161.640000</ele>
<time>2009-10-10T11:02:29Z</time>
</trkpt>
<trkpt lat="37.967790" lon="-1.052812">
 <ele>161.480000</ele>
<time>2009-10-10T11:02:30Z</time>
</trkpt>
<trkpt lat="37.967782" lon="-1.052815">
 <ele>162.320000</ele>
<time>2009-10-10T11:02:31Z</time>
</trkpt>
<trkpt lat="37.967783" lon="-1.052807">
 <ele>161.080000</ele>
<time>2009-10-10T11:02:32Z</time>
</trkpt>
<trkpt lat="37.967732" lon="-1.052773">
 <ele>161.520000</ele>
<time>2009-10-10T11:02:35Z</time>
</trkpt>
<trkpt lat="37.967765" lon="-1.052767">
 <ele>160.020000</ele>
<time>2009-10-10T11:02:37Z</time>
</trkpt>
<trkpt lat="37.967757" lon="-1.052769">
 <ele>160.180000</ele>
<time>2009-10-10T11:02:38Z</time>
</trkpt>
<trkpt lat="37.967763" lon="-1.052771">
 <ele>159.580000</ele>
<time>2009-10-10T11:02:39Z</time>
</trkpt>
<trkpt lat="37.967767" lon="-1.052764">
 <ele>160.160000</ele>
<time>2009-10-10T11:02:40Z</time>
</trkpt>
<trkpt lat="37.967765" lon="-1.052763">
 <ele>159.760000</ele>
<time>2009-10-10T11:02:41Z</time>
</trkpt>
<trkpt lat="37.967765" lon="-1.052763">
 <ele>160.000000</ele>
<time>2009-10-10T11:02:42Z</time>
</trkpt>
<trkpt lat="37.967776" lon="-1.052744">
 <ele>165.480000</ele>
<time>2009-10-10T11:02:59Z</time>
</trkpt>
<trkpt lat="37.967792" lon="-1.052643">
 <ele>170.700000</ele>
<time>2009-10-10T11:03:05Z</time>
</trkpt>
<trkpt lat="37.967760" lon="-1.052642">
 <ele>172.500000</ele>
<time>2009-10-10T11:03:09Z</time>
</trkpt>
<trkpt lat="37.967737" lon="-1.052627">
 <ele>172.340000</ele>
<time>2009-10-10T11:03:10Z</time>
</trkpt>
<trkpt lat="37.967735" lon="-1.052632">
 <ele>171.340000</ele>
<time>2009-10-10T11:03:11Z</time>
</trkpt>
<trkpt lat="37.967727" lon="-1.052621">
 <ele>175.480000</ele>
<time>2009-10-10T11:03:13Z</time>
</trkpt>
<trkpt lat="37.967738" lon="-1.052619">
 <ele>176.080000</ele>
<time>2009-10-10T11:03:14Z</time>
</trkpt>
<trkpt lat="37.967735" lon="-1.052616">
 <ele>176.900000</ele>
<time>2009-10-10T11:03:15Z</time>
</trkpt>
<trkpt lat="37.967740" lon="-1.052609">
 <ele>177.500000</ele>
<time>2009-10-10T11:03:16Z</time>
</trkpt>
<trkpt lat="37.967740" lon="-1.052610">
 <ele>176.900000</ele>
<time>2009-10-10T11:03:17Z</time>
</trkpt>
<trkpt lat="37.967725" lon="-1.052611">
 <ele>177.760000</ele>
<time>2009-10-10T11:03:18Z</time>
</trkpt>
<trkpt lat="37.967713" lon="-1.052603">
 <ele>177.040000</ele>
<time>2009-10-10T11:03:21Z</time>
</trkpt>
<trkpt lat="37.967716" lon="-1.052597">
 <ele>175.660000</ele>
<time>2009-10-10T11:03:22Z</time>
</trkpt>
<trkpt lat="37.967713" lon="-1.052609">
 <ele>176.660000</ele>
<time>2009-10-10T11:03:23Z</time>
</trkpt>
<trkpt lat="37.967724" lon="-1.052606">
 <ele>176.460000</ele>
<time>2009-10-10T11:03:24Z</time>
</trkpt>
<trkpt lat="37.967718" lon="-1.052603">
 <ele>175.820000</ele>
<time>2009-10-10T11:03:25Z</time>
</trkpt>
<trkpt lat="37.967718" lon="-1.052603">
 <ele>176.300000</ele>
<time>2009-10-10T11:03:26Z</time>
</trkpt>
<trkpt lat="37.967718" lon="-1.052612">
 <ele>177.580000</ele>
<time>2009-10-10T11:03:30Z</time>
</trkpt>
<trkpt lat="37.967697" lon="-1.052631">
 <ele>185.920000</ele>
<time>2009-10-10T11:03:34Z</time>
</trkpt>
<trkpt lat="37.967700" lon="-1.052640">
 <ele>183.660000</ele>
<time>2009-10-10T11:03:35Z</time>
</trkpt>
<trkpt lat="37.967710" lon="-1.052639">
 <ele>183.620000</ele>
<time>2009-10-10T11:03:36Z</time>
</trkpt>
<trkpt lat="37.967698" lon="-1.052645">
 <ele>182.960000</ele>
<time>2009-10-10T11:03:38Z</time>
</trkpt>
<trkpt lat="37.967673" lon="-1.052632">
 <ele>181.680000</ele>
<time>2009-10-10T11:03:41Z</time>
</trkpt>
<trkpt lat="37.967667" lon="-1.052624">
 <ele>183.160000</ele>
<time>2009-10-10T11:03:43Z</time>
</trkpt>
<trkpt lat="37.967659" lon="-1.052615">
 <ele>183.280000</ele>
<time>2009-10-10T11:03:45Z</time>
</trkpt>
<trkpt lat="37.967661" lon="-1.052627">
 <ele>182.000000</ele>
<time>2009-10-10T11:03:46Z</time>
</trkpt>
<trkpt lat="37.967656" lon="-1.052607">
 <ele>183.180000</ele>
<time>2009-10-10T11:03:47Z</time>
</trkpt>
<trkpt lat="37.967667" lon="-1.052614">
 <ele>182.320000</ele>
<time>2009-10-10T11:03:48Z</time>
</trkpt>
<trkpt lat="37.967621" lon="-1.052633">
 <ele>181.620000</ele>
<time>2009-10-10T11:03:50Z</time>
</trkpt>
<trkpt lat="37.967544" lon="-1.052620">
 <ele>181.580000</ele>
<time>2009-10-10T11:03:55Z</time>
</trkpt>
<trkpt lat="37.967524" lon="-1.052615">
 <ele>179.720000</ele>
<time>2009-10-10T11:03:58Z</time>
</trkpt>
<trkpt lat="37.967538" lon="-1.052583">
 <ele>181.000000</ele>
<time>2009-10-10T11:03:59Z</time>
</trkpt>
<trkpt lat="37.967520" lon="-1.052575">
 <ele>178.360000</ele>
<time>2009-10-10T11:04:00Z</time>
</trkpt>
<trkpt lat="37.967512" lon="-1.052566">
 <ele>177.460000</ele>
<time>2009-10-10T11:04:03Z</time>
</trkpt>
<trkpt lat="37.967536" lon="-1.052555">
 <ele>177.620000</ele>
<time>2009-10-10T11:04:04Z</time>
</trkpt>
<trkpt lat="37.967551" lon="-1.052552">
 <ele>177.180000</ele>
<time>2009-10-10T11:04:05Z</time>
</trkpt>
<trkpt lat="37.967550" lon="-1.052541">
 <ele>179.140000</ele>
<time>2009-10-10T11:04:06Z</time>
</trkpt>
<trkpt lat="37.967530" lon="-1.052546">
 <ele>177.800000</ele>
<time>2009-10-10T11:04:07Z</time>
</trkpt>
<trkpt lat="37.967506" lon="-1.052517">
 <ele>179.380000</ele>
<time>2009-10-10T11:04:10Z</time>
</trkpt>
<trkpt lat="37.967503" lon="-1.052520">
 <ele>180.200000</ele>
<time>2009-10-10T11:04:11Z</time>
</trkpt>
<trkpt lat="37.967511" lon="-1.052518">
 <ele>181.120000</ele>
<time>2009-10-10T11:04:12Z</time>
</trkpt>
<trkpt lat="37.967504" lon="-1.052516">
 <ele>182.380000</ele>
<time>2009-10-10T11:04:13Z</time>
</trkpt>
<trkpt lat="37.967515" lon="-1.052491">
 <ele>183.720000</ele>
<time>2009-10-10T11:04:14Z</time>
</trkpt>
<trkpt lat="37.967517" lon="-1.052496">
 <ele>182.800000</ele>
<time>2009-10-10T11:04:15Z</time>
</trkpt>
<trkpt lat="37.967498" lon="-1.052492">
 <ele>184.380000</ele>
<time>2009-10-10T11:04:16Z</time>
</trkpt>
<trkpt lat="37.967454" lon="-1.052480">
 <ele>185.220000</ele>
<time>2009-10-10T11:04:21Z</time>
</trkpt>
<trkpt lat="37.967457" lon="-1.052471">
 <ele>184.440000</ele>
<time>2009-10-10T11:04:22Z</time>
</trkpt>
<trkpt lat="37.967453" lon="-1.052476">
 <ele>185.340000</ele>
<time>2009-10-10T11:04:23Z</time>
</trkpt>
<trkpt lat="37.967445" lon="-1.052478">
 <ele>184.560000</ele>
<time>2009-10-10T11:04:24Z</time>
</trkpt>
<trkpt lat="37.967442" lon="-1.052475">
 <ele>184.880000</ele>
<time>2009-10-10T11:04:25Z</time>
</trkpt>
<trkpt lat="37.967442" lon="-1.052475">
 <ele>184.800000</ele>
<time>2009-10-10T11:04:26Z</time>
</trkpt>
<trkpt lat="37.967448" lon="-1.052456">
 <ele>185.920000</ele>
<time>2009-10-10T11:04:35Z</time>
</trkpt>
<trkpt lat="37.967462" lon="-1.052404">
 <ele>190.300000</ele>
<time>2009-10-10T11:04:37Z</time>
</trkpt>
<trkpt lat="37.967483" lon="-1.052344">
 <ele>191.520000</ele>
<time>2009-10-10T11:04:41Z</time>
</trkpt>
<trkpt lat="37.967466" lon="-1.052359">
 <ele>191.500000</ele>
<time>2009-10-10T11:04:42Z</time>
</trkpt>
<trkpt lat="37.967468" lon="-1.052360">
 <ele>193.080000</ele>
<time>2009-10-10T11:04:43Z</time>
</trkpt>
<trkpt lat="37.967479" lon="-1.052346">
 <ele>196.340000</ele>
<time>2009-10-10T11:04:45Z</time>
</trkpt>
<trkpt lat="37.967487" lon="-1.052340">
 <ele>192.580000</ele>
<time>2009-10-10T11:04:46Z</time>
</trkpt>
<trkpt lat="37.967466" lon="-1.052337">
 <ele>196.800000</ele>
<time>2009-10-10T11:04:47Z</time>
</trkpt>
<trkpt lat="37.967471" lon="-1.052354">
 <ele>195.900000</ele>
<time>2009-10-10T11:04:48Z</time>
</trkpt>
<trkpt lat="37.967456" lon="-1.052348">
 <ele>194.280000</ele>
<time>2009-10-10T11:04:49Z</time>
</trkpt>
<trkpt lat="37.967463" lon="-1.052347">
 <ele>195.560000</ele>
<time>2009-10-10T11:04:50Z</time>
</trkpt>
<trkpt lat="37.967463" lon="-1.052347">
 <ele>195.000000</ele>
<time>2009-10-10T11:04:51Z</time>
</trkpt>
<trkpt lat="37.967465" lon="-1.052346">
 <ele>192.920000</ele>
<time>2009-10-10T11:04:53Z</time>
</trkpt>
<trkpt lat="37.967458" lon="-1.052346">
 <ele>188.960000</ele>
<time>2009-10-10T11:04:54Z</time>
</trkpt>
<trkpt lat="37.967433" lon="-1.052345">
 <ele>188.600000</ele>
<time>2009-10-10T11:04:57Z</time>
</trkpt>
<trkpt lat="37.967417" lon="-1.052346">
 <ele>190.500000</ele>
<time>2009-10-10T11:04:58Z</time>
</trkpt>
<trkpt lat="37.967424" lon="-1.052346">
 <ele>190.860000</ele>
<time>2009-10-10T11:04:59Z</time>
</trkpt>
<trkpt lat="37.967424" lon="-1.052356">
 <ele>192.740000</ele>
<time>2009-10-10T11:05:00Z</time>
</trkpt>
<trkpt lat="37.967419" lon="-1.052357">
 <ele>191.460000</ele>
<time>2009-10-10T11:05:01Z</time>
</trkpt>
<trkpt lat="37.967413" lon="-1.052352">
 <ele>192.040000</ele>
<time>2009-10-10T11:05:02Z</time>
</trkpt>
<trkpt lat="37.967410" lon="-1.052355">
 <ele>191.160000</ele>
<time>2009-10-10T11:05:03Z</time>
</trkpt>
<trkpt lat="37.967410" lon="-1.052355">
 <ele>191.400000</ele>
<time>2009-10-10T11:05:04Z</time>
</trkpt>
<trkpt lat="37.967400" lon="-1.052351">
 <ele>192.080000</ele>
<time>2009-10-10T11:05:05Z</time>
</trkpt>
<trkpt lat="37.967345" lon="-1.052319">
 <ele>195.460000</ele>
<time>2009-10-10T11:05:09Z</time>
</trkpt>
<trkpt lat="37.967354" lon="-1.052310">
 <ele>195.140000</ele>
<time>2009-10-10T11:05:10Z</time>
</trkpt>
<trkpt lat="37.967351" lon="-1.052313">
 <ele>196.120000</ele>
<time>2009-10-10T11:05:11Z</time>
</trkpt>
<trkpt lat="37.967304" lon="-1.052302">
 <ele>196.320000</ele>
<time>2009-10-10T11:05:15Z</time>
</trkpt>
<trkpt lat="37.967320" lon="-1.052315">
 <ele>198.200000</ele>
<time>2009-10-10T11:05:16Z</time>
</trkpt>
<trkpt lat="37.967318" lon="-1.052300">
 <ele>197.200000</ele>
<time>2009-10-10T11:05:17Z</time>
</trkpt>
<trkpt lat="37.967333" lon="-1.052275">
 <ele>197.380000</ele>
<time>2009-10-10T11:05:19Z</time>
</trkpt>
<trkpt lat="37.967320" lon="-1.052264">
 <ele>199.520000</ele>
<time>2009-10-10T11:05:20Z</time>
</trkpt>
<trkpt lat="37.967306" lon="-1.052264">
 <ele>198.180000</ele>
<time>2009-10-10T11:05:21Z</time>
</trkpt>
<trkpt lat="37.967308" lon="-1.052264">
 <ele>201.120000</ele>
<time>2009-10-10T11:05:22Z</time>
</trkpt>
<trkpt lat="37.967315" lon="-1.052272">
 <ele>198.360000</ele>
<time>2009-10-10T11:05:23Z</time>
</trkpt>
<trkpt lat="37.967313" lon="-1.052262">
 <ele>200.520000</ele>
<time>2009-10-10T11:05:24Z</time>
</trkpt>
<trkpt lat="37.967313" lon="-1.052262">
 <ele>199.400000</ele>
<time>2009-10-10T11:05:25Z</time>
</trkpt>
<trkpt lat="37.967313" lon="-1.052254">
 <ele>201.920000</ele>
<time>2009-10-10T11:05:27Z</time>
</trkpt>
<trkpt lat="37.967262" lon="-1.052233">
 <ele>209.720000</ele>
<time>2009-10-10T11:05:31Z</time>
</trkpt>
<trkpt lat="37.967267" lon="-1.052223">
 <ele>206.160000</ele>
<time>2009-10-10T11:05:32Z</time>
</trkpt>
<trkpt lat="37.967287" lon="-1.052203">
 <ele>208.340000</ele>
<time>2009-10-10T11:05:36Z</time>
</trkpt>
<trkpt lat="37.967279" lon="-1.052202">
 <ele>208.380000</ele>
<time>2009-10-10T11:05:37Z</time>
</trkpt>
<trkpt lat="37.967283" lon="-1.052184">
 <ele>208.900000</ele>
<time>2009-10-10T11:05:38Z</time>
</trkpt>
<trkpt lat="37.967278" lon="-1.052203">
 <ele>208.560000</ele>
<time>2009-10-10T11:05:39Z</time>
</trkpt>
<trkpt lat="37.967282" lon="-1.052192">
 <ele>208.960000</ele>
<time>2009-10-10T11:05:40Z</time>
</trkpt>
<trkpt lat="37.967282" lon="-1.052192">
 <ele>208.400000</ele>
<time>2009-10-10T11:05:41Z</time>
</trkpt>
<trkpt lat="37.967267" lon="-1.052182">
 <ele>210.680000</ele>
<time>2009-10-10T11:05:47Z</time>
</trkpt>
<trkpt lat="37.967233" lon="-1.052156">
 <ele>217.760000</ele>
<time>2009-10-10T11:05:49Z</time>
</trkpt>
<trkpt lat="37.967217" lon="-1.052139">
 <ele>210.300000</ele>
<time>2009-10-10T11:05:50Z</time>
</trkpt>
<trkpt lat="37.967198" lon="-1.052111">
 <ele>217.600000</ele>
<time>2009-10-10T11:05:55Z</time>
</trkpt>
<trkpt lat="37.967212" lon="-1.052093">
 <ele>216.940000</ele>
<time>2009-10-10T11:05:56Z</time>
</trkpt>
<trkpt lat="37.967194" lon="-1.052059">
 <ele>219.820000</ele>
<time>2009-10-10T11:06:00Z</time>
</trkpt>
<trkpt lat="37.967200" lon="-1.052039">
 <ele>220.600000</ele>
<time>2009-10-10T11:06:02Z</time>
</trkpt>
<trkpt lat="37.967200" lon="-1.052049">
 <ele>221.040000</ele>
<time>2009-10-10T11:06:03Z</time>
</trkpt>
<trkpt lat="37.967191" lon="-1.052043">
 <ele>222.120000</ele>
<time>2009-10-10T11:06:04Z</time>
</trkpt>
<trkpt lat="37.967187" lon="-1.052051">
 <ele>220.300000</ele>
<time>2009-10-10T11:06:05Z</time>
</trkpt>
<trkpt lat="37.967188" lon="-1.052042">
 <ele>222.140000</ele>
<time>2009-10-10T11:06:06Z</time>
</trkpt>
<trkpt lat="37.967188" lon="-1.052042">
 <ele>221.100000</ele>
<time>2009-10-10T11:06:07Z</time>
</trkpt>
<trkpt lat="37.967187" lon="-1.052025">
 <ele>224.380000</ele>
<time>2009-10-10T11:06:14Z</time>
</trkpt>
<trkpt lat="37.967129" lon="-1.051976">
 <ele>221.280000</ele>
<time>2009-10-10T11:06:17Z</time>
</trkpt>
<trkpt lat="37.967133" lon="-1.051953">
 <ele>226.740000</ele>
<time>2009-10-10T11:06:19Z</time>
</trkpt>
<trkpt lat="37.967119" lon="-1.051946">
 <ele>230.340000</ele>
<time>2009-10-10T11:06:20Z</time>
</trkpt>
<trkpt lat="37.967087" lon="-1.051926">
 <ele>228.260000</ele>
<time>2009-10-10T11:06:23Z</time>
</trkpt>
<trkpt lat="37.967097" lon="-1.051927">
 <ele>226.400000</ele>
<time>2009-10-10T11:06:24Z</time>
</trkpt>
<trkpt lat="37.967084" lon="-1.051917">
 <ele>227.300000</ele>
<time>2009-10-10T11:06:25Z</time>
</trkpt>
<trkpt lat="37.967046" lon="-1.051905">
 <ele>225.700000</ele>
<time>2009-10-10T11:06:28Z</time>
</trkpt>
<trkpt lat="37.967040" lon="-1.051904">
 <ele>224.660000</ele>
<time>2009-10-10T11:06:29Z</time>
</trkpt>
<trkpt lat="37.967024" lon="-1.051920">
 <ele>223.640000</ele>
<time>2009-10-10T11:06:30Z</time>
</trkpt>
<trkpt lat="37.967030" lon="-1.051909">
 <ele>223.140000</ele>
<time>2009-10-10T11:06:31Z</time>
</trkpt>
<trkpt lat="37.967031" lon="-1.051906">
 <ele>224.980000</ele>
<time>2009-10-10T11:06:32Z</time>
</trkpt>
<trkpt lat="37.967017" lon="-1.051906">
 <ele>222.340000</ele>
<time>2009-10-10T11:06:33Z</time>
</trkpt>
<trkpt lat="37.966902" lon="-1.051884">
 <ele>219.460000</ele>
<time>2009-10-10T11:06:40Z</time>
</trkpt>
<trkpt lat="37.966852" lon="-1.051847">
 <ele>215.920000</ele>
<time>2009-10-10T11:06:44Z</time>
</trkpt>
<trkpt lat="37.966845" lon="-1.051875">
 <ele>217.160000</ele>
<time>2009-10-10T11:06:45Z</time>
</trkpt>
<trkpt lat="37.966823" lon="-1.051868">
 <ele>216.720000</ele>
<time>2009-10-10T11:06:47Z</time>
</trkpt>
<trkpt lat="37.966828" lon="-1.051862">
 <ele>215.580000</ele>
<time>2009-10-10T11:06:48Z</time>
</trkpt>
<trkpt lat="37.966837" lon="-1.051853">
 <ele>215.800000</ele>
<time>2009-10-10T11:06:49Z</time>
</trkpt>
<trkpt lat="37.966823" lon="-1.051846">
 <ele>214.920000</ele>
<time>2009-10-10T11:06:50Z</time>
</trkpt>
<trkpt lat="37.966789" lon="-1.051819">
 <ele>215.580000</ele>
<time>2009-10-10T11:06:54Z</time>
</trkpt>
<trkpt lat="37.966764" lon="-1.051811">
 <ele>216.780000</ele>
<time>2009-10-10T11:06:56Z</time>
</trkpt>
<trkpt lat="37.966721" lon="-1.051813">
 <ele>216.520000</ele>
<time>2009-10-10T11:07:00Z</time>
</trkpt>
<trkpt lat="37.966722" lon="-1.051794">
 <ele>217.940000</ele>
<time>2009-10-10T11:07:01Z</time>
</trkpt>
<trkpt lat="37.966710" lon="-1.051788">
 <ele>216.580000</ele>
<time>2009-10-10T11:07:02Z</time>
</trkpt>
<trkpt lat="37.966721" lon="-1.051800">
 <ele>217.240000</ele>
<time>2009-10-10T11:07:03Z</time>
</trkpt>
<trkpt lat="37.966712" lon="-1.051779">
 <ele>216.460000</ele>
<time>2009-10-10T11:07:04Z</time>
</trkpt>
<trkpt lat="37.966720" lon="-1.051796">
 <ele>217.200000</ele>
<time>2009-10-10T11:07:05Z</time>
</trkpt>
<trkpt lat="37.966707" lon="-1.051785">
 <ele>217.880000</ele>
<time>2009-10-10T11:07:06Z</time>
</trkpt>
<trkpt lat="37.966674" lon="-1.051767">
 <ele>228.880000</ele>
<time>2009-10-10T11:07:10Z</time>
</trkpt>
<trkpt lat="37.966658" lon="-1.051769">
 <ele>226.940000</ele>
<time>2009-10-10T11:07:11Z</time>
</trkpt>
<trkpt lat="37.966669" lon="-1.051773">
 <ele>229.480000</ele>
<time>2009-10-10T11:07:12Z</time>
</trkpt>
<trkpt lat="37.966681" lon="-1.051774">
 <ele>229.420000</ele>
<time>2009-10-10T11:07:13Z</time>
</trkpt>
<trkpt lat="37.966682" lon="-1.051777">
 <ele>229.100000</ele>
<time>2009-10-10T11:07:14Z</time>
</trkpt>
<trkpt lat="37.966680" lon="-1.051764">
 <ele>229.140000</ele>
<time>2009-10-10T11:07:15Z</time>
</trkpt>
<trkpt lat="37.966677" lon="-1.051770">
 <ele>228.980000</ele>
<time>2009-10-10T11:07:16Z</time>
</trkpt>
<trkpt lat="37.966677" lon="-1.051770">
 <ele>228.500000</ele>
<time>2009-10-10T11:07:17Z</time>
</trkpt>
<trkpt lat="37.966679" lon="-1.051768">
 <ele>231.580000</ele>
<time>2009-10-10T11:07:18Z</time>
</trkpt>
<trkpt lat="37.966700" lon="-1.051762">
 <ele>239.900000</ele>
<time>2009-10-10T11:07:23Z</time>
</trkpt>
<trkpt lat="37.966696" lon="-1.051748">
 <ele>240.920000</ele>
<time>2009-10-10T11:07:24Z</time>
</trkpt>
<trkpt lat="37.966690" lon="-1.051755">
 <ele>240.040000</ele>
<time>2009-10-10T11:07:25Z</time>
</trkpt>
<trkpt lat="37.966688" lon="-1.051744">
 <ele>239.320000</ele>
<time>2009-10-10T11:07:27Z</time>
</trkpt>
<trkpt lat="37.966667" lon="-1.051754">
 <ele>238.800000</ele>
<time>2009-10-10T11:07:28Z</time>
</trkpt>
<trkpt lat="37.966676" lon="-1.051749">
 <ele>238.800000</ele>
<time>2009-10-10T11:07:29Z</time>
</trkpt>
<trkpt lat="37.966686" lon="-1.051739">
 <ele>237.900000</ele>
<time>2009-10-10T11:07:30Z</time>
</trkpt>
<trkpt lat="37.966686" lon="-1.051738">
 <ele>238.160000</ele>
<time>2009-10-10T11:07:31Z</time>
</trkpt>
<trkpt lat="37.966672" lon="-1.051752">
 <ele>238.380000</ele>
<time>2009-10-10T11:07:32Z</time>
</trkpt>
<trkpt lat="37.966675" lon="-1.051743">
 <ele>237.900000</ele>
<time>2009-10-10T11:07:33Z</time>
</trkpt>
<trkpt lat="37.966666" lon="-1.051744">
 <ele>236.940000</ele>
<time>2009-10-10T11:07:34Z</time>
</trkpt>
<trkpt lat="37.966631" lon="-1.051742">
 <ele>236.740000</ele>
<time>2009-10-10T11:07:37Z</time>
</trkpt>
<trkpt lat="37.966643" lon="-1.051738">
 <ele>233.040000</ele>
<time>2009-10-10T11:07:38Z</time>
</trkpt>
<trkpt lat="37.966631" lon="-1.051728">
 <ele>236.440000</ele>
<time>2009-10-10T11:07:40Z</time>
</trkpt>
<trkpt lat="37.966592" lon="-1.051692">
 <ele>236.280000</ele>
<time>2009-10-10T11:07:42Z</time>
</trkpt>
<trkpt lat="37.966601" lon="-1.051695">
 <ele>238.900000</ele>
<time>2009-10-10T11:07:43Z</time>
</trkpt>
<trkpt lat="37.966634" lon="-1.051664">
 <ele>240.400000</ele>
<time>2009-10-10T11:07:46Z</time>
</trkpt>
<trkpt lat="37.966615" lon="-1.051672">
 <ele>242.000000</ele>
<time>2009-10-10T11:07:47Z</time>
</trkpt>
<trkpt lat="37.966621" lon="-1.051672">
 <ele>241.800000</ele>
<time>2009-10-10T11:07:48Z</time>
</trkpt>
<trkpt lat="37.966616" lon="-1.051677">
 <ele>240.520000</ele>
<time>2009-10-10T11:07:49Z</time>
</trkpt>
<trkpt lat="37.966618" lon="-1.051668">
 <ele>241.640000</ele>
<time>2009-10-10T11:07:50Z</time>
</trkpt>
<trkpt lat="37.966618" lon="-1.051668">
 <ele>241.000000</ele>
<time>2009-10-10T11:07:51Z</time>
</trkpt>
<trkpt lat="37.966605" lon="-1.051672">
 <ele>239.400000</ele>
<time>2009-10-10T11:07:52Z</time>
</trkpt>
<trkpt lat="37.966507" lon="-1.051714">
 <ele>237.640000</ele>
<time>2009-10-10T11:07:58Z</time>
</trkpt>
<trkpt lat="37.966498" lon="-1.051705">
 <ele>236.900000</ele>
<time>2009-10-10T11:07:59Z</time>
</trkpt>
<trkpt lat="37.966504" lon="-1.051718">
 <ele>235.300000</ele>
<time>2009-10-10T11:08:00Z</time>
</trkpt>
<trkpt lat="37.966502" lon="-1.051713">
 <ele>237.600000</ele>
<time>2009-10-10T11:08:01Z</time>
</trkpt>
<trkpt lat="37.966486" lon="-1.051722">
 <ele>235.860000</ele>
<time>2009-10-10T11:08:02Z</time>
</trkpt>
<trkpt lat="37.966459" lon="-1.051732">
 <ele>237.540000</ele>
<time>2009-10-10T11:08:04Z</time>
</trkpt>
<trkpt lat="37.966471" lon="-1.051738">
 <ele>237.980000</ele>
<time>2009-10-10T11:08:05Z</time>
</trkpt>
<trkpt lat="37.966467" lon="-1.051733">
 <ele>236.880000</ele>
<time>2009-10-10T11:08:06Z</time>
</trkpt>
<trkpt lat="37.966420" lon="-1.051737">
 <ele>235.300000</ele>
<time>2009-10-10T11:08:09Z</time>
</trkpt>
<trkpt lat="37.966401" lon="-1.051733">
 <ele>233.840000</ele>
<time>2009-10-10T11:08:11Z</time>
</trkpt>
<trkpt lat="37.966388" lon="-1.051732">
 <ele>235.140000</ele>
<time>2009-10-10T11:08:12Z</time>
</trkpt>
<trkpt lat="37.966371" lon="-1.051717">
 <ele>236.600000</ele>
<time>2009-10-10T11:08:16Z</time>
</trkpt>
<trkpt lat="37.966363" lon="-1.051706">
 <ele>237.720000</ele>
<time>2009-10-10T11:08:17Z</time>
</trkpt>
<trkpt lat="37.966355" lon="-1.051700">
 <ele>235.400000</ele>
<time>2009-10-10T11:08:18Z</time>
</trkpt>
<trkpt lat="37.966349" lon="-1.051721">
 <ele>237.360000</ele>
<time>2009-10-10T11:08:19Z</time>
</trkpt>
<trkpt lat="37.966348" lon="-1.051713">
 <ele>235.240000</ele>
<time>2009-10-10T11:08:20Z</time>
</trkpt>
<trkpt lat="37.966348" lon="-1.051714">
 <ele>236.580000</ele>
<time>2009-10-10T11:08:21Z</time>
</trkpt>
<trkpt lat="37.966342" lon="-1.051713">
 <ele>236.100000</ele>
<time>2009-10-10T11:08:23Z</time>
</trkpt>
<trkpt lat="37.966329" lon="-1.051711">
 <ele>237.300000</ele>
<time>2009-10-10T11:08:29Z</time>
</trkpt>
<trkpt lat="37.966266" lon="-1.051700">
 <ele>237.180000</ele>
<time>2009-10-10T11:08:32Z</time>
</trkpt>
<trkpt lat="37.966265" lon="-1.051700">
 <ele>241.180000</ele>
<time>2009-10-10T11:08:33Z</time>
</trkpt>
<trkpt lat="37.966265" lon="-1.051700">
 <ele>239.420000</ele>
<time>2009-10-10T11:08:35Z</time>
</trkpt>
<trkpt lat="37.966255" lon="-1.051695">
 <ele>238.780000</ele>
<time>2009-10-10T11:08:36Z</time>
</trkpt>
<trkpt lat="37.966255" lon="-1.051695">
 <ele>239.100000</ele>
<time>2009-10-10T11:08:37Z</time>
</trkpt>
<trkpt lat="37.966244" lon="-1.051689">
 <ele>242.220000</ele>
<time>2009-10-10T11:08:50Z</time>
</trkpt>
<trkpt lat="37.966137" lon="-1.051650">
 <ele>244.780000</ele>
<time>2009-10-10T11:08:58Z</time>
</trkpt>
<trkpt lat="37.966157" lon="-1.051657">
 <ele>244.840000</ele>
<time>2009-10-10T11:08:59Z</time>
</trkpt>
<trkpt lat="37.966144" lon="-1.051648">
 <ele>244.840000</ele>
<time>2009-10-10T11:09:00Z</time>
</trkpt>
<trkpt lat="37.966147" lon="-1.051662">
 <ele>245.700000</ele>
<time>2009-10-10T11:09:01Z</time>
</trkpt>
<trkpt lat="37.966126" lon="-1.051682">
 <ele>246.800000</ele>
<time>2009-10-10T11:09:04Z</time>
</trkpt>
<trkpt lat="37.966141" lon="-1.051675">
 <ele>250.700000</ele>
<time>2009-10-10T11:09:05Z</time>
</trkpt>
<trkpt lat="37.966132" lon="-1.051669">
 <ele>247.500000</ele>
<time>2009-10-10T11:09:06Z</time>
</trkpt>
<trkpt lat="37.966141" lon="-1.051675">
 <ele>249.360000</ele>
<time>2009-10-10T11:09:07Z</time>
</trkpt>
<trkpt lat="37.966126" lon="-1.051679">
 <ele>249.160000</ele>
<time>2009-10-10T11:09:08Z</time>
</trkpt>
<trkpt lat="37.966090" lon="-1.051703">
 <ele>252.280000</ele>
<time>2009-10-10T11:09:12Z</time>
</trkpt>
<trkpt lat="37.966061" lon="-1.051705">
 <ele>251.860000</ele>
<time>2009-10-10T11:09:13Z</time>
</trkpt>
<trkpt lat="37.966037" lon="-1.051713">
 <ele>252.520000</ele>
<time>2009-10-10T11:09:17Z</time>
</trkpt>
<trkpt lat="37.966046" lon="-1.051715">
 <ele>253.660000</ele>
<time>2009-10-10T11:09:18Z</time>
</trkpt>
<trkpt lat="37.966040" lon="-1.051715">
 <ele>252.840000</ele>
<time>2009-10-10T11:09:19Z</time>
</trkpt>
<trkpt lat="37.966039" lon="-1.051707">
 <ele>253.140000</ele>
<time>2009-10-10T11:09:20Z</time>
</trkpt>
<trkpt lat="37.966035" lon="-1.051713">
 <ele>252.820000</ele>
<time>2009-10-10T11:09:21Z</time>
</trkpt>
<trkpt lat="37.966035" lon="-1.051713">
 <ele>252.900000</ele>
<time>2009-10-10T11:09:22Z</time>
</trkpt>
<trkpt lat="37.966018" lon="-1.051712">
 <ele>254.180000</ele>
<time>2009-10-10T11:09:42Z</time>
</trkpt>
<trkpt lat="37.965951" lon="-1.051710">
 <ele>253.640000</ele>
<time>2009-10-10T11:09:45Z</time>
</trkpt>
<trkpt lat="37.965957" lon="-1.051706">
 <ele>259.020000</ele>
<time>2009-10-10T11:09:46Z</time>
</trkpt>
<trkpt lat="37.965955" lon="-1.051698">
 <ele>255.820000</ele>
<time>2009-10-10T11:09:47Z</time>
</trkpt>
<trkpt lat="37.965951" lon="-1.051705">
 <ele>256.520000</ele>
<time>2009-10-10T11:09:48Z</time>
</trkpt>
<trkpt lat="37.965950" lon="-1.051703">
 <ele>256.120000</ele>
<time>2009-10-10T11:09:49Z</time>
</trkpt>
<trkpt lat="37.965950" lon="-1.051703">
 <ele>256.200000</ele>
<time>2009-10-10T11:09:50Z</time>
</trkpt>
<trkpt lat="37.965951" lon="-1.051705">
 <ele>257.360000</ele>
<time>2009-10-10T11:09:54Z</time>
</trkpt>
<trkpt lat="37.965963" lon="-1.051713">
 <ele>258.560000</ele>
<time>2009-10-10T11:09:57Z</time>
</trkpt>
<trkpt lat="37.965944" lon="-1.051706">
 <ele>262.000000</ele>
<time>2009-10-10T11:09:58Z</time>
</trkpt>
<trkpt lat="37.965953" lon="-1.051702">
 <ele>260.180000</ele>
<time>2009-10-10T11:09:59Z</time>
</trkpt>
<trkpt lat="37.965961" lon="-1.051705">
 <ele>260.820000</ele>
<time>2009-10-10T11:10:00Z</time>
</trkpt>
<trkpt lat="37.965962" lon="-1.051702">
 <ele>259.780000</ele>
<time>2009-10-10T11:10:01Z</time>
</trkpt>
<trkpt lat="37.965962" lon="-1.051702">
 <ele>260.100000</ele>
<time>2009-10-10T11:10:02Z</time>
</trkpt>
<trkpt lat="37.965957" lon="-1.051708">
 <ele>265.220000</ele>
<time>2009-10-10T11:10:53Z</time>
</trkpt>
<trkpt lat="37.965939" lon="-1.051740">
 <ele>283.660000</ele>
<time>2009-10-10T11:10:57Z</time>
</trkpt>
<trkpt lat="37.965936" lon="-1.051748">
 <ele>275.220000</ele>
<time>2009-10-10T11:10:58Z</time>
</trkpt>
<trkpt lat="37.965956" lon="-1.051744">
 <ele>276.720000</ele>
<time>2009-10-10T11:10:59Z</time>
</trkpt>
<trkpt lat="37.965956" lon="-1.051736">
 <ele>276.520000</ele>
<time>2009-10-10T11:11:00Z</time>
</trkpt>
<trkpt lat="37.965943" lon="-1.051742">
 <ele>274.880000</ele>
<time>2009-10-10T11:11:01Z</time>
</trkpt>
<trkpt lat="37.965948" lon="-1.051743">
 <ele>277.440000</ele>
<time>2009-10-10T11:11:02Z</time>
</trkpt>
<trkpt lat="37.965948" lon="-1.051743">
 <ele>276.000000</ele>
<time>2009-10-10T11:11:03Z</time>
</trkpt>
<trkpt lat="37.965953" lon="-1.051745">
 <ele>275.680000</ele>
<time>2009-10-10T11:11:07Z</time>
</trkpt>
<trkpt lat="37.965954" lon="-1.051752">
 <ele>274.300000</ele>
<time>2009-10-10T11:11:10Z</time>
</trkpt>
<trkpt lat="37.965982" lon="-1.051742">
 <ele>272.640000</ele>
<time>2009-10-10T11:11:11Z</time>
</trkpt>
<trkpt lat="37.965980" lon="-1.051743">
 <ele>274.900000</ele>
<time>2009-10-10T11:11:12Z</time>
</trkpt>
<trkpt lat="37.965980" lon="-1.051743">
 <ele>272.700000</ele>
<time>2009-10-10T11:11:13Z</time>
</trkpt>
<trkpt lat="37.965978" lon="-1.051743">
 <ele>273.900000</ele>
<time>2009-10-10T11:11:15Z</time>
</trkpt>
<trkpt lat="37.965974" lon="-1.051748">
 <ele>272.740000</ele>
<time>2009-10-10T11:11:17Z</time>
</trkpt>
<trkpt lat="37.965955" lon="-1.051777">
 <ele>272.460000</ele>
<time>2009-10-10T11:11:20Z</time>
</trkpt>
<trkpt lat="37.965964" lon="-1.051767">
 <ele>267.160000</ele>
<time>2009-10-10T11:11:21Z</time>
</trkpt>
<trkpt lat="37.965950" lon="-1.051768">
 <ele>270.220000</ele>
<time>2009-10-10T11:11:22Z</time>
</trkpt>
<trkpt lat="37.965966" lon="-1.051765">
 <ele>269.660000</ele>
<time>2009-10-10T11:11:23Z</time>
</trkpt>
<trkpt lat="37.965958" lon="-1.051770">
 <ele>269.580000</ele>
<time>2009-10-10T11:11:24Z</time>
</trkpt>
<trkpt lat="37.965958" lon="-1.051770">
 <ele>269.900000</ele>
<time>2009-10-10T11:11:25Z</time>
</trkpt>
<trkpt lat="37.965933" lon="-1.051773">
 <ele>267.660000</ele>
<time>2009-10-10T11:12:15Z</time>
</trkpt>
<trkpt lat="37.965828" lon="-1.051782">
 <ele>270.520000</ele>
<time>2009-10-10T11:12:18Z</time>
</trkpt>
<trkpt lat="37.965815" lon="-1.051798">
 <ele>261.340000</ele>
<time>2009-10-10T11:12:19Z</time>
</trkpt>
<trkpt lat="37.965819" lon="-1.051792">
 <ele>266.840000</ele>
<time>2009-10-10T11:12:20Z</time>
</trkpt>
<trkpt lat="37.965819" lon="-1.051794">
 <ele>267.080000</ele>
<time>2009-10-10T11:12:21Z</time>
</trkpt>
<trkpt lat="37.965829" lon="-1.051789">
 <ele>266.180000</ele>
<time>2009-10-10T11:12:22Z</time>
</trkpt>
<trkpt lat="37.965820" lon="-1.051792">
 <ele>267.060000</ele>
<time>2009-10-10T11:12:23Z</time>
</trkpt>
<trkpt lat="37.965820" lon="-1.051792">
 <ele>266.500000</ele>
<time>2009-10-10T11:12:24Z</time>
</trkpt>
<trkpt lat="37.965810" lon="-1.051796">
 <ele>268.620000</ele>
<time>2009-10-10T11:12:33Z</time>
</trkpt>
<trkpt lat="37.965759" lon="-1.051815">
 <ele>268.520000</ele>
<time>2009-10-10T11:12:36Z</time>
</trkpt>
<trkpt lat="37.965769" lon="-1.051806">
 <ele>277.140000</ele>
<time>2009-10-10T11:12:37Z</time>
</trkpt>
<trkpt lat="37.965766" lon="-1.051805">
 <ele>272.440000</ele>
<time>2009-10-10T11:12:38Z</time>
</trkpt>
<trkpt lat="37.965773" lon="-1.051808">
 <ele>273.100000</ele>
<time>2009-10-10T11:12:39Z</time>
</trkpt>
<trkpt lat="37.965765" lon="-1.051807">
 <ele>272.780000</ele>
<time>2009-10-10T11:12:40Z</time>
</trkpt>
<trkpt lat="37.965765" lon="-1.051807">
 <ele>272.700000</ele>
<time>2009-10-10T11:12:41Z</time>
</trkpt>
<trkpt lat="37.965755" lon="-1.051809">
 <ele>271.860000</ele>
<time>2009-10-10T11:12:46Z</time>
</trkpt>
<trkpt lat="37.965672" lon="-1.051838">
 <ele>266.060000</ele>
<time>2009-10-10T11:12:52Z</time>
</trkpt>
<trkpt lat="37.965672" lon="-1.051831">
 <ele>267.060000</ele>
<time>2009-10-10T11:12:53Z</time>
</trkpt>
<trkpt lat="37.965673" lon="-1.051830">
 <ele>267.300000</ele>
<time>2009-10-10T11:12:54Z</time>
</trkpt>
<trkpt lat="37.965679" lon="-1.051833">
 <ele>267.500000</ele>
<time>2009-10-10T11:12:55Z</time>
</trkpt>
<trkpt lat="37.965672" lon="-1.051833">
 <ele>267.660000</ele>
<time>2009-10-10T11:12:56Z</time>
</trkpt>
<trkpt lat="37.965672" lon="-1.051833">
 <ele>267.500000</ele>
<time>2009-10-10T11:12:57Z</time>
</trkpt>
<trkpt lat="37.965666" lon="-1.051838">
 <ele>269.180000</ele>
<time>2009-10-10T11:13:01Z</time>
</trkpt>
<trkpt lat="37.965643" lon="-1.051862">
 <ele>270.920000</ele>
<time>2009-10-10T11:13:04Z</time>
</trkpt>
<trkpt lat="37.965660" lon="-1.051842">
 <ele>277.860000</ele>
<time>2009-10-10T11:13:05Z</time>
</trkpt>
<trkpt lat="37.965653" lon="-1.051852">
 <ele>274.620000</ele>
<time>2009-10-10T11:13:06Z</time>
</trkpt>
<trkpt lat="37.965653" lon="-1.051852">
 <ele>274.560000</ele>
<time>2009-10-10T11:13:07Z</time>
</trkpt>
<trkpt lat="37.965653" lon="-1.051852">
 <ele>275.120000</ele>
<time>2009-10-10T11:13:08Z</time>
</trkpt>
<trkpt lat="37.965657" lon="-1.051855">
 <ele>281.560000</ele>
<time>2009-10-10T11:13:30Z</time>
</trkpt>
<trkpt lat="37.965653" lon="-1.051854">
 <ele>302.580000</ele>
<time>2009-10-10T11:13:32Z</time>
</trkpt>
<trkpt lat="37.965653" lon="-1.051859">
 <ele>307.340000</ele>
<time>2009-10-10T11:13:34Z</time>
</trkpt>
<trkpt lat="37.965626" lon="-1.051859">
 <ele>290.580000</ele>
<time>2009-10-10T11:13:35Z</time>
</trkpt>
<trkpt lat="37.965628" lon="-1.051858">
 <ele>291.260000</ele>
<time>2009-10-10T11:13:36Z</time>
</trkpt>
<trkpt lat="37.965621" lon="-1.051864">
 <ele>290.940000</ele>
<time>2009-10-10T11:13:37Z</time>
</trkpt>
<trkpt lat="37.965624" lon="-1.051866">
 <ele>290.420000</ele>
<time>2009-10-10T11:13:38Z</time>
</trkpt>
<trkpt lat="37.965628" lon="-1.051866">
 <ele>289.580000</ele>
<time>2009-10-10T11:13:39Z</time>
</trkpt>
<trkpt lat="37.965624" lon="-1.051864">
 <ele>290.880000</ele>
<time>2009-10-10T11:13:40Z</time>
</trkpt>
<trkpt lat="37.965622" lon="-1.051865">
 <ele>289.840000</ele>
<time>2009-10-10T11:13:41Z</time>
</trkpt>
<trkpt lat="37.965622" lon="-1.051865">
 <ele>290.400000</ele>
<time>2009-10-10T11:13:42Z</time>
</trkpt>
<trkpt lat="37.965611" lon="-1.051860">
 <ele>289.320000</ele>
<time>2009-10-10T11:13:45Z</time>
</trkpt>
<trkpt lat="37.965497" lon="-1.051758">
 <ele>282.240000</ele>
<time>2009-10-10T11:13:54Z</time>
</trkpt>
<trkpt lat="37.965492" lon="-1.051724">
 <ele>281.620000</ele>
<time>2009-10-10T11:13:58Z</time>
</trkpt>
<trkpt lat="37.965498" lon="-1.051694">
 <ele>282.820000</ele>
<time>2009-10-10T11:13:59Z</time>
</trkpt>
<trkpt lat="37.965542" lon="-1.051567">
 <ele>285.900000</ele>
<time>2009-10-10T11:14:11Z</time>
</trkpt>
<trkpt lat="37.965535" lon="-1.051529">
 <ele>285.280000</ele>
<time>2009-10-10T11:14:13Z</time>
</trkpt>
<trkpt lat="37.965558" lon="-1.051451">
 <ele>281.180000</ele>
<time>2009-10-10T11:14:19Z</time>
</trkpt>
<trkpt lat="37.965640" lon="-1.051361">
 <ele>289.780000</ele>
<time>2009-10-10T11:14:27Z</time>
</trkpt>
<trkpt lat="37.965693" lon="-1.051299">
 <ele>293.060000</ele>
<time>2009-10-10T11:14:31Z</time>
</trkpt>
<trkpt lat="37.965711" lon="-1.051299">
 <ele>292.940000</ele>
<time>2009-10-10T11:14:32Z</time>
</trkpt>
<trkpt lat="37.965727" lon="-1.051257">
 <ele>292.860000</ele>
<time>2009-10-10T11:14:34Z</time>
</trkpt>
<trkpt lat="37.965783" lon="-1.051130">
 <ele>295.580000</ele>
<time>2009-10-10T11:14:44Z</time>
</trkpt>
<trkpt lat="37.965928" lon="-1.050951">
 <ele>290.740000</ele>
<time>2009-10-10T11:14:58Z</time>
</trkpt>
<trkpt lat="37.966010" lon="-1.050827">
 <ele>288.540000</ele>
<time>2009-10-10T11:15:10Z</time>
</trkpt>
<trkpt lat="37.965983" lon="-1.050782">
 <ele>290.300000</ele>
<time>2009-10-10T11:15:15Z</time>
</trkpt>
<trkpt lat="37.965989" lon="-1.050785">
 <ele>292.280000</ele>
<time>2009-10-10T11:15:16Z</time>
</trkpt>
<trkpt lat="37.965965" lon="-1.050771">
 <ele>292.260000</ele>
<time>2009-10-10T11:15:17Z</time>
</trkpt>
<trkpt lat="37.965920" lon="-1.050792">
 <ele>293.860000</ele>
<time>2009-10-10T11:15:20Z</time>
</trkpt>
<trkpt lat="37.965912" lon="-1.050787">
 <ele>295.820000</ele>
<time>2009-10-10T11:15:21Z</time>
</trkpt>
<trkpt lat="37.965854" lon="-1.050810">
 <ele>298.700000</ele>
<time>2009-10-10T11:15:25Z</time>
</trkpt>
<trkpt lat="37.965783" lon="-1.050836">
 <ele>303.660000</ele>
<time>2009-10-10T11:15:33Z</time>
</trkpt>
<trkpt lat="37.965778" lon="-1.050844">
 <ele>304.580000</ele>
<time>2009-10-10T11:15:34Z</time>
</trkpt>
<trkpt lat="37.965730" lon="-1.050872">
 <ele>308.620000</ele>
<time>2009-10-10T11:15:39Z</time>
</trkpt>
<trkpt lat="37.965687" lon="-1.050866">
 <ele>308.740000</ele>
<time>2009-10-10T11:15:42Z</time>
</trkpt>
<trkpt lat="37.965611" lon="-1.050846">
 <ele>310.180000</ele>
<time>2009-10-10T11:15:48Z</time>
</trkpt>
<trkpt lat="37.965393" lon="-1.050707">
 <ele>308.300000</ele>
<time>2009-10-10T11:16:08Z</time>
</trkpt>
<trkpt lat="37.965269" lon="-1.050692">
 <ele>302.400000</ele>
<time>2009-10-10T11:16:19Z</time>
</trkpt>
<trkpt lat="37.965204" lon="-1.050650">
 <ele>299.520000</ele>
<time>2009-10-10T11:16:26Z</time>
</trkpt>
<trkpt lat="37.965188" lon="-1.050646">
 <ele>300.660000</ele>
<time>2009-10-10T11:16:27Z</time>
</trkpt>
<trkpt lat="37.965163" lon="-1.050605">
 <ele>299.500000</ele>
<time>2009-10-10T11:16:32Z</time>
</trkpt>
<trkpt lat="37.965158" lon="-1.050605">
 <ele>298.580000</ele>
<time>2009-10-10T11:16:33Z</time>
</trkpt>
<trkpt lat="37.965131" lon="-1.050615">
 <ele>300.720000</ele>
<time>2009-10-10T11:16:38Z</time>
</trkpt>
<trkpt lat="37.965140" lon="-1.050618">
 <ele>299.820000</ele>
<time>2009-10-10T11:16:39Z</time>
</trkpt>
<trkpt lat="37.965142" lon="-1.050611">
 <ele>301.420000</ele>
<time>2009-10-10T11:16:40Z</time>
</trkpt>
<trkpt lat="37.965137" lon="-1.050619">
 <ele>300.400000</ele>
<time>2009-10-10T11:16:41Z</time>
</trkpt>
<trkpt lat="37.965137" lon="-1.050617">
 <ele>300.480000</ele>
<time>2009-10-10T11:16:42Z</time>
</trkpt>
<trkpt lat="37.965109" lon="-1.050590">
 <ele>296.680000</ele>
<time>2009-10-10T11:16:48Z</time>
</trkpt>
<trkpt lat="37.964993" lon="-1.050537">
 <ele>295.300000</ele>
<time>2009-10-10T11:16:55Z</time>
</trkpt>
<trkpt lat="37.964981" lon="-1.050534">
 <ele>297.140000</ele>
<time>2009-10-10T11:16:56Z</time>
</trkpt>
<trkpt lat="37.964975" lon="-1.050529">
 <ele>296.340000</ele>
<time>2009-10-10T11:16:58Z</time>
</trkpt>
<trkpt lat="37.964971" lon="-1.050517">
 <ele>296.040000</ele>
<time>2009-10-10T11:16:59Z</time>
</trkpt>
<trkpt lat="37.964917" lon="-1.050500">
 <ele>295.440000</ele>
<time>2009-10-10T11:17:02Z</time>
</trkpt>
<trkpt lat="37.964895" lon="-1.050495">
 <ele>291.860000</ele>
<time>2009-10-10T11:17:06Z</time>
</trkpt>
<trkpt lat="37.964892" lon="-1.050488">
 <ele>294.820000</ele>
<time>2009-10-10T11:17:07Z</time>
</trkpt>
<trkpt lat="37.964902" lon="-1.050501">
 <ele>292.120000</ele>
<time>2009-10-10T11:17:08Z</time>
</trkpt>
<trkpt lat="37.964889" lon="-1.050505">
 <ele>291.780000</ele>
<time>2009-10-10T11:17:09Z</time>
</trkpt>
<trkpt lat="37.964842" lon="-1.050509">
 <ele>291.720000</ele>
<time>2009-10-10T11:17:13Z</time>
</trkpt>
<trkpt lat="37.964839" lon="-1.050509">
 <ele>291.980000</ele>
<time>2009-10-10T11:17:14Z</time>
</trkpt>
<trkpt lat="37.964821" lon="-1.050556">
 <ele>291.300000</ele>
<time>2009-10-10T11:17:17Z</time>
</trkpt>
<trkpt lat="37.964842" lon="-1.050555">
 <ele>290.960000</ele>
<time>2009-10-10T11:17:18Z</time>
</trkpt>
<trkpt lat="37.964822" lon="-1.050549">
 <ele>290.940000</ele>
<time>2009-10-10T11:17:19Z</time>
</trkpt>
<trkpt lat="37.964820" lon="-1.050551">
 <ele>291.680000</ele>
<time>2009-10-10T11:17:21Z</time>
</trkpt>
<trkpt lat="37.964804" lon="-1.050553">
 <ele>289.240000</ele>
<time>2009-10-10T11:17:22Z</time>
</trkpt>
<trkpt lat="37.964784" lon="-1.050534">
 <ele>288.580000</ele>
<time>2009-10-10T11:17:25Z</time>
</trkpt>
<trkpt lat="37.964749" lon="-1.050544">
 <ele>286.420000</ele>
<time>2009-10-10T11:17:27Z</time>
</trkpt>
<trkpt lat="37.964701" lon="-1.050550">
 <ele>291.400000</ele>
<time>2009-10-10T11:17:32Z</time>
</trkpt>
<trkpt lat="37.964691" lon="-1.050550">
 <ele>291.560000</ele>
<time>2009-10-10T11:17:33Z</time>
</trkpt>
<trkpt lat="37.964700" lon="-1.050546">
 <ele>292.480000</ele>
<time>2009-10-10T11:17:34Z</time>
</trkpt>
<trkpt lat="37.964689" lon="-1.050539">
 <ele>292.540000</ele>
<time>2009-10-10T11:17:35Z</time>
</trkpt>
<trkpt lat="37.964641" lon="-1.050561">
 <ele>288.840000</ele>
<time>2009-10-10T11:17:37Z</time>
</trkpt>
<trkpt lat="37.964569" lon="-1.050592">
 <ele>289.340000</ele>
<time>2009-10-10T11:17:42Z</time>
</trkpt>
<trkpt lat="37.964537" lon="-1.050608">
 <ele>290.200000</ele>
<time>2009-10-10T11:17:47Z</time>
</trkpt>
<trkpt lat="37.964527" lon="-1.050613">
 <ele>290.120000</ele>
<time>2009-10-10T11:17:48Z</time>
</trkpt>
<trkpt lat="37.964532" lon="-1.050613">
 <ele>289.760000</ele>
<time>2009-10-10T11:17:49Z</time>
</trkpt>
<trkpt lat="37.964528" lon="-1.050619">
 <ele>289.960000</ele>
<time>2009-10-10T11:17:50Z</time>
</trkpt>
<trkpt lat="37.964448" lon="-1.050638">
 <ele>291.500000</ele>
<time>2009-10-10T11:17:53Z</time>
</trkpt>
<trkpt lat="37.964291" lon="-1.050669">
 <ele>285.400000</ele>
<time>2009-10-10T11:18:06Z</time>
</trkpt>
<trkpt lat="37.964270" lon="-1.050674">
 <ele>287.100000</ele>
<time>2009-10-10T11:18:07Z</time>
</trkpt>
<trkpt lat="37.964198" lon="-1.050673">
 <ele>284.040000</ele>
<time>2009-10-10T11:18:13Z</time>
</trkpt>
<trkpt lat="37.964180" lon="-1.050666">
 <ele>282.900000</ele>
<time>2009-10-10T11:18:14Z</time>
</trkpt>
<trkpt lat="37.964167" lon="-1.050680">
 <ele>279.540000</ele>
<time>2009-10-10T11:18:17Z</time>
</trkpt>
<trkpt lat="37.964155" lon="-1.050661">
 <ele>276.840000</ele>
<time>2009-10-10T11:18:18Z</time>
</trkpt>
<trkpt lat="37.964130" lon="-1.050666">
 <ele>276.520000</ele>
<time>2009-10-10T11:18:20Z</time>
</trkpt>
<trkpt lat="37.964120" lon="-1.050664">
 <ele>275.780000</ele>
<time>2009-10-10T11:18:21Z</time>
</trkpt>
<trkpt lat="37.964100" lon="-1.050661">
 <ele>276.780000</ele>
<time>2009-10-10T11:18:24Z</time>
</trkpt>
<trkpt lat="37.964108" lon="-1.050653">
 <ele>276.760000</ele>
<time>2009-10-10T11:18:25Z</time>
</trkpt>
<trkpt lat="37.964084" lon="-1.050658">
 <ele>276.780000</ele>
<time>2009-10-10T11:18:26Z</time>
</trkpt>
<trkpt lat="37.964057" lon="-1.050666">
 <ele>276.540000</ele>
<time>2009-10-10T11:18:29Z</time>
</trkpt>
<trkpt lat="37.964051" lon="-1.050699">
 <ele>278.420000</ele>
<time>2009-10-10T11:18:31Z</time>
</trkpt>
<trkpt lat="37.963964" lon="-1.050761">
 <ele>282.180000</ele>
<time>2009-10-10T11:18:41Z</time>
</trkpt>
<trkpt lat="37.963960" lon="-1.050765">
 <ele>281.620000</ele>
<time>2009-10-10T11:18:42Z</time>
</trkpt>
<trkpt lat="37.963895" lon="-1.050839">
 <ele>284.720000</ele>
<time>2009-10-10T11:18:50Z</time>
</trkpt>
<trkpt lat="37.963904" lon="-1.050823">
 <ele>282.900000</ele>
<time>2009-10-10T11:18:51Z</time>
</trkpt>
<trkpt lat="37.963901" lon="-1.050835">
 <ele>284.800000</ele>
<time>2009-10-10T11:18:52Z</time>
</trkpt>
<trkpt lat="37.963891" lon="-1.050835">
 <ele>283.720000</ele>
<time>2009-10-10T11:18:53Z</time>
</trkpt>
<trkpt lat="37.963892" lon="-1.050840">
 <ele>283.960000</ele>
<time>2009-10-10T11:18:54Z</time>
</trkpt>
<trkpt lat="37.963892" lon="-1.050840">
 <ele>283.800000</ele>
<time>2009-10-10T11:18:55Z</time>
</trkpt>
<trkpt lat="37.963904" lon="-1.050833">
 <ele>280.960000</ele>
<time>2009-10-10T11:19:36Z</time>
</trkpt>
<trkpt lat="37.963948" lon="-1.050805">
 <ele>280.940000</ele>
<time>2009-10-10T11:19:39Z</time>
</trkpt>
<trkpt lat="37.963978" lon="-1.050823">
 <ele>269.680000</ele>
<time>2009-10-10T11:19:40Z</time>
</trkpt>
<trkpt lat="37.963962" lon="-1.050811">
 <ele>274.760000</ele>
<time>2009-10-10T11:19:41Z</time>
</trkpt>
<trkpt lat="37.963962" lon="-1.050813">
 <ele>275.360000</ele>
<time>2009-10-10T11:19:42Z</time>
</trkpt>
<trkpt lat="37.963965" lon="-1.050812">
 <ele>274.720000</ele>
<time>2009-10-10T11:19:43Z</time>
</trkpt>
<trkpt lat="37.963965" lon="-1.050812">
 <ele>275.200000</ele>
<time>2009-10-10T11:19:44Z</time>
</trkpt>
<trkpt lat="37.963965" lon="-1.050812">
 <ele>275.200000</ele>
<time>2009-10-10T11:19:45Z</time>
</trkpt>
<trkpt lat="37.963965" lon="-1.050812">
 <ele>275.200000</ele>
<time>2009-10-10T11:19:46Z</time>
</trkpt>
<trkpt lat="37.963965" lon="-1.050812">
 <ele>275.200000</ele>
<time>2009-10-10T11:19:47Z</time>
</trkpt>
<trkpt lat="37.963965" lon="-1.050812">
 <ele>275.200000</ele>
<time>2009-10-10T11:19:48Z</time>
</trkpt>
<trkpt lat="37.963965" lon="-1.050812">
 <ele>275.200000</ele>
<time>2009-10-10T11:19:49Z</time>
</trkpt>
<trkpt lat="37.963965" lon="-1.050812">
 <ele>275.200000</ele>
<time>2009-10-10T11:19:50Z</time>
</trkpt>
<trkpt lat="37.963965" lon="-1.050812">
 <ele>275.200000</ele>
<time>2009-10-10T11:19:51Z</time>
</trkpt>
<trkpt lat="37.963965" lon="-1.050812">
 <ele>275.200000</ele>
<time>2009-10-10T11:19:52Z</time>
</trkpt>
<trkpt lat="37.963965" lon="-1.050812">
 <ele>275.200000</ele>
<time>2009-10-10T11:19:53Z</time>
</trkpt>
<trkpt lat="37.963965" lon="-1.050812">
 <ele>275.200000</ele>
<time>2009-10-10T11:19:54Z</time>
</trkpt>
<trkpt lat="37.963965" lon="-1.050812">
 <ele>275.200000</ele>
<time>2009-10-10T11:19:55Z</time>
</trkpt>
<trkpt lat="37.963965" lon="-1.050812">
 <ele>275.200000</ele>
<time>2009-10-10T11:19:56Z</time>
</trkpt>
<trkpt lat="37.963965" lon="-1.050812">
 <ele>275.200000</ele>
<time>2009-10-10T11:19:57Z</time>
</trkpt>
<trkpt lat="37.963965" lon="-1.050812">
 <ele>275.200000</ele>
<time>2009-10-10T11:19:58Z</time>
</trkpt>
<trkpt lat="37.963965" lon="-1.050812">
 <ele>275.200000</ele>
<time>2009-10-10T11:19:59Z</time>
</trkpt>
<trkpt lat="37.963965" lon="-1.050812">
 <ele>275.200000</ele>
<time>2009-10-10T11:20:00Z</time>
</trkpt>
<trkpt lat="37.963965" lon="-1.050812">
 <ele>275.200000</ele>
<time>2009-10-10T11:20:01Z</time>
</trkpt>
<trkpt lat="37.963965" lon="-1.050812">
 <ele>275.200000</ele>
<time>2009-10-10T11:20:02Z</time>
</trkpt>
<trkpt lat="37.963965" lon="-1.050812">
 <ele>275.200000</ele>
<time>2009-10-10T11:20:03Z</time>
</trkpt>
<trkpt lat="37.963965" lon="-1.050812">
 <ele>275.200000</ele>
<time>2009-10-10T11:20:04Z</time>
</trkpt>
<trkpt lat="37.963965" lon="-1.050812">
 <ele>275.200000</ele>
<time>2009-10-10T11:20:05Z</time>
</trkpt>
<trkpt lat="37.963965" lon="-1.050812">
 <ele>275.200000</ele>
<time>2009-10-10T11:20:06Z</time>
</trkpt>
<trkpt lat="37.963965" lon="-1.050812">
 <ele>275.200000</ele>
<time>2009-10-10T11:20:07Z</time>
</trkpt>
<trkpt lat="37.963965" lon="-1.050812">
 <ele>275.200000</ele>
<time>2009-10-10T11:20:08Z</time>
</trkpt>
<trkpt lat="37.963965" lon="-1.050812">
 <ele>275.200000</ele>
<time>2009-10-10T11:20:09Z</time>
</trkpt>
<trkpt lat="37.963965" lon="-1.050812">
 <ele>275.200000</ele>
<time>2009-10-10T11:20:10Z</time>
</trkpt>
<trkpt lat="37.963965" lon="-1.050812">
 <ele>275.200000</ele>
<time>2009-10-10T11:20:11Z</time>
</trkpt>
<trkpt lat="37.963965" lon="-1.050812">
 <ele>275.200000</ele>
<time>2009-10-10T11:20:12Z</time>
</trkpt>
<trkpt lat="37.963965" lon="-1.050812">
 <ele>275.200000</ele>
<time>2009-10-10T11:20:13Z</time>
</trkpt>
<trkpt lat="37.963965" lon="-1.050812">
 <ele>275.200000</ele>
<time>2009-10-10T11:20:14Z</time>
</trkpt>
<trkpt lat="37.963965" lon="-1.050812">
 <ele>275.200000</ele>
<time>2009-10-10T11:20:15Z</time>
</trkpt>
<trkpt lat="37.963965" lon="-1.050812">
 <ele>275.200000</ele>
<time>2009-10-10T11:20:16Z</time>
</trkpt>
<trkpt lat="37.963965" lon="-1.050812">
 <ele>275.200000</ele>
<time>2009-10-10T11:20:17Z</time>
</trkpt>
<trkpt lat="37.963965" lon="-1.050812">
 <ele>275.200000</ele>
<time>2009-10-10T11:20:18Z</time>
</trkpt>
<trkpt lat="37.963965" lon="-1.050812">
 <ele>275.200000</ele>
<time>2009-10-10T11:20:19Z</time>
</trkpt>
<trkpt lat="37.963965" lon="-1.050812">
 <ele>275.200000</ele>
<time>2009-10-10T11:20:20Z</time>
</trkpt>
<trkpt lat="37.963965" lon="-1.050812">
 <ele>275.200000</ele>
<time>2009-10-10T11:20:21Z</time>
</trkpt>
<trkpt lat="37.963965" lon="-1.050812">
 <ele>275.200000</ele>
<time>2009-10-10T11:20:22Z</time>
</trkpt>
<trkpt lat="37.963965" lon="-1.050812">
 <ele>275.200000</ele>
<time>2009-10-10T11:20:23Z</time>
</trkpt>
<trkpt lat="37.963965" lon="-1.050812">
 <ele>275.200000</ele>
<time>2009-10-10T11:20:24Z</time>
</trkpt>
<trkpt lat="37.963965" lon="-1.050812">
 <ele>275.200000</ele>
<time>2009-10-10T11:20:25Z</time>
</trkpt>
<trkpt lat="37.963965" lon="-1.050812">
 <ele>275.200000</ele>
<time>2009-10-10T11:20:26Z</time>
</trkpt>
<trkpt lat="37.963965" lon="-1.050812">
 <ele>275.200000</ele>
<time>2009-10-10T11:20:27Z</time>
</trkpt>
<trkpt lat="37.963965" lon="-1.050812">
 <ele>275.200000</ele>
<time>2009-10-10T11:20:28Z</time>
</trkpt>
<trkpt lat="37.963965" lon="-1.050812">
 <ele>275.200000</ele>
<time>2009-10-10T11:20:29Z</time>
</trkpt>
<trkpt lat="37.963965" lon="-1.050812">
 <ele>275.200000</ele>
<time>2009-10-10T11:20:30Z</time>
</trkpt>
<trkpt lat="37.963965" lon="-1.050812">
 <ele>275.200000</ele>
<time>2009-10-10T11:20:31Z</time>
</trkpt>
<trkpt lat="37.963965" lon="-1.050812">
 <ele>275.200000</ele>
<time>2009-10-10T11:20:32Z</time>
</trkpt>
<trkpt lat="37.963965" lon="-1.050812">
 <ele>275.200000</ele>
<time>2009-10-10T11:20:33Z</time>
</trkpt>
<trkpt lat="37.963965" lon="-1.050812">
 <ele>275.200000</ele>
<time>2009-10-10T11:20:34Z</time>
</trkpt>
<trkpt lat="37.963965" lon="-1.050812">
 <ele>275.200000</ele>
<time>2009-10-10T11:20:35Z</time>
</trkpt>
<trkpt lat="37.963965" lon="-1.050812">
 <ele>275.200000</ele>
<time>2009-10-10T11:20:36Z</time>
</trkpt>
<trkpt lat="37.963965" lon="-1.050812">
 <ele>275.200000</ele>
<time>2009-10-10T11:20:37Z</time>
</trkpt>
<trkpt lat="37.963965" lon="-1.050812">
 <ele>275.200000</ele>
<time>2009-10-10T11:20:38Z</time>
</trkpt>
<trkpt lat="37.963965" lon="-1.050812">
 <ele>275.200000</ele>
<time>2009-10-10T11:20:39Z</time>
</trkpt>
<trkpt lat="37.963965" lon="-1.050812">
 <ele>275.200000</ele>
<time>2009-10-10T11:20:40Z</time>
</trkpt>
<trkpt lat="37.963965" lon="-1.050812">
 <ele>275.200000</ele>
<time>2009-10-10T11:20:41Z</time>
</trkpt>
<trkpt lat="37.963965" lon="-1.050812">
 <ele>275.200000</ele>
<time>2009-10-10T11:20:42Z</time>
</trkpt>
<trkpt lat="37.963965" lon="-1.050812">
 <ele>275.200000</ele>
<time>2009-10-10T11:20:43Z</time>
</trkpt>
<trkpt lat="37.963965" lon="-1.050812">
 <ele>275.200000</ele>
<time>2009-10-10T11:20:44Z</time>
</trkpt>
<trkpt lat="37.963965" lon="-1.050812">
 <ele>275.200000</ele>
<time>2009-10-10T11:20:45Z</time>
</trkpt>
<trkpt lat="37.963965" lon="-1.050812">
 <ele>275.200000</ele>
<time>2009-10-10T11:20:46Z</time>
</trkpt>
<trkpt lat="37.963965" lon="-1.050812">
 <ele>275.200000</ele>
<time>2009-10-10T11:20:47Z</time>
</trkpt>
<trkpt lat="37.963965" lon="-1.050812">
 <ele>275.200000</ele>
<time>2009-10-10T11:20:48Z</time>
</trkpt>
<trkpt lat="37.963961" lon="-1.050820">
 <ele>276.480000</ele>
<time>2009-10-10T11:20:49Z</time>
</trkpt>
<trkpt lat="37.963945" lon="-1.050845">
 <ele>281.260000</ele>
<time>2009-10-10T11:20:53Z</time>
</trkpt>
<trkpt lat="37.963941" lon="-1.050844">
 <ele>279.300000</ele>
<time>2009-10-10T11:20:54Z</time>
</trkpt>
<trkpt lat="37.963950" lon="-1.050837">
 <ele>279.020000</ele>
<time>2009-10-10T11:20:55Z</time>
</trkpt>
<trkpt lat="37.963934" lon="-1.050860">
 <ele>279.900000</ele>
<time>2009-10-10T11:20:56Z</time>
</trkpt>
<trkpt lat="37.963931" lon="-1.050866">
 <ele>279.740000</ele>
<time>2009-10-10T11:20:59Z</time>
</trkpt>
<trkpt lat="37.963924" lon="-1.050894">
 <ele>279.080000</ele>
<time>2009-10-10T11:21:01Z</time>
</trkpt>
<trkpt lat="37.963929" lon="-1.050968">
 <ele>282.120000</ele>
<time>2009-10-10T11:21:09Z</time>
</trkpt>
<trkpt lat="37.963930" lon="-1.050998">
 <ele>280.260000</ele>
<time>2009-10-10T11:21:13Z</time>
</trkpt>
<trkpt lat="37.963932" lon="-1.051007">
 <ele>280.220000</ele>
<time>2009-10-10T11:21:14Z</time>
</trkpt>
<trkpt lat="37.963935" lon="-1.051015">
 <ele>280.200000</ele>
<time>2009-10-10T11:21:15Z</time>
</trkpt>
<trkpt lat="37.963939" lon="-1.051007">
 <ele>279.440000</ele>
<time>2009-10-10T11:21:16Z</time>
</trkpt>
<trkpt lat="37.963939" lon="-1.051013">
 <ele>280.120000</ele>
<time>2009-10-10T11:21:17Z</time>
</trkpt>
<trkpt lat="37.963940" lon="-1.051010">
 <ele>279.200000</ele>
<time>2009-10-10T11:21:18Z</time>
</trkpt>
<trkpt lat="37.963943" lon="-1.051022">
 <ele>278.920000</ele>
<time>2009-10-10T11:21:19Z</time>
</trkpt>
<trkpt lat="37.963951" lon="-1.051069">
 <ele>275.020000</ele>
<time>2009-10-10T11:21:23Z</time>
</trkpt>
<trkpt lat="37.963955" lon="-1.051108">
 <ele>277.840000</ele>
<time>2009-10-10T11:21:24Z</time>
</trkpt>
<trkpt lat="37.963926" lon="-1.051285">
 <ele>271.040000</ele>
<time>2009-10-10T11:21:39Z</time>
</trkpt>
<trkpt lat="37.963873" lon="-1.051304">
 <ele>270.000000</ele>
<time>2009-10-10T11:21:42Z</time>
</trkpt>
<trkpt lat="37.963858" lon="-1.051326">
 <ele>270.340000</ele>
<time>2009-10-10T11:21:44Z</time>
</trkpt>
<trkpt lat="37.963832" lon="-1.051347">
 <ele>270.760000</ele>
<time>2009-10-10T11:21:47Z</time>
</trkpt>
<trkpt lat="37.963806" lon="-1.051350">
 <ele>271.080000</ele>
<time>2009-10-10T11:21:51Z</time>
</trkpt>
<trkpt lat="37.963807" lon="-1.051352">
 <ele>271.360000</ele>
<time>2009-10-10T11:21:52Z</time>
</trkpt>
<trkpt lat="37.963804" lon="-1.051351">
 <ele>272.740000</ele>
<time>2009-10-10T11:21:53Z</time>
</trkpt>
<trkpt lat="37.963678" lon="-1.051363">
 <ele>271.720000</ele>
<time>2009-10-10T11:21:59Z</time>
</trkpt>
<trkpt lat="37.963636" lon="-1.051339">
 <ele>269.680000</ele>
<time>2009-10-10T11:22:03Z</time>
</trkpt>
<trkpt lat="37.963621" lon="-1.051332">
 <ele>268.820000</ele>
<time>2009-10-10T11:22:05Z</time>
</trkpt>
<trkpt lat="37.963614" lon="-1.051304">
 <ele>269.560000</ele>
<time>2009-10-10T11:22:08Z</time>
</trkpt>
<trkpt lat="37.963593" lon="-1.051282">
 <ele>271.920000</ele>
<time>2009-10-10T11:22:10Z</time>
</trkpt>
<trkpt lat="37.963462" lon="-1.051158">
 <ele>277.260000</ele>
<time>2009-10-10T11:22:25Z</time>
</trkpt>
<trkpt lat="37.963465" lon="-1.051165">
 <ele>278.080000</ele>
<time>2009-10-10T11:22:26Z</time>
</trkpt>
<trkpt lat="37.963462" lon="-1.051161">
 <ele>278.640000</ele>
<time>2009-10-10T11:22:27Z</time>
</trkpt>
<trkpt lat="37.963459" lon="-1.051145">
 <ele>278.160000</ele>
<time>2009-10-10T11:22:29Z</time>
</trkpt>
<trkpt lat="37.963455" lon="-1.051155">
 <ele>278.720000</ele>
<time>2009-10-10T11:22:30Z</time>
</trkpt>
<trkpt lat="37.963464" lon="-1.051156">
 <ele>278.640000</ele>
<time>2009-10-10T11:22:31Z</time>
</trkpt>
<trkpt lat="37.963450" lon="-1.051148">
 <ele>278.080000</ele>
<time>2009-10-10T11:22:32Z</time>
</trkpt>
<trkpt lat="37.963411" lon="-1.051125">
 <ele>270.620000</ele>
<time>2009-10-10T11:22:37Z</time>
</trkpt>
<trkpt lat="37.963371" lon="-1.051127">
 <ele>270.480000</ele>
<time>2009-10-10T11:22:41Z</time>
</trkpt>
<trkpt lat="37.963382" lon="-1.051112">
 <ele>271.080000</ele>
<time>2009-10-10T11:22:42Z</time>
</trkpt>
<trkpt lat="37.963389" lon="-1.051113">
 <ele>270.660000</ele>
<time>2009-10-10T11:22:43Z</time>
</trkpt>
<trkpt lat="37.963375" lon="-1.051112">
 <ele>270.560000</ele>
<time>2009-10-10T11:22:44Z</time>
</trkpt>
<trkpt lat="37.963245" lon="-1.051146">
 <ele>269.400000</ele>
<time>2009-10-10T11:22:54Z</time>
</trkpt>
<trkpt lat="37.963240" lon="-1.051138">
 <ele>269.620000</ele>
<time>2009-10-10T11:22:55Z</time>
</trkpt>
<trkpt lat="37.963212" lon="-1.051153">
 <ele>270.220000</ele>
<time>2009-10-10T11:22:57Z</time>
</trkpt>
<trkpt lat="37.963133" lon="-1.051177">
 <ele>269.860000</ele>
<time>2009-10-10T11:23:02Z</time>
</trkpt>
<trkpt lat="37.963112" lon="-1.051180">
 <ele>268.420000</ele>
<time>2009-10-10T11:23:05Z</time>
</trkpt>
<trkpt lat="37.963108" lon="-1.051184">
 <ele>268.440000</ele>
<time>2009-10-10T11:23:06Z</time>
</trkpt>
<trkpt lat="37.963078" lon="-1.051190">
 <ele>264.620000</ele>
<time>2009-10-10T11:23:10Z</time>
</trkpt>
<trkpt lat="37.963059" lon="-1.051195">
 <ele>264.140000</ele>
<time>2009-10-10T11:23:11Z</time>
</trkpt>
<trkpt lat="37.963034" lon="-1.051219">
 <ele>265.340000</ele>
<time>2009-10-10T11:23:15Z</time>
</trkpt>
<trkpt lat="37.963000" lon="-1.051235">
 <ele>265.260000</ele>
<time>2009-10-10T11:23:17Z</time>
</trkpt>
<trkpt lat="37.962935" lon="-1.051277">
 <ele>263.300000</ele>
<time>2009-10-10T11:23:23Z</time>
</trkpt>
<trkpt lat="37.962930" lon="-1.051274">
 <ele>264.280000</ele>
<time>2009-10-10T11:23:24Z</time>
</trkpt>
<trkpt lat="37.962933" lon="-1.051271">
 <ele>264.640000</ele>
<time>2009-10-10T11:23:25Z</time>
</trkpt>
<trkpt lat="37.962930" lon="-1.051275">
 <ele>264.800000</ele>
<time>2009-10-10T11:23:26Z</time>
</trkpt>
<trkpt lat="37.962933" lon="-1.051274">
 <ele>265.120000</ele>
<time>2009-10-10T11:23:27Z</time>
</trkpt>
<trkpt lat="37.962930" lon="-1.051275">
 <ele>265.440000</ele>
<time>2009-10-10T11:23:28Z</time>
</trkpt>
<trkpt lat="37.962930" lon="-1.051275">
 <ele>264.800000</ele>
<time>2009-10-10T11:23:29Z</time>
</trkpt>
<trkpt lat="37.962923" lon="-1.051279">
 <ele>267.040000</ele>
<time>2009-10-10T11:23:32Z</time>
</trkpt>
<trkpt lat="37.962887" lon="-1.051301">
 <ele>276.560000</ele>
<time>2009-10-10T11:23:36Z</time>
</trkpt>
<trkpt lat="37.962868" lon="-1.051311">
 <ele>272.560000</ele>
<time>2009-10-10T11:23:37Z</time>
</trkpt>
<trkpt lat="37.962838" lon="-1.051338">
 <ele>271.540000</ele>
<time>2009-10-10T11:23:41Z</time>
</trkpt>
<trkpt lat="37.962804" lon="-1.051374">
 <ele>270.740000</ele>
<time>2009-10-10T11:23:44Z</time>
</trkpt>
<trkpt lat="37.962781" lon="-1.051387">
 <ele>272.240000</ele>
<time>2009-10-10T11:23:47Z</time>
</trkpt>
<trkpt lat="37.962780" lon="-1.051385">
 <ele>271.960000</ele>
<time>2009-10-10T11:23:48Z</time>
</trkpt>
<trkpt lat="37.962778" lon="-1.051401">
 <ele>270.320000</ele>
<time>2009-10-10T11:23:49Z</time>
</trkpt>
<trkpt lat="37.962757" lon="-1.051407">
 <ele>271.840000</ele>
<time>2009-10-10T11:23:50Z</time>
</trkpt>
<trkpt lat="37.962762" lon="-1.051399">
 <ele>271.820000</ele>
<time>2009-10-10T11:23:51Z</time>
</trkpt>
<trkpt lat="37.962752" lon="-1.051403">
 <ele>270.680000</ele>
<time>2009-10-10T11:23:52Z</time>
</trkpt>
<trkpt lat="37.962716" lon="-1.051455">
 <ele>269.860000</ele>
<time>2009-10-10T11:23:55Z</time>
</trkpt>
<trkpt lat="37.962635" lon="-1.051508">
 <ele>272.980000</ele>
<time>2009-10-10T11:23:59Z</time>
</trkpt>
<trkpt lat="37.962642" lon="-1.051525">
 <ele>274.940000</ele>
<time>2009-10-10T11:24:01Z</time>
</trkpt>
<trkpt lat="37.962645" lon="-1.051521">
 <ele>274.480000</ele>
<time>2009-10-10T11:24:02Z</time>
</trkpt>
<trkpt lat="37.962635" lon="-1.051536">
 <ele>275.520000</ele>
<time>2009-10-10T11:24:03Z</time>
</trkpt>
<trkpt lat="37.962632" lon="-1.051530">
 <ele>274.840000</ele>
<time>2009-10-10T11:24:04Z</time>
</trkpt>
<trkpt lat="37.962587" lon="-1.051541">
 <ele>275.820000</ele>
<time>2009-10-10T11:24:06Z</time>
</trkpt>
<trkpt lat="37.962589" lon="-1.051536">
 <ele>275.140000</ele>
<time>2009-10-10T11:24:07Z</time>
</trkpt>
<trkpt lat="37.962570" lon="-1.051539">
 <ele>275.680000</ele>
<time>2009-10-10T11:24:08Z</time>
</trkpt>
<trkpt lat="37.962488" lon="-1.051497">
 <ele>273.140000</ele>
<time>2009-10-10T11:24:18Z</time>
</trkpt>
<trkpt lat="37.962451" lon="-1.051499">
 <ele>273.080000</ele>
<time>2009-10-10T11:24:21Z</time>
</trkpt>
<trkpt lat="37.962431" lon="-1.051499">
 <ele>272.960000</ele>
<time>2009-10-10T11:24:22Z</time>
</trkpt>
<trkpt lat="37.962340" lon="-1.051469">
 <ele>273.700000</ele>
<time>2009-10-10T11:24:31Z</time>
</trkpt>
<trkpt lat="37.962324" lon="-1.051469">
 <ele>273.240000</ele>
<time>2009-10-10T11:24:32Z</time>
</trkpt>
<trkpt lat="37.962288" lon="-1.051468">
 <ele>271.040000</ele>
<time>2009-10-10T11:24:35Z</time>
</trkpt>
<trkpt lat="37.962280" lon="-1.051456">
 <ele>270.720000</ele>
<time>2009-10-10T11:24:36Z</time>
</trkpt>
<trkpt lat="37.962218" lon="-1.051448">
 <ele>267.380000</ele>
<time>2009-10-10T11:24:42Z</time>
</trkpt>
<trkpt lat="37.962161" lon="-1.051438">
 <ele>265.300000</ele>
<time>2009-10-10T11:24:49Z</time>
</trkpt>
<trkpt lat="37.962161" lon="-1.051438">
 <ele>265.560000</ele>
<time>2009-10-10T11:24:50Z</time>
</trkpt>
<trkpt lat="37.962115" lon="-1.051465">
 <ele>268.240000</ele>
<time>2009-10-10T11:24:54Z</time>
</trkpt>
<trkpt lat="37.962080" lon="-1.051469">
 <ele>266.860000</ele>
<time>2009-10-10T11:24:57Z</time>
</trkpt>
<trkpt lat="37.962050" lon="-1.051476">
 <ele>267.200000</ele>
<time>2009-10-10T11:24:59Z</time>
</trkpt>
<trkpt lat="37.962003" lon="-1.051460">
 <ele>267.740000</ele>
<time>2009-10-10T11:25:04Z</time>
</trkpt>
<trkpt lat="37.961951" lon="-1.051405">
 <ele>267.180000</ele>
<time>2009-10-10T11:25:10Z</time>
</trkpt>
<trkpt lat="37.961849" lon="-1.051296">
 <ele>264.320000</ele>
<time>2009-10-10T11:25:22Z</time>
</trkpt>
<trkpt lat="37.961828" lon="-1.051299">
 <ele>262.520000</ele>
<time>2009-10-10T11:25:27Z</time>
</trkpt>
<trkpt lat="37.961787" lon="-1.051338">
 <ele>264.840000</ele>
<time>2009-10-10T11:25:31Z</time>
</trkpt>
<trkpt lat="37.961789" lon="-1.051356">
 <ele>265.560000</ele>
<time>2009-10-10T11:25:33Z</time>
</trkpt>
<trkpt lat="37.961780" lon="-1.051354">
 <ele>266.140000</ele>
<time>2009-10-10T11:25:34Z</time>
</trkpt>
<trkpt lat="37.961749" lon="-1.051384">
 <ele>267.300000</ele>
<time>2009-10-10T11:25:36Z</time>
</trkpt>
<trkpt lat="37.961739" lon="-1.051408">
 <ele>268.980000</ele>
<time>2009-10-10T11:25:38Z</time>
</trkpt>
<trkpt lat="37.961714" lon="-1.051413">
 <ele>269.780000</ele>
<time>2009-10-10T11:25:39Z</time>
</trkpt>
<trkpt lat="37.961709" lon="-1.051447">
 <ele>274.260000</ele>
<time>2009-10-10T11:25:42Z</time>
</trkpt>
<trkpt lat="37.961721" lon="-1.051436">
 <ele>274.240000</ele>
<time>2009-10-10T11:25:43Z</time>
</trkpt>
<trkpt lat="37.961709" lon="-1.051438">
 <ele>274.400000</ele>
<time>2009-10-10T11:25:44Z</time>
</trkpt>
<trkpt lat="37.961663" lon="-1.051485">
 <ele>280.160000</ele>
<time>2009-10-10T11:25:47Z</time>
</trkpt>
<trkpt lat="37.961596" lon="-1.051586">
 <ele>285.780000</ele>
<time>2009-10-10T11:25:55Z</time>
</trkpt>
<trkpt lat="37.961582" lon="-1.051600">
 <ele>286.740000</ele>
<time>2009-10-10T11:25:56Z</time>
</trkpt>
<trkpt lat="37.961497" lon="-1.051735">
 <ele>282.660000</ele>
<time>2009-10-10T11:26:10Z</time>
</trkpt>
<trkpt lat="37.961494" lon="-1.051744">
 <ele>282.200000</ele>
<time>2009-10-10T11:26:11Z</time>
</trkpt>
<trkpt lat="37.961482" lon="-1.051763">
 <ele>274.720000</ele>
<time>2009-10-10T11:26:15Z</time>
</trkpt>
<trkpt lat="37.961488" lon="-1.051761">
 <ele>272.660000</ele>
<time>2009-10-10T11:26:16Z</time>
</trkpt>
<trkpt lat="37.961493" lon="-1.051761">
 <ele>271.220000</ele>
<time>2009-10-10T11:26:17Z</time>
</trkpt>
<trkpt lat="37.961504" lon="-1.051756">
 <ele>270.440000</ele>
<time>2009-10-10T11:26:18Z</time>
</trkpt>
<trkpt lat="37.961509" lon="-1.051763">
 <ele>270.480000</ele>
<time>2009-10-10T11:26:19Z</time>
</trkpt>
<trkpt lat="37.961509" lon="-1.051767">
 <ele>271.240000</ele>
<time>2009-10-10T11:26:20Z</time>
</trkpt>
<trkpt lat="37.961508" lon="-1.051763">
 <ele>270.280000</ele>
<time>2009-10-10T11:26:21Z</time>
</trkpt>
<trkpt lat="37.961508" lon="-1.051763">
 <ele>271.400000</ele>
<time>2009-10-10T11:26:22Z</time>
</trkpt>
<trkpt lat="37.961505" lon="-1.051774">
 <ele>268.040000</ele>
<time>2009-10-10T11:26:26Z</time>
</trkpt>
<trkpt lat="37.961448" lon="-1.051835">
 <ele>263.380000</ele>
<time>2009-10-10T11:26:35Z</time>
</trkpt>
<trkpt lat="37.961452" lon="-1.051826">
 <ele>263.320000</ele>
<time>2009-10-10T11:26:36Z</time>
</trkpt>
<trkpt lat="37.961448" lon="-1.051827">
 <ele>264.300000</ele>
<time>2009-10-10T11:26:37Z</time>
</trkpt>
<trkpt lat="37.961366" lon="-1.051871">
 <ele>266.460000</ele>
<time>2009-10-10T11:26:43Z</time>
</trkpt>
<trkpt lat="37.961357" lon="-1.051880">
 <ele>266.500000</ele>
<time>2009-10-10T11:26:44Z</time>
</trkpt>
<trkpt lat="37.961343" lon="-1.051887">
 <ele>265.760000</ele>
<time>2009-10-10T11:26:45Z</time>
</trkpt>
<trkpt lat="37.961337" lon="-1.051887">
 <ele>266.120000</ele>
<time>2009-10-10T11:26:46Z</time>
</trkpt>
<trkpt lat="37.961335" lon="-1.051890">
 <ele>266.040000</ele>
<time>2009-10-10T11:26:47Z</time>
</trkpt>
<trkpt lat="37.961335" lon="-1.051890">
 <ele>266.200000</ele>
<time>2009-10-10T11:26:48Z</time>
</trkpt>
<trkpt lat="37.961322" lon="-1.051897">
 <ele>265.320000</ele>
<time>2009-10-10T11:26:54Z</time>
</trkpt>
<trkpt lat="37.961276" lon="-1.051917">
 <ele>263.220000</ele>
<time>2009-10-10T11:26:58Z</time>
</trkpt>
<trkpt lat="37.961264" lon="-1.051907">
 <ele>261.920000</ele>
<time>2009-10-10T11:26:59Z</time>
</trkpt>
<trkpt lat="37.961246" lon="-1.051909">
 <ele>263.980000</ele>
<time>2009-10-10T11:27:00Z</time>
</trkpt>
<trkpt lat="37.961264" lon="-1.051940">
 <ele>262.580000</ele>
<time>2009-10-10T11:27:01Z</time>
</trkpt>
<trkpt lat="37.961262" lon="-1.051930">
 <ele>263.160000</ele>
<time>2009-10-10T11:27:02Z</time>
</trkpt>
<trkpt lat="37.961255" lon="-1.051944">
 <ele>263.060000</ele>
<time>2009-10-10T11:27:04Z</time>
</trkpt>
<trkpt lat="37.961244" lon="-1.051976">
 <ele>264.460000</ele>
<time>2009-10-10T11:27:06Z</time>
</trkpt>
<trkpt lat="37.961233" lon="-1.051959">
 <ele>264.740000</ele>
<time>2009-10-10T11:27:07Z</time>
</trkpt>
<trkpt lat="37.961188" lon="-1.051958">
 <ele>265.540000</ele>
<time>2009-10-10T11:27:09Z</time>
</trkpt>
<trkpt lat="37.961159" lon="-1.051953">
 <ele>267.660000</ele>
<time>2009-10-10T11:27:12Z</time>
</trkpt>
<trkpt lat="37.961136" lon="-1.051965">
 <ele>269.520000</ele>
<time>2009-10-10T11:27:14Z</time>
</trkpt>
<trkpt lat="37.961139" lon="-1.051951">
 <ele>269.920000</ele>
<time>2009-10-10T11:27:15Z</time>
</trkpt>
<trkpt lat="37.961128" lon="-1.051958">
 <ele>269.380000</ele>
<time>2009-10-10T11:27:16Z</time>
</trkpt>
<trkpt lat="37.961135" lon="-1.051965">
 <ele>270.660000</ele>
<time>2009-10-10T11:27:17Z</time>
</trkpt>
<trkpt lat="37.961128" lon="-1.051960">
 <ele>268.980000</ele>
<time>2009-10-10T11:27:18Z</time>
</trkpt>
<trkpt lat="37.961128" lon="-1.051960">
 <ele>269.300000</ele>
<time>2009-10-10T11:27:19Z</time>
</trkpt>
<trkpt lat="37.961115" lon="-1.051978">
 <ele>270.180000</ele>
<time>2009-10-10T11:27:29Z</time>
</trkpt>
<trkpt lat="37.961024" lon="-1.052142">
 <ele>282.140000</ele>
<time>2009-10-10T11:27:40Z</time>
</trkpt>
<trkpt lat="37.961029" lon="-1.052144">
 <ele>283.820000</ele>
<time>2009-10-10T11:27:41Z</time>
</trkpt>
<trkpt lat="37.961021" lon="-1.052139">
 <ele>283.960000</ele>
<time>2009-10-10T11:27:42Z</time>
</trkpt>
<trkpt lat="37.961019" lon="-1.052130">
 <ele>282.500000</ele>
<time>2009-10-10T11:27:43Z</time>
</trkpt>
<trkpt lat="37.961018" lon="-1.052140">
 <ele>284.420000</ele>
<time>2009-10-10T11:27:44Z</time>
</trkpt>
<trkpt lat="37.961018" lon="-1.052140">
 <ele>282.900000</ele>
<time>2009-10-10T11:27:45Z</time>
</trkpt>
<trkpt lat="37.961031" lon="-1.052165">
 <ele>279.900000</ele>
<time>2009-10-10T11:27:53Z</time>
</trkpt>
<trkpt lat="37.961060" lon="-1.052243">
 <ele>269.580000</ele>
<time>2009-10-10T11:27:55Z</time>
</trkpt>
<trkpt lat="37.961162" lon="-1.052397">
 <ele>260.260000</ele>
<time>2009-10-10T11:28:03Z</time>
</trkpt>
<trkpt lat="37.961262" lon="-1.052571">
 <ele>241.840000</ele>
<time>2009-10-10T11:28:15Z</time>
</trkpt>
<trkpt lat="37.961276" lon="-1.052738">
 <ele>231.160000</ele>
<time>2009-10-10T11:28:27Z</time>
</trkpt>
<trkpt lat="37.961117" lon="-1.052827">
 <ele>229.480000</ele>
<time>2009-10-10T11:28:35Z</time>
</trkpt>
<trkpt lat="37.960918" lon="-1.052823">
 <ele>211.860000</ele>
<time>2009-10-10T11:28:47Z</time>
</trkpt>
<trkpt lat="37.960910" lon="-1.052793">
 <ele>211.940000</ele>
<time>2009-10-10T11:28:50Z</time>
</trkpt>
<trkpt lat="37.960907" lon="-1.052786">
 <ele>213.240000</ele>
<time>2009-10-10T11:28:51Z</time>
</trkpt>
<trkpt lat="37.960823" lon="-1.052695">
 <ele>222.060000</ele>
<time>2009-10-10T11:29:03Z</time>
</trkpt>
<trkpt lat="37.960660" lon="-1.052724">
 <ele>230.680000</ele>
<time>2009-10-10T11:29:18Z</time>
</trkpt>
<trkpt lat="37.960625" lon="-1.052755">
 <ele>231.400000</ele>
<time>2009-10-10T11:29:21Z</time>
</trkpt>
<trkpt lat="37.960629" lon="-1.052771">
 <ele>232.220000</ele>
<time>2009-10-10T11:29:24Z</time>
</trkpt>
<trkpt lat="37.960623" lon="-1.052773">
 <ele>233.260000</ele>
<time>2009-10-10T11:29:25Z</time>
</trkpt>
<trkpt lat="37.960579" lon="-1.052836">
 <ele>234.020000</ele>
<time>2009-10-10T11:29:30Z</time>
</trkpt>
<trkpt lat="37.960538" lon="-1.052878">
 <ele>234.940000</ele>
<time>2009-10-10T11:29:36Z</time>
</trkpt>
<trkpt lat="37.960427" lon="-1.052995">
 <ele>234.260000</ele>
<time>2009-10-10T11:29:49Z</time>
</trkpt>
<trkpt lat="37.960332" lon="-1.053126">
 <ele>237.500000</ele>
<time>2009-10-10T11:30:05Z</time>
</trkpt>
<trkpt lat="37.960357" lon="-1.053228">
 <ele>232.820000</ele>
<time>2009-10-10T11:30:14Z</time>
</trkpt>
<trkpt lat="37.960478" lon="-1.053386">
 <ele>242.480000</ele>
<time>2009-10-10T11:30:34Z</time>
</trkpt>
<trkpt lat="37.960846" lon="-1.053873">
 <ele>237.260000</ele>
<time>2009-10-10T11:31:21Z</time>
</trkpt>
<trkpt lat="37.960870" lon="-1.053923">
 <ele>234.360000</ele>
<time>2009-10-10T11:31:25Z</time>
</trkpt>
<trkpt lat="37.960871" lon="-1.053976">
 <ele>234.340000</ele>
<time>2009-10-10T11:31:28Z</time>
</trkpt>
<trkpt lat="37.960895" lon="-1.054105">
 <ele>230.880000</ele>
<time>2009-10-10T11:31:37Z</time>
</trkpt>
<trkpt lat="37.960906" lon="-1.054116">
 <ele>231.500000</ele>
<time>2009-10-10T11:31:40Z</time>
</trkpt>
<trkpt lat="37.960917" lon="-1.054146">
 <ele>231.760000</ele>
<time>2009-10-10T11:31:42Z</time>
</trkpt>
<trkpt lat="37.960978" lon="-1.054208">
 <ele>231.300000</ele>
<time>2009-10-10T11:31:49Z</time>
</trkpt>
<trkpt lat="37.961073" lon="-1.054281">
 <ele>232.300000</ele>
<time>2009-10-10T11:31:58Z</time>
</trkpt>
<trkpt lat="37.961175" lon="-1.054455">
 <ele>234.160000</ele>
<time>2009-10-10T11:32:14Z</time>
</trkpt>
<trkpt lat="37.961085" lon="-1.054601">
 <ele>239.600000</ele>
<time>2009-10-10T11:32:27Z</time>
</trkpt>
<trkpt lat="37.960999" lon="-1.054681">
 <ele>233.360000</ele>
<time>2009-10-10T11:32:34Z</time>
</trkpt>
<trkpt lat="37.960851" lon="-1.055022">
 <ele>237.160000</ele>
<time>2009-10-10T11:33:03Z</time>
</trkpt>
<trkpt lat="37.960820" lon="-1.055171">
 <ele>244.060000</ele>
<time>2009-10-10T11:33:14Z</time>
</trkpt>
<trkpt lat="37.960824" lon="-1.055219">
 <ele>243.640000</ele>
<time>2009-10-10T11:33:18Z</time>
</trkpt>
<trkpt lat="37.960790" lon="-1.055404">
 <ele>239.900000</ele>
<time>2009-10-10T11:33:32Z</time>
</trkpt>
<trkpt lat="37.960788" lon="-1.055558">
 <ele>238.060000</ele>
<time>2009-10-10T11:33:44Z</time>
</trkpt>
<trkpt lat="37.960785" lon="-1.055553">
 <ele>240.180000</ele>
<time>2009-10-10T11:33:45Z</time>
</trkpt>
<trkpt lat="37.960784" lon="-1.055555">
 <ele>238.200000</ele>
<time>2009-10-10T11:33:46Z</time>
</trkpt>
<trkpt lat="37.960786" lon="-1.055551">
 <ele>239.700000</ele>
<time>2009-10-10T11:33:47Z</time>
</trkpt>
<trkpt lat="37.960783" lon="-1.055560">
 <ele>239.860000</ele>
<time>2009-10-10T11:33:48Z</time>
</trkpt>
<trkpt lat="37.960783" lon="-1.055560">
 <ele>239.300000</ele>
<time>2009-10-10T11:33:49Z</time>
</trkpt>
<trkpt lat="37.960785" lon="-1.055571">
 <ele>239.220000</ele>
<time>2009-10-10T11:33:55Z</time>
</trkpt>
<trkpt lat="37.960803" lon="-1.055644">
 <ele>239.340000</ele>
<time>2009-10-10T11:33:58Z</time>
</trkpt>
<trkpt lat="37.960823" lon="-1.055708">
 <ele>233.380000</ele>
<time>2009-10-10T11:34:05Z</time>
</trkpt>
<trkpt lat="37.960822" lon="-1.055710">
 <ele>234.140000</ele>
<time>2009-10-10T11:34:06Z</time>
</trkpt>
<trkpt lat="37.960841" lon="-1.055770">
 <ele>233.420000</ele>
<time>2009-10-10T11:34:10Z</time>
</trkpt>
<trkpt lat="37.960837" lon="-1.055755">
 <ele>234.220000</ele>
<time>2009-10-10T11:34:11Z</time>
</trkpt>
<trkpt lat="37.960836" lon="-1.055759">
 <ele>233.620000</ele>
<time>2009-10-10T11:34:12Z</time>
</trkpt>
<trkpt lat="37.960832" lon="-1.055749">
 <ele>235.540000</ele>
<time>2009-10-10T11:34:13Z</time>
</trkpt>
<trkpt lat="37.960840" lon="-1.055768">
 <ele>232.020000</ele>
<time>2009-10-10T11:34:14Z</time>
</trkpt>
<trkpt lat="37.960870" lon="-1.055823">
 <ele>223.460000</ele>
<time>2009-10-10T11:34:18Z</time>
</trkpt>
<trkpt lat="37.960873" lon="-1.055844">
 <ele>226.080000</ele>
<time>2009-10-10T11:34:19Z</time>
</trkpt>
<trkpt lat="37.960929" lon="-1.056086">
 <ele>224.720000</ele>
<time>2009-10-10T11:34:35Z</time>
</trkpt>
<trkpt lat="37.960928" lon="-1.056093">
 <ele>225.320000</ele>
<time>2009-10-10T11:34:36Z</time>
</trkpt>
<trkpt lat="37.960935" lon="-1.056147">
 <ele>225.480000</ele>
<time>2009-10-10T11:34:40Z</time>
</trkpt>
<trkpt lat="37.960942" lon="-1.056176">
 <ele>224.040000</ele>
<time>2009-10-10T11:34:43Z</time>
</trkpt>
<trkpt lat="37.960946" lon="-1.056228">
 <ele>223.220000</ele>
<time>2009-10-10T11:34:46Z</time>
</trkpt>
<trkpt lat="37.961011" lon="-1.056530">
 <ele>210.460000</ele>
<time>2009-10-10T11:35:07Z</time>
</trkpt>
<trkpt lat="37.961024" lon="-1.056588">
 <ele>210.300000</ele>
<time>2009-10-10T11:35:12Z</time>
</trkpt>
<trkpt lat="37.961033" lon="-1.056610">
 <ele>210.800000</ele>
<time>2009-10-10T11:35:13Z</time>
</trkpt>
<trkpt lat="37.961107" lon="-1.056701">
 <ele>211.120000</ele>
<time>2009-10-10T11:35:21Z</time>
</trkpt>
<trkpt lat="37.961210" lon="-1.056676">
 <ele>213.080000</ele>
<time>2009-10-10T11:35:33Z</time>
</trkpt>
<trkpt lat="37.961414" lon="-1.056561">
 <ele>208.240000</ele>
<time>2009-10-10T11:35:52Z</time>
</trkpt>
<trkpt lat="37.961470" lon="-1.056580">
 <ele>206.120000</ele>
<time>2009-10-10T11:35:57Z</time>
</trkpt>
<trkpt lat="37.961533" lon="-1.056768">
 <ele>216.480000</ele>
<time>2009-10-10T11:36:14Z</time>
</trkpt>
<trkpt lat="37.961539" lon="-1.056886">
 <ele>212.860000</ele>
<time>2009-10-10T11:36:22Z</time>
</trkpt>
<trkpt lat="37.961520" lon="-1.057032">
 <ele>211.400000</ele>
<time>2009-10-10T11:36:32Z</time>
</trkpt>
<trkpt lat="37.961526" lon="-1.057168">
 <ele>202.820000</ele>
<time>2009-10-10T11:36:40Z</time>
</trkpt>
<trkpt lat="37.961591" lon="-1.057418">
 <ele>200.340000</ele>
<time>2009-10-10T11:36:59Z</time>
</trkpt>
<trkpt lat="37.961620" lon="-1.057485">
 <ele>203.320000</ele>
<time>2009-10-10T11:37:08Z</time>
</trkpt>
<trkpt lat="37.961612" lon="-1.057484">
 <ele>206.040000</ele>
<time>2009-10-10T11:37:09Z</time>
</trkpt>
<trkpt lat="37.961619" lon="-1.057485">
 <ele>205.000000</ele>
<time>2009-10-10T11:37:10Z</time>
</trkpt>
<trkpt lat="37.961640" lon="-1.057529">
 <ele>206.460000</ele>
<time>2009-10-10T11:37:12Z</time>
</trkpt>
<trkpt lat="37.961645" lon="-1.057557">
 <ele>206.200000</ele>
<time>2009-10-10T11:37:14Z</time>
</trkpt>
<trkpt lat="37.961648" lon="-1.057565">
 <ele>208.540000</ele>
<time>2009-10-10T11:37:15Z</time>
</trkpt>
<trkpt lat="37.961754" lon="-1.057712">
 <ele>198.400000</ele>
<time>2009-10-10T11:37:29Z</time>
</trkpt>
<trkpt lat="37.961844" lon="-1.057824">
 <ele>199.980000</ele>
<time>2009-10-10T11:37:40Z</time>
</trkpt>
<trkpt lat="37.961858" lon="-1.057840">
 <ele>200.120000</ele>
<time>2009-10-10T11:37:42Z</time>
</trkpt>
<trkpt lat="37.961901" lon="-1.057868">
 <ele>199.120000</ele>
<time>2009-10-10T11:37:47Z</time>
</trkpt>
<trkpt lat="37.961981" lon="-1.057889">
 <ele>195.140000</ele>
<time>2009-10-10T11:37:55Z</time>
</trkpt>
<trkpt lat="37.962051" lon="-1.057942">
 <ele>195.460000</ele>
<time>2009-10-10T11:38:04Z</time>
</trkpt>
<trkpt lat="37.962057" lon="-1.057957">
 <ele>194.980000</ele>
<time>2009-10-10T11:38:05Z</time>
</trkpt>
<trkpt lat="37.962071" lon="-1.057970">
 <ele>197.020000</ele>
<time>2009-10-10T11:38:07Z</time>
</trkpt>
<trkpt lat="37.962072" lon="-1.057971">
 <ele>199.340000</ele>
<time>2009-10-10T11:38:08Z</time>
</trkpt>
<trkpt lat="37.962068" lon="-1.057979">
 <ele>200.800000</ele>
<time>2009-10-10T11:38:09Z</time>
</trkpt>
<trkpt lat="37.962103" lon="-1.058023">
 <ele>201.400000</ele>
<time>2009-10-10T11:38:14Z</time>
</trkpt>
<trkpt lat="37.962111" lon="-1.058027">
 <ele>200.400000</ele>
<time>2009-10-10T11:38:15Z</time>
</trkpt>
<trkpt lat="37.962191" lon="-1.058108">
 <ele>194.120000</ele>
<time>2009-10-10T11:38:23Z</time>
</trkpt>
<trkpt lat="37.962222" lon="-1.058132">
 <ele>190.200000</ele>
<time>2009-10-10T11:38:26Z</time>
</trkpt>
<trkpt lat="37.962241" lon="-1.058147">
 <ele>186.700000</ele>
<time>2009-10-10T11:38:27Z</time>
</trkpt>
<trkpt lat="37.962369" lon="-1.058201">
 <ele>173.400000</ele>
<time>2009-10-10T11:38:35Z</time>
</trkpt>
<trkpt lat="37.962446" lon="-1.058242">
 <ele>171.640000</ele>
<time>2009-10-10T11:38:42Z</time>
</trkpt>
<trkpt lat="37.962644" lon="-1.058535">
 <ele>166.740000</ele>
<time>2009-10-10T11:39:08Z</time>
</trkpt>
<trkpt lat="37.962708" lon="-1.058764">
 <ele>151.680000</ele>
<time>2009-10-10T11:39:25Z</time>
</trkpt>
<trkpt lat="37.962743" lon="-1.058798">
 <ele>156.620000</ele>
<time>2009-10-10T11:39:30Z</time>
</trkpt>
<trkpt lat="37.962747" lon="-1.058807">
 <ele>154.060000</ele>
<time>2009-10-10T11:39:31Z</time>
</trkpt>
<trkpt lat="37.962773" lon="-1.058814">
 <ele>159.780000</ele>
<time>2009-10-10T11:39:35Z</time>
</trkpt>
<trkpt lat="37.962868" lon="-1.058784">
 <ele>166.180000</ele>
<time>2009-10-10T11:39:50Z</time>
</trkpt>
<trkpt lat="37.962861" lon="-1.058790">
 <ele>165.280000</ele>
<time>2009-10-10T11:39:51Z</time>
</trkpt>
<trkpt lat="37.962863" lon="-1.058792">
 <ele>166.160000</ele>
<time>2009-10-10T11:39:52Z</time>
</trkpt>
<trkpt lat="37.962870" lon="-1.058785">
 <ele>165.580000</ele>
<time>2009-10-10T11:39:53Z</time>
</trkpt>
<trkpt lat="37.962924" lon="-1.058768">
 <ele>169.360000</ele>
<time>2009-10-10T11:39:58Z</time>
</trkpt>
<trkpt lat="37.962933" lon="-1.058758">
 <ele>169.620000</ele>
<time>2009-10-10T11:39:59Z</time>
</trkpt>
<trkpt lat="37.962939" lon="-1.058748">
 <ele>170.060000</ele>
<time>2009-10-10T11:40:03Z</time>
</trkpt>
<trkpt lat="37.962938" lon="-1.058750">
 <ele>169.860000</ele>
<time>2009-10-10T11:40:04Z</time>
</trkpt>
<trkpt lat="37.962939" lon="-1.058753">
 <ele>169.260000</ele>
<time>2009-10-10T11:40:05Z</time>
</trkpt>
<trkpt lat="37.962954" lon="-1.058747">
 <ele>169.300000</ele>
<time>2009-10-10T11:40:06Z</time>
</trkpt>
<trkpt lat="37.962991" lon="-1.058706">
 <ele>164.820000</ele>
<time>2009-10-10T11:40:10Z</time>
</trkpt>
<trkpt lat="37.962997" lon="-1.058699">
 <ele>166.140000</ele>
<time>2009-10-10T11:40:11Z</time>
</trkpt>
<trkpt lat="37.963118" lon="-1.058653">
 <ele>164.780000</ele>
<time>2009-10-10T11:40:21Z</time>
</trkpt>
<trkpt lat="37.963141" lon="-1.058650">
 <ele>164.840000</ele>
<time>2009-10-10T11:40:25Z</time>
</trkpt>
<trkpt lat="37.963152" lon="-1.058639">
 <ele>163.640000</ele>
<time>2009-10-10T11:40:27Z</time>
</trkpt>
<trkpt lat="37.963140" lon="-1.058644">
 <ele>165.400000</ele>
<time>2009-10-10T11:40:28Z</time>
</trkpt>
<trkpt lat="37.963149" lon="-1.058646">
 <ele>164.600000</ele>
<time>2009-10-10T11:40:29Z</time>
</trkpt>
<trkpt lat="37.963146" lon="-1.058652">
 <ele>164.280000</ele>
<time>2009-10-10T11:40:30Z</time>
</trkpt>
<trkpt lat="37.963148" lon="-1.058647">
 <ele>164.600000</ele>
<time>2009-10-10T11:40:31Z</time>
</trkpt>
<trkpt lat="37.963162" lon="-1.058654">
 <ele>162.260000</ele>
<time>2009-10-10T11:40:33Z</time>
</trkpt>
<trkpt lat="37.963191" lon="-1.058673">
 <ele>163.020000</ele>
<time>2009-10-10T11:40:36Z</time>
</trkpt>
<trkpt lat="37.963193" lon="-1.058683">
 <ele>166.300000</ele>
<time>2009-10-10T11:40:37Z</time>
</trkpt>
<trkpt lat="37.963245" lon="-1.058718">
 <ele>168.960000</ele>
<time>2009-10-10T11:40:43Z</time>
</trkpt>
<trkpt lat="37.963327" lon="-1.058764">
 <ele>169.760000</ele>
<time>2009-10-10T11:40:52Z</time>
</trkpt>
<trkpt lat="37.963574" lon="-1.058943">
 <ele>167.140000</ele>
<time>2009-10-10T11:41:17Z</time>
</trkpt>
<trkpt lat="37.963517" lon="-1.059207">
 <ele>168.160000</ele>
<time>2009-10-10T11:41:40Z</time>
</trkpt>
<trkpt lat="37.963504" lon="-1.059224">
 <ele>167.820000</ele>
<time>2009-10-10T11:41:41Z</time>
</trkpt>
<trkpt lat="37.963432" lon="-1.059256">
 <ele>172.360000</ele>
<time>2009-10-10T11:41:47Z</time>
</trkpt>
<trkpt lat="37.963375" lon="-1.059281">
 <ele>163.920000</ele>
<time>2009-10-10T11:41:54Z</time>
</trkpt>
<trkpt lat="37.963302" lon="-1.059296">
 <ele>164.760000</ele>
<time>2009-10-10T11:42:00Z</time>
</trkpt>
<trkpt lat="37.963241" lon="-1.059317">
 <ele>163.560000</ele>
<time>2009-10-10T11:42:06Z</time>
</trkpt>
<trkpt lat="37.963119" lon="-1.059333">
 <ele>166.720000</ele>
<time>2009-10-10T11:42:17Z</time>
</trkpt>
<trkpt lat="37.963101" lon="-1.059342">
 <ele>166.020000</ele>
<time>2009-10-10T11:42:18Z</time>
</trkpt>
<trkpt lat="37.963063" lon="-1.059327">
 <ele>163.020000</ele>
<time>2009-10-10T11:42:23Z</time>
</trkpt>
<trkpt lat="37.963011" lon="-1.059312">
 <ele>165.300000</ele>
<time>2009-10-10T11:42:27Z</time>
</trkpt>
<trkpt lat="37.963000" lon="-1.059315">
 <ele>166.180000</ele>
<time>2009-10-10T11:42:29Z</time>
</trkpt>
<trkpt lat="37.962986" lon="-1.059315">
 <ele>165.620000</ele>
<time>2009-10-10T11:42:30Z</time>
</trkpt>
<trkpt lat="37.962800" lon="-1.059359">
 <ele>164.240000</ele>
<time>2009-10-10T11:42:46Z</time>
</trkpt>
<trkpt lat="37.962771" lon="-1.059383">
 <ele>164.400000</ele>
<time>2009-10-10T11:42:49Z</time>
</trkpt>
<trkpt lat="37.962756" lon="-1.059392">
 <ele>164.840000</ele>
<time>2009-10-10T11:42:50Z</time>
</trkpt>
<trkpt lat="37.962720" lon="-1.059441">
 <ele>162.360000</ele>
<time>2009-10-10T11:42:55Z</time>
</trkpt>
<trkpt lat="37.962707" lon="-1.059451">
 <ele>163.600000</ele>
<time>2009-10-10T11:42:56Z</time>
</trkpt>
<trkpt lat="37.962667" lon="-1.059531">
 <ele>163.780000</ele>
<time>2009-10-10T11:43:02Z</time>
</trkpt>
<trkpt lat="37.962673" lon="-1.059559">
 <ele>163.200000</ele>
<time>2009-10-10T11:43:04Z</time>
</trkpt>
<trkpt lat="37.962677" lon="-1.059624">
 <ele>167.620000</ele>
<time>2009-10-10T11:43:09Z</time>
</trkpt>
<trkpt lat="37.962751" lon="-1.059732">
 <ele>174.360000</ele>
<time>2009-10-10T11:43:22Z</time>
</trkpt>
<trkpt lat="37.962812" lon="-1.059805">
 <ele>170.180000</ele>
<time>2009-10-10T11:43:28Z</time>
</trkpt>
<trkpt lat="37.962979" lon="-1.060083">
 <ele>162.300000</ele>
<time>2009-10-10T11:43:52Z</time>
</trkpt>
<trkpt lat="37.963085" lon="-1.060194">
 <ele>152.740000</ele>
<time>2009-10-10T11:44:02Z</time>
</trkpt>
<trkpt lat="37.963130" lon="-1.060240">
 <ele>156.860000</ele>
<time>2009-10-10T11:44:07Z</time>
</trkpt>
<trkpt lat="37.963224" lon="-1.060281">
 <ele>147.020000</ele>
<time>2009-10-10T11:44:15Z</time>
</trkpt>
<trkpt lat="37.963402" lon="-1.060194">
 <ele>137.120000</ele>
<time>2009-10-10T11:44:33Z</time>
</trkpt>
<trkpt lat="37.963408" lon="-1.060197">
 <ele>136.880000</ele>
<time>2009-10-10T11:44:34Z</time>
</trkpt>
<trkpt lat="37.963425" lon="-1.060174">
 <ele>139.040000</ele>
<time>2009-10-10T11:44:37Z</time>
</trkpt>
<trkpt lat="37.963431" lon="-1.060163">
 <ele>137.980000</ele>
<time>2009-10-10T11:44:39Z</time>
</trkpt>
<trkpt lat="37.963436" lon="-1.060154">
 <ele>137.280000</ele>
<time>2009-10-10T11:44:40Z</time>
</trkpt>
<trkpt lat="37.963438" lon="-1.060156">
 <ele>138.380000</ele>
<time>2009-10-10T11:44:41Z</time>
</trkpt>
<trkpt lat="37.963436" lon="-1.060164">
 <ele>136.720000</ele>
<time>2009-10-10T11:44:42Z</time>
</trkpt>
<trkpt lat="37.963436" lon="-1.060161">
 <ele>137.900000</ele>
<time>2009-10-10T11:44:43Z</time>
</trkpt>
<trkpt lat="37.963437" lon="-1.060158">
 <ele>137.100000</ele>
<time>2009-10-10T11:44:44Z</time>
</trkpt>
<trkpt lat="37.963484" lon="-1.060109">
 <ele>137.400000</ele>
<time>2009-10-10T11:44:48Z</time>
</trkpt>
<trkpt lat="37.963505" lon="-1.060097">
 <ele>137.320000</ele>
<time>2009-10-10T11:44:53Z</time>
</trkpt>
<trkpt lat="37.963538" lon="-1.060089">
 <ele>136.800000</ele>
<time>2009-10-10T11:44:54Z</time>
</trkpt>
<trkpt lat="37.963573" lon="-1.060108">
 <ele>136.740000</ele>
<time>2009-10-10T11:44:58Z</time>
</trkpt>
<trkpt lat="37.963587" lon="-1.060089">
 <ele>137.600000</ele>
<time>2009-10-10T11:44:59Z</time>
</trkpt>
<trkpt lat="37.963627" lon="-1.060088">
 <ele>136.840000</ele>
<time>2009-10-10T11:45:02Z</time>
</trkpt>
<trkpt lat="37.963644" lon="-1.060093">
 <ele>135.420000</ele>
<time>2009-10-10T11:45:04Z</time>
</trkpt>
<trkpt lat="37.963655" lon="-1.060101">
 <ele>136.140000</ele>
<time>2009-10-10T11:45:05Z</time>
</trkpt>
<trkpt lat="37.963716" lon="-1.060195">
 <ele>141.580000</ele>
<time>2009-10-10T11:45:14Z</time>
</trkpt>
<trkpt lat="37.963853" lon="-1.060411">
 <ele>146.140000</ele>
<time>2009-10-10T11:45:32Z</time>
</trkpt>
<trkpt lat="37.964000" lon="-1.060670">
 <ele>147.500000</ele>
<time>2009-10-10T11:45:56Z</time>
</trkpt>
<trkpt lat="37.964002" lon="-1.060662">
 <ele>147.640000</ele>
<time>2009-10-10T11:45:57Z</time>
</trkpt>
<trkpt lat="37.963997" lon="-1.060656">
 <ele>147.920000</ele>
<time>2009-10-10T11:45:58Z</time>
</trkpt>
<trkpt lat="37.963999" lon="-1.060673">
 <ele>144.400000</ele>
<time>2009-10-10T11:45:59Z</time>
</trkpt>
<trkpt lat="37.963998" lon="-1.060673">
 <ele>147.400000</ele>
<time>2009-10-10T11:46:00Z</time>
</trkpt>
<trkpt lat="37.964001" lon="-1.060678">
 <ele>143.680000</ele>
<time>2009-10-10T11:46:01Z</time>
</trkpt>
<trkpt lat="37.963984" lon="-1.060747">
 <ele>145.060000</ele>
<time>2009-10-10T11:46:04Z</time>
</trkpt>
<trkpt lat="37.964006" lon="-1.060835">
 <ele>143.000000</ele>
<time>2009-10-10T11:46:10Z</time>
</trkpt>
<trkpt lat="37.964001" lon="-1.060903">
 <ele>148.120000</ele>
<time>2009-10-10T11:46:15Z</time>
</trkpt>
<trkpt lat="37.964056" lon="-1.061140">
 <ele>151.000000</ele>
<time>2009-10-10T11:46:36Z</time>
</trkpt>
<trkpt lat="37.964046" lon="-1.061135">
 <ele>147.900000</ele>
<time>2009-10-10T11:46:37Z</time>
</trkpt>
<trkpt lat="37.964053" lon="-1.061147">
 <ele>149.620000</ele>
<time>2009-10-10T11:46:38Z</time>
</trkpt>
<trkpt lat="37.964050" lon="-1.061150">
 <ele>149.140000</ele>
<time>2009-10-10T11:46:39Z</time>
</trkpt>
<trkpt lat="37.964053" lon="-1.061150">
 <ele>148.340000</ele>
<time>2009-10-10T11:46:40Z</time>
</trkpt>
<trkpt lat="37.964053" lon="-1.061150">
 <ele>149.300000</ele>
<time>2009-10-10T11:46:41Z</time>
</trkpt>
<trkpt lat="37.964056" lon="-1.061157">
 <ele>145.460000</ele>
<time>2009-10-10T11:46:46Z</time>
</trkpt>
<trkpt lat="37.964073" lon="-1.061167">
 <ele>146.420000</ele>
<time>2009-10-10T11:46:49Z</time>
</trkpt>
<trkpt lat="37.964059" lon="-1.061188">
 <ele>131.500000</ele>
<time>2009-10-10T11:46:50Z</time>
</trkpt>
<trkpt lat="37.964061" lon="-1.061192">
 <ele>139.220000</ele>
<time>2009-10-10T11:46:51Z</time>
</trkpt>
<trkpt lat="37.964060" lon="-1.061191">
 <ele>138.620000</ele>
<time>2009-10-10T11:46:52Z</time>
</trkpt>
<trkpt lat="37.964062" lon="-1.061190">
 <ele>139.260000</ele>
<time>2009-10-10T11:46:53Z</time>
</trkpt>
<trkpt lat="37.964062" lon="-1.061190">
 <ele>139.100000</ele>
<time>2009-10-10T11:46:54Z</time>
</trkpt>
<trkpt lat="37.964055" lon="-1.061192">
 <ele>140.740000</ele>
<time>2009-10-10T11:47:01Z</time>
</trkpt>
<trkpt lat="37.964027" lon="-1.061244">
 <ele>146.920000</ele>
<time>2009-10-10T11:47:05Z</time>
</trkpt>
<trkpt lat="37.964018" lon="-1.061302">
 <ele>144.520000</ele>
<time>2009-10-10T11:47:09Z</time>
</trkpt>
<trkpt lat="37.963974" lon="-1.061412">
 <ele>144.500000</ele>
<time>2009-10-10T11:47:18Z</time>
</trkpt>
<trkpt lat="37.963944" lon="-1.061479">
 <ele>147.420000</ele>
<time>2009-10-10T11:47:23Z</time>
</trkpt>
<trkpt lat="37.963878" lon="-1.061901">
 <ele>150.060000</ele>
<time>2009-10-10T11:47:56Z</time>
</trkpt>
<trkpt lat="37.963906" lon="-1.061937">
 <ele>149.440000</ele>
<time>2009-10-10T11:48:02Z</time>
</trkpt>
<trkpt lat="37.963904" lon="-1.061942">
 <ele>149.520000</ele>
<time>2009-10-10T11:48:03Z</time>
</trkpt>
<trkpt lat="37.963902" lon="-1.061940">
 <ele>149.880000</ele>
<time>2009-10-10T11:48:04Z</time>
</trkpt>
<trkpt lat="37.963901" lon="-1.061937">
 <ele>149.540000</ele>
<time>2009-10-10T11:48:05Z</time>
</trkpt>
<trkpt lat="37.963907" lon="-1.061943">
 <ele>149.620000</ele>
<time>2009-10-10T11:48:06Z</time>
</trkpt>
<trkpt lat="37.963907" lon="-1.061943">
 <ele>149.700000</ele>
<time>2009-10-10T11:48:07Z</time>
</trkpt>
<trkpt lat="37.963902" lon="-1.061952">
 <ele>148.020000</ele>
<time>2009-10-10T11:48:09Z</time>
</trkpt>
<trkpt lat="37.963875" lon="-1.061981">
 <ele>146.860000</ele>
<time>2009-10-10T11:48:12Z</time>
</trkpt>
<trkpt lat="37.963888" lon="-1.061980">
 <ele>140.340000</ele>
<time>2009-10-10T11:48:13Z</time>
</trkpt>
<trkpt lat="37.963884" lon="-1.061987">
 <ele>143.000000</ele>
<time>2009-10-10T11:48:14Z</time>
</trkpt>
<trkpt lat="37.963881" lon="-1.061988">
 <ele>143.580000</ele>
<time>2009-10-10T11:48:15Z</time>
</trkpt>
<trkpt lat="37.963880" lon="-1.061988">
 <ele>142.940000</ele>
<time>2009-10-10T11:48:16Z</time>
</trkpt>
<trkpt lat="37.963845" lon="-1.062028">
 <ele>138.500000</ele>
<time>2009-10-10T11:48:21Z</time>
</trkpt>
<trkpt lat="37.963841" lon="-1.062037">
 <ele>139.920000</ele>
<time>2009-10-10T11:48:22Z</time>
</trkpt>
<trkpt lat="37.963780" lon="-1.062078">
 <ele>141.080000</ele>
<time>2009-10-10T11:48:28Z</time>
</trkpt>
<trkpt lat="37.963791" lon="-1.062081">
 <ele>141.940000</ele>
<time>2009-10-10T11:48:31Z</time>
</trkpt>
<trkpt lat="37.963795" lon="-1.062077">
 <ele>142.080000</ele>
<time>2009-10-10T11:48:32Z</time>
</trkpt>
<trkpt lat="37.963781" lon="-1.062073">
 <ele>142.600000</ele>
<time>2009-10-10T11:48:33Z</time>
</trkpt>
<trkpt lat="37.963737" lon="-1.062116">
 <ele>142.600000</ele>
<time>2009-10-10T11:48:36Z</time>
</trkpt>
<trkpt lat="37.963741" lon="-1.062115">
 <ele>143.000000</ele>
<time>2009-10-10T11:48:37Z</time>
</trkpt>
<trkpt lat="37.963734" lon="-1.062121">
 <ele>142.900000</ele>
<time>2009-10-10T11:48:38Z</time>
</trkpt>
<trkpt lat="37.963669" lon="-1.062190">
 <ele>141.920000</ele>
<time>2009-10-10T11:48:46Z</time>
</trkpt>
<trkpt lat="37.963641" lon="-1.062222">
 <ele>142.240000</ele>
<time>2009-10-10T11:48:49Z</time>
</trkpt>
<trkpt lat="37.963341" lon="-1.062557">
 <ele>144.500000</ele>
<time>2009-10-10T11:49:25Z</time>
</trkpt>
<trkpt lat="37.963271" lon="-1.062650">
 <ele>146.280000</ele>
<time>2009-10-10T11:49:35Z</time>
</trkpt>
<trkpt lat="37.962964" lon="-1.062989">
 <ele>144.900000</ele>
<time>2009-10-10T11:50:10Z</time>
</trkpt>
<trkpt lat="37.962889" lon="-1.062960">
 <ele>144.880000</ele>
<time>2009-10-10T11:50:16Z</time>
</trkpt>
<trkpt lat="37.962830" lon="-1.062992">
 <ele>145.240000</ele>
<time>2009-10-10T11:50:22Z</time>
</trkpt>
<trkpt lat="37.962716" lon="-1.063294">
 <ele>143.520000</ele>
<time>2009-10-10T11:50:47Z</time>
</trkpt>
<trkpt lat="37.962774" lon="-1.063378">
 <ele>142.180000</ele>
<time>2009-10-10T11:50:57Z</time>
</trkpt>
<trkpt lat="37.962792" lon="-1.063395">
 <ele>142.300000</ele>
<time>2009-10-10T11:50:59Z</time>
</trkpt>
<trkpt lat="37.962841" lon="-1.063392">
 <ele>140.160000</ele>
<time>2009-10-10T11:51:05Z</time>
</trkpt>
<trkpt lat="37.962855" lon="-1.063374">
 <ele>139.800000</ele>
<time>2009-10-10T11:51:08Z</time>
</trkpt>
<trkpt lat="37.962839" lon="-1.063398">
 <ele>141.280000</ele>
<time>2009-10-10T11:51:09Z</time>
</trkpt>
<trkpt lat="37.962850" lon="-1.063388">
 <ele>140.160000</ele>
<time>2009-10-10T11:51:10Z</time>
</trkpt>
<trkpt lat="37.962895" lon="-1.063376">
 <ele>141.120000</ele>
<time>2009-10-10T11:51:15Z</time>
</trkpt>
<trkpt lat="37.962900" lon="-1.063367">
 <ele>140.780000</ele>
<time>2009-10-10T11:51:16Z</time>
</trkpt>
<trkpt lat="37.962977" lon="-1.063319">
 <ele>141.740000</ele>
<time>2009-10-10T11:51:24Z</time>
</trkpt>
<trkpt lat="37.963020" lon="-1.063288">
 <ele>144.260000</ele>
<time>2009-10-10T11:51:29Z</time>
</trkpt>
<trkpt lat="37.963028" lon="-1.063294">
 <ele>143.500000</ele>
<time>2009-10-10T11:51:30Z</time>
</trkpt>
<trkpt lat="37.963052" lon="-1.063264">
 <ele>142.220000</ele>
<time>2009-10-10T11:51:32Z</time>
</trkpt>
<trkpt lat="37.963119" lon="-1.063233">
 <ele>137.780000</ele>
<time>2009-10-10T11:51:38Z</time>
</trkpt>
<trkpt lat="37.963131" lon="-1.063214">
 <ele>137.840000</ele>
<time>2009-10-10T11:51:39Z</time>
</trkpt>
<trkpt lat="37.963269" lon="-1.063072">
 <ele>132.820000</ele>
<time>2009-10-10T11:51:52Z</time>
</trkpt>
<trkpt lat="37.963297" lon="-1.063039">
 <ele>131.280000</ele>
<time>2009-10-10T11:51:57Z</time>
</trkpt>
<trkpt lat="37.963293" lon="-1.063044">
 <ele>131.600000</ele>
<time>2009-10-10T11:51:58Z</time>
</trkpt>
<trkpt lat="37.963297" lon="-1.063038">
 <ele>130.840000</ele>
<time>2009-10-10T11:51:59Z</time>
</trkpt>
<trkpt lat="37.963349" lon="-1.063013">
 <ele>130.380000</ele>
<time>2009-10-10T11:52:03Z</time>
</trkpt>
<trkpt lat="37.963368" lon="-1.063005">
 <ele>130.220000</ele>
<time>2009-10-10T11:52:05Z</time>
</trkpt>
<trkpt lat="37.963468" lon="-1.062965">
 <ele>127.900000</ele>
<time>2009-10-10T11:52:15Z</time>
</trkpt>
<trkpt lat="37.963496" lon="-1.062955">
 <ele>127.740000</ele>
<time>2009-10-10T11:52:17Z</time>
</trkpt>
<trkpt lat="37.963564" lon="-1.062942">
 <ele>127.340000</ele>
<time>2009-10-10T11:52:22Z</time>
</trkpt>
<trkpt lat="37.963656" lon="-1.062953">
 <ele>127.120000</ele>
<time>2009-10-10T11:52:29Z</time>
</trkpt>
<trkpt lat="37.963802" lon="-1.062949">
 <ele>128.800000</ele>
<time>2009-10-10T11:52:43Z</time>
</trkpt>
<trkpt lat="37.963903" lon="-1.062878">
 <ele>124.300000</ele>
<time>2009-10-10T11:52:52Z</time>
</trkpt>
<trkpt lat="37.963976" lon="-1.062814">
 <ele>121.820000</ele>
<time>2009-10-10T11:53:00Z</time>
</trkpt>
<trkpt lat="37.964044" lon="-1.062667">
 <ele>121.100000</ele>
<time>2009-10-10T11:53:12Z</time>
</trkpt>
<trkpt lat="37.964045" lon="-1.062669">
 <ele>122.260000</ele>
<time>2009-10-10T11:53:13Z</time>
</trkpt>
<trkpt lat="37.964066" lon="-1.062651">
 <ele>122.920000</ele>
<time>2009-10-10T11:53:15Z</time>
</trkpt>
<trkpt lat="37.964087" lon="-1.062588">
 <ele>123.080000</ele>
<time>2009-10-10T11:53:20Z</time>
</trkpt>
<trkpt lat="37.964086" lon="-1.062579">
 <ele>123.780000</ele>
<time>2009-10-10T11:53:22Z</time>
</trkpt>
<trkpt lat="37.964123" lon="-1.062449">
 <ele>126.000000</ele>
<time>2009-10-10T11:53:32Z</time>
</trkpt>
<trkpt lat="37.964127" lon="-1.062449">
 <ele>126.380000</ele>
<time>2009-10-10T11:53:33Z</time>
</trkpt>
<trkpt lat="37.964123" lon="-1.062448">
 <ele>125.960000</ele>
<time>2009-10-10T11:53:34Z</time>
</trkpt>
<trkpt lat="37.964143" lon="-1.062421">
 <ele>125.700000</ele>
<time>2009-10-10T11:53:35Z</time>
</trkpt>
<trkpt lat="37.964149" lon="-1.062340">
 <ele>123.900000</ele>
<time>2009-10-10T11:53:39Z</time>
</trkpt>
<trkpt lat="37.964141" lon="-1.062171">
 <ele>122.600000</ele>
<time>2009-10-10T11:53:49Z</time>
</trkpt>
<trkpt lat="37.964143" lon="-1.062142">
 <ele>123.120000</ele>
<time>2009-10-10T11:53:50Z</time>
</trkpt>
<trkpt lat="37.964177" lon="-1.061753">
 <ele>126.260000</ele>
<time>2009-10-10T11:54:18Z</time>
</trkpt>
<trkpt lat="37.964182" lon="-1.061736">
 <ele>126.720000</ele>
<time>2009-10-10T11:54:19Z</time>
</trkpt>
<trkpt lat="37.964182" lon="-1.061727">
 <ele>126.960000</ele>
<time>2009-10-10T11:54:21Z</time>
</trkpt>
<trkpt lat="37.964186" lon="-1.061725">
 <ele>127.360000</ele>
<time>2009-10-10T11:54:22Z</time>
</trkpt>
<trkpt lat="37.964188" lon="-1.061740">
 <ele>126.780000</ele>
<time>2009-10-10T11:54:23Z</time>
</trkpt>
<trkpt lat="37.964188" lon="-1.061731">
 <ele>127.820000</ele>
<time>2009-10-10T11:54:24Z</time>
</trkpt>
<trkpt lat="37.964207" lon="-1.061692">
 <ele>128.020000</ele>
<time>2009-10-10T11:54:27Z</time>
</trkpt>
<trkpt lat="37.964205" lon="-1.061712">
 <ele>129.440000</ele>
<time>2009-10-10T11:54:28Z</time>
</trkpt>
<trkpt lat="37.964210" lon="-1.061702">
 <ele>129.480000</ele>
<time>2009-10-10T11:54:29Z</time>
</trkpt>
<trkpt lat="37.964236" lon="-1.061665">
 <ele>132.300000</ele>
<time>2009-10-10T11:54:33Z</time>
</trkpt>
<trkpt lat="37.964236" lon="-1.061681">
 <ele>130.780000</ele>
<time>2009-10-10T11:54:34Z</time>
</trkpt>
<trkpt lat="37.964238" lon="-1.061665">
 <ele>131.780000</ele>
<time>2009-10-10T11:54:35Z</time>
</trkpt>
<trkpt lat="37.964297" lon="-1.061603">
 <ele>129.540000</ele>
<time>2009-10-10T11:54:38Z</time>
</trkpt>
<trkpt lat="37.964288" lon="-1.061600">
 <ele>129.320000</ele>
<time>2009-10-10T11:54:39Z</time>
</trkpt>
<trkpt lat="37.964303" lon="-1.061573">
 <ele>128.060000</ele>
<time>2009-10-10T11:54:41Z</time>
</trkpt>
<trkpt lat="37.964554" lon="-1.061268">
 <ele>112.880000</ele>
<time>2009-10-10T11:55:06Z</time>
</trkpt>
<trkpt lat="37.964621" lon="-1.061390">
 <ele>117.400000</ele>
<time>2009-10-10T11:55:17Z</time>
</trkpt>
<trkpt lat="37.964541" lon="-1.061896">
 <ele>117.440000</ele>
<time>2009-10-10T11:55:52Z</time>
</trkpt>
<trkpt lat="37.964603" lon="-1.062020">
 <ele>112.660000</ele>
<time>2009-10-10T11:56:04Z</time>
</trkpt>
<trkpt lat="37.964632" lon="-1.062105">
 <ele>109.560000</ele>
<time>2009-10-10T11:56:10Z</time>
</trkpt>
<trkpt lat="37.964634" lon="-1.062093">
 <ele>110.660000</ele>
<time>2009-10-10T11:56:11Z</time>
</trkpt>
<trkpt lat="37.964642" lon="-1.062115">
 <ele>109.860000</ele>
<time>2009-10-10T11:56:12Z</time>
</trkpt>
<trkpt lat="37.964640" lon="-1.062125">
 <ele>110.460000</ele>
<time>2009-10-10T11:56:13Z</time>
</trkpt>
<trkpt lat="37.964662" lon="-1.062174">
 <ele>109.080000</ele>
<time>2009-10-10T11:56:18Z</time>
</trkpt>
<trkpt lat="37.964668" lon="-1.062185">
 <ele>109.400000</ele>
<time>2009-10-10T11:56:19Z</time>
</trkpt>
<trkpt lat="37.964688" lon="-1.062187">
 <ele>110.880000</ele>
<time>2009-10-10T11:56:22Z</time>
</trkpt>
<trkpt lat="37.964685" lon="-1.062209">
 <ele>109.120000</ele>
<time>2009-10-10T11:56:23Z</time>
</trkpt>
<trkpt lat="37.964724" lon="-1.062252">
 <ele>109.940000</ele>
<time>2009-10-10T11:56:27Z</time>
</trkpt>
<trkpt lat="37.964763" lon="-1.062308">
 <ele>110.360000</ele>
<time>2009-10-10T11:56:33Z</time>
</trkpt>
<trkpt lat="37.964778" lon="-1.062327">
 <ele>110.580000</ele>
<time>2009-10-10T11:56:35Z</time>
</trkpt>
<trkpt lat="37.964965" lon="-1.062525">
 <ele>104.100000</ele>
<time>2009-10-10T11:56:56Z</time>
</trkpt>
<trkpt lat="37.965171" lon="-1.062414">
 <ele>111.240000</ele>
<time>2009-10-10T11:57:13Z</time>
</trkpt>
<trkpt lat="37.965271" lon="-1.062324">
 <ele>127.080000</ele>
<time>2009-10-10T11:57:24Z</time>
</trkpt>
<trkpt lat="37.965270" lon="-1.062325">
 <ele>123.140000</ele>
<time>2009-10-10T11:57:25Z</time>
</trkpt>
<trkpt lat="37.965289" lon="-1.062324">
 <ele>124.060000</ele>
<time>2009-10-10T11:57:26Z</time>
</trkpt>
<trkpt lat="37.965471" lon="-1.062278">
 <ele>108.220000</ele>
<time>2009-10-10T11:57:42Z</time>
</trkpt>
<trkpt lat="37.965563" lon="-1.062201">
 <ele>105.820000</ele>
<time>2009-10-10T11:57:52Z</time>
</trkpt>
<trkpt lat="37.965575" lon="-1.062192">
 <ele>105.840000</ele>
<time>2009-10-10T11:57:53Z</time>
</trkpt>
<trkpt lat="37.965666" lon="-1.062139">
 <ele>106.720000</ele>
<time>2009-10-10T11:58:01Z</time>
</trkpt>
<trkpt lat="37.965688" lon="-1.062136">
 <ele>106.580000</ele>
<time>2009-10-10T11:58:02Z</time>
</trkpt>
<trkpt lat="37.965761" lon="-1.062086">
 <ele>107.440000</ele>
<time>2009-10-10T11:58:09Z</time>
</trkpt>
<trkpt lat="37.965839" lon="-1.062060">
 <ele>108.380000</ele>
<time>2009-10-10T11:58:20Z</time>
</trkpt>
<trkpt lat="37.965850" lon="-1.062051">
 <ele>108.660000</ele>
<time>2009-10-10T11:58:21Z</time>
</trkpt>
<trkpt lat="37.966059" lon="-1.061934">
 <ele>113.980000</ele>
<time>2009-10-10T11:58:40Z</time>
</trkpt>
<trkpt lat="37.966165" lon="-1.061890">
 <ele>118.940000</ele>
<time>2009-10-10T11:58:50Z</time>
</trkpt>
<trkpt lat="37.966173" lon="-1.061881">
 <ele>119.600000</ele>
<time>2009-10-10T11:58:51Z</time>
</trkpt>
<trkpt lat="37.966174" lon="-1.061884">
 <ele>118.980000</ele>
<time>2009-10-10T11:58:52Z</time>
</trkpt>
<trkpt lat="37.966175" lon="-1.061885">
 <ele>119.840000</ele>
<time>2009-10-10T11:58:53Z</time>
</trkpt>
<trkpt lat="37.966168" lon="-1.061878">
 <ele>119.440000</ele>
<time>2009-10-10T11:58:54Z</time>
</trkpt>
<trkpt lat="37.966177" lon="-1.061878">
 <ele>119.520000</ele>
<time>2009-10-10T11:58:55Z</time>
</trkpt>
<trkpt lat="37.966177" lon="-1.061878">
 <ele>119.200000</ele>
<time>2009-10-10T11:58:56Z</time>
</trkpt>
<trkpt lat="37.966186" lon="-1.061873">
 <ele>119.760000</ele>
<time>2009-10-10T11:59:00Z</time>
</trkpt>
<trkpt lat="37.966236" lon="-1.061842">
 <ele>118.580000</ele>
<time>2009-10-10T11:59:03Z</time>
</trkpt>
<trkpt lat="37.966227" lon="-1.061840">
 <ele>119.940000</ele>
<time>2009-10-10T11:59:04Z</time>
</trkpt>
<trkpt lat="37.966225" lon="-1.061835">
 <ele>117.840000</ele>
<time>2009-10-10T11:59:05Z</time>
</trkpt>
<trkpt lat="37.966230" lon="-1.061840">
 <ele>120.000000</ele>
<time>2009-10-10T11:59:06Z</time>
</trkpt>
<trkpt lat="37.966275" lon="-1.061827">
 <ele>111.160000</ele>
<time>2009-10-10T11:59:09Z</time>
</trkpt>
<trkpt lat="37.966326" lon="-1.061806">
 <ele>112.940000</ele>
<time>2009-10-10T11:59:15Z</time>
</trkpt>
<trkpt lat="37.966313" lon="-1.061795">
 <ele>115.040000</ele>
<time>2009-10-10T11:59:18Z</time>
</trkpt>
<trkpt lat="37.966317" lon="-1.061784">
 <ele>116.040000</ele>
<time>2009-10-10T11:59:19Z</time>
</trkpt>
<trkpt lat="37.966328" lon="-1.061788">
 <ele>117.260000</ele>
<time>2009-10-10T11:59:20Z</time>
</trkpt>
<trkpt lat="37.966327" lon="-1.061786">
 <ele>116.480000</ele>
<time>2009-10-10T11:59:21Z</time>
</trkpt>
<trkpt lat="37.966321" lon="-1.061797">
 <ele>117.000000</ele>
<time>2009-10-10T11:59:22Z</time>
</trkpt>
<trkpt lat="37.966322" lon="-1.061788">
 <ele>117.400000</ele>
<time>2009-10-10T11:59:23Z</time>
</trkpt>
<trkpt lat="37.966322" lon="-1.061788">
 <ele>116.600000</ele>
<time>2009-10-10T11:59:24Z</time>
</trkpt>
<trkpt lat="37.966321" lon="-1.061787">
 <ele>118.760000</ele>
<time>2009-10-10T11:59:38Z</time>
</trkpt>
<trkpt lat="37.966323" lon="-1.061790">
 <ele>121.600000</ele>
<time>2009-10-10T11:59:39Z</time>
</trkpt>
<trkpt lat="37.966341" lon="-1.061806">
 <ele>123.860000</ele>
<time>2009-10-10T11:59:42Z</time>
</trkpt>
<trkpt lat="37.966351" lon="-1.061816">
 <ele>118.300000</ele>
<time>2009-10-10T11:59:43Z</time>
</trkpt>
<trkpt lat="37.966371" lon="-1.061875">
 <ele>115.280000</ele>
<time>2009-10-10T11:59:51Z</time>
</trkpt>
<trkpt lat="37.966368" lon="-1.061880">
 <ele>117.080000</ele>
<time>2009-10-10T11:59:53Z</time>
</trkpt>
<trkpt lat="37.966368" lon="-1.061873">
 <ele>115.600000</ele>
<time>2009-10-10T11:59:54Z</time>
</trkpt>
<trkpt lat="37.966374" lon="-1.061882">
 <ele>116.880000</ele>
<time>2009-10-10T11:59:55Z</time>
</trkpt>
<trkpt lat="37.966370" lon="-1.061883">
 <ele>117.280000</ele>
<time>2009-10-10T11:59:56Z</time>
</trkpt>
<trkpt lat="37.966384" lon="-1.061932">
 <ele>117.280000</ele>
<time>2009-10-10T11:59:58Z</time>
</trkpt>
<trkpt lat="37.966383" lon="-1.061931">
 <ele>118.460000</ele>
<time>2009-10-10T11:59:59Z</time>
</trkpt>
<trkpt lat="37.966390" lon="-1.061940">
 <ele>118.720000</ele>
<time>2009-10-10T12:00:00Z</time>
</trkpt>
<trkpt lat="37.966432" lon="-1.062051">
 <ele>115.440000</ele>
<time>2009-10-10T12:00:09Z</time>
</trkpt>
<trkpt lat="37.966464" lon="-1.062119">
 <ele>114.260000</ele>
<time>2009-10-10T12:00:14Z</time>
</trkpt>
<trkpt lat="37.966562" lon="-1.062366">
 <ele>112.300000</ele>
<time>2009-10-10T12:00:34Z</time>
</trkpt>
<trkpt lat="37.966643" lon="-1.062449">
 <ele>110.600000</ele>
<time>2009-10-10T12:00:42Z</time>
</trkpt>
<trkpt lat="37.966674" lon="-1.062543">
 <ele>107.840000</ele>
<time>2009-10-10T12:00:48Z</time>
</trkpt>
<trkpt lat="37.966728" lon="-1.062689">
 <ele>116.720000</ele>
<time>2009-10-10T12:01:01Z</time>
</trkpt>
<trkpt lat="37.966732" lon="-1.062703">
 <ele>118.840000</ele>
<time>2009-10-10T12:01:02Z</time>
</trkpt>
<trkpt lat="37.966731" lon="-1.062701">
 <ele>119.100000</ele>
<time>2009-10-10T12:01:03Z</time>
</trkpt>
<trkpt lat="37.966732" lon="-1.062710">
 <ele>121.240000</ele>
<time>2009-10-10T12:01:04Z</time>
</trkpt>
<trkpt lat="37.966734" lon="-1.062709">
 <ele>124.400000</ele>
<time>2009-10-10T12:01:05Z</time>
</trkpt>
<trkpt lat="37.966762" lon="-1.062740">
 <ele>127.380000</ele>
<time>2009-10-10T12:01:07Z</time>
</trkpt>
<trkpt lat="37.966756" lon="-1.062741">
 <ele>135.180000</ele>
<time>2009-10-10T12:01:08Z</time>
</trkpt>
<trkpt lat="37.966764" lon="-1.062744">
 <ele>136.000000</ele>
<time>2009-10-10T12:01:09Z</time>
</trkpt>
<trkpt lat="37.966759" lon="-1.062748">
 <ele>146.600000</ele>
<time>2009-10-10T12:01:11Z</time>
</trkpt>
<trkpt lat="37.966757" lon="-1.062741">
 <ele>146.180000</ele>
<time>2009-10-10T12:01:12Z</time>
</trkpt>
<trkpt lat="37.966752" lon="-1.062743">
 <ele>146.380000</ele>
<time>2009-10-10T12:01:13Z</time>
</trkpt>
<trkpt lat="37.966752" lon="-1.062748">
 <ele>150.240000</ele>
<time>2009-10-10T12:01:14Z</time>
</trkpt>
<trkpt lat="37.966775" lon="-1.062810">
 <ele>171.160000</ele>
<time>2009-10-10T12:01:18Z</time>
</trkpt>
<trkpt lat="37.966773" lon="-1.062806">
 <ele>168.160000</ele>
<time>2009-10-10T12:01:19Z</time>
</trkpt>
<trkpt lat="37.966774" lon="-1.062816">
 <ele>166.300000</ele>
<time>2009-10-10T12:01:20Z</time>
</trkpt>
<trkpt lat="37.966833" lon="-1.062915">
 <ele>180.200000</ele>
<time>2009-10-10T12:01:26Z</time>
</trkpt>
<trkpt lat="37.966857" lon="-1.062947">
 <ele>181.720000</ele>
<time>2009-10-10T12:01:29Z</time>
</trkpt>
<trkpt lat="37.966993" lon="-1.063130">
 <ele>163.960000</ele>
<time>2009-10-10T12:01:41Z</time>
</trkpt>
<trkpt lat="37.967043" lon="-1.063188">
 <ele>153.320000</ele>
<time>2009-10-10T12:01:46Z</time>
</trkpt>
<trkpt lat="37.967064" lon="-1.063210">
 <ele>148.300000</ele>
<time>2009-10-10T12:01:48Z</time>
</trkpt>
<trkpt lat="37.967077" lon="-1.063228">
 <ele>144.140000</ele>
<time>2009-10-10T12:01:49Z</time>
</trkpt>
<trkpt lat="37.967475" lon="-1.063886">
 <ele>92.900000</ele>
<time>2009-10-10T12:02:38Z</time>
</trkpt>
<trkpt lat="37.967510" lon="-1.063949">
 <ele>93.680000</ele>
<time>2009-10-10T12:02:45Z</time>
</trkpt>
<trkpt lat="37.967618" lon="-1.064132">
 <ele>94.900000</ele>
<time>2009-10-10T12:03:00Z</time>
</trkpt>
<trkpt lat="37.967685" lon="-1.064218">
 <ele>88.540000</ele>
<time>2009-10-10T12:03:06Z</time>
</trkpt>
<trkpt lat="37.967734" lon="-1.064328">
 <ele>102.300000</ele>
<time>2009-10-10T12:03:19Z</time>
</trkpt>
<trkpt lat="37.967741" lon="-1.064341">
 <ele>103.660000</ele>
<time>2009-10-10T12:03:20Z</time>
</trkpt>
<trkpt lat="37.967754" lon="-1.064380">
 <ele>116.080000</ele>
<time>2009-10-10T12:03:25Z</time>
</trkpt>
<trkpt lat="37.967770" lon="-1.064398">
 <ele>129.400000</ele>
<time>2009-10-10T12:03:28Z</time>
</trkpt>
<trkpt lat="37.967760" lon="-1.064391">
 <ele>133.160000</ele>
<time>2009-10-10T12:03:29Z</time>
</trkpt>
<trkpt lat="37.967773" lon="-1.064402">
 <ele>136.920000</ele>
<time>2009-10-10T12:03:30Z</time>
</trkpt>
<trkpt lat="37.967788" lon="-1.064440">
 <ele>150.180000</ele>
<time>2009-10-10T12:03:33Z</time>
</trkpt>
<trkpt lat="37.967786" lon="-1.064440">
 <ele>166.220000</ele>
<time>2009-10-10T12:03:36Z</time>
</trkpt>
<trkpt lat="37.967794" lon="-1.064416">
 <ele>173.080000</ele>
<time>2009-10-10T12:03:37Z</time>
</trkpt>
<trkpt lat="37.967789" lon="-1.064429">
 <ele>172.860000</ele>
<time>2009-10-10T12:03:38Z</time>
</trkpt>
<trkpt lat="37.967789" lon="-1.064411">
 <ele>168.960000</ele>
<time>2009-10-10T12:03:39Z</time>
</trkpt>
<trkpt lat="37.967790" lon="-1.064422">
 <ele>174.080000</ele>
<time>2009-10-10T12:03:40Z</time>
</trkpt>
<trkpt lat="37.967790" lon="-1.064422">
 <ele>169.200000</ele>
<time>2009-10-10T12:03:41Z</time>
</trkpt>
<trkpt lat="37.967795" lon="-1.064419">
 <ele>185.440000</ele>
<time>2009-10-10T12:03:52Z</time>
</trkpt>
<trkpt lat="37.967808" lon="-1.064439">
 <ele>177.320000</ele>
<time>2009-10-10T12:03:55Z</time>
</trkpt>
<trkpt lat="37.968056" lon="-1.065391">
 <ele>79.080000</ele>
<time>2009-10-10T12:04:35Z</time>
</trkpt>
<trkpt lat="37.968099" lon="-1.065470">
 <ele>78.880000</ele>
<time>2009-10-10T12:04:41Z</time>
</trkpt>
<trkpt lat="37.968153" lon="-1.065592">
 <ele>68.340000</ele>
<time>2009-10-10T12:04:48Z</time>
</trkpt>
<trkpt lat="37.968201" lon="-1.065730">
 <ele>64.320000</ele>
<time>2009-10-10T12:04:59Z</time>
</trkpt>
<trkpt lat="37.968230" lon="-1.065771">
 <ele>67.580000</ele>
<time>2009-10-10T12:05:03Z</time>
</trkpt>
<trkpt lat="37.968277" lon="-1.065860">
 <ele>68.800000</ele>
<time>2009-10-10T12:05:10Z</time>
</trkpt>
<trkpt lat="37.968327" lon="-1.065903">
 <ele>74.600000</ele>
<time>2009-10-10T12:05:17Z</time>
</trkpt>
<trkpt lat="37.968333" lon="-1.065909">
 <ele>76.240000</ele>
<time>2009-10-10T12:05:18Z</time>
</trkpt>
<trkpt lat="37.968409" lon="-1.066045">
 <ele>77.160000</ele>
<time>2009-10-10T12:05:28Z</time>
</trkpt>
<trkpt lat="37.968462" lon="-1.066100">
 <ele>76.180000</ele>
<time>2009-10-10T12:05:33Z</time>
</trkpt>
<trkpt lat="37.968658" lon="-1.066328">
 <ele>69.300000</ele>
<time>2009-10-10T12:05:55Z</time>
</trkpt>
<trkpt lat="37.968737" lon="-1.066386">
 <ele>73.360000</ele>
<time>2009-10-10T12:06:02Z</time>
</trkpt>
<trkpt lat="37.968773" lon="-1.066428">
 <ele>75.040000</ele>
<time>2009-10-10T12:06:06Z</time>
</trkpt>
<trkpt lat="37.968806" lon="-1.066495">
 <ele>75.540000</ele>
<time>2009-10-10T12:06:11Z</time>
</trkpt>
<trkpt lat="37.968827" lon="-1.066526">
 <ele>76.360000</ele>
<time>2009-10-10T12:06:14Z</time>
</trkpt>
<trkpt lat="37.968832" lon="-1.066535">
 <ele>77.700000</ele>
<time>2009-10-10T12:06:15Z</time>
</trkpt>
<trkpt lat="37.968869" lon="-1.066552">
 <ele>78.860000</ele>
<time>2009-10-10T12:06:19Z</time>
</trkpt>
<trkpt lat="37.968872" lon="-1.066568">
 <ele>79.420000</ele>
<time>2009-10-10T12:06:20Z</time>
</trkpt>
<trkpt lat="37.968879" lon="-1.066563">
 <ele>77.760000</ele>
<time>2009-10-10T12:06:21Z</time>
</trkpt>
<trkpt lat="37.968878" lon="-1.066568">
 <ele>77.820000</ele>
<time>2009-10-10T12:06:22Z</time>
</trkpt>
<trkpt lat="37.968908" lon="-1.066639">
 <ele>76.480000</ele>
<time>2009-10-10T12:06:27Z</time>
</trkpt>
<trkpt lat="37.968992" lon="-1.066723">
 <ele>83.680000</ele>
<time>2009-10-10T12:06:37Z</time>
</trkpt>
<trkpt lat="37.968997" lon="-1.066718">
 <ele>83.600000</ele>
<time>2009-10-10T12:06:38Z</time>
</trkpt>
<trkpt lat="37.969029" lon="-1.066744">
 <ele>82.800000</ele>
<time>2009-10-10T12:06:41Z</time>
</trkpt>
<trkpt lat="37.969057" lon="-1.066738">
 <ele>79.780000</ele>
<time>2009-10-10T12:06:42Z</time>
</trkpt>
<trkpt lat="37.969058" lon="-1.066752">
 <ele>80.680000</ele>
<time>2009-10-10T12:06:43Z</time>
</trkpt>
<trkpt lat="37.969080" lon="-1.066762">
 <ele>79.120000</ele>
<time>2009-10-10T12:06:45Z</time>
</trkpt>
<trkpt lat="37.969089" lon="-1.066775">
 <ele>78.480000</ele>
<time>2009-10-10T12:06:47Z</time>
</trkpt>
<trkpt lat="37.969129" lon="-1.066832">
 <ele>77.420000</ele>
<time>2009-10-10T12:06:51Z</time>
</trkpt>
<trkpt lat="37.969144" lon="-1.066891">
 <ele>76.080000</ele>
<time>2009-10-10T12:06:54Z</time>
</trkpt>
<trkpt lat="37.969294" lon="-1.067096">
 <ele>77.220000</ele>
<time>2009-10-10T12:07:14Z</time>
</trkpt>
<trkpt lat="37.969308" lon="-1.067113">
 <ele>78.240000</ele>
<time>2009-10-10T12:07:15Z</time>
</trkpt>
<trkpt lat="37.969335" lon="-1.067109">
 <ele>78.640000</ele>
<time>2009-10-10T12:07:17Z</time>
</trkpt>
<trkpt lat="37.969359" lon="-1.067129">
 <ele>77.160000</ele>
<time>2009-10-10T12:07:20Z</time>
</trkpt>
<trkpt lat="37.969377" lon="-1.067127">
 <ele>74.120000</ele>
<time>2009-10-10T12:07:21Z</time>
</trkpt>
<trkpt lat="37.969435" lon="-1.067116">
 <ele>78.900000</ele>
<time>2009-10-10T12:07:28Z</time>
</trkpt>
<trkpt lat="37.969454" lon="-1.067108">
 <ele>78.680000</ele>
<time>2009-10-10T12:07:29Z</time>
</trkpt>
<trkpt lat="37.969542" lon="-1.067017">
 <ele>88.880000</ele>
<time>2009-10-10T12:07:39Z</time>
</trkpt>
<trkpt lat="37.969545" lon="-1.067021">
 <ele>88.440000</ele>
<time>2009-10-10T12:07:40Z</time>
</trkpt>
<trkpt lat="37.969604" lon="-1.067025">
 <ele>88.320000</ele>
<time>2009-10-10T12:07:43Z</time>
</trkpt>
<trkpt lat="37.969650" lon="-1.067014">
 <ele>89.460000</ele>
<time>2009-10-10T12:07:48Z</time>
</trkpt>
<trkpt lat="37.969653" lon="-1.067021">
 <ele>89.340000</ele>
<time>2009-10-10T12:07:49Z</time>
</trkpt>
<trkpt lat="37.969668" lon="-1.067008">
 <ele>89.360000</ele>
<time>2009-10-10T12:07:51Z</time>
</trkpt>
<trkpt lat="37.969715" lon="-1.066981">
 <ele>87.840000</ele>
<time>2009-10-10T12:07:53Z</time>
</trkpt>
<trkpt lat="37.969812" lon="-1.066977">
 <ele>85.060000</ele>
<time>2009-10-10T12:08:02Z</time>
</trkpt>
<trkpt lat="37.969884" lon="-1.066964">
 <ele>81.060000</ele>
<time>2009-10-10T12:08:06Z</time>
</trkpt>
<trkpt lat="37.969965" lon="-1.066977">
 <ele>72.960000</ele>
<time>2009-10-10T12:08:12Z</time>
</trkpt>
<trkpt lat="37.970096" lon="-1.066976">
 <ele>72.000000</ele>
<time>2009-10-10T12:08:22Z</time>
</trkpt>
<trkpt lat="37.970164" lon="-1.066996">
 <ele>70.460000</ele>
<time>2009-10-10T12:08:27Z</time>
</trkpt>
<trkpt lat="37.970237" lon="-1.066986">
 <ele>69.680000</ele>
<time>2009-10-10T12:08:32Z</time>
</trkpt>
<trkpt lat="37.970268" lon="-1.067006">
 <ele>68.000000</ele>
<time>2009-10-10T12:08:36Z</time>
</trkpt>
<trkpt lat="37.970276" lon="-1.067001">
 <ele>68.460000</ele>
<time>2009-10-10T12:08:37Z</time>
</trkpt>
<trkpt lat="37.970364" lon="-1.066987">
 <ele>64.700000</ele>
<time>2009-10-10T12:08:45Z</time>
</trkpt>
<trkpt lat="37.970515" lon="-1.066953">
 <ele>62.780000</ele>
<time>2009-10-10T12:08:59Z</time>
</trkpt>
<trkpt lat="37.970516" lon="-1.066962">
 <ele>62.780000</ele>
<time>2009-10-10T12:09:00Z</time>
</trkpt>
<trkpt lat="37.970514" lon="-1.066960">
 <ele>63.320000</ele>
<time>2009-10-10T12:09:01Z</time>
</trkpt>
<trkpt lat="37.970521" lon="-1.066959">
 <ele>62.600000</ele>
<time>2009-10-10T12:09:02Z</time>
</trkpt>
<trkpt lat="37.970523" lon="-1.066958">
 <ele>63.000000</ele>
<time>2009-10-10T12:09:03Z</time>
</trkpt>
<trkpt lat="37.970523" lon="-1.066958">
 <ele>63.000000</ele>
<time>2009-10-10T12:09:04Z</time>
</trkpt>
<trkpt lat="37.970537" lon="-1.066956">
 <ele>63.600000</ele>
<time>2009-10-10T12:09:08Z</time>
</trkpt>
<trkpt lat="37.970699" lon="-1.066900">
 <ele>63.120000</ele>
<time>2009-10-10T12:09:17Z</time>
</trkpt>
<trkpt lat="37.970723" lon="-1.066908">
 <ele>62.040000</ele>
<time>2009-10-10T12:09:18Z</time>
</trkpt>
<trkpt lat="37.970776" lon="-1.066881">
 <ele>60.580000</ele>
<time>2009-10-10T12:09:22Z</time>
</trkpt>
<trkpt lat="37.970878" lon="-1.066873">
 <ele>57.680000</ele>
<time>2009-10-10T12:09:30Z</time>
</trkpt>
<trkpt lat="37.970916" lon="-1.066858">
 <ele>58.360000</ele>
<time>2009-10-10T12:09:33Z</time>
</trkpt>
<trkpt lat="37.971474" lon="-1.066502">
 <ele>63.440000</ele>
<time>2009-10-10T12:10:22Z</time>
</trkpt>
<trkpt lat="37.971533" lon="-1.066484">
 <ele>64.220000</ele>
<time>2009-10-10T12:10:26Z</time>
</trkpt>
<trkpt lat="37.971650" lon="-1.066369">
 <ele>60.740000</ele>
<time>2009-10-10T12:10:39Z</time>
</trkpt>
<trkpt lat="37.971680" lon="-1.066336">
 <ele>60.720000</ele>
<time>2009-10-10T12:10:42Z</time>
</trkpt>
<trkpt lat="37.971775" lon="-1.066237">
 <ele>59.580000</ele>
<time>2009-10-10T12:10:55Z</time>
</trkpt>
<trkpt lat="37.971782" lon="-1.066200">
 <ele>59.380000</ele>
<time>2009-10-10T12:10:56Z</time>
</trkpt>
<trkpt lat="37.971836" lon="-1.066150">
 <ele>59.200000</ele>
<time>2009-10-10T12:11:02Z</time>
</trkpt>
<trkpt lat="37.971872" lon="-1.066095">
 <ele>57.540000</ele>
<time>2009-10-10T12:11:07Z</time>
</trkpt>
<trkpt lat="37.971967" lon="-1.065860">
 <ele>55.700000</ele>
<time>2009-10-10T12:11:24Z</time>
</trkpt>
<trkpt lat="37.971970" lon="-1.065842">
 <ele>54.980000</ele>
<time>2009-10-10T12:11:26Z</time>
</trkpt>
<trkpt lat="37.972005" lon="-1.065782">
 <ele>56.280000</ele>
<time>2009-10-10T12:11:31Z</time>
</trkpt>
<trkpt lat="37.972012" lon="-1.065775">
 <ele>56.860000</ele>
<time>2009-10-10T12:11:33Z</time>
</trkpt>
<trkpt lat="37.972021" lon="-1.065760">
 <ele>57.360000</ele>
<time>2009-10-10T12:11:34Z</time>
</trkpt>
<trkpt lat="37.972471" lon="-1.065060">
 <ele>49.360000</ele>
<time>2009-10-10T12:12:31Z</time>
</trkpt>
<trkpt lat="37.972518" lon="-1.065003">
 <ele>49.040000</ele>
<time>2009-10-10T12:12:36Z</time>
</trkpt>
<trkpt lat="37.972748" lon="-1.064862">
 <ele>50.760000</ele>
<time>2009-10-10T12:12:59Z</time>
</trkpt>
<trkpt lat="37.972891" lon="-1.064871">
 <ele>49.680000</ele>
<time>2009-10-10T12:13:14Z</time>
</trkpt>
<trkpt lat="37.973001" lon="-1.064858">
 <ele>50.700000</ele>
<time>2009-10-10T12:13:23Z</time>
</trkpt>
<trkpt lat="37.973107" lon="-1.064806">
 <ele>52.600000</ele>
<time>2009-10-10T12:13:31Z</time>
</trkpt>
<trkpt lat="37.973641" lon="-1.064382">
 <ele>57.080000</ele>
<time>2009-10-10T12:14:21Z</time>
</trkpt>
<trkpt lat="37.973710" lon="-1.064299">
 <ele>55.720000</ele>
<time>2009-10-10T12:14:29Z</time>
</trkpt>
<trkpt lat="37.973735" lon="-1.064251">
 <ele>54.940000</ele>
<time>2009-10-10T12:14:33Z</time>
</trkpt>
<trkpt lat="37.973788" lon="-1.064198">
 <ele>55.940000</ele>
<time>2009-10-10T12:14:39Z</time>
</trkpt>
<trkpt lat="37.973811" lon="-1.064166">
 <ele>56.820000</ele>
<time>2009-10-10T12:14:41Z</time>
</trkpt>
<trkpt lat="37.973911" lon="-1.064028">
 <ele>53.900000</ele>
<time>2009-10-10T12:14:53Z</time>
</trkpt>
<trkpt lat="37.973959" lon="-1.063953">
 <ele>54.540000</ele>
<time>2009-10-10T12:14:59Z</time>
</trkpt>
<trkpt lat="37.974046" lon="-1.063885">
 <ele>56.360000</ele>
<time>2009-10-10T12:15:08Z</time>
</trkpt>
<trkpt lat="37.974194" lon="-1.063664">
 <ele>59.700000</ele>
<time>2009-10-10T12:15:27Z</time>
</trkpt>
<trkpt lat="37.974201" lon="-1.063655">
 <ele>60.960000</ele>
<time>2009-10-10T12:15:29Z</time>
</trkpt>
<trkpt lat="37.974209" lon="-1.063649">
 <ele>61.940000</ele>
<time>2009-10-10T12:15:30Z</time>
</trkpt>
<trkpt lat="37.974292" lon="-1.063538">
 <ele>69.460000</ele>
<time>2009-10-10T12:15:40Z</time>
</trkpt>
<trkpt lat="37.974390" lon="-1.063292">
 <ele>66.840000</ele>
<time>2009-10-10T12:15:59Z</time>
</trkpt>
<trkpt lat="37.974384" lon="-1.063294">
 <ele>67.520000</ele>
<time>2009-10-10T12:16:00Z</time>
</trkpt>
<trkpt lat="37.974384" lon="-1.063293">
 <ele>66.800000</ele>
<time>2009-10-10T12:16:01Z</time>
</trkpt>
<trkpt lat="37.974384" lon="-1.063288">
 <ele>67.100000</ele>
<time>2009-10-10T12:16:02Z</time>
</trkpt>
<trkpt lat="37.974437" lon="-1.063305">
 <ele>68.620000</ele>
<time>2009-10-10T12:16:06Z</time>
</trkpt>
<trkpt lat="37.974432" lon="-1.063300">
 <ele>68.800000</ele>
<time>2009-10-10T12:16:07Z</time>
</trkpt>
<trkpt lat="37.974420" lon="-1.063317">
 <ele>66.700000</ele>
<time>2009-10-10T12:16:08Z</time>
</trkpt>
<trkpt lat="37.974398" lon="-1.063300">
 <ele>66.560000</ele>
<time>2009-10-10T12:16:09Z</time>
</trkpt>
<trkpt lat="37.974362" lon="-1.063319">
 <ele>60.780000</ele>
<time>2009-10-10T12:16:14Z</time>
</trkpt>
<trkpt lat="37.974355" lon="-1.063308">
 <ele>59.940000</ele>
<time>2009-10-10T12:16:16Z</time>
</trkpt>
<trkpt lat="37.974364" lon="-1.063304">
 <ele>61.640000</ele>
<time>2009-10-10T12:16:17Z</time>
</trkpt>
<trkpt lat="37.974361" lon="-1.063301">
 <ele>60.220000</ele>
<time>2009-10-10T12:16:18Z</time>
</trkpt>
<trkpt lat="37.974363" lon="-1.063303">
 <ele>61.180000</ele>
<time>2009-10-10T12:16:19Z</time>
</trkpt>
<trkpt lat="37.974360" lon="-1.063302">
 <ele>61.100000</ele>
<time>2009-10-10T12:16:20Z</time>
</trkpt>
<trkpt lat="37.974360" lon="-1.063302">
 <ele>61.100000</ele>
<time>2009-10-10T12:16:21Z</time>
</trkpt>
<trkpt lat="37.974357" lon="-1.063341">
 <ele>62.260000</ele>
<time>2009-10-10T12:18:22Z</time>
</trkpt>
<trkpt lat="37.974343" lon="-1.063478">
 <ele>58.800000</ele>
<time>2009-10-10T12:18:25Z</time>
</trkpt>
<trkpt lat="37.974340" lon="-1.063494">
 <ele>63.820000</ele>
<time>2009-10-10T12:18:26Z</time>
</trkpt>
<trkpt lat="37.974345" lon="-1.063495">
 <ele>60.880000</ele>
<time>2009-10-10T12:18:27Z</time>
</trkpt>
<trkpt lat="37.974344" lon="-1.063507">
 <ele>61.060000</ele>
<time>2009-10-10T12:18:28Z</time>
</trkpt>
<trkpt lat="37.974343" lon="-1.063505">
 <ele>60.740000</ele>
<time>2009-10-10T12:18:29Z</time>
</trkpt>
<trkpt lat="37.974343" lon="-1.063505">
 <ele>61.300000</ele>
<time>2009-10-10T12:18:30Z</time>
</trkpt>
<trkpt lat="37.974341" lon="-1.063503">
 <ele>61.780000</ele>
<time>2009-10-10T12:18:37Z</time>
</trkpt>
<trkpt lat="37.974369" lon="-1.063480">
 <ele>66.900000</ele>
<time>2009-10-10T12:18:41Z</time>
</trkpt>
<trkpt lat="37.974367" lon="-1.063473">
 <ele>67.880000</ele>
<time>2009-10-10T12:18:42Z</time>
</trkpt>
<trkpt lat="37.974370" lon="-1.063450">
 <ele>69.140000</ele>
<time>2009-10-10T12:18:46Z</time>
</trkpt>
<trkpt lat="37.974373" lon="-1.063459">
 <ele>70.180000</ele>
<time>2009-10-10T12:18:47Z</time>
</trkpt>
<trkpt lat="37.974377" lon="-1.063447">
 <ele>69.000000</ele>
<time>2009-10-10T12:18:48Z</time>
</trkpt>
<trkpt lat="37.974371" lon="-1.063450">
 <ele>69.380000</ele>
<time>2009-10-10T12:18:49Z</time>
</trkpt>
<trkpt lat="37.974378" lon="-1.063440">
 <ele>71.260000</ele>
<time>2009-10-10T12:18:50Z</time>
</trkpt>
<trkpt lat="37.974381" lon="-1.063383">
 <ele>76.060000</ele>
<time>2009-10-10T12:18:54Z</time>
</trkpt>
<trkpt lat="37.974381" lon="-1.063370">
 <ele>74.120000</ele>
<time>2009-10-10T12:18:55Z</time>
</trkpt>
<trkpt lat="37.974389" lon="-1.063397">
 <ele>73.640000</ele>
<time>2009-10-10T12:18:56Z</time>
</trkpt>
<trkpt lat="37.974386" lon="-1.063381">
 <ele>73.540000</ele>
<time>2009-10-10T12:18:57Z</time>
</trkpt>
<trkpt lat="37.974385" lon="-1.063375">
 <ele>73.420000</ele>
<time>2009-10-10T12:18:58Z</time>
</trkpt>
<trkpt lat="37.974385" lon="-1.063373">
 <ele>73.340000</ele>
<time>2009-10-10T12:18:59Z</time>
</trkpt>
<trkpt lat="37.974385" lon="-1.063373">
 <ele>73.500000</ele>
<time>2009-10-10T12:19:00Z</time>
</trkpt>
<trkpt lat="37.974386" lon="-1.063360">
 <ele>70.900000</ele>
<time>2009-10-10T12:19:08Z</time>
</trkpt>
<trkpt lat="37.974416" lon="-1.063282">
 <ele>73.140000</ele>
<time>2009-10-10T12:19:11Z</time>
</trkpt>
<trkpt lat="37.974455" lon="-1.063174">
 <ele>71.120000</ele>
<time>2009-10-10T12:19:21Z</time>
</trkpt>
<trkpt lat="37.974466" lon="-1.063113">
 <ele>72.320000</ele>
<time>2009-10-10T12:19:26Z</time>
</trkpt>
<trkpt lat="37.974469" lon="-1.063113">
 <ele>72.360000</ele>
<time>2009-10-10T12:19:27Z</time>
</trkpt>
<trkpt lat="37.974472" lon="-1.063120">
 <ele>72.480000</ele>
<time>2009-10-10T12:19:28Z</time>
</trkpt>
<trkpt lat="37.974472" lon="-1.063118">
 <ele>71.900000</ele>
<time>2009-10-10T12:19:29Z</time>
</trkpt>
<trkpt lat="37.974496" lon="-1.063047">
 <ele>69.160000</ele>
<time>2009-10-10T12:19:34Z</time>
</trkpt>
<trkpt lat="37.974516" lon="-1.062991">
 <ele>69.820000</ele>
<time>2009-10-10T12:19:38Z</time>
</trkpt>
<trkpt lat="37.974578" lon="-1.062860">
 <ele>73.140000</ele>
<time>2009-10-10T12:19:47Z</time>
</trkpt>
<trkpt lat="37.974607" lon="-1.062750">
 <ele>76.320000</ele>
<time>2009-10-10T12:19:53Z</time>
</trkpt>
<trkpt lat="37.974646" lon="-1.062666">
 <ele>73.940000</ele>
<time>2009-10-10T12:19:59Z</time>
</trkpt>
<trkpt lat="37.974655" lon="-1.062633">
 <ele>71.720000</ele>
<time>2009-10-10T12:20:01Z</time>
</trkpt>
<trkpt lat="37.974685" lon="-1.062578">
 <ele>71.000000</ele>
<time>2009-10-10T12:20:06Z</time>
</trkpt>
<trkpt lat="37.974744" lon="-1.062464">
 <ele>66.240000</ele>
<time>2009-10-10T12:20:16Z</time>
</trkpt>
<trkpt lat="37.974744" lon="-1.062458">
 <ele>66.040000</ele>
<time>2009-10-10T12:20:17Z</time>
</trkpt>
<trkpt lat="37.974761" lon="-1.062413">
 <ele>65.500000</ele>
<time>2009-10-10T12:20:22Z</time>
</trkpt>
<trkpt lat="37.974756" lon="-1.062410">
 <ele>65.820000</ele>
<time>2009-10-10T12:20:23Z</time>
</trkpt>
<trkpt lat="37.974759" lon="-1.062416">
 <ele>65.280000</ele>
<time>2009-10-10T12:20:24Z</time>
</trkpt>
<trkpt lat="37.974766" lon="-1.062403">
 <ele>65.840000</ele>
<time>2009-10-10T12:20:25Z</time>
</trkpt>
<trkpt lat="37.974813" lon="-1.062215">
 <ele>68.860000</ele>
<time>2009-10-10T12:20:38Z</time>
</trkpt>
<trkpt lat="37.974820" lon="-1.062217">
 <ele>69.080000</ele>
<time>2009-10-10T12:20:39Z</time>
</trkpt>
<trkpt lat="37.974808" lon="-1.062216">
 <ele>68.480000</ele>
<time>2009-10-10T12:20:40Z</time>
</trkpt>
<trkpt lat="37.974803" lon="-1.062192">
 <ele>68.220000</ele>
<time>2009-10-10T12:20:42Z</time>
</trkpt>
<trkpt lat="37.974883" lon="-1.061908">
 <ele>64.440000</ele>
<time>2009-10-10T12:21:06Z</time>
</trkpt>
<trkpt lat="37.974873" lon="-1.061899">
 <ele>64.560000</ele>
<time>2009-10-10T12:21:07Z</time>
</trkpt>
<trkpt lat="37.974859" lon="-1.061891">
 <ele>64.900000</ele>
<time>2009-10-10T12:21:09Z</time>
</trkpt>
<trkpt lat="37.974847" lon="-1.061884">
 <ele>65.840000</ele>
<time>2009-10-10T12:21:11Z</time>
</trkpt>
<trkpt lat="37.974725" lon="-1.061769">
 <ele>72.260000</ele>
<time>2009-10-10T12:21:24Z</time>
</trkpt>
<trkpt lat="37.974726" lon="-1.061771">
 <ele>74.320000</ele>
<time>2009-10-10T12:21:25Z</time>
</trkpt>
<trkpt lat="37.974718" lon="-1.061765">
 <ele>74.360000</ele>
<time>2009-10-10T12:21:26Z</time>
</trkpt>
<trkpt lat="37.974684" lon="-1.061705">
 <ele>74.020000</ele>
<time>2009-10-10T12:21:31Z</time>
</trkpt>
<trkpt lat="37.974685" lon="-1.061708">
 <ele>73.320000</ele>
<time>2009-10-10T12:21:32Z</time>
</trkpt>
<trkpt lat="37.974681" lon="-1.061700">
 <ele>73.520000</ele>
<time>2009-10-10T12:21:33Z</time>
</trkpt>
<trkpt lat="37.974670" lon="-1.061636">
 <ele>69.720000</ele>
<time>2009-10-10T12:21:38Z</time>
</trkpt>
<trkpt lat="37.974673" lon="-1.061624">
 <ele>70.500000</ele>
<time>2009-10-10T12:21:39Z</time>
</trkpt>
<trkpt lat="37.974705" lon="-1.061423">
 <ele>67.320000</ele>
<time>2009-10-10T12:21:50Z</time>
</trkpt>
<trkpt lat="37.974708" lon="-1.061429">
 <ele>66.760000</ele>
<time>2009-10-10T12:21:51Z</time>
</trkpt>
<trkpt lat="37.974706" lon="-1.061417">
 <ele>66.960000</ele>
<time>2009-10-10T12:21:52Z</time>
</trkpt>
<trkpt lat="37.974724" lon="-1.061310">
 <ele>69.060000</ele>
<time>2009-10-10T12:21:56Z</time>
</trkpt>
<trkpt lat="37.974781" lon="-1.061119">
 <ele>72.220000</ele>
<time>2009-10-10T12:22:08Z</time>
</trkpt>
<trkpt lat="37.974845" lon="-1.061031">
 <ele>68.180000</ele>
<time>2009-10-10T12:22:15Z</time>
</trkpt>
<trkpt lat="37.974841" lon="-1.061032">
 <ele>68.320000</ele>
<time>2009-10-10T12:22:16Z</time>
</trkpt>
<trkpt lat="37.974842" lon="-1.061030">
 <ele>68.580000</ele>
<time>2009-10-10T12:22:17Z</time>
</trkpt>
<trkpt lat="37.974848" lon="-1.061036">
 <ele>68.040000</ele>
<time>2009-10-10T12:22:18Z</time>
</trkpt>
<trkpt lat="37.974847" lon="-1.061016">
 <ele>69.240000</ele>
<time>2009-10-10T12:22:19Z</time>
</trkpt>
<trkpt lat="37.974848" lon="-1.060952">
 <ele>73.020000</ele>
<time>2009-10-10T12:22:23Z</time>
</trkpt>
<trkpt lat="37.974865" lon="-1.060946">
 <ele>73.460000</ele>
<time>2009-10-10T12:22:24Z</time>
</trkpt>
<trkpt lat="37.974859" lon="-1.060900">
 <ele>75.600000</ele>
<time>2009-10-10T12:22:27Z</time>
</trkpt>
<trkpt lat="37.974868" lon="-1.060866">
 <ele>79.180000</ele>
<time>2009-10-10T12:22:29Z</time>
</trkpt>
<trkpt lat="37.974892" lon="-1.060790">
 <ele>84.900000</ele>
<time>2009-10-10T12:22:34Z</time>
</trkpt>
<trkpt lat="37.974923" lon="-1.060737">
 <ele>86.480000</ele>
<time>2009-10-10T12:22:37Z</time>
</trkpt>
<trkpt lat="37.974971" lon="-1.060685">
 <ele>80.100000</ele>
<time>2009-10-10T12:22:42Z</time>
</trkpt>
<trkpt lat="37.974970" lon="-1.060687">
 <ele>77.940000</ele>
<time>2009-10-10T12:22:43Z</time>
</trkpt>
<trkpt lat="37.974964" lon="-1.060675">
 <ele>77.000000</ele>
<time>2009-10-10T12:22:44Z</time>
</trkpt>
<trkpt lat="37.974966" lon="-1.060643">
 <ele>74.540000</ele>
<time>2009-10-10T12:22:46Z</time>
</trkpt>
<trkpt lat="37.974957" lon="-1.060654">
 <ele>74.660000</ele>
<time>2009-10-10T12:22:47Z</time>
</trkpt>
<trkpt lat="37.974961" lon="-1.060650">
 <ele>74.520000</ele>
<time>2009-10-10T12:22:48Z</time>
</trkpt>
<trkpt lat="37.974955" lon="-1.060655">
 <ele>74.960000</ele>
<time>2009-10-10T12:22:49Z</time>
</trkpt>
<trkpt lat="37.974958" lon="-1.060643">
 <ele>74.720000</ele>
<time>2009-10-10T12:22:50Z</time>
</trkpt>
<trkpt lat="37.974958" lon="-1.060643">
 <ele>75.200000</ele>
<time>2009-10-10T12:22:51Z</time>
</trkpt>
<trkpt lat="37.974969" lon="-1.060601">
 <ele>72.320000</ele>
<time>2009-10-10T12:23:13Z</time>
</trkpt>
<trkpt lat="37.974992" lon="-1.060354">
 <ele>72.600000</ele>
<time>2009-10-10T12:23:20Z</time>
</trkpt>
<trkpt lat="37.974996" lon="-1.060382">
 <ele>72.080000</ele>
<time>2009-10-10T12:23:21Z</time>
</trkpt>
<trkpt lat="37.975000" lon="-1.060378">
 <ele>73.020000</ele>
<time>2009-10-10T12:23:22Z</time>
</trkpt>
<trkpt lat="37.975000" lon="-1.060359">
 <ele>67.740000</ele>
<time>2009-10-10T12:23:27Z</time>
</trkpt>
<trkpt lat="37.974978" lon="-1.060354">
 <ele>68.000000</ele>
<time>2009-10-10T12:23:28Z</time>
</trkpt>
<trkpt lat="37.974993" lon="-1.060328">
 <ele>68.040000</ele>
<time>2009-10-10T12:23:30Z</time>
</trkpt>
<trkpt lat="37.975001" lon="-1.060348">
 <ele>68.840000</ele>
<time>2009-10-10T12:23:31Z</time>
</trkpt>
<trkpt lat="37.975021" lon="-1.060357">
 <ele>70.360000</ele>
<time>2009-10-10T12:23:34Z</time>
</trkpt>
<trkpt lat="37.975025" lon="-1.060339">
 <ele>69.000000</ele>
<time>2009-10-10T12:23:36Z</time>
</trkpt>
<trkpt lat="37.975046" lon="-1.060331">
 <ele>68.920000</ele>
<time>2009-10-10T12:23:39Z</time>
</trkpt>
<trkpt lat="37.975062" lon="-1.060319">
 <ele>67.120000</ele>
<time>2009-10-10T12:23:40Z</time>
</trkpt>
<trkpt lat="37.975073" lon="-1.060330">
 <ele>69.720000</ele>
<time>2009-10-10T12:23:41Z</time>
</trkpt>
<trkpt lat="37.975070" lon="-1.060340">
 <ele>72.600000</ele>
<time>2009-10-10T12:23:42Z</time>
</trkpt>
<trkpt lat="37.975066" lon="-1.060331">
 <ele>70.900000</ele>
<time>2009-10-10T12:23:43Z</time>
</trkpt>
<trkpt lat="37.975070" lon="-1.060333">
 <ele>70.900000</ele>
<time>2009-10-10T12:23:44Z</time>
</trkpt>
<trkpt lat="37.975075" lon="-1.060332">
 <ele>72.900000</ele>
<time>2009-10-10T12:23:45Z</time>
</trkpt>
<trkpt lat="37.975075" lon="-1.060332">
 <ele>71.300000</ele>
<time>2009-10-10T12:23:46Z</time>
</trkpt>
<trkpt lat="37.975075" lon="-1.060332">
 <ele>71.300000</ele>
<time>2009-10-10T12:23:47Z</time>
</trkpt>
<trkpt lat="37.975075" lon="-1.060332">
 <ele>71.300000</ele>
<time>2009-10-10T12:23:48Z</time>
</trkpt>
<trkpt lat="37.975075" lon="-1.060332">
 <ele>71.300000</ele>
<time>2009-10-10T12:23:49Z</time>
</trkpt>
<trkpt lat="37.975075" lon="-1.060332">
 <ele>71.300000</ele>
<time>2009-10-10T12:23:50Z</time>
</trkpt>
<trkpt lat="37.975075" lon="-1.060332">
 <ele>71.300000</ele>
<time>2009-10-10T12:23:51Z</time>
</trkpt>
<trkpt lat="37.975109" lon="-1.060284">
 <ele>81.660000</ele>
<time>2009-10-10T12:23:54Z</time>
</trkpt>
<trkpt lat="37.975125" lon="-1.060266">
 <ele>81.460000</ele>
<time>2009-10-10T12:23:56Z</time>
</trkpt>
<trkpt lat="37.975130" lon="-1.060257">
 <ele>75.440000</ele>
<time>2009-10-10T12:23:57Z</time>
</trkpt>
<trkpt lat="37.975146" lon="-1.060212">
 <ele>72.020000</ele>
<time>2009-10-10T12:24:02Z</time>
</trkpt>
<trkpt lat="37.975154" lon="-1.060207">
 <ele>70.040000</ele>
<time>2009-10-10T12:24:03Z</time>
</trkpt>
<trkpt lat="37.975167" lon="-1.060181">
 <ele>71.660000</ele>
<time>2009-10-10T12:24:06Z</time>
</trkpt>
<trkpt lat="37.975152" lon="-1.060165">
 <ele>72.840000</ele>
<time>2009-10-10T12:24:07Z</time>
</trkpt>
<trkpt lat="37.975158" lon="-1.060172">
 <ele>73.240000</ele>
<time>2009-10-10T12:24:08Z</time>
</trkpt>
<trkpt lat="37.975147" lon="-1.060170">
 <ele>72.480000</ele>
<time>2009-10-10T12:24:09Z</time>
</trkpt>
</trkseg>
</trk>
</gpx>
